<?xml version="1.0" encoding="UTF-8" standalone="no" ?><gpx xmlns="http://www.topografix.com/GPX/1/1" xmlns:gpxx="http://www.garmin.com/xmlschemas/GpxExtensions/v3" xmlns:wptx1="http://www.garmin.com/xmlschemas/WaypointExtension/v1" xmlns:gpxtpx="http://www.garmin.com/xmlschemas/TrackPointExtension/v1" creator="GuideVTT.com" version="1.1" xmlns:xsi="http://www.w3.org/2001/XMLSchema-instance" xsi:schemaLocation="http://www.topografix.com/GPX/1/1 http://www.topografix.com/GPX/1/1/gpx.xsd http://www.garmin.com/xmlschemas/GpxExtensions/v3 http://www8.garmin.com/xmlschemas/GpxExtensionsv3.xsd http://www.garmin.com/xmlschemas/WaypointExtension/v1 http://www8.garmin.com/xmlschemas/WaypointExtensionv1.xsd http://www.garmin.com/xmlschemas/TrackPointExtension/v1 http://www.garmin.com/xmlschemas/TrackPointExtensionv1.xsd">
<metadata><link href="http://www.garmin.com"><text>Garmin International</text></link><time>2013-06-22T15:13:50Z</time></metadata>
<trk><name>birthday_ride.gpx</name><extensions><gpxx:TrackExtension><gpxx:DisplayColor>Cyan</gpxx:DisplayColor></gpxx:TrackExtension></extensions><trkseg>
<trkpt lat="46.424760762602091" lon="6.236162194982171"><ele></ele><time>2015-8-24T15:17:23Z</time></trkpt>
<trkpt lat="46.424786243587732" lon="6.236141826957464"><ele></ele><time>2015-8-24T15:17:26Z</time></trkpt>
<trkpt lat="46.424948433414102" lon="6.236032946035266"><ele></ele><time>2015-8-24T15:17:29Z</time></trkpt>
<trkpt lat="46.424969807267189" lon="6.235989360138774"><ele></ele><time>2015-8-24T15:17:32Z</time></trkpt>
<trkpt lat="46.425005430355668" lon="6.235902439802885"><ele></ele><time>2015-8-24T15:17:35Z</time></trkpt>
<trkpt lat="46.425114311277866" lon="6.235845778137445"><ele></ele><time>2015-8-24T15:17:38Z</time></trkpt>
<trkpt lat="46.425154963508248" lon="6.235837396234274"><ele></ele><time>2015-8-24T15:17:41Z</time></trkpt>
<trkpt lat="46.425277339294553" lon="6.235839575529099"><ele></ele><time>2015-8-24T15:17:44Z</time></trkpt>
<trkpt lat="46.425355626270175" lon="6.235860530287027"><ele></ele><time>2015-8-24T15:17:47Z</time></trkpt>
<trkpt lat="46.425594007596374" lon="6.235865307971835"><ele></ele><time>2015-8-24T15:17:50Z</time></trkpt>
<trkpt lat="46.425633318722248" lon="6.235859608277678"><ele></ele><time>2015-8-24T15:17:53Z</time></trkpt>
<trkpt lat="46.425752090290189" lon="6.235875366255641"><ele></ele><time>2015-8-24T15:17:56Z</time></trkpt>
<trkpt lat="46.425836160778999" lon="6.235911911353469"><ele></ele><time>2015-8-24T15:17:59Z</time></trkpt>
<trkpt lat="46.426151068881154" lon="6.236143168061972"><ele></ele><time>2015-8-24T15:18:2Z</time></trkpt>
<trkpt lat="46.426465976983309" lon="6.236493196338415"><ele></ele><time>2015-8-24T15:18:5Z</time></trkpt>
<trkpt lat="46.426818519830704" lon="6.236825287342072"><ele></ele><time>2015-8-24T15:18:8Z</time></trkpt>
<trkpt lat="46.426865039393306" lon="6.236864430829883"><ele></ele><time>2015-8-24T15:18:11Z</time></trkpt>
<trkpt lat="46.426959754899144" lon="6.236934587359428"><ele></ele><time>2015-8-24T15:18:14Z</time></trkpt>
<trkpt lat="46.427058996632695" lon="6.236983872950077"><ele></ele><time>2015-8-24T15:18:17Z</time></trkpt>
<trkpt lat="46.427160082384944" lon="6.237003654241562"><ele></ele><time>2015-8-24T15:18:20Z</time></trkpt>
<trkpt lat="46.427209284156561" lon="6.237004408612847"><ele></ele><time>2015-8-24T15:18:23Z</time></trkpt>
<trkpt lat="46.42730450257659" lon="6.23699233867228"><ele></ele><time>2015-8-24T15:18:26Z</time></trkpt>
<trkpt lat="46.427395865321159" lon="6.236985297873616"><ele></ele><time>2015-8-24T15:18:29Z</time></trkpt>
<trkpt lat="46.427575657144189" lon="6.236980855464935"><ele></ele><time>2015-8-24T15:18:32Z</time></trkpt>
<trkpt lat="46.427713120356202" lon="6.236987225711346"><ele></ele><time>2015-8-24T15:18:35Z</time></trkpt>
<trkpt lat="46.427938677370548" lon="6.237085796892643"><ele></ele><time>2015-8-24T15:18:38Z</time></trkpt>
<trkpt lat="46.42798125743866" lon="6.237119659781456"><ele></ele><time>2015-8-24T15:18:41Z</time></trkpt>
<trkpt lat="46.428311252966523" lon="6.237358124926686"><ele></ele><time>2015-8-24T15:18:44Z</time></trkpt>
<trkpt lat="46.428394569084048" lon="6.237403722479939"><ele></ele><time>2015-8-24T15:18:47Z</time></trkpt>
<trkpt lat="46.428747195750475" lon="6.23760019429028"><ele></ele><time>2015-8-24T15:18:50Z</time></trkpt>
<trkpt lat="46.429099906235933" lon="6.23776825144887"><ele></ele><time>2015-8-24T15:18:53Z</time></trkpt>
<trkpt lat="46.429269053041935" lon="6.237802533432841"><ele></ele><time>2015-8-24T15:18:56Z</time></trkpt>
<trkpt lat="46.42935479991138" lon="6.237796917557716"><ele></ele><time>2015-8-24T15:18:59Z</time></trkpt>
<trkpt lat="46.429476588964462" lon="6.237807227298617"><ele></ele><time>2015-8-24T15:19:2Z</time></trkpt>
<trkpt lat="46.429591001942754" lon="6.237815273925662"><ele></ele><time>2015-8-24T15:19:5Z</time></trkpt>
<trkpt lat="46.429633246734738" lon="6.23781762085855"><ele></ele><time>2015-8-24T15:19:8Z</time></trkpt>
<trkpt lat="46.429880177602172" lon="6.237828768789768"><ele></ele><time>2015-8-24T15:19:11Z</time></trkpt>
<trkpt lat="46.429978245869279" lon="6.237842096015811"><ele></ele><time>2015-8-24T15:19:14Z</time></trkpt>
<trkpt lat="46.430164072662592" lon="6.237901942804456"><ele></ele><time>2015-8-24T15:19:17Z</time></trkpt>
<trkpt lat="46.430287454277277" lon="6.237971093505621"><ele></ele><time>2015-8-24T15:19:20Z</time></trkpt>
<trkpt lat="46.430425923317671" lon="6.238052230328321"><ele></ele><time>2015-8-24T15:19:23Z</time></trkpt>
<trkpt lat="46.430503455922008" lon="6.238115429878235"><ele></ele><time>2015-8-24T15:19:26Z</time></trkpt>
<trkpt lat="46.430523740127683" lon="6.238135294988751"><ele></ele><time>2015-8-24T15:19:29Z</time></trkpt>
<trkpt lat="46.430582078173757" lon="6.238181311637163"><ele></ele><time>2015-8-24T15:19:32Z</time></trkpt>
<trkpt lat="46.430629016831517" lon="6.238214671611786"><ele></ele><time>2015-8-24T15:19:35Z</time></trkpt>
<trkpt lat="46.430656593292952" lon="6.238231435418129"><ele></ele><time>2015-8-24T15:19:38Z</time></trkpt>
<trkpt lat="46.430729683488607" lon="6.238273680210114"><ele></ele><time>2015-8-24T15:19:41Z</time></trkpt>
<trkpt lat="46.430818447843194" lon="6.238293210044503"><ele></ele><time>2015-8-24T15:19:44Z</time></trkpt>
<trkpt lat="46.430839318782091" lon="6.238298323005438"><ele></ele><time>2015-8-24T15:19:47Z</time></trkpt>
<trkpt lat="46.430938895791769" lon="6.238330425694585"><ele></ele><time>2015-8-24T15:19:50Z</time></trkpt>
<trkpt lat="46.430971333757043" lon="6.238336628302932"><ele></ele><time>2015-8-24T15:19:53Z</time></trkpt>
<trkpt lat="46.4310322701931" lon="6.238354314118624"><ele></ele><time>2015-8-24T15:19:56Z</time></trkpt>
<trkpt lat="46.431090608239174" lon="6.238362193107605"><ele></ele><time>2015-8-24T15:19:59Z</time></trkpt>
<trkpt lat="46.431124974042177" lon="6.238360852003098"><ele></ele><time>2015-8-24T15:20:2Z</time></trkpt>
<trkpt lat="46.431191693991423" lon="6.238339813426137"><ele></ele><time>2015-8-24T15:20:5Z</time></trkpt>
<trkpt lat="46.431212397292256" lon="6.238330509513617"><ele></ele><time>2015-8-24T15:20:8Z</time></trkpt>
<trkpt lat="46.43132102675736" lon="6.238260855898261"><ele></ele><time>2015-8-24T15:20:11Z</time></trkpt>
<trkpt lat="46.431342652067542" lon="6.238273177295923"><ele></ele><time>2015-8-24T15:20:14Z</time></trkpt>
<trkpt lat="46.431368384510279" lon="6.238315673545003"><ele></ele><time>2015-8-24T15:20:17Z</time></trkpt>
<trkpt lat="46.431378526613116" lon="6.238331347703934"><ele></ele><time>2015-8-24T15:20:20Z</time></trkpt>
<trkpt lat="46.431402582675219" lon="6.238423883914948"><ele></ele><time>2015-8-24T15:20:23Z</time></trkpt>
<trkpt lat="46.431402498856187" lon="6.238442659378052"><ele></ele><time>2015-8-24T15:20:26Z</time></trkpt>
<trkpt lat="46.431408617645502" lon="6.238494124263525"><ele></ele><time>2015-8-24T15:20:29Z</time></trkpt>
<trkpt lat="46.431418173015118" lon="6.238536704331636"><ele></ele><time>2015-8-24T15:20:32Z</time></trkpt>
<trkpt lat="46.431459747254848" lon="6.238612560555339"><ele></ele><time>2015-8-24T15:20:35Z</time></trkpt>
<trkpt lat="46.431517414748669" lon="6.238689422607422"><ele></ele><time>2015-8-24T15:20:38Z</time></trkpt>
<trkpt lat="46.431544991210103" lon="6.238716412335634"><ele></ele><time>2015-8-24T15:20:41Z</time></trkpt>
<trkpt lat="46.431646328419447" lon="6.238807691261172"><ele></ele><time>2015-8-24T15:20:44Z</time></trkpt>
<trkpt lat="46.431772224605083" lon="6.238962421193719"><ele></ele><time>2015-8-24T15:20:47Z</time></trkpt>
<trkpt lat="46.431822264567018" lon="6.239072643220425"><ele></ele><time>2015-8-24T15:20:50Z</time></trkpt>
<trkpt lat="46.43200951628387" lon="6.239454774186015"><ele></ele><time>2015-8-24T15:20:53Z</time></trkpt>
<trkpt lat="46.432036003097892" lon="6.23952928930521"><ele></ele><time>2015-8-24T15:20:56Z</time></trkpt>
<trkpt lat="46.432071458548307" lon="6.239686533808708"><ele></ele><time>2015-8-24T15:20:59Z</time></trkpt>
<trkpt lat="46.432119654491544" lon="6.23981611803174"><ele></ele><time>2015-8-24T15:21:2Z</time></trkpt>
<trkpt lat="46.432196851819754" lon="6.240021893754601"><ele></ele><time>2015-8-24T15:21:5Z</time></trkpt>
<trkpt lat="46.432306487113237" lon="6.240411987528205"><ele></ele><time>2015-8-24T15:21:8Z</time></trkpt>
<trkpt lat="46.432337500154972" lon="6.240467643365264"><ele></ele><time>2015-8-24T15:21:11Z</time></trkpt>
<trkpt lat="46.432411093264818" lon="6.240601167082787"><ele></ele><time>2015-8-24T15:21:14Z</time></trkpt>
<trkpt lat="46.432441351935267" lon="6.240685572847724"><ele></ele><time>2015-8-24T15:21:17Z</time></trkpt>
<trkpt lat="46.432463899254799" lon="6.240780791267753"><ele></ele><time>2015-8-24T15:21:20Z</time></trkpt>
<trkpt lat="46.432523746043444" lon="6.241056388244033"><ele></ele><time>2015-8-24T15:21:23Z</time></trkpt>
<trkpt lat="46.432554507628083" lon="6.241129813715816"><ele></ele><time>2015-8-24T15:21:26Z</time></trkpt>
<trkpt lat="46.432588119059801" lon="6.241198712959886"><ele></ele><time>2015-8-24T15:21:29Z</time></trkpt>
<trkpt lat="46.432650648057461" lon="6.241313125938177"><ele></ele><time>2015-8-24T15:21:32Z</time></trkpt>
<trkpt lat="46.432714015245438" lon="6.241405243054032"><ele></ele><time>2015-8-24T15:21:35Z</time></trkpt>
<trkpt lat="46.43274687230587" lon="6.241445057094097"><ele></ele><time>2015-8-24T15:21:38Z</time></trkpt>
<trkpt lat="46.432785848155618" lon="6.241475567221642"><ele></ele><time>2015-8-24T15:21:41Z</time></trkpt>
<trkpt lat="46.432875283062458" lon="6.24147648923099"><ele></ele><time>2015-8-24T15:21:44Z</time></trkpt>
<trkpt lat="46.433000257238746" lon="6.241421671584249"><ele></ele><time>2015-8-24T15:21:47Z</time></trkpt>
<trkpt lat="46.433030096814036" lon="6.241411613300443"><ele></ele><time>2015-8-24T15:21:50Z</time></trkpt>
<trkpt lat="46.433059433475137" lon="6.241408931091428"><ele></ele><time>2015-8-24T15:21:53Z</time></trkpt>
<trkpt lat="46.433101510629058" lon="6.241400968283415"><ele></ele><time>2015-8-24T15:21:56Z</time></trkpt>
<trkpt lat="46.433137385174632" lon="6.241394262760878"><ele></ele><time>2015-8-24T15:21:59Z</time></trkpt>
<trkpt lat="46.433156663551927" lon="6.241397950798273"><ele></ele><time>2015-8-24T15:22:2Z</time></trkpt>
<trkpt lat="46.433201171457767" lon="6.241398621350527"><ele></ele><time>2015-8-24T15:22:5Z</time></trkpt>
<trkpt lat="46.433243667706847" lon="6.24135528691113"><ele></ele><time>2015-8-24T15:22:8Z</time></trkpt>
<trkpt lat="46.433323966339231" lon="6.241236263886094"><ele></ele><time>2015-8-24T15:22:11Z</time></trkpt>
<trkpt lat="46.433349195867777" lon="6.241201814264059"><ele></ele><time>2015-8-24T15:22:14Z</time></trkpt>
<trkpt lat="46.43344072625041" lon="6.241037109866738"><ele></ele><time>2015-8-24T15:22:17Z</time></trkpt>
<trkpt lat="46.43345246091485" lon="6.241003414615989"><ele></ele><time>2015-8-24T15:22:20Z</time></trkpt>
<trkpt lat="46.433488084003329" lon="6.240905178710818"><ele></ele><time>2015-8-24T15:22:23Z</time></trkpt>
<trkpt lat="46.433543656021357" lon="6.240761261433363"><ele></ele><time>2015-8-24T15:22:26Z</time></trkpt>
<trkpt lat="46.433630995452404" lon="6.240570656955242"><ele></ele><time>2015-8-24T15:22:29Z</time></trkpt>
<trkpt lat="46.433711964637041" lon="6.240385919809341"><ele></ele><time>2015-8-24T15:22:32Z</time></trkpt>
<trkpt lat="46.433754963800311" lon="6.240193974226713"><ele></ele><time>2015-8-24T15:22:35Z</time></trkpt>
<trkpt lat="46.433841632679105" lon="6.239931201562285"><ele></ele><time>2015-8-24T15:22:38Z</time></trkpt>
<trkpt lat="46.433889074251056" lon="6.23988987877965"><ele></ele><time>2015-8-24T15:22:41Z</time></trkpt>
<trkpt lat="46.433928217738867" lon="6.23995391651988"><ele></ele><time>2015-8-24T15:22:44Z</time></trkpt>
<trkpt lat="46.433964679017663" lon="6.24001300893724"><ele></ele><time>2015-8-24T15:22:47Z</time></trkpt>
<trkpt lat="46.434113038703799" lon="6.240197913721204"><ele></ele><time>2015-8-24T15:22:50Z</time></trkpt>
<trkpt lat="46.434260560199618" lon="6.240388434380293"><ele></ele><time>2015-8-24T15:22:53Z</time></trkpt>
<trkpt lat="46.434301296249032" lon="6.24043227173388"><ele></ele><time>2015-8-24T15:22:56Z</time></trkpt>
<trkpt lat="46.434464324265718" lon="6.240619607269764"><ele></ele><time>2015-8-24T15:22:59Z</time></trkpt>
<trkpt lat="46.434551412239671" lon="6.240697558969259"><ele></ele><time>2015-8-24T15:23:2Z</time></trkpt>
<trkpt lat="46.434598518535495" lon="6.240726560354233"><ele></ele><time>2015-8-24T15:23:5Z</time></trkpt>
<trkpt lat="46.434701699763536" lon="6.240791520103812"><ele></ele><time>2015-8-24T15:23:8Z</time></trkpt>
<trkpt lat="46.434752075001597" lon="6.240810882300138"><ele></ele><time>2015-8-24T15:23:11Z</time></trkpt>
<trkpt lat="46.434849807992578" lon="6.240837033838034"><ele></ele><time>2015-8-24T15:23:14Z</time></trkpt>
<trkpt lat="46.435042759403586" lon="6.240952452644706"><ele></ele><time>2015-8-24T15:23:17Z</time></trkpt>
<trkpt lat="46.435089614242315" lon="6.240988243371248"><ele></ele><time>2015-8-24T15:23:20Z</time></trkpt>
<trkpt lat="46.435258677229285" lon="6.241082120686769"><ele></ele><time>2015-8-24T15:23:23Z</time></trkpt>
<trkpt lat="46.435376862064004" lon="6.241102740168571"><ele></ele><time>2015-8-24T15:23:26Z</time></trkpt>
<trkpt lat="46.43541625700891" lon="6.241127466782928"><ele></ele><time>2015-8-24T15:23:29Z</time></trkpt>
<trkpt lat="46.435543326660991" lon="6.241308515891433"><ele></ele><time>2015-8-24T15:23:32Z</time></trkpt>
<trkpt lat="46.43557601608336" lon="6.241469867527485"><ele></ele><time>2015-8-24T15:23:35Z</time></trkpt>
<trkpt lat="46.435705684125423" lon="6.241673799231648"><ele></ele><time>2015-8-24T15:23:38Z</time></trkpt>
<trkpt lat="46.435838453471661" lon="6.241821404546499"><ele></ele><time>2015-8-24T15:23:41Z</time></trkpt>
<trkpt lat="46.4358951151371" lon="6.241833390668035"><ele></ele><time>2015-8-24T15:23:44Z</time></trkpt>
<trkpt lat="46.436028806492686" lon="6.241842862218618"><ele></ele><time>2015-8-24T15:23:47Z</time></trkpt>
<trkpt lat="46.436153696849942" lon="6.241825008764863"><ele></ele><time>2015-8-24T15:23:50Z</time></trkpt>
<trkpt lat="46.436176747083664" lon="6.24181947670877"><ele></ele><time>2015-8-24T15:23:53Z</time></trkpt>
<trkpt lat="46.436286633834243" lon="6.241777231916785"><ele></ele><time>2015-8-24T15:23:56Z</time></trkpt>
<trkpt lat="46.436305409297347" lon="6.241763737052679"><ele></ele><time>2015-8-24T15:23:59Z</time></trkpt>
<trkpt lat="46.436375314369798" lon="6.241712523624301"><ele></ele><time>2015-8-24T15:24:2Z</time></trkpt>
<trkpt lat="46.436473885551095" lon="6.241655694320798"><ele></ele><time>2015-8-24T15:24:5Z</time></trkpt>
<trkpt lat="46.436550412327051" lon="6.241587549448013"><ele></ele><time>2015-8-24T15:24:8Z</time></trkpt>
<trkpt lat="46.436566337943077" lon="6.241568773984909"><ele></ele><time>2015-8-24T15:24:11Z</time></trkpt>
<trkpt lat="46.436597099527717" lon="6.241532228887081"><ele></ele><time>2015-8-24T15:24:14Z</time></trkpt>
<trkpt lat="46.436657197773457" lon="6.241476405411959"><ele></ele><time>2015-8-24T15:24:17Z</time></trkpt>
<trkpt lat="46.436708075925708" lon="6.241412116214633"><ele></ele><time>2015-8-24T15:24:20Z</time></trkpt>
<trkpt lat="46.43676876090467" lon="6.241305749863386"><ele></ele><time>2015-8-24T15:24:23Z</time></trkpt>
<trkpt lat="46.43686305731535" lon="6.241210866719484"><ele></ele><time>2015-8-24T15:24:26Z</time></trkpt>
<trkpt lat="46.436873534694314" lon="6.241193180903792"><ele></ele><time>2015-8-24T15:24:29Z</time></trkpt>
<trkpt lat="46.436929358169436" lon="6.241127718240023"><ele></ele><time>2015-8-24T15:24:32Z</time></trkpt>
<trkpt lat="46.436984343454242" lon="6.241055382415652"><ele></ele><time>2015-8-24T15:24:35Z</time></trkpt>
<trkpt lat="46.436995072290301" lon="6.2410425581038"><ele></ele><time>2015-8-24T15:24:38Z</time></trkpt>
<trkpt lat="46.437063720077276" lon="6.240969384089112"><ele></ele><time>2015-8-24T15:24:41Z</time></trkpt>
<trkpt lat="46.437079980969429" lon="6.240952704101801"><ele></ele><time>2015-8-24T15:24:44Z</time></trkpt>
<trkpt lat="46.437158351764083" lon="6.240878775715828"><ele></ele><time>2015-8-24T15:24:47Z</time></trkpt>
<trkpt lat="46.437203027307987" lon="6.240830244496465"><ele></ele><time>2015-8-24T15:24:50Z</time></trkpt>
<trkpt lat="46.437228005379438" lon="6.240800740197301"><ele></ele><time>2015-8-24T15:24:53Z</time></trkpt>
<trkpt lat="46.437314674258232" lon="6.240750448778272"><ele></ele><time>2015-8-24T15:24:56Z</time></trkpt>
<trkpt lat="46.437332276254892" lon="6.24073963612318"><ele></ele><time>2015-8-24T15:24:59Z</time></trkpt>
<trkpt lat="46.43740645609796" lon="6.240689009428024"><ele></ele><time>2015-8-24T15:25:2Z</time></trkpt>
<trkpt lat="46.437469655647874" lon="6.240654811263084"><ele></ele><time>2015-8-24T15:25:5Z</time></trkpt>
<trkpt lat="46.437541404739022" lon="6.240629330277443"><ele></ele><time>2015-8-24T15:25:8Z</time></trkpt>
<trkpt lat="46.437566801905632" lon="6.240627905353904"><ele></ele><time>2015-8-24T15:25:11Z</time></trkpt>
<trkpt lat="46.437699822708964" lon="6.240596808493137"><ele></ele><time>2015-8-24T15:25:14Z</time></trkpt>
<trkpt lat="46.437725303694606" lon="6.240576859563589"><ele></ele><time>2015-8-24T15:25:17Z</time></trkpt>
<trkpt lat="46.43781247548759" lon="6.240571578964591"><ele></ele><time>2015-8-24T15:25:20Z</time></trkpt>
<trkpt lat="46.437837956473231" lon="6.240576691925526"><ele></ele><time>2015-8-24T15:25:23Z</time></trkpt>
<trkpt lat="46.437923284247518" lon="6.240575350821018"><ele></ele><time>2015-8-24T15:25:26Z</time></trkpt>
<trkpt lat="46.437947256490588" lon="6.240565292537212"><ele></ele><time>2015-8-24T15:25:29Z</time></trkpt>
<trkpt lat="46.437971731647849" lon="6.240556240081787"><ele></ele><time>2015-8-24T15:25:32Z</time></trkpt>
<trkpt lat="46.438086312264204" lon="6.240527993068099"><ele></ele><time>2015-8-24T15:25:35Z</time></trkpt>
<trkpt lat="46.438114224001765" lon="6.240515671670437"><ele></ele><time>2015-8-24T15:25:38Z</time></trkpt>
<trkpt lat="46.438264343887568" lon="6.240486586466432"><ele></ele><time>2015-8-24T15:25:41Z</time></trkpt>
<trkpt lat="46.438349252566695" lon="6.240424392744899"><ele></ele><time>2015-8-24T15:25:44Z</time></trkpt>
<trkpt lat="46.438374230638146" lon="6.240395726636052"><ele></ele><time>2015-8-24T15:25:47Z</time></trkpt>
<trkpt lat="46.438482441008091" lon="6.240288857370615"><ele></ele><time>2015-8-24T15:25:50Z</time></trkpt>
<trkpt lat="46.438505658879876" lon="6.240260023623705"><ele></ele><time>2015-8-24T15:25:53Z</time></trkpt>
<trkpt lat="46.438578916713595" lon="6.240152567625046"><ele></ele><time>2015-8-24T15:25:56Z</time></trkpt>
<trkpt lat="46.438659969717264" lon="6.24005408026278"><ele></ele><time>2015-8-24T15:25:59Z</time></trkpt>
<trkpt lat="46.438729455694556" lon="6.239951234310865"><ele></ele><time>2015-8-24T15:26:2Z</time></trkpt>
<trkpt lat="46.438755607232451" lon="6.239920472726226"><ele></ele><time>2015-8-24T15:26:5Z</time></trkpt>
<trkpt lat="46.438791733235121" lon="6.239867666736245"><ele></ele><time>2015-8-24T15:26:8Z</time></trkpt>
<trkpt lat="46.438848981633782" lon="6.239795917645097"><ele></ele><time>2015-8-24T15:26:11Z</time></trkpt>
<trkpt lat="46.438905224204063" lon="6.239728694781661"><ele></ele><time>2015-8-24T15:26:14Z</time></trkpt>
<trkpt lat="46.438931375741959" lon="6.239714445546269"><ele></ele><time>2015-8-24T15:26:17Z</time></trkpt>
<trkpt lat="46.438980661332607" lon="6.239715032279491"><ele></ele><time>2015-8-24T15:26:20Z</time></trkpt>
<trkpt lat="46.439040256664157" lon="6.23971302062273"><ele></ele><time>2015-8-24T15:26:23Z</time></trkpt>
<trkpt lat="46.43911711871624" lon="6.239687539637089"><ele></ele><time>2015-8-24T15:26:26Z</time></trkpt>
<trkpt lat="46.439258437603712" lon="6.23966415412724"><ele></ele><time>2015-8-24T15:26:29Z</time></trkpt>
<trkpt lat="46.43932675011456" lon="6.239633476361632"><ele></ele><time>2015-8-24T15:26:32Z</time></trkpt>
<trkpt lat="46.439373437315226" lon="6.239610593765974"><ele></ele><time>2015-8-24T15:26:35Z</time></trkpt>
<trkpt lat="46.439449461176991" lon="6.23960942029953"><ele></ele><time>2015-8-24T15:26:38Z</time></trkpt>
<trkpt lat="46.439476367086172" lon="6.239610761404037"><ele></ele><time>2015-8-24T15:26:41Z</time></trkpt>
<trkpt lat="46.439590025693178" lon="6.239575557410717"><ele></ele><time>2015-8-24T15:26:44Z</time></trkpt>
<trkpt lat="46.43968440592289" lon="6.239551585167646"><ele></ele><time>2015-8-24T15:26:47Z</time></trkpt>
<trkpt lat="46.43969907425344" lon="6.239554015919566"><ele></ele><time>2015-8-24T15:26:50Z</time></trkpt>
<trkpt lat="46.439796555787325" lon="6.239486457780004"><ele></ele><time>2015-8-24T15:26:53Z</time></trkpt>
<trkpt lat="46.439815247431397" lon="6.239471957087517"><ele></ele><time>2015-8-24T15:26:56Z</time></trkpt>
<trkpt lat="46.43993167206645" lon="6.239361148327589"><ele></ele><time>2015-8-24T15:26:59Z</time></trkpt>
<trkpt lat="46.43994927406311" lon="6.239358382299542"><ele></ele><time>2015-8-24T15:27:2Z</time></trkpt>
<trkpt lat="46.440036445856094" lon="6.239337176084518"><ele></ele><time>2015-8-24T15:27:5Z</time></trkpt>
<trkpt lat="46.440107524394989" lon="6.239307420328259"><ele></ele><time>2015-8-24T15:27:8Z</time></trkpt>
<trkpt lat="46.440203078091145" lon="6.239280262961984"><ele></ele><time>2015-8-24T15:27:11Z</time></trkpt>
<trkpt lat="46.440264852717519" lon="6.239260481670499"><ele></ele><time>2015-8-24T15:27:14Z</time></trkpt>
<trkpt lat="46.440344732254744" lon="6.239229552447796"><ele></ele><time>2015-8-24T15:27:17Z</time></trkpt>
<trkpt lat="46.44044523127377" lon="6.239139614626765"><ele></ele><time>2015-8-24T15:27:20Z</time></trkpt>
<trkpt lat="46.44046182744205" lon="6.239115810021758"><ele></ele><time>2015-8-24T15:27:23Z</time></trkpt>
<trkpt lat="46.440581772476435" lon="6.238944064825773"><ele></ele><time>2015-8-24T15:27:26Z</time></trkpt>
<trkpt lat="46.440616976469755" lon="6.238905340433121"><ele></ele><time>2015-8-24T15:27:29Z</time></trkpt>
<trkpt lat="46.440675230696797" lon="6.238849014043808"><ele></ele><time>2015-8-24T15:27:32Z</time></trkpt>
<trkpt lat="46.440839851275086" lon="6.238660169765353"><ele></ele><time>2015-8-24T15:27:35Z</time></trkpt>
<trkpt lat="46.440954096615314" lon="6.238470571115613"><ele></ele><time>2015-8-24T15:27:38Z</time></trkpt>
<trkpt lat="46.441003549844027" lon="6.238391948863864"><ele></ele><time>2015-8-24T15:27:41Z</time></trkpt>
<trkpt lat="46.441124500706792" lon="6.238197069615126"><ele></ele><time>2015-8-24T15:27:44Z</time></trkpt>
<trkpt lat="46.441172361373901" lon="6.23811568133533"><ele></ele><time>2015-8-24T15:27:47Z</time></trkpt>
<trkpt lat="46.441343771293759" lon="6.237843856215477"><ele></ele><time>2015-8-24T15:27:50Z</time></trkpt>
<trkpt lat="46.441478133201599" lon="6.237673368304968"><ele></ele><time>2015-8-24T15:27:53Z</time></trkpt>
<trkpt lat="46.441510990262032" lon="6.237634895369411"><ele></ele><time>2015-8-24T15:27:56Z</time></trkpt>
<trkpt lat="46.44162816926837" lon="6.237433981150389"><ele></ele><time>2015-8-24T15:27:59Z</time></trkpt>
<trkpt lat="46.441665636375546" lon="6.237360890954733"><ele></ele><time>2015-8-24T15:28:2Z</time></trkpt>
<trkpt lat="46.441698996350169" lon="6.237232983112335"><ele></ele><time>2015-8-24T15:28:5Z</time></trkpt>
<trkpt lat="46.441819360479712" lon="6.237041288986802"><ele></ele><time>2015-8-24T15:28:8Z</time></trkpt>
<trkpt lat="46.441853139549494" lon="6.236977083608508"><ele></ele><time>2015-8-24T15:28:11Z</time></trkpt>
<trkpt lat="46.441907119005919" lon="6.236885972321033"><ele></ele><time>2015-8-24T15:28:14Z</time></trkpt>
<trkpt lat="46.441982975229621" lon="6.236783880740404"><ele></ele><time>2015-8-24T15:28:17Z</time></trkpt>
<trkpt lat="46.442001750692725" lon="6.23676024377346"><ele></ele><time>2015-8-24T15:28:20Z</time></trkpt>
<trkpt lat="46.442147679626942" lon="6.236523035913706"><ele></ele><time>2015-8-24T15:28:23Z</time></trkpt>
<trkpt lat="46.442299224436283" lon="6.236280295997858"><ele></ele><time>2015-8-24T15:28:26Z</time></trkpt>
<trkpt lat="46.442362004891038" lon="6.23617677949369"><ele></ele><time>2015-8-24T15:28:29Z</time></trkpt>
<trkpt lat="46.442424869164824" lon="6.236070580780506"><ele></ele><time>2015-8-24T15:28:32Z</time></trkpt>
<trkpt lat="46.442464934661984" lon="6.236000508069992"><ele></ele><time>2015-8-24T15:28:35Z</time></trkpt>
<trkpt lat="46.442541545256972" lon="6.235867068171501"><ele></ele><time>2015-8-24T15:28:38Z</time></trkpt>
<trkpt lat="46.442563841119409" lon="6.235835468396544"><ele></ele><time>2015-8-24T15:28:41Z</time></trkpt>
<trkpt lat="46.442624945193529" lon="6.235765647143126"><ele></ele><time>2015-8-24T15:28:44Z</time></trkpt>
<trkpt lat="46.442683869972825" lon="6.235700352117419"><ele></ele><time>2015-8-24T15:28:47Z</time></trkpt>
<trkpt lat="46.442764336243272" lon="6.235570013523102"><ele></ele><time>2015-8-24T15:28:50Z</time></trkpt>
<trkpt lat="46.442796103656292" lon="6.235494157299399"><ele></ele><time>2015-8-24T15:28:53Z</time></trkpt>
<trkpt lat="46.442850837484002" lon="6.235305396839976"><ele></ele><time>2015-8-24T15:28:56Z</time></trkpt>
<trkpt lat="46.442871037870646" lon="6.235207077115774"><ele></ele><time>2015-8-24T15:28:59Z</time></trkpt>
<trkpt lat="46.44294505007565" lon="6.235006246715784"><ele></ele><time>2015-8-24T15:29:2Z</time></trkpt>
<trkpt lat="46.442987294867635" lon="6.23492393642664"><ele></ele><time>2015-8-24T15:29:5Z</time></trkpt>
<trkpt lat="46.443065665662289" lon="6.234751017764211"><ele></ele><time>2015-8-24T15:29:8Z</time></trkpt>
<trkpt lat="46.443151663988829" lon="6.234511462971568"><ele></ele><time>2015-8-24T15:29:11Z</time></trkpt>
<trkpt lat="46.443264568224549" lon="6.234191693365574"><ele></ele><time>2015-8-24T15:29:14Z</time></trkpt>
<trkpt lat="46.443293234333396" lon="6.234090523794293"><ele></ele><time>2015-8-24T15:29:17Z</time></trkpt>
<trkpt lat="46.443403791636229" lon="6.233755918219686"><ele></ele><time>2015-8-24T15:29:20Z</time></trkpt>
<trkpt lat="46.443505045026541" lon="6.233408655971289"><ele></ele><time>2015-8-24T15:29:23Z</time></trkpt>
<trkpt lat="46.44354410469532" lon="6.233285274356604"><ele></ele><time>2015-8-24T15:29:26Z</time></trkpt>
<trkpt lat="46.443650890141726" lon="6.232869364321232"><ele></ele><time>2015-8-24T15:29:29Z</time></trkpt>
<trkpt lat="46.44378449767828" lon="6.232404252514243"><ele></ele><time>2015-8-24T15:29:32Z</time></trkpt>
<trkpt lat="46.44379916600883" lon="6.232353709638119"><ele></ele><time>2015-8-24T15:29:35Z</time></trkpt>
<trkpt lat="46.443902682512999" lon="6.232141982764006"><ele></ele><time>2015-8-24T15:29:38Z</time></trkpt>
<trkpt lat="46.444081719964743" lon="6.231948276981711"><ele></ele><time>2015-8-24T15:29:41Z</time></trkpt>
<trkpt lat="46.444317251443863" lon="6.231921454891562"><ele></ele><time>2015-8-24T15:29:44Z</time></trkpt>
<trkpt lat="46.444520680233836" lon="6.231949282810092"><ele></ele><time>2015-8-24T15:29:47Z</time></trkpt>
<trkpt lat="46.444571893662214" lon="6.231963951140642"><ele></ele><time>2015-8-24T15:29:50Z</time></trkpt>
<trkpt lat="46.444670464843512" lon="6.231990605592728"><ele></ele><time>2015-8-24T15:29:53Z</time></trkpt>
<trkpt lat="46.444715978577733" lon="6.231996975839138"><ele></ele><time>2015-8-24T15:29:56Z</time></trkpt>
<trkpt lat="46.444772640243173" lon="6.232014745473862"><ele></ele><time>2015-8-24T15:29:59Z</time></trkpt>
<trkpt lat="46.444787392392755" lon="6.232012566179037"><ele></ele><time>2015-8-24T15:30:2Z</time></trkpt>
<trkpt lat="46.444804575294256" lon="6.232021367177367"><ele></ele><time>2015-8-24T15:30:5Z</time></trkpt>
<trkpt lat="46.444819662719965" lon="6.232025809586048"><ele></ele><time>2015-8-24T15:30:8Z</time></trkpt>
<trkpt lat="46.444886047393084" lon="6.232028491795063"><ele></ele><time>2015-8-24T15:30:11Z</time></trkpt>
<trkpt lat="46.444982020184398" lon="6.232042824849486"><ele></ele><time>2015-8-24T15:30:14Z</time></trkpt>
<trkpt lat="46.445003394037485" lon="6.232044082134962"><ele></ele><time>2015-8-24T15:30:17Z</time></trkpt>
<trkpt lat="46.445153681561351" lon="6.232044752687216"><ele></ele><time>2015-8-24T15:30:20Z</time></trkpt>
<trkpt lat="46.445328528061509" lon="6.23205816373229"><ele></ele><time>2015-8-24T15:30:23Z</time></trkpt>
<trkpt lat="46.445436906069517" lon="6.232080040499568"><ele></ele><time>2015-8-24T15:30:26Z</time></trkpt>
<trkpt lat="46.445552995428443" lon="6.232067886739969"><ele></ele><time>2015-8-24T15:30:29Z</time></trkpt>
<trkpt lat="46.445732703432441" lon="6.232068641111255"><ele></ele><time>2015-8-24T15:30:32Z</time></trkpt>
<trkpt lat="46.445939233526587" lon="6.231996472924948"><ele></ele><time>2015-8-24T15:30:35Z</time></trkpt>
<trkpt lat="46.446226816624403" lon="6.231949953362346"><ele></ele><time>2015-8-24T15:30:38Z</time></trkpt>
<trkpt lat="46.44632488489151" lon="6.231835791841149"><ele></ele><time>2015-8-24T15:30:41Z</time></trkpt>
<trkpt lat="46.446420941501856" lon="6.231580395251513"><ele></ele><time>2015-8-24T15:30:44Z</time></trkpt>
<trkpt lat="46.44652521237731" lon="6.231489451602101"><ele></ele><time>2015-8-24T15:30:47Z</time></trkpt>
<trkpt lat="46.44657508470118" lon="6.231470843777061"><ele></ele><time>2015-8-24T15:30:50Z</time></trkpt>
<trkpt lat="46.446649683639407" lon="6.231443351134658"><ele></ele><time>2015-8-24T15:30:53Z</time></trkpt>
<trkpt lat="46.446703998371959" lon="6.231408230960369"><ele></ele><time>2015-8-24T15:30:56Z</time></trkpt>
<trkpt lat="46.446962747722864" lon="6.23120061121881"><ele></ele><time>2015-8-24T15:30:59Z</time></trkpt>
<trkpt lat="46.447237506508827" lon="6.230996595695615"><ele></ele><time>2015-8-24T15:31:2Z</time></trkpt>
<trkpt lat="46.447476223111153" lon="6.230853768065572"><ele></ele><time>2015-8-24T15:31:5Z</time></trkpt>
<trkpt lat="46.447513690218329" lon="6.230839937925339"><ele></ele><time>2015-8-24T15:31:8Z</time></trkpt>
<trkpt lat="46.447647633031011" lon="6.230819737538695"><ele></ele><time>2015-8-24T15:31:11Z</time></trkpt>
<trkpt lat="46.447710832580924" lon="6.230810852721334"><ele></ele><time>2015-8-24T15:31:14Z</time></trkpt>
<trkpt lat="46.447839243337512" lon="6.230828706175089"><ele></ele><time>2015-8-24T15:31:17Z</time></trkpt>
<trkpt lat="46.447895150631666" lon="6.230832310393453"><ele></ele><time>2015-8-24T15:31:20Z</time></trkpt>
<trkpt lat="46.447978718206286" lon="6.230843458324671"><ele></ele><time>2015-8-24T15:31:23Z</time></trkpt>
<trkpt lat="46.448119366541505" lon="6.230858126655221"><ele></ele><time>2015-8-24T15:31:26Z</time></trkpt>
<trkpt lat="46.44821441732347" lon="6.2308644130826"><ele></ele><time>2015-8-24T15:31:29Z</time></trkpt>
<trkpt lat="46.44822615198791" lon="6.230869526043534"><ele></ele><time>2015-8-24T15:31:32Z</time></trkpt>
<trkpt lat="46.448260014876723" lon="6.230881595984101"><ele></ele><time>2015-8-24T15:31:35Z</time></trkpt>
<trkpt lat="46.448321370407939" lon="6.230900036171079"><ele></ele><time>2015-8-24T15:31:38Z</time></trkpt>
<trkpt lat="46.448359088972211" lon="6.230914788320661"><ele></ele><time>2015-8-24T15:31:41Z</time></trkpt>
<trkpt lat="46.448413068428636" lon="6.230936665087938"><ele></ele><time>2015-8-24T15:31:44Z</time></trkpt>
<trkpt lat="46.44850367680192" lon="6.23096851631999"><ele></ele><time>2015-8-24T15:31:47Z</time></trkpt>
<trkpt lat="46.448527313768864" lon="6.230978155508637"><ele></ele><time>2015-8-24T15:31:50Z</time></trkpt>
<trkpt lat="46.448688749223948" lon="6.231033140793443"><ele></ele><time>2015-8-24T15:31:53Z</time></trkpt>
<trkpt lat="46.448932494968176" lon="6.230980837717652"><ele></ele><time>2015-8-24T15:31:56Z</time></trkpt>
<trkpt lat="46.449114130809903" lon="6.230867514386773"><ele></ele><time>2015-8-24T15:31:59Z</time></trkpt>
<trkpt lat="46.449301717802882" lon="6.230809511616826"><ele></ele><time>2015-8-24T15:32:2Z</time></trkpt>
<trkpt lat="46.449334658682346" lon="6.230803895741701"><ele></ele><time>2015-8-24T15:32:5Z</time></trkpt>
<trkpt lat="46.449533142149448" lon="6.230766093358397"><ele></ele><time>2015-8-24T15:32:8Z</time></trkpt>
<trkpt lat="46.449706396088004" lon="6.230725860223174"><ele></ele><time>2015-8-24T15:32:11Z</time></trkpt>
<trkpt lat="46.449742941185832" lon="6.230721585452557"><ele></ele><time>2015-8-24T15:32:14Z</time></trkpt>
<trkpt lat="46.449907729402184" lon="6.230682609602809"><ele></ele><time>2015-8-24T15:32:17Z</time></trkpt>
<trkpt lat="46.449946789070964" lon="6.230666348710656"><ele></ele><time>2015-8-24T15:32:20Z</time></trkpt>
<trkpt lat="46.450077714398503" lon="6.230617566034198"><ele></ele><time>2015-8-24T15:32:23Z</time></trkpt>
<trkpt lat="46.450135800987482" lon="6.230604154989123"><ele></ele><time>2015-8-24T15:32:26Z</time></trkpt>
<trkpt lat="46.450230767950416" lon="6.230568867176771"><ele></ele><time>2015-8-24T15:32:29Z</time></trkpt>
<trkpt lat="46.450277958065271" lon="6.230560904368758"><ele></ele><time>2015-8-24T15:32:32Z</time></trkpt>
<trkpt lat="46.450347444042563" lon="6.230547158047557"><ele></ele><time>2015-8-24T15:32:35Z</time></trkpt>
<trkpt lat="46.450485913082957" lon="6.230546068400145"><ele></ele><time>2015-8-24T15:32:38Z</time></trkpt>
<trkpt lat="46.450678026303649" lon="6.23048915527761"><ele></ele><time>2015-8-24T15:32:41Z</time></trkpt>
<trkpt lat="46.450708452612162" lon="6.230476414784789"><ele></ele><time>2015-8-24T15:32:44Z</time></trkpt>
<trkpt lat="46.450934177264571" lon="6.230403576046228"><ele></ele><time>2015-8-24T15:32:47Z</time></trkpt>
<trkpt lat="46.45096586085856" lon="6.230395697057247"><ele></ele><time>2015-8-24T15:32:50Z</time></trkpt>
<trkpt lat="46.451120255514979" lon="6.23032302595675"><ele></ele><time>2015-8-24T15:32:53Z</time></trkpt>
<trkpt lat="46.451145568862557" lon="6.23030642978847"><ele></ele><time>2015-8-24T15:32:56Z</time></trkpt>
<trkpt lat="46.451294766739011" lon="6.230201739817858"><ele></ele><time>2015-8-24T15:32:59Z</time></trkpt>
<trkpt lat="46.451320499181747" lon="6.230186652392149"><ele></ele><time>2015-8-24T15:33:2Z</time></trkpt>
<trkpt lat="46.451443377882242" lon="6.230155136436224"><ele></ele><time>2015-8-24T15:33:5Z</time></trkpt>
<trkpt lat="46.451512528583407" lon="6.2301304936409"><ele></ele><time>2015-8-24T15:33:8Z</time></trkpt>
<trkpt lat="46.451635491102934" lon="6.230079112574458"><ele></ele><time>2015-8-24T15:33:11Z</time></trkpt>
<trkpt lat="46.451774127781391" lon="6.230085901916027"><ele></ele><time>2015-8-24T15:33:14Z</time></trkpt>
<trkpt lat="46.451874459162354" lon="6.23010752722621"><ele></ele><time>2015-8-24T15:33:17Z</time></trkpt>
<trkpt lat="46.451932294294238" lon="6.230133259668946"><ele></ele><time>2015-8-24T15:33:20Z</time></trkpt>
<trkpt lat="46.452057100832462" lon="6.23015102930367"><ele></ele><time>2015-8-24T15:33:23Z</time></trkpt>
<trkpt lat="46.452132454141974" lon="6.23016276396811"><ele></ele><time>2015-8-24T15:33:26Z</time></trkpt>
<trkpt lat="46.452196156606078" lon="6.230196375399828"><ele></ele><time>2015-8-24T15:33:29Z</time></trkpt>
<trkpt lat="46.452232198789716" lon="6.230241972953081"><ele></ele><time>2015-8-24T15:33:32Z</time></trkpt>
<trkpt lat="46.452334290370345" lon="6.23032302595675"><ele></ele><time>2015-8-24T15:33:35Z</time></trkpt>
<trkpt lat="46.45239514298737" lon="6.230349596589804"><ele></ele><time>2015-8-24T15:33:38Z</time></trkpt>
<trkpt lat="46.452532187104225" lon="6.230380106717348"><ele></ele><time>2015-8-24T15:33:41Z</time></trkpt>
<trkpt lat="46.452684989199042" lon="6.230422938242555"><ele></ele><time>2015-8-24T15:33:44Z</time></trkpt>
<trkpt lat="46.452842317521572" lon="6.230465602129698"><ele></ele><time>2015-8-24T15:33:47Z</time></trkpt>
<trkpt lat="46.452967459335923" lon="6.230511199682951"><ele></ele><time>2015-8-24T15:33:50Z</time></trkpt>
<trkpt lat="46.453088913112879" lon="6.230541877448559"><ele></ele><time>2015-8-24T15:33:53Z</time></trkpt>
<trkpt lat="46.45325068384409" lon="6.230579931288958"><ele></ele><time>2015-8-24T15:33:56Z</time></trkpt>
<trkpt lat="46.453382112085819" lon="6.230616057291627"><ele></ele><time>2015-8-24T15:33:59Z</time></trkpt>
<trkpt lat="46.453518234193325" lon="6.230647657066584"><ele></ele><time>2015-8-24T15:34:2Z</time></trkpt>
<trkpt lat="46.453718142583966" lon="6.230690069496632"><ele></ele><time>2015-8-24T15:34:5Z</time></trkpt>
<trkpt lat="46.453756112605333" lon="6.230700714513659"><ele></ele><time>2015-8-24T15:34:8Z</time></trkpt>
<trkpt lat="46.453951997682452" lon="6.230710856616497"><ele></ele><time>2015-8-24T15:34:11Z</time></trkpt>
<trkpt lat="46.453987034037709" lon="6.230715047568083"><ele></ele><time>2015-8-24T15:34:14Z</time></trkpt>
<trkpt lat="46.454127263277769" lon="6.230688225477934"><ele></ele><time>2015-8-24T15:34:17Z</time></trkpt>
<trkpt lat="46.454150648787618" lon="6.23067582026124"><ele></ele><time>2015-8-24T15:34:20Z</time></trkpt>
<trkpt lat="46.454261960461736" lon="6.230637012049556"><ele></ele><time>2015-8-24T15:34:23Z</time></trkpt>
<trkpt lat="46.454351982101798" lon="6.230598539113998"><ele></ele><time>2015-8-24T15:34:26Z</time></trkpt>
<trkpt lat="46.454382240772247" lon="6.230591163039207"><ele></ele><time>2015-8-24T15:34:29Z</time></trkpt>
<trkpt lat="46.4545763656497" lon="6.230499213561416"><ele></ele><time>2015-8-24T15:34:32Z</time></trkpt>
<trkpt lat="46.45460469648242" lon="6.230483707040548"><ele></ele><time>2015-8-24T15:34:35Z</time></trkpt>
<trkpt lat="46.454757750034332" lon="6.230422519147396"><ele></ele><time>2015-8-24T15:34:38Z</time></trkpt>
<trkpt lat="46.454786499962211" lon="6.230404749512672"><ele></ele><time>2015-8-24T15:34:41Z</time></trkpt>
<trkpt lat="46.455015745013952" lon="6.230311207473278"><ele></ele><time>2015-8-24T15:34:44Z</time></trkpt>
<trkpt lat="46.455081794410944" lon="6.230281703174114"><ele></ele><time>2015-8-24T15:34:47Z</time></trkpt>
<trkpt lat="46.455245325341821" lon="6.230227472260594"><ele></ele><time>2015-8-24T15:34:50Z</time></trkpt>
<trkpt lat="46.455339789390564" lon="6.230195537209511"><ele></ele><time>2015-8-24T15:34:53Z</time></trkpt>
<trkpt lat="46.455510696396232" lon="6.230129655450583"><ele></ele><time>2015-8-24T15:34:56Z</time></trkpt>
<trkpt lat="46.455557718873024" lon="6.230102581903338"><ele></ele><time>2015-8-24T15:34:59Z</time></trkpt>
<trkpt lat="46.455656792968512" lon="6.23006553389132"><ele></ele><time>2015-8-24T15:35:2Z</time></trkpt>
<trkpt lat="46.455704737454653" lon="6.230055643245578"><ele></ele><time>2015-8-24T15:35:5Z</time></trkpt>
<trkpt lat="46.455752849578857" lon="6.230035442858934"><ele></ele><time>2015-8-24T15:35:8Z</time></trkpt>
<trkpt lat="46.455862149596214" lon="6.230018008500338"><ele></ele><time>2015-8-24T15:35:11Z</time></trkpt>
<trkpt lat="46.455985195934772" lon="6.229973416775465"><ele></ele><time>2015-8-24T15:35:14Z</time></trkpt>
<trkpt lat="46.456016208976507" lon="6.229951875284314"><ele></ele><time>2015-8-24T15:35:17Z</time></trkpt>
<trkpt lat="46.456241011619568" lon="6.229774849489331"><ele></ele><time>2015-8-24T15:35:20Z</time></trkpt>
<trkpt lat="46.456391047686338" lon="6.229638224467635"><ele></ele><time>2015-8-24T15:35:23Z</time></trkpt>
<trkpt lat="46.456421138718724" lon="6.229609558358788"><ele></ele><time>2015-8-24T15:35:26Z</time></trkpt>
<trkpt lat="46.456619119271636" lon="6.229446111246943"><ele></ele><time>2015-8-24T15:35:29Z</time></trkpt>
<trkpt lat="46.456795055419207" lon="6.229312336072326"><ele></ele><time>2015-8-24T15:35:32Z</time></trkpt>
<trkpt lat="46.456952299922705" lon="6.229208819568157"><ele></ele><time>2015-8-24T15:35:35Z</time></trkpt>
<trkpt lat="46.45701021887362" lon="6.229162467643619"><ele></ele><time>2015-8-24T15:35:38Z</time></trkpt>
<trkpt lat="46.457166792824864" lon="6.229118127375841"><ele></ele><time>2015-8-24T15:35:41Z</time></trkpt>
<trkpt lat="46.457232926040888" lon="6.229107147082686"><ele></ele><time>2015-8-24T15:35:44Z</time></trkpt>
<trkpt lat="46.457440294325352" lon="6.229088706895709"><ele></ele><time>2015-8-24T15:35:47Z</time></trkpt>
<trkpt lat="46.457583457231522" lon="6.229077810421586"><ele></ele><time>2015-8-24T15:35:50Z</time></trkpt>
<trkpt lat="46.457732152193785" lon="6.229055095463991"><ele></ele><time>2015-8-24T15:35:53Z</time></trkpt>
<trkpt lat="46.457955278456211" lon="6.22898225672543"><ele></ele><time>2015-8-24T15:35:56Z</time></trkpt>
<trkpt lat="46.457991236820817" lon="6.228968007490039"><ele></ele><time>2015-8-24T15:35:59Z</time></trkpt>
<trkpt lat="46.458214363083243" lon="6.228819983080029"><ele></ele><time>2015-8-24T15:36:2Z</time></trkpt>
<trkpt lat="46.458371104672551" lon="6.228618063032627"><ele></ele><time>2015-8-24T15:36:5Z</time></trkpt>
<trkpt lat="46.458480404689908" lon="6.228458052501082"><ele></ele><time>2015-8-24T15:36:8Z</time></trkpt>
<trkpt lat="46.458575455471873" lon="6.228325283154845"><ele></ele><time>2015-8-24T15:36:11Z</time></trkpt>
<trkpt lat="46.458676960319281" lon="6.228203577920794"><ele></ele><time>2015-8-24T15:36:14Z</time></trkpt>
<trkpt lat="46.458788523450494" lon="6.228114059194922"><ele></ele><time>2015-8-24T15:36:17Z</time></trkpt>
<trkpt lat="46.458926238119602" lon="6.227983217686415"><ele></ele><time>2015-8-24T15:36:20Z</time></trkpt>
<trkpt lat="46.458953060209751" lon="6.227957904338837"><ele></ele><time>2015-8-24T15:36:23Z</time></trkpt>
<trkpt lat="46.45916948094964" lon="6.227789679542184"><ele></ele><time>2015-8-24T15:36:26Z</time></trkpt>
<trkpt lat="46.4593356102705" lon="6.227677194401622"><ele></ele><time>2015-8-24T15:36:29Z</time></trkpt>
<trkpt lat="46.459492100402713" lon="6.227624891325831"><ele></ele><time>2015-8-24T15:36:32Z</time></trkpt>
<trkpt lat="46.459565861150622" lon="6.227608881890774"><ele></ele><time>2015-8-24T15:36:35Z</time></trkpt>
<trkpt lat="46.459739785641432" lon="6.227579545229673"><ele></ele><time>2015-8-24T15:36:38Z</time></trkpt>
<trkpt lat="46.459775660187006" lon="6.227567307651043"><ele></ele><time>2015-8-24T15:36:41Z</time></trkpt>
<trkpt lat="46.459998618811369" lon="6.227525481954217"><ele></ele><time>2015-8-24T15:36:44Z</time></trkpt>
<trkpt lat="46.460071541368961" lon="6.227522296831012"><ele></ele><time>2015-8-24T15:36:47Z</time></trkpt>
<trkpt lat="46.460194503888488" lon="6.227486506104469"><ele></ele><time>2015-8-24T15:36:50Z</time></trkpt>
<trkpt lat="46.460307408124208" lon="6.227397406473756"><ele></ele><time>2015-8-24T15:36:53Z</time></trkpt>
<trkpt lat="46.460355184972286" lon="6.227344181388617"><ele></ele><time>2015-8-24T15:36:56Z</time></trkpt>
<trkpt lat="46.460404051467776" lon="6.227293889969587"><ele></ele><time>2015-8-24T15:36:59Z</time></trkpt>
<trkpt lat="46.460502287372947" lon="6.227219710126519"><ele></ele><time>2015-8-24T15:37:2Z</time></trkpt>
<trkpt lat="46.460531204938889" lon="6.227206969633698"><ele></ele><time>2015-8-24T15:37:5Z</time></trkpt>
<trkpt lat="46.460640002042055" lon="6.22718165628612"><ele></ele><time>2015-8-24T15:37:8Z</time></trkpt>
<trkpt lat="46.460713176056743" lon="6.227165060117841"><ele></ele><time>2015-8-24T15:37:11Z</time></trkpt>
<trkpt lat="46.460741590708494" lon="6.227162545546889"><ele></ele><time>2015-8-24T15:37:14Z</time></trkpt>
<trkpt lat="46.460873270407319" lon="6.227159863337874"><ele></ele><time>2015-8-24T15:37:17Z</time></trkpt>
<trkpt lat="46.460903277620673" lon="6.227159528061748"><ele></ele><time>2015-8-24T15:37:20Z</time></trkpt>
<trkpt lat="46.461027581244707" lon="6.227141674607992"><ele></ele><time>2015-8-24T15:37:23Z</time></trkpt>
<trkpt lat="46.461056582629681" lon="6.227143183350563"><ele></ele><time>2015-8-24T15:37:26Z</time></trkpt>
<trkpt lat="46.461186837404966" lon="6.227144692093134"><ele></ele><time>2015-8-24T15:37:29Z</time></trkpt>
<trkpt lat="46.46124467253685" lon="6.227140836417675"><ele></ele><time>2015-8-24T15:37:32Z</time></trkpt>
<trkpt lat="46.461373418569565" lon="6.227120971307158"><ele></ele><time>2015-8-24T15:37:35Z</time></trkpt>
<trkpt lat="46.461435947567225" lon="6.227138992398977"><ele></ele><time>2015-8-24T15:37:38Z</time></trkpt>
<trkpt lat="46.461556479334831" lon="6.227153744548559"><ele></ele><time>2015-8-24T15:37:41Z</time></trkpt>
<trkpt lat="46.46174649707973" lon="6.227191463112831"><ele></ele><time>2015-8-24T15:37:44Z</time></trkpt>
<trkpt lat="46.461819503456354" lon="6.227206131443381"><ele></ele><time>2015-8-24T15:37:47Z</time></trkpt>
<trkpt lat="46.462045311927795" lon="6.227259021252394"><ele></ele><time>2015-8-24T15:37:50Z</time></trkpt>
<trkpt lat="46.462325686588883" lon="6.227328088134527"><ele></ele><time>2015-8-24T15:37:53Z</time></trkpt>
<trkpt lat="46.462577059864998" lon="6.227351808920503"><ele></ele><time>2015-8-24T15:37:56Z</time></trkpt>
<trkpt lat="46.462665908038616" lon="6.227358598262072"><ele></ele><time>2015-8-24T15:37:59Z</time></trkpt>
<trkpt lat="46.462797755375504" lon="6.227326244115829"><ele></ele><time>2015-8-24T15:38:2Z</time></trkpt>
<trkpt lat="46.462839664891362" lon="6.227308223024011"><ele></ele><time>2015-8-24T15:38:5Z</time></trkpt>
<trkpt lat="46.463002441450953" lon="6.22722364962101"><ele></ele><time>2015-8-24T15:38:8Z</time></trkpt>
<trkpt lat="46.463088439777493" lon="6.227187775075436"><ele></ele><time>2015-8-24T15:38:11Z</time></trkpt>
<trkpt lat="46.463224478065968" lon="6.22716648504138"><ele></ele><time>2015-8-24T15:38:14Z</time></trkpt>
<trkpt lat="46.463269237428904" lon="6.227173777297139"><ele></ele><time>2015-8-24T15:38:17Z</time></trkpt>
<trkpt lat="46.463458836078644" lon="6.227304199710488"><ele></ele><time>2015-8-24T15:38:20Z</time></trkpt>
<trkpt lat="46.463548019528389" lon="6.227416265755892"><ele></ele><time>2015-8-24T15:38:23Z</time></trkpt>
<trkpt lat="46.463597137480974" lon="6.227473430335522"><ele></ele><time>2015-8-24T15:38:26Z</time></trkpt>
<trkpt lat="46.46362672559917" lon="6.227473681792617"><ele></ele><time>2015-8-24T15:38:29Z</time></trkpt>
<trkpt lat="46.463657235726714" lon="6.227464461699128"><ele></ele><time>2015-8-24T15:38:32Z</time></trkpt>
<trkpt lat="46.463681291788816" lon="6.2274503801018"><ele></ele><time>2015-8-24T15:38:35Z</time></trkpt>
<trkpt lat="46.463766284286976" lon="6.227366225793958"><ele></ele><time>2015-8-24T15:38:38Z</time></trkpt>
<trkpt lat="46.463791513815522" lon="6.227344768121839"><ele></ele><time>2015-8-24T15:38:41Z</time></trkpt>
<trkpt lat="46.463905591517687" lon="6.227266229689121"><ele></ele><time>2015-8-24T15:38:44Z</time></trkpt>
<trkpt lat="46.463931743055582" lon="6.227255668491125"><ele></ele><time>2015-8-24T15:38:47Z</time></trkpt>
<trkpt lat="46.464054454118013" lon="6.227193893864751"><ele></ele><time>2015-8-24T15:38:50Z</time></trkpt>
<trkpt lat="46.464161239564419" lon="6.227139579132199"><ele></ele><time>2015-8-24T15:38:53Z</time></trkpt>
<trkpt lat="46.464329129084945" lon="6.22708342038095"><ele></ele><time>2015-8-24T15:38:56Z</time></trkpt>
<trkpt lat="46.464595254510641" lon="6.226917207241058"><ele></ele><time>2015-8-24T15:38:59Z</time></trkpt>
<trkpt lat="46.464699944481254" lon="6.226806733757257"><ele></ele><time>2015-8-24T15:39:2Z</time></trkpt>
<trkpt lat="46.464841347187757" lon="6.226661894470453"><ele></ele><time>2015-8-24T15:39:5Z</time></trkpt>
<trkpt lat="46.464893650263548" lon="6.22659525834024"><ele></ele><time>2015-8-24T15:39:8Z</time></trkpt>
<trkpt lat="46.464986018836498" lon="6.226460225880146"><ele></ele><time>2015-8-24T15:39:11Z</time></trkpt>
<trkpt lat="46.465069837868214" lon="6.226274985820055"><ele></ele><time>2015-8-24T15:39:14Z</time></trkpt>
<trkpt lat="46.465129852294922" lon="6.226150095462799"><ele></ele><time>2015-8-24T15:39:17Z</time></trkpt>
<trkpt lat="46.465160362422466" lon="6.226051608100533"><ele></ele><time>2015-8-24T15:39:20Z</time></trkpt>
<trkpt lat="46.465167487040162" lon="6.225890005007386"><ele></ele><time>2015-8-24T15:39:23Z</time></trkpt>
<trkpt lat="46.465137647464871" lon="6.225616252049804"><ele></ele><time>2015-8-24T15:39:26Z</time></trkpt>
<trkpt lat="46.465189279988408" lon="6.225489182397723"><ele></ele><time>2015-8-24T15:39:29Z</time></trkpt>
<trkpt lat="46.465225741267204" lon="6.225422210991383"><ele></ele><time>2015-8-24T15:39:32Z</time></trkpt>
<trkpt lat="46.46523923613131" lon="6.22539765201509"><ele></ele><time>2015-8-24T15:39:35Z</time></trkpt>
<trkpt lat="46.465354487299919" lon="6.225284580141306"><ele></ele><time>2015-8-24T15:39:38Z</time></trkpt>
<trkpt lat="46.465439982712269" lon="6.225205874070525"><ele></ele><time>2015-8-24T15:39:41Z</time></trkpt>
<trkpt lat="46.465547773987055" lon="6.225066483020782"><ele></ele><time>2015-8-24T15:39:44Z</time></trkpt>
<trkpt lat="46.465592449530959" lon="6.224987357854843"><ele></ele><time>2015-8-24T15:39:47Z</time></trkpt>
<trkpt lat="46.465658247470856" lon="6.224818211048841"><ele></ele><time>2015-8-24T15:39:50Z</time></trkpt>
<trkpt lat="46.4657112210989" lon="6.224639927968383"><ele></ele><time>2015-8-24T15:39:53Z</time></trkpt>
<trkpt lat="46.465767966583371" lon="6.224475307390094"><ele></ele><time>2015-8-24T15:39:56Z</time></trkpt>
<trkpt lat="46.465833261609077" lon="6.22429040260613"><ele></ele><time>2015-8-24T15:39:59Z</time></trkpt>
<trkpt lat="46.46584952250123" lon="6.224203733727336"><ele></ele><time>2015-8-24T15:40:2Z</time></trkpt>
<trkpt lat="46.465964857488871" lon="6.223974823951721"><ele></ele><time>2015-8-24T15:40:5Z</time></trkpt>
<trkpt lat="46.466080360114574" lon="6.223739963024855"><ele></ele><time>2015-8-24T15:40:8Z</time></trkpt>
<trkpt lat="46.466091256588697" lon="6.223692605271935"><ele></ele><time>2015-8-24T15:40:11Z</time></trkpt>
<trkpt lat="46.4661636762321" lon="6.223383480682969"><ele></ele><time>2015-8-24T15:40:14Z</time></trkpt>
<trkpt lat="46.466280939057469" lon="6.223081983625889"><ele></ele><time>2015-8-24T15:40:17Z</time></trkpt>
<trkpt lat="46.466341204941273" lon="6.22285240329802"><ele></ele><time>2015-8-24T15:40:20Z</time></trkpt>
<trkpt lat="46.466376073658466" lon="6.222608825191855"><ele></ele><time>2015-8-24T15:40:23Z</time></trkpt>
<trkpt lat="46.466369116678834" lon="6.222491394728422"><ele></ele><time>2015-8-24T15:40:26Z</time></trkpt>
<trkpt lat="46.466357382014394" lon="6.222417801618576"><ele></ele><time>2015-8-24T15:40:29Z</time></trkpt>
<trkpt lat="46.466314969584346" lon="6.222232477739453"><ele></ele><time>2015-8-24T15:40:32Z</time></trkpt>
<trkpt lat="46.466278592124581" lon="6.222112197428942"><ele></ele><time>2015-8-24T15:40:35Z</time></trkpt>
<trkpt lat="46.466254200786352" lon="6.221916060894728"><ele></ele><time>2015-8-24T15:40:38Z</time></trkpt>
<trkpt lat="46.46625118330121" lon="6.221877252683043"><ele></ele><time>2015-8-24T15:40:41Z</time></trkpt>
<trkpt lat="46.466262582689524" lon="6.221629064530134"><ele></ele><time>2015-8-24T15:40:44Z</time></trkpt>
<trkpt lat="46.466272138059139" lon="6.221590004861355"><ele></ele><time>2015-8-24T15:40:47Z</time></trkpt>
<trkpt lat="46.466306420043111" lon="6.221477184444666"><ele></ele><time>2015-8-24T15:40:50Z</time></trkpt>
<trkpt lat="46.466359980404377" lon="6.221324885264039"><ele></ele><time>2015-8-24T15:40:53Z</time></trkpt>
<trkpt lat="46.466396441683173" lon="6.221211981028318"><ele></ele><time>2015-8-24T15:40:56Z</time></trkpt>
<trkpt lat="46.466461652889848" lon="6.221017017960548"><ele></ele><time>2015-8-24T15:40:59Z</time></trkpt>
<trkpt lat="46.466515129432082" lon="6.220887266099453"><ele></ele><time>2015-8-24T15:41:2Z</time></trkpt>
<trkpt lat="46.466515380889177" lon="6.220823479816318"><ele></ele><time>2015-8-24T15:41:5Z</time></trkpt>
<trkpt lat="46.466505825519562" lon="6.220713090151548"><ele></ele><time>2015-8-24T15:41:8Z</time></trkpt>
<trkpt lat="46.466497862711549" lon="6.220594067126513"><ele></ele><time>2015-8-24T15:41:11Z</time></trkpt>
<trkpt lat="46.466489816084504" lon="6.220559114590287"><ele></ele><time>2015-8-24T15:41:14Z</time></trkpt>
<trkpt lat="46.466451343148947" lon="6.220439253374934"><ele></ele><time>2015-8-24T15:41:17Z</time></trkpt>
<trkpt lat="46.466442542150617" lon="6.220401199534535"><ele></ele><time>2015-8-24T15:41:20Z</time></trkpt>
<trkpt lat="46.466404488310218" lon="6.220263233408332"><ele></ele><time>2015-8-24T15:41:23Z</time></trkpt>
<trkpt lat="46.466394010931253" lon="6.220223335549235"><ele></ele><time>2015-8-24T15:41:26Z</time></trkpt>
<trkpt lat="46.466371547430754" lon="6.220074472948909"><ele></ele><time>2015-8-24T15:41:29Z</time></trkpt>
<trkpt lat="46.46635428071022" lon="6.220010854303837"><ele></ele><time>2015-8-24T15:41:32Z</time></trkpt>
<trkpt lat="46.466330392286181" lon="6.219912869855762"><ele></ele><time>2015-8-24T15:41:35Z</time></trkpt>
<trkpt lat="46.466292003169656" lon="6.219776663929224"><ele></ele><time>2015-8-24T15:41:38Z</time></trkpt>
<trkpt lat="46.466275742277503" lon="6.219745483249426"><ele></ele><time>2015-8-24T15:41:41Z</time></trkpt>
<trkpt lat="46.466225115582347" lon="6.219700472429395"><ele></ele><time>2015-8-24T15:41:44Z</time></trkpt>
<trkpt lat="46.46613291464746" lon="6.219726707786322"><ele></ele><time>2015-8-24T15:41:47Z</time></trkpt>
<trkpt lat="46.466111037880182" lon="6.219751685857773"><ele></ele><time>2015-8-24T15:41:50Z</time></trkpt>
<trkpt lat="46.466047335416079" lon="6.219914881512523"><ele></ele><time>2015-8-24T15:41:53Z</time></trkpt>
<trkpt lat="46.46603568457067" lon="6.220158794894814"><ele></ele><time>2015-8-24T15:41:56Z</time></trkpt>
<trkpt lat="46.466083880513906" lon="6.220479486510158"><ele></ele><time>2015-8-24T15:41:59Z</time></trkpt>
<trkpt lat="46.466123191639781" lon="6.220660367980599"><ele></ele><time>2015-8-24T15:42:2Z</time></trkpt>
<trkpt lat="46.466149426996708" lon="6.22080110013485"><ele></ele><time>2015-8-24T15:42:5Z</time></trkpt>
<trkpt lat="46.466159988194704" lon="6.22106202878058"><ele></ele><time>2015-8-24T15:42:8Z</time></trkpt>
<trkpt lat="46.466100560501218" lon="6.221300410106778"><ele></ele><time>2015-8-24T15:42:11Z</time></trkpt>
<trkpt lat="46.466081365942955" lon="6.221345001831651"><ele></ele><time>2015-8-24T15:42:14Z</time></trkpt>
<trkpt lat="46.465980531647801" lon="6.221597464755177"><ele></ele><time>2015-8-24T15:42:17Z</time></trkpt>
<trkpt lat="46.465962510555983" lon="6.221634764224291"><ele></ele><time>2015-8-24T15:42:20Z</time></trkpt>
<trkpt lat="46.465914901345968" lon="6.221744734793901"><ele></ele><time>2015-8-24T15:42:23Z</time></trkpt>
<trkpt lat="46.465874500572681" lon="6.221876498311758"><ele></ele><time>2015-8-24T15:42:26Z</time></trkpt>
<trkpt lat="46.465803002938628" lon="6.222122255712748"><ele></ele><time>2015-8-24T15:42:29Z</time></trkpt>
<trkpt lat="46.465798728168011" lon="6.222169948741794"><ele></ele><time>2015-8-24T15:42:32Z</time></trkpt>
<trkpt lat="46.465796548873186" lon="6.222220156341791"><ele></ele><time>2015-8-24T15:42:35Z</time></trkpt>
<trkpt lat="46.465779868885875" lon="6.222519809380174"><ele></ele><time>2015-8-24T15:42:38Z</time></trkpt>
<trkpt lat="46.465705521404743" lon="6.222793478518724"><ele></ele><time>2015-8-24T15:42:41Z</time></trkpt>
<trkpt lat="46.465686913579702" lon="6.222829772159457"><ele></ele><time>2015-8-24T15:42:44Z</time></trkpt>
<trkpt lat="46.465625055134296" lon="6.222926331683993"><ele></ele><time>2015-8-24T15:42:47Z</time></trkpt>
<trkpt lat="46.465587085112929" lon="6.222997661679983"><ele></ele><time>2015-8-24T15:42:50Z</time></trkpt>
<trkpt lat="46.46550209261477" lon="6.223124563694"><ele></ele><time>2015-8-24T15:42:53Z</time></trkpt>
<trkpt lat="46.465475605800748" lon="6.223123809322715"><ele></ele><time>2015-8-24T15:42:56Z</time></trkpt>
<trkpt lat="46.465459931641817" lon="6.223079217597842"><ele></ele><time>2015-8-24T15:42:59Z</time></trkpt>
<trkpt lat="46.465494465082884" lon="6.222961284220219"><ele></ele><time>2015-8-24T15:43:2Z</time></trkpt>
<trkpt lat="46.465519862249494" lon="6.222884757444263"><ele></ele><time>2015-8-24T15:43:5Z</time></trkpt>
<trkpt lat="46.465575601905584" lon="6.222752323374152"><ele></ele><time>2015-8-24T15:43:8Z</time></trkpt>
<trkpt lat="46.465586582198739" lon="6.222713850438595"><ele></ele><time>2015-8-24T15:43:11Z</time></trkpt>
<trkpt lat="46.465625306591392" lon="6.222472367808223"><ele></ele><time>2015-8-24T15:43:14Z</time></trkpt>
<trkpt lat="46.465615835040808" lon="6.222256533801556"><ele></ele><time>2015-8-24T15:43:17Z</time></trkpt>
<trkpt lat="46.465623211115599" lon="6.222116220742464"><ele></ele><time>2015-8-24T15:43:20Z</time></trkpt>
<trkpt lat="46.465638047084212" lon="6.222046818584204"><ele></ele><time>2015-8-24T15:43:23Z</time></trkpt>
<trkpt lat="46.465709209442139" lon="6.221871301531792"><ele></ele><time>2015-8-24T15:43:26Z</time></trkpt>
<trkpt lat="46.465724883601069" lon="6.221845149993896"><ele></ele><time>2015-8-24T15:43:29Z</time></trkpt>
<trkpt lat="46.465766122564673" lon="6.221717242151499"><ele></ele><time>2015-8-24T15:43:32Z</time></trkpt>
<trkpt lat="46.465786574408412" lon="6.221645409241319"><ele></ele><time>2015-8-24T15:43:35Z</time></trkpt>
<trkpt lat="46.465815408155322" lon="6.221574749797583"><ele></ele><time>2015-8-24T15:43:38Z</time></trkpt>
<trkpt lat="46.465881457552314" lon="6.221385654062033"><ele></ele><time>2015-8-24T15:43:41Z</time></trkpt>
<trkpt lat="46.465886989608407" lon="6.221349611878395"><ele></ele><time>2015-8-24T15:43:44Z</time></trkpt>
<trkpt lat="46.465887995436788" lon="6.221233857795596"><ele></ele><time>2015-8-24T15:43:47Z</time></trkpt>
<trkpt lat="46.465860167518258" lon="6.221120366826653"><ele></ele><time>2015-8-24T15:43:50Z</time></trkpt>
<trkpt lat="46.465780707076192" lon="6.220900509506464"><ele></ele><time>2015-8-24T15:43:53Z</time></trkpt>
<trkpt lat="46.465770145878196" lon="6.220813002437353"><ele></ele><time>2015-8-24T15:43:56Z</time></trkpt>
<trkpt lat="46.465766038745642" lon="6.220657434314489"><ele></ele><time>2015-8-24T15:43:59Z</time></trkpt>
<trkpt lat="46.465765535831451" lon="6.220579985529184"><ele></ele><time>2015-8-24T15:44:2Z</time></trkpt>
<trkpt lat="46.465745335444808" lon="6.220364486798644"><ele></ele><time>2015-8-24T15:44:5Z</time></trkpt>
<trkpt lat="46.465727733448148" lon="6.220300532877445"><ele></ele><time>2015-8-24T15:44:8Z</time></trkpt>
<trkpt lat="46.465661684051156" lon="6.220146389678121"><ele></ele><time>2015-8-24T15:44:11Z</time></trkpt>
<trkpt lat="46.465569064021111" lon="6.219956707209349"><ele></ele><time>2015-8-24T15:44:14Z</time></trkpt>
<trkpt lat="46.465507792308927" lon="6.219829972833395"><ele></ele><time>2015-8-24T15:44:17Z</time></trkpt>
<trkpt lat="46.465462697669864" lon="6.219710530713201"><ele></ele><time>2015-8-24T15:44:20Z</time></trkpt>
<trkpt lat="46.465451549738646" lon="6.219679433852434"><ele></ele><time>2015-8-24T15:44:23Z</time></trkpt>
<trkpt lat="46.465379968285561" lon="6.219463516026735"><ele></ele><time>2015-8-24T15:44:26Z</time></trkpt>
<trkpt lat="46.465371837839484" lon="6.219432754442096"><ele></ele><time>2015-8-24T15:44:29Z</time></trkpt>
<trkpt lat="46.465334119275212" lon="6.219334350898862"><ele></ele><time>2015-8-24T15:44:32Z</time></trkpt>
<trkpt lat="46.46529640071094" lon="6.219229912385345"><ele></ele><time>2015-8-24T15:44:35Z</time></trkpt>
<trkpt lat="46.465252479538321" lon="6.219133101403713"><ele></ele><time>2015-8-24T15:44:38Z</time></trkpt>
<trkpt lat="46.465223897248507" lon="6.219043247401714"><ele></ele><time>2015-8-24T15:44:41Z</time></trkpt>
<trkpt lat="46.465150555595756" lon="6.218841997906566"><ele></ele><time>2015-8-24T15:44:44Z</time></trkpt>
<trkpt lat="46.465143598616123" lon="6.218814924359322"><ele></ele><time>2015-8-24T15:44:47Z</time></trkpt>
<trkpt lat="46.465116022154689" lon="6.218660194426775"><ele></ele><time>2015-8-24T15:44:50Z</time></trkpt>
<trkpt lat="46.465098420158029" lon="6.218563467264175"><ele></ele><time>2015-8-24T15:44:53Z</time></trkpt>
<trkpt lat="46.465088110417128" lon="6.218436062335968"><ele></ele><time>2015-8-24T15:44:56Z</time></trkpt>
<trkpt lat="46.46506967023015" lon="6.2183100823313"><ele></ele><time>2015-8-24T15:44:59Z</time></trkpt>
<trkpt lat="46.465070843696594" lon="6.218096930533648"><ele></ele><time>2015-8-24T15:45:2Z</time></trkpt>
<trkpt lat="46.465072352439165" lon="6.218063151463866"><ele></ele><time>2015-8-24T15:45:5Z</time></trkpt>
<trkpt lat="46.465074699372053" lon="6.217965669929981"><ele></ele><time>2015-8-24T15:45:8Z</time></trkpt>
<trkpt lat="46.465070843696594" lon="6.217813035473228"><ele></ele><time>2015-8-24T15:45:11Z</time></trkpt>
<trkpt lat="46.46502616815269" lon="6.217642966657877"><ele></ele><time>2015-8-24T15:45:14Z</time></trkpt>
<trkpt lat="46.465015523135662" lon="6.217616312205791"><ele></ele><time>2015-8-24T15:45:17Z</time></trkpt>
<trkpt lat="46.464985935017467" lon="6.217536013573408"><ele></ele><time>2015-8-24T15:45:20Z</time></trkpt>
<trkpt lat="46.464932123199105" lon="6.217395532876253"><ele></ele><time>2015-8-24T15:45:23Z</time></trkpt>
<trkpt lat="46.464901864528656" lon="6.217242311686277"><ele></ele><time>2015-8-24T15:45:26Z</time></trkpt>
<trkpt lat="46.464902283623815" lon="6.217204760760069"><ele></ele><time>2015-8-24T15:45:29Z</time></trkpt>
<trkpt lat="46.464910162612796" lon="6.217116080224514"><ele></ele><time>2015-8-24T15:45:32Z</time></trkpt>
<trkpt lat="46.464923238381743" lon="6.217063693329692"><ele></ele><time>2015-8-24T15:45:35Z</time></trkpt>
<trkpt lat="46.46496263332665" lon="6.216984065249562"><ele></ele><time>2015-8-24T15:45:38Z</time></trkpt>
<trkpt lat="46.465024324133992" lon="6.216839225962758"><ele></ele><time>2015-8-24T15:45:41Z</time></trkpt>
<trkpt lat="46.465046284720302" lon="6.216674940660596"><ele></ele><time>2015-8-24T15:45:44Z</time></trkpt>
<trkpt lat="46.465047374367714" lon="6.216616434976459"><ele></ele><time>2015-8-24T15:45:47Z</time></trkpt>
<trkpt lat="46.46504033356905" lon="6.216520629823208"><ele></ele><time>2015-8-24T15:45:50Z</time></trkpt>
<trkpt lat="46.465015187859535" lon="6.216391045600176"><ele></ele><time>2015-8-24T15:45:53Z</time></trkpt>
<trkpt lat="46.46500269882381" lon="6.216368833556771"><ele></ele><time>2015-8-24T15:45:56Z</time></trkpt>
<trkpt lat="46.464976295828819" lon="6.216314686462283"><ele></ele><time>2015-8-24T15:45:59Z</time></trkpt>
<trkpt lat="46.464868588373065" lon="6.216186778619885"><ele></ele><time>2015-8-24T15:46:2Z</time></trkpt>
<trkpt lat="46.464827265590429" lon="6.216159034520388"><ele></ele><time>2015-8-24T15:46:5Z</time></trkpt>
<trkpt lat="46.464744368568063" lon="6.216119974851608"><ele></ele><time>2015-8-24T15:46:8Z</time></trkpt>
<trkpt lat="46.464726766571403" lon="6.216110251843929"><ele></ele><time>2015-8-24T15:46:11Z</time></trkpt>
<trkpt lat="46.464696759358048" lon="6.216088039800525"><ele></ele><time>2015-8-24T15:46:14Z</time></trkpt>
<trkpt lat="46.464678654447198" lon="6.21607949025929"><ele></ele><time>2015-8-24T15:46:17Z</time></trkpt>
<trkpt lat="46.464648060500622" lon="6.216060379520059"><ele></ele><time>2015-8-24T15:46:20Z</time></trkpt>
<trkpt lat="46.46461864002049" lon="6.216038670390844"><ele></ele><time>2015-8-24T15:46:23Z</time></trkpt>
<trkpt lat="46.464588548988104" lon="6.216019727289677"><ele></ele><time>2015-8-24T15:46:26Z</time></trkpt>
<trkpt lat="46.464565666392446" lon="6.216012351214886"><ele></ele><time>2015-8-24T15:46:29Z</time></trkpt>
<trkpt lat="46.464506909251213" lon="6.215969603508711"><ele></ele><time>2015-8-24T15:46:32Z</time></trkpt>
<trkpt lat="46.464488804340363" lon="6.215957030653954"><ele></ele><time>2015-8-24T15:46:35Z</time></trkpt>
<trkpt lat="46.46447598002851" lon="6.215944290161133"><ele></ele><time>2015-8-24T15:46:38Z</time></trkpt>
<trkpt lat="46.464449828490615" lon="6.215920150279999"><ele></ele><time>2015-8-24T15:46:41Z</time></trkpt>
<trkpt lat="46.464417222887278" lon="6.215876312926412"><ele></ele><time>2015-8-24T15:46:44Z</time></trkpt>
<trkpt lat="46.464393334463239" lon="6.215828787535429"><ele></ele><time>2015-8-24T15:46:47Z</time></trkpt>
<trkpt lat="46.464344132691622" lon="6.215640613809228"><ele></ele><time>2015-8-24T15:46:50Z</time></trkpt>
<trkpt lat="46.464346311986446" lon="6.215471047908068"><ele></ele><time>2015-8-24T15:46:53Z</time></trkpt>
<trkpt lat="46.464364835992455" lon="6.21532553806901"><ele></ele><time>2015-8-24T15:46:56Z</time></trkpt>
<trkpt lat="46.464387634769082" lon="6.215251525864005"><ele></ele><time>2015-8-24T15:46:59Z</time></trkpt>
<trkpt lat="46.464438261464238" lon="6.215091263875365"><ele></ele><time>2015-8-24T15:47:2Z</time></trkpt>
<trkpt lat="46.464452845975757" lon="6.215029405429959"><ele></ele><time>2015-8-24T15:47:5Z</time></trkpt>
<trkpt lat="46.464514955878258" lon="6.21483544819057"><ele></ele><time>2015-8-24T15:47:8Z</time></trkpt>
<trkpt lat="46.464564576745033" lon="6.214718101546168"><ele></ele><time>2015-8-24T15:47:11Z</time></trkpt>
<trkpt lat="46.464584358036518" lon="6.214649621397257"><ele></ele><time>2015-8-24T15:47:14Z</time></trkpt>
<trkpt lat="46.464582597836852" lon="6.214616261422634"><ele></ele><time>2015-8-24T15:47:17Z</time></trkpt>
<trkpt lat="46.46451948210597" lon="6.214466644451022"><ele></ele><time>2015-8-24T15:47:20Z</time></trkpt>
<trkpt lat="46.464506573975086" lon="6.214442420750856"><ele></ele><time>2015-8-24T15:47:23Z</time></trkpt>
<trkpt lat="46.464392496272922" lon="6.214245026931167"><ele></ele><time>2015-8-24T15:47:26Z</time></trkpt>
<trkpt lat="46.464337930083275" lon="6.214145282283425"><ele></ele><time>2015-8-24T15:47:29Z</time></trkpt>
<trkpt lat="46.464282609522343" lon="6.214050566777587"><ele></ele><time>2015-8-24T15:47:32Z</time></trkpt>
<trkpt lat="46.464231312274933" lon="6.213992815464735"><ele></ele><time>2015-8-24T15:47:35Z</time></trkpt>
<trkpt lat="46.464187726378441" lon="6.213924251496792"><ele></ele><time>2015-8-24T15:47:38Z</time></trkpt>
<trkpt lat="46.464122515171766" lon="6.213832385838032"><ele></ele><time>2015-8-24T15:47:41Z</time></trkpt>
<trkpt lat="46.464067529886961" lon="6.213737418875098"><ele></ele><time>2015-8-24T15:47:44Z</time></trkpt>
<trkpt lat="46.464023776352406" lon="6.213629292324185"><ele></ele><time>2015-8-24T15:47:47Z</time></trkpt>
<trkpt lat="46.464012041687965" lon="6.213602721691132"><ele></ele><time>2015-8-24T15:47:50Z</time></trkpt>
<trkpt lat="46.463981866836548" lon="6.213465761393309"><ele></ele><time>2015-8-24T15:47:53Z</time></trkpt>
<trkpt lat="46.463958648964763" lon="6.213303487747908"><ele></ele><time>2015-8-24T15:47:56Z</time></trkpt>
<trkpt lat="46.463949512690306" lon="6.21327037923038"><ele></ele><time>2015-8-24T15:47:59Z</time></trkpt>
<trkpt lat="46.463948925957084" lon="6.213143141940236"><ele></ele><time>2015-8-24T15:48:2Z</time></trkpt>
<trkpt lat="46.46395118907094" lon="6.213119840249419"><ele></ele><time>2015-8-24T15:48:5Z</time></trkpt>
<trkpt lat="46.463939035311341" lon="6.213022861629725"><ele></ele><time>2015-8-24T15:48:8Z</time></trkpt>
<trkpt lat="46.463941046968102" lon="6.212939713150263"><ele></ele><time>2015-8-24T15:48:11Z</time></trkpt>
<trkpt lat="46.463949764147401" lon="6.212914483621716"><ele></ele><time>2015-8-24T15:48:14Z</time></trkpt>
<trkpt lat="46.46397759206593" lon="6.212763357907534"><ele></ele><time>2015-8-24T15:48:17Z</time></trkpt>
<trkpt lat="46.464010030031204" lon="6.212664199993014"><ele></ele><time>2015-8-24T15:48:20Z</time></trkpt>
<trkpt lat="46.464031152427197" lon="6.212610555812716"><ele></ele><time>2015-8-24T15:48:23Z</time></trkpt>
<trkpt lat="46.46408261731267" lon="6.212544422596693"><ele></ele><time>2015-8-24T15:48:26Z</time></trkpt>
<trkpt lat="46.464152606204152" lon="6.212419783696532"><ele></ele><time>2015-8-24T15:48:29Z</time></trkpt>
<trkpt lat="46.4641656819731" lon="6.212287098169327"><ele></ele><time>2015-8-24T15:48:32Z</time></trkpt>
<trkpt lat="46.464173058047891" lon="6.212228257209063"><ele></ele><time>2015-8-24T15:48:35Z</time></trkpt>
<trkpt lat="46.464172219857574" lon="6.212187353521585"><ele></ele><time>2015-8-24T15:48:38Z</time></trkpt>
<trkpt lat="46.464158138260245" lon="6.212044358253479"><ele></ele><time>2015-8-24T15:48:41Z</time></trkpt>
<trkpt lat="46.464152606204152" lon="6.212017955258489"><ele></ele><time>2015-8-24T15:48:44Z</time></trkpt>
<trkpt lat="46.464127628132701" lon="6.211894154548645"><ele></ele><time>2015-8-24T15:48:47Z</time></trkpt>
<trkpt lat="46.464115642011166" lon="6.2118567712605"><ele></ele><time>2015-8-24T15:48:50Z</time></trkpt>
<trkpt lat="46.464102733880281" lon="6.211702292785048"><ele></ele><time>2015-8-24T15:48:53Z</time></trkpt>
<trkpt lat="46.464095106348395" lon="6.211636578664184"><ele></ele><time>2015-8-24T15:48:56Z</time></trkpt>
<trkpt lat="46.464100806042552" lon="6.211487213149667"><ele></ele><time>2015-8-24T15:48:59Z</time></trkpt>
<trkpt lat="46.464120000600815" lon="6.211395347490907"><ele></ele><time>2015-8-24T15:49:2Z</time></trkpt>
<trkpt lat="46.464133327826858" lon="6.211338518187404"><ele></ele><time>2015-8-24T15:49:5Z</time></trkpt>
<trkpt lat="46.464144727215171" lon="6.21121714822948"><ele></ele><time>2015-8-24T15:49:8Z</time></trkpt>
<trkpt lat="46.464160401374102" lon="6.211158474907279"><ele></ele><time>2015-8-24T15:49:11Z</time></trkpt>
<trkpt lat="46.46416618488729" lon="6.211052024737"><ele></ele><time>2015-8-24T15:49:14Z</time></trkpt>
<trkpt lat="46.464189402759075" lon="6.211002320051193"><ele></ele><time>2015-8-24T15:49:17Z</time></trkpt>
<trkpt lat="46.4642433822155" lon="6.210947250947356"><ele></ele><time>2015-8-24T15:49:20Z</time></trkpt>
<trkpt lat="46.464307922869921" lon="6.210907436907291"><ele></ele><time>2015-8-24T15:49:23Z</time></trkpt>
<trkpt lat="46.464324854314327" lon="6.210901234298944"><ele></ele><time>2015-8-24T15:49:26Z</time></trkpt>
<trkpt lat="46.464388053864241" lon="6.210902826860547"><ele></ele><time>2015-8-24T15:49:29Z</time></trkpt>
<trkpt lat="46.464443961158395" lon="6.210884638130665"><ele></ele><time>2015-8-24T15:49:32Z</time></trkpt>
<trkpt lat="46.464483104646206" lon="6.210888829082251"><ele></ele><time>2015-8-24T15:49:35Z</time></trkpt>
<trkpt lat="46.464581005275249" lon="6.210865611210465"><ele></ele><time>2015-8-24T15:49:38Z</time></trkpt>
<trkpt lat="46.464686114341021" lon="6.210753628984094"><ele></ele><time>2015-8-24T15:49:41Z</time></trkpt>
<trkpt lat="46.464705392718315" lon="6.210706857964396"><ele></ele><time>2015-8-24T15:49:44Z</time></trkpt>
<trkpt lat="46.464710002765059" lon="6.210681460797787"><ele></ele><time>2015-8-24T15:49:47Z</time></trkpt>
<trkpt lat="46.464714361354709" lon="6.210656818002462"><ele></ele><time>2015-8-24T15:49:50Z</time></trkpt>
<trkpt lat="46.464720228686929" lon="6.210575429722667"><ele></ele><time>2015-8-24T15:49:53Z</time></trkpt>
<trkpt lat="46.464708326384425" lon="6.210379879921675"><ele></ele><time>2015-8-24T15:49:56Z</time></trkpt>
<trkpt lat="46.46465384401381" lon="6.210215846076608"><ele></ele><time>2015-8-24T15:49:59Z</time></trkpt>
<trkpt lat="46.464622830972075" lon="6.210079388692975"><ele></ele><time>2015-8-24T15:50:2Z</time></trkpt>
<trkpt lat="46.464594416320324" lon="6.210000347346067"><ele></ele><time>2015-8-24T15:50:5Z</time></trkpt>
<trkpt lat="46.464545214548707" lon="6.20988367125392"><ele></ele><time>2015-8-24T15:50:8Z</time></trkpt>
<trkpt lat="46.464527361094952" lon="6.20983824133873"><ele></ele><time>2015-8-24T15:50:11Z</time></trkpt>
<trkpt lat="46.464502718299627" lon="6.209761714562774"><ele></ele><time>2015-8-24T15:50:14Z</time></trkpt>
<trkpt lat="46.464462485164404" lon="6.209643362089992"><ele></ele><time>2015-8-24T15:50:17Z</time></trkpt>
<trkpt lat="46.464448403567076" lon="6.209457200020552"><ele></ele><time>2015-8-24T15:50:20Z</time></trkpt>
<trkpt lat="46.464476985856891" lon="6.209355946630239"><ele></ele><time>2015-8-24T15:50:23Z</time></trkpt>
<trkpt lat="46.464496264234185" lon="6.209316300228238"><ele></ele><time>2015-8-24T15:50:26Z</time></trkpt>
<trkpt lat="46.464540017768741" lon="6.209276653826237"><ele></ele><time>2015-8-24T15:50:29Z</time></trkpt>
<trkpt lat="46.464599780738354" lon="6.209224686026573"><ele></ele><time>2015-8-24T15:50:32Z</time></trkpt>
<trkpt lat="46.464616460725665" lon="6.209203312173486"><ele></ele><time>2015-8-24T15:50:35Z</time></trkpt>
<trkpt lat="46.46470807492733" lon="6.209143716841936"><ele></ele><time>2015-8-24T15:50:38Z</time></trkpt>
<trkpt lat="46.464769681915641" lon="6.209088899195194"><ele></ele><time>2015-8-24T15:50:41Z</time></trkpt>
<trkpt lat="46.464825924485922" lon="6.209053611382842"><ele></ele><time>2015-8-24T15:50:44Z</time></trkpt>
<trkpt lat="46.464848723262548" lon="6.20904078707099"><ele></ele><time>2015-8-24T15:50:47Z</time></trkpt>
<trkpt lat="46.464950814843178" lon="6.208997117355466"><ele></ele><time>2015-8-24T15:50:50Z</time></trkpt>
<trkpt lat="46.465031197294593" lon="6.208946323022246"><ele></ele><time>2015-8-24T15:50:53Z</time></trkpt>
<trkpt lat="46.465108478441834" lon="6.208884213119745"><ele></ele><time>2015-8-24T15:50:56Z</time></trkpt>
<trkpt lat="46.46523043513298" lon="6.208752114325762"><ele></ele><time>2015-8-24T15:50:59Z</time></trkpt>
<trkpt lat="46.465256670489907" lon="6.208717999979854"><ele></ele><time>2015-8-24T15:51:2Z</time></trkpt>
<trkpt lat="46.465313248336315" lon="6.208625128492713"><ele></ele><time>2015-8-24T15:51:5Z</time></trkpt>
<trkpt lat="46.465369407087564" lon="6.208553966134787"><ele></ele><time>2015-8-24T15:51:8Z</time></trkpt>
<trkpt lat="46.465390445664525" lon="6.208538711071014"><ele></ele><time>2015-8-24T15:51:11Z</time></trkpt>
<trkpt lat="46.465496309101582" lon="6.208507278934121"><ele></ele><time>2015-8-24T15:51:14Z</time></trkpt>
<trkpt lat="46.465629497542977" lon="6.208557318896055"><ele></ele><time>2015-8-24T15:51:17Z</time></trkpt>
<trkpt lat="46.465748772025108" lon="6.208604257553816"><ele></ele><time>2015-8-24T15:51:20Z</time></trkpt>
<trkpt lat="46.465793447569013" lon="6.20862546376884"><ele></ele><time>2015-8-24T15:51:23Z</time></trkpt>
<trkpt lat="46.465837033465505" lon="6.20864792726934"><ele></ele><time>2015-8-24T15:51:26Z</time></trkpt>
<trkpt lat="46.465894617140293" lon="6.208689082413912"><ele></ele><time>2015-8-24T15:51:29Z</time></trkpt>
<trkpt lat="46.465978436172009" lon="6.208710372447968"><ele></ele><time>2015-8-24T15:51:32Z</time></trkpt>
<trkpt lat="46.466023195534945" lon="6.208699392154813"><ele></ele><time>2015-8-24T15:51:35Z</time></trkpt>
<trkpt lat="46.466096369549632" lon="6.208656644448638"><ele></ele><time>2015-8-24T15:51:38Z</time></trkpt>
<trkpt lat="46.466151438653469" lon="6.208596043288708"><ele></ele><time>2015-8-24T15:51:41Z</time></trkpt>
<trkpt lat="46.466189157217741" lon="6.208517421036959"><ele></ele><time>2015-8-24T15:51:44Z</time></trkpt>
<trkpt lat="46.466241544112563" lon="6.208436116576195"><ele></ele><time>2015-8-24T15:51:47Z</time></trkpt>
<trkpt lat="46.466255290433764" lon="6.208414323627949"><ele></ele><time>2015-8-24T15:51:50Z</time></trkpt>
<trkpt lat="46.466306420043111" lon="6.208324385806918"><ele></ele><time>2015-8-24T15:51:53Z</time></trkpt>
<trkpt lat="46.466345563530922" lon="6.208241740241647"><ele></ele><time>2015-8-24T15:51:56Z</time></trkpt>
<trkpt lat="46.466384623199701" lon="6.208165045827627"><ele></ele><time>2015-8-24T15:51:59Z</time></trkpt>
<trkpt lat="46.466449834406376" lon="6.208046190440655"><ele></ele><time>2015-8-24T15:52:2Z</time></trkpt>
<trkpt lat="46.466461066156626" lon="6.208021966740489"><ele></ele><time>2015-8-24T15:52:5Z</time></trkpt>
<trkpt lat="46.466496018692851" lon="6.20791845023632"><ele></ele><time>2015-8-24T15:52:8Z</time></trkpt>
<trkpt lat="46.466547567397356" lon="6.207769419997931"><ele></ele><time>2015-8-24T15:52:11Z</time></trkpt>
<trkpt lat="46.466562235727906" lon="6.207744022831321"><ele></ele><time>2015-8-24T15:52:14Z</time></trkpt>
<trkpt lat="46.466607833281159" lon="6.20763354934752"><ele></ele><time>2015-8-24T15:52:17Z</time></trkpt>
<trkpt lat="46.466640187427402" lon="6.207555262371898"><ele></ele><time>2015-8-24T15:52:20Z</time></trkpt>
<trkpt lat="46.466663824394345" lon="6.207505641505122"><ele></ele><time>2015-8-24T15:52:23Z</time></trkpt>
<trkpt lat="46.466726353392005" lon="6.207370022311807"><ele></ele><time>2015-8-24T15:52:26Z</time></trkpt>
<trkpt lat="46.466746050864458" lon="6.20731595903635"><ele></ele><time>2015-8-24T15:52:29Z</time></trkpt>
<trkpt lat="46.466769436374307" lon="6.207232978194952"><ele></ele><time>2015-8-24T15:52:32Z</time></trkpt>
<trkpt lat="46.466807490214705" lon="6.20714102871716"><ele></ele><time>2015-8-24T15:52:35Z</time></trkpt>
<trkpt lat="46.466817297041416" lon="6.207113871350884"><ele></ele><time>2015-8-24T15:52:38Z</time></trkpt>
<trkpt lat="46.466854428872466" lon="6.207024771720171"><ele></ele><time>2015-8-24T15:52:41Z</time></trkpt>
<trkpt lat="46.46688049659133" lon="6.206956207752228"><ele></ele><time>2015-8-24T15:52:44Z</time></trkpt>
<trkpt lat="46.466946126893163" lon="6.206805249676108"><ele></ele><time>2015-8-24T15:52:47Z</time></trkpt>
<trkpt lat="46.466956771910191" lon="6.206783289089799"><ele></ele><time>2015-8-24T15:52:50Z</time></trkpt>
<trkpt lat="46.466986108571291" lon="6.206679940223694"><ele></ele><time>2015-8-24T15:52:53Z</time></trkpt>
<trkpt lat="46.466996837407351" lon="6.206658566370606"><ele></ele><time>2015-8-24T15:52:56Z</time></trkpt>
<trkpt lat="46.467032292857766" lon="6.206603664904833"><ele></ele><time>2015-8-24T15:52:59Z</time></trkpt>
<trkpt lat="46.46709306165576" lon="6.206505093723536"><ele></ele><time>2015-8-24T15:53:2Z</time></trkpt>
<trkpt lat="46.467108735814691" lon="6.206482127308846"><ele></ele><time>2015-8-24T15:53:5Z</time></trkpt>
<trkpt lat="46.467161625623703" lon="6.206374419853091"><ele></ele><time>2015-8-24T15:53:8Z</time></trkpt>
<trkpt lat="46.467185681685805" lon="6.206332929432392"><ele></ele><time>2015-8-24T15:53:11Z</time></trkpt>
<trkpt lat="46.467259442433715" lon="6.206226143985987"><ele></ele><time>2015-8-24T15:53:14Z</time></trkpt>
<trkpt lat="46.467308141291142" lon="6.206156071275473"><ele></ele><time>2015-8-24T15:53:17Z</time></trkpt>
<trkpt lat="46.467332281172276" lon="6.206117933616042"><ele></ele><time>2015-8-24T15:53:20Z</time></trkpt>
<trkpt lat="46.467432864010334" lon="6.205995809286833"><ele></ele><time>2015-8-24T15:53:23Z</time></trkpt>
<trkpt lat="46.467449543997645" lon="6.205972591415048"><ele></ele><time>2015-8-24T15:53:26Z</time></trkpt>
<trkpt lat="46.467525148764253" lon="6.205872511491179"><ele></ele><time>2015-8-24T15:53:29Z</time></trkpt>
<trkpt lat="46.467587845399976" lon="6.205785339698195"><ele></ele><time>2015-8-24T15:53:32Z</time></trkpt>
<trkpt lat="46.46766914986074" lon="6.205679224804044"><ele></ele><time>2015-8-24T15:53:35Z</time></trkpt>
<trkpt lat="46.467685829848051" lon="6.205657180398703"><ele></ele><time>2015-8-24T15:53:38Z</time></trkpt>
<trkpt lat="46.467788005247712" lon="6.205527763813734"><ele></ele><time>2015-8-24T15:53:41Z</time></trkpt>
<trkpt lat="46.467819269746542" lon="6.2054811604321"><ele></ele><time>2015-8-24T15:53:44Z</time></trkpt>
<trkpt lat="46.467865370213985" lon="6.205415111035109"><ele></ele><time>2015-8-24T15:53:47Z</time></trkpt>
<trkpt lat="46.467947009950876" lon="6.205315534025431"><ele></ele><time>2015-8-24T15:53:50Z</time></trkpt>
<trkpt lat="46.468027979135513" lon="6.205206569284201"><ele></ele><time>2015-8-24T15:53:53Z</time></trkpt>
<trkpt lat="46.46811431273818" lon="6.205087630078197"><ele></ele><time>2015-8-24T15:53:56Z</time></trkpt>
<trkpt lat="46.468272227793932" lon="6.204863162711263"><ele></ele><time>2015-8-24T15:53:59Z</time></trkpt>
<trkpt lat="46.468318244442344" lon="6.204809350892901"><ele></ele><time>2015-8-24T15:54:2Z</time></trkpt>
<trkpt lat="46.468420503661036" lon="6.204680856317282"><ele></ele><time>2015-8-24T15:54:5Z</time></trkpt>
<trkpt lat="46.468492168933153" lon="6.204562252387404"><ele></ele><time>2015-8-24T15:54:8Z</time></trkpt>
<trkpt lat="46.4685950987041" lon="6.204363433644176"><ele></ele><time>2015-8-24T15:54:11Z</time></trkpt>
<trkpt lat="46.468632314354181" lon="6.204282129183412"><ele></ele><time>2015-8-24T15:54:14Z</time></trkpt>
<trkpt lat="46.468666680157185" lon="6.204200321808457"><ele></ele><time>2015-8-24T15:54:17Z</time></trkpt>
<trkpt lat="46.468764916062355" lon="6.203934112563729"><ele></ele><time>2015-8-24T15:54:20Z</time></trkpt>
<trkpt lat="46.468842616304755" lon="6.203799583017826"><ele></ele><time>2015-8-24T15:54:23Z</time></trkpt>
<trkpt lat="46.46888486109674" lon="6.203765887767076"><ele></ele><time>2015-8-24T15:54:26Z</time></trkpt>
<trkpt lat="46.469091475009918" lon="6.203581737354398"><ele></ele><time>2015-8-24T15:54:29Z</time></trkpt>
<trkpt lat="46.469245450571179" lon="6.203367915004492"><ele></ele><time>2015-8-24T15:54:32Z</time></trkpt>
<trkpt lat="46.469284258782864" lon="6.203275630250573"><ele></ele><time>2015-8-24T15:54:35Z</time></trkpt>
<trkpt lat="46.469319798052311" lon="6.203170353546739"><ele></ele><time>2015-8-24T15:54:38Z</time></trkpt>
<trkpt lat="46.469380483031273" lon="6.202936163172126"><ele></ele><time>2015-8-24T15:54:41Z</time></trkpt>
<trkpt lat="46.469408310949802" lon="6.202810937538743"><ele></ele><time>2015-8-24T15:54:44Z</time></trkpt>
<trkpt lat="46.469455501064658" lon="6.202537184581161"><ele></ele><time>2015-8-24T15:54:47Z</time></trkpt>
<trkpt lat="46.469560023397207" lon="6.202170476317406"><ele></ele><time>2015-8-24T15:54:50Z</time></trkpt>
<trkpt lat="46.469690026715398" lon="6.202081376686692"><ele></ele><time>2015-8-24T15:54:53Z</time></trkpt>
<trkpt lat="46.469900328665972" lon="6.202142313122749"><ele></ele><time>2015-8-24T15:54:56Z</time></trkpt>
<trkpt lat="46.46996813826263" lon="6.202162345871329"><ele></ele><time>2015-8-24T15:54:59Z</time></trkpt>
<trkpt lat="46.470093112438917" lon="6.202147426083684"><ele></ele><time>2015-8-24T15:55:2Z</time></trkpt>
<trkpt lat="46.47019880823791" lon="6.202093530446291"><ele></ele><time>2015-8-24T15:55:5Z</time></trkpt>
<trkpt lat="46.470324452966452" lon="6.202002335339785"><ele></ele><time>2015-8-24T15:55:8Z</time></trkpt>
<trkpt lat="46.470464430749416" lon="6.20187459513545"><ele></ele><time>2015-8-24T15:55:11Z</time></trkpt>
<trkpt lat="46.470561577007174" lon="6.201774515211582"><ele></ele><time>2015-8-24T15:55:14Z</time></trkpt>
<trkpt lat="46.470590410754085" lon="6.201743250712752"><ele></ele><time>2015-8-24T15:55:17Z</time></trkpt>
<trkpt lat="46.47067129611969" lon="6.201651887968183"><ele></ele><time>2015-8-24T15:55:20Z</time></trkpt>
<trkpt lat="46.47072359919548" lon="6.20158726349473"><ele></ele><time>2015-8-24T15:55:23Z</time></trkpt>
<trkpt lat="46.470775315538049" lon="6.201523812487721"><ele></ele><time>2015-8-24T15:55:26Z</time></trkpt>
<trkpt lat="46.470824601128697" lon="6.201464887708426"><ele></ele><time>2015-8-24T15:55:29Z</time></trkpt>
<trkpt lat="46.470875395461917" lon="6.201410992071033"><ele></ele><time>2015-8-24T15:55:32Z</time></trkpt>
<trkpt lat="46.470898780971766" lon="6.201380398124456"><ele></ele><time>2015-8-24T15:55:35Z</time></trkpt>
<trkpt lat="46.470920154824853" lon="6.201349217444658"><ele></ele><time>2015-8-24T15:55:38Z</time></trkpt>
<trkpt lat="46.471009170636535" lon="6.201212592422962"><ele></ele><time>2015-8-24T15:55:41Z</time></trkpt>
<trkpt lat="46.471084607765079" lon="6.201085606589913"><ele></ele><time>2015-8-24T15:55:44Z</time></trkpt>
<trkpt lat="46.471099276095629" lon="6.201054928824306"><ele></ele><time>2015-8-24T15:55:47Z</time></trkpt>
<trkpt lat="46.471143951639533" lon="6.200924422591925"><ele></ele><time>2015-8-24T15:55:50Z</time></trkpt>
<trkpt lat="46.471157530322671" lon="6.200858624652028"><ele></ele><time>2015-8-24T15:55:53Z</time></trkpt>
<trkpt lat="46.471180832013488" lon="6.200788887217641"><ele></ele><time>2015-8-24T15:55:56Z</time></trkpt>
<trkpt lat="46.471218969672918" lon="6.200647903606296"><ele></ele><time>2015-8-24T15:55:59Z</time></trkpt>
<trkpt lat="46.471248473972082" lon="6.200515301898122"><ele></ele><time>2015-8-24T15:56:2Z</time></trkpt>
<trkpt lat="46.471272865310311" lon="6.200423436239362"><ele></ele><time>2015-8-24T15:56:5Z</time></trkpt>
<trkpt lat="46.471284767612815" lon="6.200356129556894"><ele></ele><time>2015-8-24T15:56:8Z</time></trkpt>
<trkpt lat="46.471300106495619" lon="6.200222773477435"><ele></ele><time>2015-8-24T15:56:11Z</time></trkpt>
<trkpt lat="46.471311086788774" lon="6.200153874233365"><ele></ele><time>2015-8-24T15:56:14Z</time></trkpt>
<trkpt lat="46.471329443156719" lon="6.200085477903485"><ele></ele><time>2015-8-24T15:56:17Z</time></trkpt>
<trkpt lat="46.471363222226501" lon="6.199935777112842"><ele></ele><time>2015-8-24T15:56:20Z</time></trkpt>
<trkpt lat="46.471405047923326" lon="6.199939548969269"><ele></ele><time>2015-8-24T15:56:23Z</time></trkpt>
<trkpt lat="46.471422147005796" lon="6.199962431564927"><ele></ele><time>2015-8-24T15:56:26Z</time></trkpt>
<trkpt lat="46.47147461771965" lon="6.200128979980946"><ele></ele><time>2015-8-24T15:56:29Z</time></trkpt>
<trkpt lat="46.471485598012805" lon="6.200240878388286"><ele></ele><time>2015-8-24T15:56:32Z</time></trkpt>
<trkpt lat="46.471489956602454" lon="6.200300808995962"><ele></ele><time>2015-8-24T15:56:35Z</time></trkpt>
<trkpt lat="46.47149708122015" lon="6.200624434277415"><ele></ele><time>2015-8-24T15:56:38Z</time></trkpt>
<trkpt lat="46.471491884440184" lon="6.200689561665058"><ele></ele><time>2015-8-24T15:56:41Z</time></trkpt>
<trkpt lat="46.471482664346695" lon="6.200763406231999"><ele></ele><time>2015-8-24T15:56:44Z</time></trkpt>
<trkpt lat="46.471401527523994" lon="6.201053839176893"><ele></ele><time>2015-8-24T15:56:47Z</time></trkpt>
<trkpt lat="46.471360875293612" lon="6.201153332367539"><ele></ele><time>2015-8-24T15:56:50Z</time></trkpt>
<trkpt lat="46.471249479800463" lon="6.20145482942462"><ele></ele><time>2015-8-24T15:56:53Z</time></trkpt>
<trkpt lat="46.47121268324554" lon="6.201556669548154"><ele></ele><time>2015-8-24T15:56:56Z</time></trkpt>
<trkpt lat="46.471174964681268" lon="6.201656414195895"><ele></ele><time>2015-8-24T15:56:59Z</time></trkpt>
<trkpt lat="46.47109835408628" lon="6.201840313151479"><ele></ele><time>2015-8-24T15:57:2Z</time></trkpt>
<trkpt lat="46.47106071934104" lon="6.201921533793211"><ele></ele><time>2015-8-24T15:57:5Z</time></trkpt>
<trkpt lat="46.470979833975434" lon="6.202094200998545"><ele></ele><time>2015-8-24T15:57:8Z</time></trkpt>
<trkpt lat="46.470935828983784" lon="6.202185060828924"><ele></ele><time>2015-8-24T15:57:11Z</time></trkpt>
<trkpt lat="46.470823008567095" lon="6.20247264392674"><ele></ele><time>2015-8-24T15:57:14Z</time></trkpt>
<trkpt lat="46.470788894221187" lon="6.202578758820891"><ele></ele><time>2015-8-24T15:57:17Z</time></trkpt>
<trkpt lat="46.470700046047568" lon="6.202893080189824"><ele></ele><time>2015-8-24T15:57:20Z</time></trkpt>
<trkpt lat="46.470638355240226" lon="6.203106567263603"><ele></ele><time>2015-8-24T15:57:23Z</time></trkpt>
<trkpt lat="46.470607258379459" lon="6.203219974413514"><ele></ele><time>2015-8-24T15:57:26Z</time></trkpt>
<trkpt lat="46.47057649679482" lon="6.203330364078283"><ele></ele><time>2015-8-24T15:57:29Z</time></trkpt>
<trkpt lat="46.470540119335055" lon="6.20344016700983"><ele></ele><time>2015-8-24T15:57:32Z</time></trkpt>
<trkpt lat="46.470464514568448" lon="6.203659102320671"><ele></ele><time>2015-8-24T15:57:35Z</time></trkpt>
<trkpt lat="46.470437860116363" lon="6.203775778412819"><ele></ele><time>2015-8-24T15:57:38Z</time></trkpt>
<trkpt lat="46.470419000834227" lon="6.203884910792112"><ele></ele><time>2015-8-24T15:57:41Z</time></trkpt>
<trkpt lat="46.470424113795161" lon="6.204060260206461"><ele></ele><time>2015-8-24T15:57:44Z</time></trkpt>
<trkpt lat="46.470419922843575" lon="6.204170817509294"><ele></ele><time>2015-8-24T15:57:47Z</time></trkpt>
<trkpt lat="46.470404164865613" lon="6.204204261302948"><ele></ele><time>2015-8-24T15:57:50Z</time></trkpt>
<trkpt lat="46.470369966700673" lon="6.204251199960709"><ele></ele><time>2015-8-24T15:57:53Z</time></trkpt>
<trkpt lat="46.470339875668287" lon="6.2043138127774"><ele></ele><time>2015-8-24T15:57:56Z</time></trkpt>
<trkpt lat="46.470334259793162" lon="6.204335438087583"><ele></ele><time>2015-8-24T15:57:59Z</time></trkpt>
<trkpt lat="46.470320345833898" lon="6.204388244077563"><ele></ele><time>2015-8-24T15:58:2Z</time></trkpt>
<trkpt lat="46.470291092991829" lon="6.204442642629147"><ele></ele><time>2015-8-24T15:58:5Z</time></trkpt>
<trkpt lat="46.47026963531971" lon="6.204480361193419"><ele></ele><time>2015-8-24T15:58:8Z</time></trkpt>
<trkpt lat="46.470257649198174" lon="6.20450341142714"><ele></ele><time>2015-8-24T15:58:11Z</time></trkpt>
<trkpt lat="46.470221355557442" lon="6.204575160518289"><ele></ele><time>2015-8-24T15:58:14Z</time></trkpt>
<trkpt lat="46.470191851258278" lon="6.204607766121626"><ele></ele><time>2015-8-24T15:58:17Z</time></trkpt>
<trkpt lat="46.470114402472973" lon="6.20468714274466"><ele></ele><time>2015-8-24T15:58:20Z</time></trkpt>
<trkpt lat="46.470097554847598" lon="6.204705666750669"><ele></ele><time>2015-8-24T15:58:23Z</time></trkpt>
<trkpt lat="46.470044748857617" lon="6.204788228496909"><ele></ele><time>2015-8-24T15:58:26Z</time></trkpt>
<trkpt lat="46.470016418024898" lon="6.204831311479211"><ele></ele><time>2015-8-24T15:58:29Z</time></trkpt>
<trkpt lat="46.470003174617887" lon="6.204853188246489"><ele></ele><time>2015-8-24T15:58:32Z</time></trkpt>
<trkpt lat="46.469965204596519" lon="6.204973049461842"><ele></ele><time>2015-8-24T15:58:35Z</time></trkpt>
<trkpt lat="46.469956990331411" lon="6.204994507133961"><ele></ele><time>2015-8-24T15:58:38Z</time></trkpt>
<trkpt lat="46.469917763024569" lon="6.205062065273523"><ele></ele><time>2015-8-24T15:58:41Z</time></trkpt>
<trkpt lat="46.469881134107709" lon="6.205111686140299"><ele></ele><time>2015-8-24T15:58:44Z</time></trkpt>
<trkpt lat="46.469853306189179" lon="6.205148147419095"><ele></ele><time>2015-8-24T15:58:47Z</time></trkpt>
<trkpt lat="46.469796979799867" lon="6.205247640609741"><ele></ele><time>2015-8-24T15:58:50Z</time></trkpt>
<trkpt lat="46.469786753877997" lon="6.205263147130609"><ele></ele><time>2015-8-24T15:58:53Z</time></trkpt>
<trkpt lat="46.46975171752274" lon="6.205326598137617"><ele></ele><time>2015-8-24T15:58:56Z</time></trkpt>
<trkpt lat="46.469717686995864" lon="6.205374291166663"><ele></ele><time>2015-8-24T15:58:59Z</time></trkpt>
<trkpt lat="46.469705952331424" lon="6.205394491553307"><ele></ele><time>2015-8-24T15:59:2Z</time></trkpt>
<trkpt lat="46.469644345343113" lon="6.205508233979344"><ele></ele><time>2015-8-24T15:59:5Z</time></trkpt>
<trkpt lat="46.469624815508723" lon="6.205564979463816"><ele></ele><time>2015-8-24T15:59:8Z</time></trkpt>
<trkpt lat="46.469566645100713" lon="6.205711076036096"><ele></ele><time>2015-8-24T15:59:11Z</time></trkpt>
<trkpt lat="46.469558849930763" lon="6.205730605870485"><ele></ele><time>2015-8-24T15:59:14Z</time></trkpt>
<trkpt lat="46.469533033668995" lon="6.205788189545274"><ele></ele><time>2015-8-24T15:59:17Z</time></trkpt>
<trkpt lat="46.469487939029932" lon="6.205884581431746"><ele></ele><time>2015-8-24T15:59:20Z</time></trkpt>
<trkpt lat="46.469479640945792" lon="6.2059077154845"><ele></ele><time>2015-8-24T15:59:23Z</time></trkpt>
<trkpt lat="46.469461033120751" lon="6.20597175322473"><ele></ele><time>2015-8-24T15:59:26Z</time></trkpt>
<trkpt lat="46.469428259879351" lon="6.206085998564959"><ele></ele><time>2015-8-24T15:59:29Z</time></trkpt>
<trkpt lat="46.469418788328767" lon="6.206112485378981"><ele></ele><time>2015-8-24T15:59:32Z</time></trkpt>
<trkpt lat="46.469365395605564" lon="6.20627224445343"><ele></ele><time>2015-8-24T15:59:35Z</time></trkpt>
<trkpt lat="46.46935785189271" lon="6.206297976896167"><ele></ele><time>2015-8-24T15:59:38Z</time></trkpt>
<trkpt lat="46.469323066994548" lon="6.20643837377429"><ele></ele><time>2015-8-24T15:59:41Z</time></trkpt>
<trkpt lat="46.469312589615583" lon="6.206464860588312"><ele></ele><time>2015-8-24T15:59:44Z</time></trkpt>
<trkpt lat="46.469253497198224" lon="6.206611711531878"><ele></ele><time>2015-8-24T15:59:47Z</time></trkpt>
<trkpt lat="46.469213096424937" lon="6.206737440079451"><ele></ele><time>2015-8-24T15:59:50Z</time></trkpt>
<trkpt lat="46.469208905473351" lon="6.206765016540885"><ele></ele><time>2015-8-24T15:59:53Z</time></trkpt>
<trkpt lat="46.469194069504738" lon="6.206880938261747"><ele></ele><time>2015-8-24T15:59:56Z</time></trkpt>
<trkpt lat="46.469190968200564" lon="6.206933073699474"><ele></ele><time>2015-8-24T15:59:59Z</time></trkpt>
<trkpt lat="46.469186777248979" lon="6.207002056762576"><ele></ele><time>2015-8-24T16:0:2Z</time></trkpt>
<trkpt lat="46.469187866896391" lon="6.207118900492787"><ele></ele><time>2015-8-24T16:0:5Z</time></trkpt>
<trkpt lat="46.469167163595557" lon="6.207241527736187"><ele></ele><time>2015-8-24T16:0:8Z</time></trkpt>
<trkpt lat="46.469166157767177" lon="6.207261895760894"><ele></ele><time>2015-8-24T16:0:11Z</time></trkpt>
<trkpt lat="46.469162637367845" lon="6.207317719236016"><ele></ele><time>2015-8-24T16:0:14Z</time></trkpt>
<trkpt lat="46.469176718965173" lon="6.207395922392607"><ele></ele><time>2015-8-24T16:0:17Z</time></trkpt>
<trkpt lat="46.469185268506408" lon="6.207410590723157"><ele></ele><time>2015-8-24T16:0:20Z</time></trkpt>
<trkpt lat="46.469224914908409" lon="6.207468174397945"><ele></ele><time>2015-8-24T16:0:23Z</time></trkpt>
<trkpt lat="46.469258610159159" lon="6.207522237673402"><ele></ele><time>2015-8-24T16:0:26Z</time></trkpt>
<trkpt lat="46.469269758090377" lon="6.207541013136506"><ele></ele><time>2015-8-24T16:0:29Z</time></trkpt>
<trkpt lat="46.469280906021595" lon="6.20755635201931"><ele></ele><time>2015-8-24T16:0:32Z</time></trkpt>
<trkpt lat="46.469312841072679" lon="6.20761695317924"><ele></ele><time>2015-8-24T16:0:35Z</time></trkpt>
<trkpt lat="46.469345446676016" lon="6.207691300660372"><ele></ele><time>2015-8-24T16:0:38Z</time></trkpt>
<trkpt lat="46.46939255297184" lon="6.207789704203606"><ele></ele><time>2015-8-24T16:0:41Z</time></trkpt>
<trkpt lat="46.469459105283022" lon="6.207920126616955"><ele></ele><time>2015-8-24T16:0:44Z</time></trkpt>
<trkpt lat="46.469493638724089" lon="6.208010315895081"><ele></ele><time>2015-8-24T16:0:47Z</time></trkpt>
<trkpt lat="46.469529932364821" lon="6.208096733316779"><ele></ele><time>2015-8-24T16:0:50Z</time></trkpt>
<trkpt lat="46.469591204077005" lon="6.208261270076036"><ele></ele><time>2015-8-24T16:0:53Z</time></trkpt>
<trkpt lat="46.469647027552128" lon="6.208393452689052"><ele></ele><time>2015-8-24T16:0:56Z</time></trkpt>
<trkpt lat="46.469697570428252" lon="6.208487749099731"><ele></ele><time>2015-8-24T16:0:59Z</time></trkpt>
<trkpt lat="46.469754735007882" lon="6.208610208705068"><ele></ele><time>2015-8-24T16:1:2Z</time></trkpt>
<trkpt lat="46.469796979799867" lon="6.208826377987862"><ele></ele><time>2015-8-24T16:1:5Z</time></trkpt>
<trkpt lat="46.469808630645275" lon="6.209036679938436"><ele></ele><time>2015-8-24T16:1:8Z</time></trkpt>
<trkpt lat="46.46981181576848" lon="6.209074482321739"><ele></ele><time>2015-8-24T16:1:11Z</time></trkpt>
<trkpt lat="46.469814162701368" lon="6.209114631637931"><ele></ele><time>2015-8-24T16:1:14Z</time></trkpt>
<trkpt lat="46.469834195449948" lon="6.209314791485667"><ele></ele><time>2015-8-24T16:1:17Z</time></trkpt>
<trkpt lat="46.469854144379497" lon="6.20939651504159"><ele></ele><time>2015-8-24T16:1:20Z</time></trkpt>
<trkpt lat="46.469908291473985" lon="6.209557866677642"><ele></ele><time>2015-8-24T16:1:23Z</time></trkpt>
<trkpt lat="46.469933521002531" lon="6.209634058177471"><ele></ele><time>2015-8-24T16:1:26Z</time></trkpt>
<trkpt lat="46.469987919554114" lon="6.209808485582471"><ele></ele><time>2015-8-24T16:1:29Z</time></trkpt>
<trkpt lat="46.470048520714045" lon="6.209959108382463"><ele></ele><time>2015-8-24T16:1:32Z</time></trkpt>
<trkpt lat="46.470055561512709" lon="6.209996324032545"><ele></ele><time>2015-8-24T16:1:35Z</time></trkpt>
<trkpt lat="46.470076935365796" lon="6.210180725902319"><ele></ele><time>2015-8-24T16:1:38Z</time></trkpt>
<trkpt lat="46.47008297033608" lon="6.210215259343386"><ele></ele><time>2015-8-24T16:1:41Z</time></trkpt>
<trkpt lat="46.470139296725392" lon="6.210375772789121"><ele></ele><time>2015-8-24T16:1:44Z</time></trkpt>
<trkpt lat="46.470146588981152" lon="6.210406785830855"><ele></ele><time>2015-8-24T16:1:47Z</time></trkpt>
<trkpt lat="46.470205262303352" lon="6.210571741685271"><ele></ele><time>2015-8-24T16:1:50Z</time></trkpt>
<trkpt lat="46.470227306708694" lon="6.210638713091612"><ele></ele><time>2015-8-24T16:1:53Z</time></trkpt>
<trkpt lat="46.470285896211863" lon="6.210792269557714"><ele></ele><time>2015-8-24T16:1:56Z</time></trkpt>
<trkpt lat="46.470346665009856" lon="6.210944317281246"><ele></ele><time>2015-8-24T16:1:59Z</time></trkpt>
<trkpt lat="46.470358315855265" lon="6.210972480475903"><ele></ele><time>2015-8-24T16:2:2Z</time></trkpt>
<trkpt lat="46.470429394394159" lon="6.21119661256671"><ele></ele><time>2015-8-24T16:2:5Z</time></trkpt>
<trkpt lat="46.470497120171785" lon="6.211347654461861"><ele></ele><time>2015-8-24T16:2:8Z</time></trkpt>
<trkpt lat="46.470545651391149" lon="6.211473131552339"><ele></ele><time>2015-8-24T16:2:11Z</time></trkpt>
<trkpt lat="46.470675151795149" lon="6.211719056591392"><ele></ele><time>2015-8-24T16:2:14Z</time></trkpt>
<trkpt lat="46.470734663307667" lon="6.21177714318037"><ele></ele><time>2015-8-24T16:2:17Z</time></trkpt>
<trkpt lat="46.470786966383457" lon="6.211836319416761"><ele></ele><time>2015-8-24T16:2:20Z</time></trkpt>
<trkpt lat="46.470811273902655" lon="6.211867416277528"><ele></ele><time>2015-8-24T16:2:23Z</time></trkpt>
<trkpt lat="46.470919735729694" lon="6.212035808712244"><ele></ele><time>2015-8-24T16:2:26Z</time></trkpt>
<trkpt lat="46.471001207828522" lon="6.212145946919918"><ele></ele><time>2015-8-24T16:2:29Z</time></trkpt>
<trkpt lat="46.471111094579101" lon="6.212292462587357"><ele></ele><time>2015-8-24T16:2:32Z</time></trkpt>
<trkpt lat="46.471224585548043" lon="6.212433194741607"><ele></ele><time>2015-8-24T16:2:35Z</time></trkpt>
<trkpt lat="46.47138325497508" lon="6.212657913565636"><ele></ele><time>2015-8-24T16:2:38Z</time></trkpt>
<trkpt lat="46.471417117863894" lon="6.212704852223396"><ele></ele><time>2015-8-24T16:2:41Z</time></trkpt>
<trkpt lat="46.471481407061219" lon="6.212789844721556"><ele></ele><time>2015-8-24T16:2:44Z</time></trkpt>
<trkpt lat="46.471739234402776" lon="6.213112715631723"><ele></ele><time>2015-8-24T16:2:47Z</time></trkpt>
<trkpt lat="46.471902430057526" lon="6.213387474417686"><ele></ele><time>2015-8-24T16:2:50Z</time></trkpt>
<trkpt lat="46.471945513039827" lon="6.213470287621021"><ele></ele><time>2015-8-24T16:2:53Z</time></trkpt>
<trkpt lat="46.471981052309275" lon="6.213561901822686"><ele></ele><time>2015-8-24T16:2:56Z</time></trkpt>
<trkpt lat="46.472065877169371" lon="6.213876809924841"><ele></ele><time>2015-8-24T16:2:59Z</time></trkpt>
<trkpt lat="46.472129328176379" lon="6.214101277291775"><ele></ele><time>2015-8-24T16:3:2Z</time></trkpt>
<trkpt lat="46.472199987620115" lon="6.214332198724151"><ele></ele><time>2015-8-24T16:3:5Z</time></trkpt>
<trkpt lat="46.472238292917609" lon="6.214430769905448"><ele></ele><time>2015-8-24T16:3:8Z</time></trkpt>
<trkpt lat="46.472280789166689" lon="6.214524144306779"><ele></ele><time>2015-8-24T16:3:11Z</time></trkpt>
<trkpt lat="46.472329823300242" lon="6.214604191482067"><ele></ele><time>2015-8-24T16:3:14Z</time></trkpt>
<trkpt lat="46.472387909889221" lon="6.214673342183232"><ele></ele><time>2015-8-24T16:3:17Z</time></trkpt>
<trkpt lat="46.472451696172357" lon="6.214736290276051"><ele></ele><time>2015-8-24T16:3:20Z</time></trkpt>
<trkpt lat="46.472514476627111" lon="6.214794125407934"><ele></ele><time>2015-8-24T16:3:23Z</time></trkpt>
<trkpt lat="46.472572227939963" lon="6.214845590293407"><ele></ele><time>2015-8-24T16:3:26Z</time></trkpt>
<trkpt lat="46.472630985081196" lon="6.214878614991903"><ele></ele><time>2015-8-24T16:3:29Z</time></trkpt>
<trkpt lat="46.472687730565667" lon="6.214899737387896"><ele></ele><time>2015-8-24T16:3:32Z</time></trkpt>
<trkpt lat="46.47273768670857" lon="6.214906694367528"><ele></ele><time>2015-8-24T16:3:35Z</time></trkpt>
<trkpt lat="46.472875820472836" lon="6.21490434743464"><ele></ele><time>2015-8-24T16:3:38Z</time></trkpt>
<trkpt lat="46.472919322550297" lon="6.214920440688729"><ele></ele><time>2015-8-24T16:3:41Z</time></trkpt>
<trkpt lat="46.473023174330592" lon="6.214983137324452"><ele></ele><time>2015-8-24T16:3:44Z</time></trkpt>
<trkpt lat="46.473078746348619" lon="6.215006858110428"><ele></ele><time>2015-8-24T16:3:47Z</time></trkpt>
<trkpt lat="46.473143706098199" lon="6.215038122609258"><ele></ele><time>2015-8-24T16:3:50Z</time></trkpt>
<trkpt lat="46.473266249522567" lon="6.215071901679039"><ele></ele><time>2015-8-24T16:3:53Z</time></trkpt>
<trkpt lat="46.473319223150611" lon="6.215066872537136"><ele></ele><time>2015-8-24T16:3:56Z</time></trkpt>
<trkpt lat="46.47344084456563" lon="6.215048264712095"><ele></ele><time>2015-8-24T16:3:59Z</time></trkpt>
<trkpt lat="46.473469007760286" lon="6.215043654665351"><ele></ele><time>2015-8-24T16:4:2Z</time></trkpt>
<trkpt lat="46.473521646112204" lon="6.215039128437638"><ele></ele><time>2015-8-24T16:4:5Z</time></trkpt>
<trkpt lat="46.473600352182984" lon="6.215032255277038"><ele></ele><time>2015-8-24T16:4:8Z</time></trkpt>
<trkpt lat="46.47365340963006" lon="6.215016916394234"><ele></ele><time>2015-8-24T16:4:11Z</time></trkpt>
<trkpt lat="46.473675202578306" lon="6.214998560026288"><ele></ele><time>2015-8-24T16:4:14Z</time></trkpt>
<trkpt lat="46.473741419613361" lon="6.214974336326122"><ele></ele><time>2015-8-24T16:4:17Z</time></trkpt>
<trkpt lat="46.473781988024712" lon="6.214955393224955"><ele></ele><time>2015-8-24T16:4:20Z</time></trkpt>
<trkpt lat="46.473850635811687" lon="6.214886996895075"><ele></ele><time>2015-8-24T16:4:23Z</time></trkpt>
<trkpt lat="46.473882654681802" lon="6.214813739061356"><ele></ele><time>2015-8-24T16:4:26Z</time></trkpt>
<trkpt lat="46.47390260361135" lon="6.214732937514782"><ele></ele><time>2015-8-24T16:4:29Z</time></trkpt>
<trkpt lat="46.473912158980966" lon="6.21462045237422"><ele></ele><time>2015-8-24T16:4:32Z</time></trkpt>
<trkpt lat="46.473912829533219" lon="6.214592205360532"><ele></ele><time>2015-8-24T16:4:35Z</time></trkpt>
<trkpt lat="46.473912242799997" lon="6.21456328779459"><ele></ele><time>2015-8-24T16:4:38Z</time></trkpt>
<trkpt lat="46.473910734057426" lon="6.214510565623641"><ele></ele><time>2015-8-24T16:4:41Z</time></trkpt>
<trkpt lat="46.473913583904505" lon="6.214480306953192"><ele></ele><time>2015-8-24T16:4:44Z</time></trkpt>
<trkpt lat="46.473923977464437" lon="6.214427668601274"><ele></ele><time>2015-8-24T16:4:47Z</time></trkpt>
<trkpt lat="46.473934790119529" lon="6.214318871498108"><ele></ele><time>2015-8-24T16:4:50Z</time></trkpt>
<trkpt lat="46.473940908908844" lon="6.214262712746859"><ele></ele><time>2015-8-24T16:4:53Z</time></trkpt>
<trkpt lat="46.47396027110517" lon="6.214177468791604"><ele></ele><time>2015-8-24T16:4:56Z</time></trkpt>
<trkpt lat="46.473988434299827" lon="6.214070348069072"><ele></ele><time>2015-8-24T16:4:59Z</time></trkpt>
<trkpt lat="46.47399740293622" lon="6.214047633111477"><ele></ele><time>2015-8-24T16:5:2Z</time></trkpt>
<trkpt lat="46.474029757082462" lon="6.213929951190948"><ele></ele><time>2015-8-24T16:5:5Z</time></trkpt>
<trkpt lat="46.474037216976285" lon="6.213903464376926"><ele></ele><time>2015-8-24T16:5:8Z</time></trkpt>
<trkpt lat="46.474064709618688" lon="6.213778741657734"><ele></ele><time>2015-8-24T16:5:11Z</time></trkpt>
<trkpt lat="46.474072672426701" lon="6.213730545714498"><ele></ele><time>2015-8-24T16:5:14Z</time></trkpt>
<trkpt lat="46.474103601649404" lon="6.213661646470428"><ele></ele><time>2015-8-24T16:5:17Z</time></trkpt>
<trkpt lat="46.474121622741222" lon="6.213606745004654"><ele></ele><time>2015-8-24T16:5:20Z</time></trkpt>
<trkpt lat="46.47415523417294" lon="6.213507419452071"><ele></ele><time>2015-8-24T16:5:23Z</time></trkpt>
<trkpt lat="46.474176859483123" lon="6.213468359783292"><ele></ele><time>2015-8-24T16:5:26Z</time></trkpt>
<trkpt lat="46.474220529198647" lon="6.213417649269104"><ele></ele><time>2015-8-24T16:5:29Z</time></trkpt>
<trkpt lat="46.474288254976273" lon="6.213359897956252"><ele></ele><time>2015-8-24T16:5:32Z</time></trkpt>
<trkpt lat="46.474360004067421" lon="6.213350761681795"><ele></ele><time>2015-8-24T16:5:35Z</time></trkpt>
<trkpt lat="46.474377606064081" lon="6.213360819965601"><ele></ele><time>2015-8-24T16:5:38Z</time></trkpt>
<trkpt lat="46.474465783685446" lon="6.213396694511175"><ele></ele><time>2015-8-24T16:5:41Z</time></trkpt>
<trkpt lat="46.47448112256825" lon="6.213400298729539"><ele></ele><time>2015-8-24T16:5:44Z</time></trkpt>
<trkpt lat="46.474561924114823" lon="6.21341404505074"><ele></ele><time>2015-8-24T16:5:47Z</time></trkpt>
<trkpt lat="46.474613640457392" lon="6.213412703946233"><ele></ele><time>2015-8-24T16:5:50Z</time></trkpt>
<trkpt lat="46.474628644064069" lon="6.21341060847044"><ele></ele><time>2015-8-24T16:5:53Z</time></trkpt>
<trkpt lat="46.474741296842694" lon="6.213387977331877"><ele></ele><time>2015-8-24T16:5:56Z</time></trkpt>
<trkpt lat="46.474761832505465" lon="6.213382948189974"><ele></ele><time>2015-8-24T16:5:59Z</time></trkpt>
<trkpt lat="46.474830815568566" lon="6.213366435840726"><ele></ele><time>2015-8-24T16:6:2Z</time></trkpt>
<trkpt lat="46.474896026775241" lon="6.21335101313889"><ele></ele><time>2015-8-24T16:6:5Z</time></trkpt>
<trkpt lat="46.474961657077074" lon="6.213341122493148"><ele></ele><time>2015-8-24T16:6:8Z</time></trkpt>
<trkpt lat="46.47504698485136" lon="6.213329052552581"><ele></ele><time>2015-8-24T16:6:11Z</time></trkpt>
<trkpt lat="46.475093085318804" lon="6.213327879086137"><ele></ele><time>2015-8-24T16:6:14Z</time></trkpt>
<trkpt lat="46.475136168301105" lon="6.213329220190644"><ele></ele><time>2015-8-24T16:6:17Z</time></trkpt>
<trkpt lat="46.475190231576562" lon="6.213314719498158"><ele></ele><time>2015-8-24T16:6:20Z</time></trkpt>
<trkpt lat="46.475204396992922" lon="6.21331337839365"><ele></ele><time>2015-8-24T16:6:23Z</time></trkpt>
<trkpt lat="46.475289640948176" lon="6.213291585445404"><ele></ele><time>2015-8-24T16:6:26Z</time></trkpt>
<trkpt lat="46.475329454988241" lon="6.213275911286473"><ele></ele><time>2015-8-24T16:6:29Z</time></trkpt>
<trkpt lat="46.475370023399591" lon="6.213263086974621"><ele></ele><time>2015-8-24T16:6:32Z</time></trkpt>
<trkpt lat="46.47544177249074" lon="6.213224697858095"><ele></ele><time>2015-8-24T16:6:35Z</time></trkpt>
<trkpt lat="46.475466582924128" lon="6.213211370632052"><ele></ele><time>2015-8-24T16:6:38Z</time></trkpt>
<trkpt lat="46.475551323965192" lon="6.213145153596997"><ele></ele><time>2015-8-24T16:6:41Z</time></trkpt>
<trkpt lat="46.475585522130132" lon="6.213110201060772"><ele></ele><time>2015-8-24T16:6:44Z</time></trkpt>
<trkpt lat="46.475649895146489" lon="6.213053874671459"><ele></ele><time>2015-8-24T16:6:47Z</time></trkpt>
<trkpt lat="46.475684093311429" lon="6.213038451969624"><ele></ele><time>2015-8-24T16:6:50Z</time></trkpt>
<trkpt lat="46.475771013647318" lon="6.212991597130895"><ele></ele><time>2015-8-24T16:6:53Z</time></trkpt>
<trkpt lat="46.475816359743476" lon="6.21296301484108"><ele></ele><time>2015-8-24T16:6:56Z</time></trkpt>
<trkpt lat="46.475850557908416" lon="6.212951196357608"><ele></ele><time>2015-8-24T16:6:59Z</time></trkpt>
<trkpt lat="46.475917277857661" lon="6.212916746735573"><ele></ele><time>2015-8-24T16:7:2Z</time></trkpt>
<trkpt lat="46.475925911217928" lon="6.212913477793336"><ele></ele><time>2015-8-24T16:7:5Z</time></trkpt>
<trkpt lat="46.475993888452649" lon="6.212873999029398"><ele></ele><time>2015-8-24T16:7:8Z</time></trkpt>
<trkpt lat="46.476015765219927" lon="6.212862767279148"><ele></ele><time>2015-8-24T16:7:11Z</time></trkpt>
<trkpt lat="46.476134955883026" lon="6.212815660983324"><ele></ele><time>2015-8-24T16:7:14Z</time></trkpt>
<trkpt lat="46.476155994459987" lon="6.212805602699518"><ele></ele><time>2015-8-24T16:7:17Z</time></trkpt>
<trkpt lat="46.476259510964155" lon="6.212770733982325"><ele></ele><time>2015-8-24T16:7:20Z</time></trkpt>
<trkpt lat="46.476308293640614" lon="6.212753467261791"><ele></ele><time>2015-8-24T16:7:23Z</time></trkpt>
<trkpt lat="46.476408876478672" lon="6.212715581059456"><ele></ele><time>2015-8-24T16:7:26Z</time></trkpt>
<trkpt lat="46.476447014138103" lon="6.212696135044098"><ele></ele><time>2015-8-24T16:7:29Z</time></trkpt>
<trkpt lat="46.476558996364474" lon="6.212684400379658"><ele></ele><time>2015-8-24T16:7:32Z</time></trkpt>
<trkpt lat="46.476714564487338" lon="6.21264542452991"><ele></ele><time>2015-8-24T16:7:35Z</time></trkpt>
<trkpt lat="46.476756306365132" lon="6.212629918009043"><ele></ele><time>2015-8-24T16:7:38Z</time></trkpt>
<trkpt lat="46.476839538663626" lon="6.212604939937592"><ele></ele><time>2015-8-24T16:7:41Z</time></trkpt>
<trkpt lat="46.476958645507693" lon="6.212602006271482"><ele></ele><time>2015-8-24T16:7:44Z</time></trkpt>
<trkpt lat="46.477099545300007" lon="6.212526233866811"><ele></ele><time>2015-8-24T16:7:47Z</time></trkpt>
<trkpt lat="46.477122763171792" lon="6.212525311857462"><ele></ele><time>2015-8-24T16:7:50Z</time></trkpt>
<trkpt lat="46.477246396243572" lon="6.212495975196362"><ele></ele><time>2015-8-24T16:7:53Z</time></trkpt>
<trkpt lat="46.477261483669281" lon="6.212487258017063"><ele></ele><time>2015-8-24T16:7:56Z</time></trkpt>
<trkpt lat="46.477355863898993" lon="6.212451132014394"><ele></ele><time>2015-8-24T16:7:59Z</time></trkpt>
<trkpt lat="46.477372460067272" lon="6.212443672120571"><ele></ele><time>2015-8-24T16:8:2Z</time></trkpt>
<trkpt lat="46.477421661838889" lon="6.212414167821407"><ele></ele><time>2015-8-24T16:8:5Z</time></trkpt>
<trkpt lat="46.477477233856916" lon="6.212386675179005"><ele></ele><time>2015-8-24T16:8:8Z</time></trkpt>
<trkpt lat="46.477496679872274" lon="6.212381394580007"><ele></ele><time>2015-8-24T16:8:11Z</time></trkpt>
<trkpt lat="46.477585947141051" lon="6.212335545569658"><ele></ele><time>2015-8-24T16:8:14Z</time></trkpt>
<trkpt lat="46.477637244388461" lon="6.212303694337606"><ele></ele><time>2015-8-24T16:8:17Z</time></trkpt>
<trkpt lat="46.477709664031863" lon="6.212256839498878"><ele></ele><time>2015-8-24T16:8:20Z</time></trkpt>
<trkpt lat="46.477754339575768" lon="6.212220964953303"><ele></ele><time>2015-8-24T16:8:23Z</time></trkpt>
<trkpt lat="46.477822065353394" lon="6.212163213640451"><ele></ele><time>2015-8-24T16:8:26Z</time></trkpt>
<trkpt lat="46.477917535230517" lon="6.212083753198385"><ele></ele><time>2015-8-24T16:8:29Z</time></trkpt>
<trkpt lat="46.477932455018163" lon="6.212071515619755"><ele></ele><time>2015-8-24T16:8:32Z</time></trkpt>
<trkpt lat="46.478022392839193" lon="6.21200043708086"><ele></ele><time>2015-8-24T16:8:35Z</time></trkpt>
<trkpt lat="46.478038905188441" lon="6.211989875882864"><ele></ele><time>2015-8-24T16:8:38Z</time></trkpt>
<trkpt lat="46.478162035346031" lon="6.211904883384705"><ele></ele><time>2015-8-24T16:8:41Z</time></trkpt>
<trkpt lat="46.478186175227165" lon="6.21188904158771"><ele></ele><time>2015-8-24T16:8:44Z</time></trkpt>
<trkpt lat="46.478337468579412" lon="6.211776472628117"><ele></ele><time>2015-8-24T16:8:47Z</time></trkpt>
<trkpt lat="46.478417431935668" lon="6.211711931973696"><ele></ele><time>2015-8-24T16:8:50Z</time></trkpt>
<trkpt lat="46.478518769145012" lon="6.211625933647156"><ele></ele><time>2015-8-24T16:8:53Z</time></trkpt>
<trkpt lat="46.478605940937996" lon="6.211553094908595"><ele></ele><time>2015-8-24T16:8:56Z</time></trkpt>
<trkpt lat="46.478627985343337" lon="6.211533062160015"><ele></ele><time>2015-8-24T16:8:59Z</time></trkpt>
<trkpt lat="46.478731920942664" lon="6.211443208158016"><ele></ele><time>2015-8-24T16:9:2Z</time></trkpt>
<trkpt lat="46.478753630071878" lon="6.211431892588735"><ele></ele><time>2015-8-24T16:9:5Z</time></trkpt>
<trkpt lat="46.478791432455182" lon="6.211404064670205"><ele></ele><time>2015-8-24T16:9:8Z</time></trkpt>
<trkpt lat="46.478880615904927" lon="6.211321586742997"><ele></ele><time>2015-8-24T16:9:11Z</time></trkpt>
<trkpt lat="46.47889394313097" lon="6.21130608022213"><ele></ele><time>2015-8-24T16:9:14Z</time></trkpt>
<trkpt lat="46.478954963386059" lon="6.211237264797091"><ele></ele><time>2015-8-24T16:9:17Z</time></trkpt>
<trkpt lat="46.478984467685223" lon="6.211204323917627"><ele></ele><time>2015-8-24T16:9:20Z</time></trkpt>
<trkpt lat="46.47902344353497" lon="6.211147662252188"><ele></ele><time>2015-8-24T16:9:23Z</time></trkpt>
<trkpt lat="46.47908546961844" lon="6.211064765229821"><ele></ele><time>2015-8-24T16:9:26Z</time></trkpt>
<trkpt lat="46.47910550236702" lon="6.211043475195765"><ele></ele><time>2015-8-24T16:9:29Z</time></trkpt>
<trkpt lat="46.479125116020441" lon="6.211023358628154"><ele></ele><time>2015-8-24T16:9:32Z</time></trkpt>
<trkpt lat="46.479241037741303" lon="6.210856474936008"><ele></ele><time>2015-8-24T16:9:35Z</time></trkpt>
<trkpt lat="46.479322677478194" lon="6.210759580135345"><ele></ele><time>2015-8-24T16:9:38Z</time></trkpt>
<trkpt lat="46.479417812079191" lon="6.21066503226757"><ele></ele><time>2015-8-24T16:9:41Z</time></trkpt>
<trkpt lat="46.479470450431108" lon="6.210621697828174"><ele></ele><time>2015-8-24T16:9:44Z</time></trkpt>
<trkpt lat="46.47961906157434" lon="6.210515834391117"><ele></ele><time>2015-8-24T16:9:47Z</time></trkpt>
<trkpt lat="46.479803128167987" lon="6.210370743647218"><ele></ele><time>2015-8-24T16:9:50Z</time></trkpt>
<trkpt lat="46.479832632467151" lon="6.210351381450891"><ele></ele><time>2015-8-24T16:9:53Z</time></trkpt>
<trkpt lat="46.480015609413385" lon="6.210215929895639"><ele></ele><time>2015-8-24T16:9:56Z</time></trkpt>
<trkpt lat="46.480045868083835" lon="6.21019396930933"><ele></ele><time>2015-8-24T16:9:59Z</time></trkpt>
<trkpt lat="46.480292631313205" lon="6.210013926029205"><ele></ele><time>2015-8-24T16:10:2Z</time></trkpt>
<trkpt lat="46.480568312108517" lon="6.209807563573122"><ele></ele><time>2015-8-24T16:10:5Z</time></trkpt>
<trkpt lat="46.480629667639732" lon="6.209768000990152"><ele></ele><time>2015-8-24T16:10:8Z</time></trkpt>
<trkpt lat="46.480805519968271" lon="6.209638835862279"><ele></ele><time>2015-8-24T16:10:11Z</time></trkpt>
<trkpt lat="46.480893613770604" lon="6.209572535008192"><ele></ele><time>2015-8-24T16:10:14Z</time></trkpt>
<trkpt lat="46.481071477755904" lon="6.209430964663625"><ele></ele><time>2015-8-24T16:10:17Z</time></trkpt>
<trkpt lat="46.481102155521512" lon="6.209408333525062"><ele></ele><time>2015-8-24T16:10:20Z</time></trkpt>
<trkpt lat="46.48129946552217" lon="6.209245808422565"><ele></ele><time>2015-8-24T16:10:23Z</time></trkpt>
<trkpt lat="46.481509599834681" lon="6.209081271663308"><ele></ele><time>2015-8-24T16:10:26Z</time></trkpt>
<trkpt lat="46.481569027528167" lon="6.209035255014896"><ele></ele><time>2015-8-24T16:10:29Z</time></trkpt>
<trkpt lat="46.481777653098106" lon="6.208882033824921"><ele></ele><time>2015-8-24T16:10:32Z</time></trkpt>
<trkpt lat="46.48183791898191" lon="6.208835514262319"><ele></ele><time>2015-8-24T16:10:35Z</time></trkpt>
<trkpt lat="46.482016704976559" lon="6.208720933645964"><ele></ele><time>2015-8-24T16:10:38Z</time></trkpt>
<trkpt lat="46.482076216489077" lon="6.208683717995882"><ele></ele><time>2015-8-24T16:10:41Z</time></trkpt>
<trkpt lat="46.482218205928802" lon="6.20860199443996"><ele></ele><time>2015-8-24T16:10:44Z</time></trkpt>
<trkpt lat="46.482305126264691" lon="6.208586236461997"><ele></ele><time>2015-8-24T16:10:47Z</time></trkpt>
<trkpt lat="46.482450468465686" lon="6.208567377179861"><ele></ele><time>2015-8-24T16:10:50Z</time></trkpt>
<trkpt lat="46.482505034655333" lon="6.208559246733785"><ele></ele><time>2015-8-24T16:10:53Z</time></trkpt>
<trkpt lat="46.482559181749821" lon="6.208557318896055"><ele></ele><time>2015-8-24T16:10:56Z</time></trkpt>
<trkpt lat="46.482664290815592" lon="6.208538878709078"><ele></ele><time>2015-8-24T16:10:59Z</time></trkpt>
<trkpt lat="46.482739811763167" lon="6.20851943269372"><ele></ele><time>2015-8-24T16:11:2Z</time></trkpt>
<trkpt lat="46.482785157859325" lon="6.208514655008912"><ele></ele><time>2015-8-24T16:11:5Z</time></trkpt>
<trkpt lat="46.482870737090707" lon="6.208499567583203"><ele></ele><time>2015-8-24T16:11:8Z</time></trkpt>
<trkpt lat="46.482938127592206" lon="6.208475343883038"><ele></ele><time>2015-8-24T16:11:11Z</time></trkpt>
<trkpt lat="46.483014486730099" lon="6.208462016656995"><ele></ele><time>2015-8-24T16:11:14Z</time></trkpt>
<trkpt lat="46.483101742342114" lon="6.208425555378199"><ele></ele><time>2015-8-24T16:11:17Z</time></trkpt>
<trkpt lat="46.483155051246285" lon="6.208399403840303"><ele></ele><time>2015-8-24T16:11:20Z</time></trkpt>
<trkpt lat="46.483282456174493" lon="6.20834844186902"><ele></ele><time>2015-8-24T16:11:23Z</time></trkpt>
<trkpt lat="46.483386475592852" lon="6.208271915093064"><ele></ele><time>2015-8-24T16:11:26Z</time></trkpt>
<trkpt lat="46.483420757576823" lon="6.208215588703752"><ele></ele><time>2015-8-24T16:11:29Z</time></trkpt>
<trkpt lat="46.483496110886335" lon="6.208131182938814"><ele></ele><time>2015-8-24T16:11:32Z</time></trkpt>
<trkpt lat="46.483548665419221" lon="6.208057254552841"><ele></ele><time>2015-8-24T16:11:35Z</time></trkpt>
<trkpt lat="46.483589401468635" lon="6.208007968962193"><ele></ele><time>2015-8-24T16:11:38Z</time></trkpt>
<trkpt lat="46.483654864132404" lon="6.207918701693416"><ele></ele><time>2015-8-24T16:11:41Z</time></trkpt>
<trkpt lat="46.483680009841919" lon="6.207883162423968"><ele></ele><time>2015-8-24T16:11:44Z</time></trkpt>
<trkpt lat="46.483733402565122" lon="6.207786183804274"><ele></ele><time>2015-8-24T16:11:47Z</time></trkpt>
<trkpt lat="46.483755111694336" lon="6.207751650363207"><ele></ele><time>2015-8-24T16:11:50Z</time></trkpt>
<trkpt lat="46.483778161928058" lon="6.207688618451357"><ele></ele><time>2015-8-24T16:11:53Z</time></trkpt>
<trkpt lat="46.48378754965961" lon="6.207621144130826"><ele></ele><time>2015-8-24T16:11:56Z</time></trkpt>
<trkpt lat="46.483780425041914" lon="6.207577893510461"><ele></ele><time>2015-8-24T16:11:59Z</time></trkpt>
<trkpt lat="46.483761984854937" lon="6.207498265430331"><ele></ele><time>2015-8-24T16:12:2Z</time></trkpt>
<trkpt lat="46.483718734234571" lon="6.207404555752873"><ele></ele><time>2015-8-24T16:12:5Z</time></trkpt>
<trkpt lat="46.483697947114706" lon="6.207381673157215"><ele></ele><time>2015-8-24T16:12:8Z</time></trkpt>
<trkpt lat="46.483665257692337" lon="6.207349738106132"><ele></ele><time>2015-8-24T16:12:11Z</time></trkpt>
<trkpt lat="46.483628880232573" lon="6.207301374524832"><ele></ele><time>2015-8-24T16:12:14Z</time></trkpt>
<trkpt lat="46.483555873855948" lon="6.207268852740526"><ele></ele><time>2015-8-24T16:12:17Z</time></trkpt>
<trkpt lat="46.483526704832911" lon="6.207235744222999"><ele></ele><time>2015-8-24T16:12:20Z</time></trkpt>
<trkpt lat="46.483499547466636" lon="6.207215711474419"><ele></ele><time>2015-8-24T16:12:23Z</time></trkpt>
<trkpt lat="46.483452022075653" lon="6.207155864685774"><ele></ele><time>2015-8-24T16:12:26Z</time></trkpt>
<trkpt lat="46.483427127823234" lon="6.207123761996627"><ele></ele><time>2015-8-24T16:12:29Z</time></trkpt>
<trkpt lat="46.483344314619899" lon="6.207029968500137"><ele></ele><time>2015-8-24T16:12:32Z</time></trkpt>
<trkpt lat="46.483328221365809" lon="6.207014881074429"><ele></ele><time>2015-8-24T16:12:35Z</time></trkpt>
<trkpt lat="46.483265608549118" lon="6.206944389268756"><ele></ele><time>2015-8-24T16:12:38Z</time></trkpt>
<trkpt lat="46.483230907469988" lon="6.206881608814001"><ele></ele><time>2015-8-24T16:12:41Z</time></trkpt>
<trkpt lat="46.483218669891357" lon="6.20687322691083"><ele></ele><time>2015-8-24T16:12:44Z</time></trkpt>
<trkpt lat="46.483143232762814" lon="6.206811033189297"><ele></ele><time>2015-8-24T16:12:47Z</time></trkpt>
<trkpt lat="46.48313082754612" lon="6.206798460334539"><ele></ele><time>2015-8-24T16:12:50Z</time></trkpt>
<trkpt lat="46.483078524470329" lon="6.206767363473773"><ele></ele><time>2015-8-24T16:12:53Z</time></trkpt>
<trkpt lat="46.483062850311399" lon="6.206754706799984"><ele></ele><time>2015-8-24T16:12:56Z</time></trkpt>
<trkpt lat="46.483052708208561" lon="6.206708690151572"><ele></ele><time>2015-8-24T16:12:59Z</time></trkpt>
<trkpt lat="46.483048517256975" lon="6.20669100433588"><ele></ele><time>2015-8-24T16:13:2Z</time></trkpt>
<trkpt lat="46.48303896188736" lon="6.206654207780957"><ele></ele><time>2015-8-24T16:13:5Z</time></trkpt>
<trkpt lat="46.48301943205297" lon="6.206620763987303"><ele></ele><time>2015-8-24T16:13:8Z</time></trkpt>
<trkpt lat="46.48301113396883" lon="6.206604670733213"><ele></ele><time>2015-8-24T16:13:11Z</time></trkpt>
<trkpt lat="46.482984898611903" lon="6.206548511981964"><ele></ele><time>2015-8-24T16:13:14Z</time></trkpt>
<trkpt lat="46.482964530587196" lon="6.206472991034389"><ele></ele><time>2015-8-24T16:13:17Z</time></trkpt>
<trkpt lat="46.482960255816579" lon="6.206452958285809"><ele></ele><time>2015-8-24T16:13:20Z</time></trkpt>
<trkpt lat="46.482946928590536" lon="6.20636411011219"><ele></ele><time>2015-8-24T16:13:23Z</time></trkpt>
<trkpt lat="46.482938211411238" lon="6.206320021301508"><ele></ele><time>2015-8-24T16:13:26Z</time></trkpt>
<trkpt lat="46.4829315058887" lon="6.206281883642077"><ele></ele><time>2015-8-24T16:13:29Z</time></trkpt>
<trkpt lat="46.482932679355145" lon="6.206200327724218"><ele></ele><time>2015-8-24T16:13:32Z</time></trkpt>
<trkpt lat="46.482922872528434" lon="6.206152383238077"><ele></ele><time>2015-8-24T16:13:35Z</time></trkpt>
<trkpt lat="46.482919100672007" lon="6.20609438046813"><ele></ele><time>2015-8-24T16:13:38Z</time></trkpt>
<trkpt lat="46.482914406806231" lon="6.206018272787333"><ele></ele><time>2015-8-24T16:13:41Z</time></trkpt>
<trkpt lat="46.482912395149469" lon="6.20600201189518"><ele></ele><time>2015-8-24T16:13:44Z</time></trkpt>
<trkpt lat="46.482896385714412" lon="6.205937471240759"><ele></ele><time>2015-8-24T16:13:47Z</time></trkpt>
<trkpt lat="46.482883812859654" lon="6.205873852595687"><ele></ele><time>2015-8-24T16:13:50Z</time></trkpt>
<trkpt lat="46.482875179499388" lon="6.205843845382333"><ele></ele><time>2015-8-24T16:13:53Z</time></trkpt>
<trkpt lat="46.482851039618254" lon="6.205785842612386"><ele></ele><time>2015-8-24T16:13:56Z</time></trkpt>
<trkpt lat="46.482843244448304" lon="6.205768743529916"><ele></ele><time>2015-8-24T16:13:59Z</time></trkpt>
<trkpt lat="46.482818685472012" lon="6.205679811537266"><ele></ele><time>2015-8-24T16:14:2Z</time></trkpt>
<trkpt lat="46.482771411538124" lon="6.205523824319243"><ele></ele><time>2015-8-24T16:14:5Z</time></trkpt>
<trkpt lat="46.482742996886373" lon="6.205422068014741"><ele></ele><time>2015-8-24T16:14:8Z</time></trkpt>
<trkpt lat="46.482741152867675" lon="6.205405136570334"><ele></ele><time>2015-8-24T16:14:11Z</time></trkpt>
<trkpt lat="46.482728496193886" lon="6.205323077738285"><ele></ele><time>2015-8-24T16:14:14Z</time></trkpt>
<trkpt lat="46.482727155089378" lon="6.205275217071176"><ele></ele><time>2015-8-24T16:14:17Z</time></trkpt>
<trkpt lat="46.482714749872684" lon="6.205219393596053"><ele></ele><time>2015-8-24T16:14:20Z</time></trkpt>
<trkpt lat="46.482693124562502" lon="6.20511663146317"><ele></ele><time>2015-8-24T16:14:23Z</time></trkpt>
<trkpt lat="46.482691196724772" lon="6.205095173791051"><ele></ele><time>2015-8-24T16:14:26Z</time></trkpt>
<trkpt lat="46.482688682153821" lon="6.204958716407418"><ele></ele><time>2015-8-24T16:14:29Z</time></trkpt>
<trkpt lat="46.482690023258328" lon="6.204940192401409"><ele></ele><time>2015-8-24T16:14:32Z</time></trkpt>
<trkpt lat="46.482679462060332" lon="6.204819828271866"><ele></ele><time>2015-8-24T16:14:35Z</time></trkpt>
<trkpt lat="46.482674181461334" lon="6.204782947897911"><ele></ele><time>2015-8-24T16:14:38Z</time></trkpt>
<trkpt lat="46.482659764587879" lon="6.204720251262188"><ele></ele><time>2015-8-24T16:14:41Z</time></trkpt>
<trkpt lat="46.482655489817262" lon="6.204629223793745"><ele></ele><time>2015-8-24T16:14:44Z</time></trkpt>
<trkpt lat="46.4826431684196" lon="6.204561246559024"><ele></ele><time>2015-8-24T16:14:47Z</time></trkpt>
<trkpt lat="46.482610814273357" lon="6.204466447234154"><ele></ele><time>2015-8-24T16:14:50Z</time></trkpt>
<trkpt lat="46.482602264732122" lon="6.204447671771049"><ele></ele><time>2015-8-24T16:14:53Z</time></trkpt>
<trkpt lat="46.482559600844979" lon="6.204329486936331"><ele></ele><time>2015-8-24T16:14:56Z</time></trkpt>
<trkpt lat="46.482556918635964" lon="6.204311298206449"><ele></ele><time>2015-8-24T16:14:59Z</time></trkpt>
<trkpt lat="46.48254007101059" lon="6.204252960160375"><ele></ele><time>2015-8-24T16:15:2Z</time></trkpt>
<trkpt lat="46.482507130131125" lon="6.204158077016473"><ele></ele><time>2015-8-24T16:15:5Z</time></trkpt>
<trkpt lat="46.482495563104749" lon="6.204122537747025"><ele></ele><time>2015-8-24T16:15:8Z</time></trkpt>
<trkpt lat="46.482473099604249" lon="6.204058416187763"><ele></ele><time>2015-8-24T16:15:11Z</time></trkpt>
<trkpt lat="46.48245457559824" lon="6.203993372619152"><ele></ele><time>2015-8-24T16:15:14Z</time></trkpt>
<trkpt lat="46.48244384676218" lon="6.203956659883261"><ele></ele><time>2015-8-24T16:15:17Z</time></trkpt>
<trkpt lat="46.482436470687389" lon="6.203904021531343"><ele></ele><time>2015-8-24T16:15:20Z</time></trkpt>
<trkpt lat="46.482430268079042" lon="6.203887090086937"><ele></ele><time>2015-8-24T16:15:23Z</time></trkpt>
<trkpt lat="46.482421718537807" lon="6.203857166692615"><ele></ele><time>2015-8-24T16:15:26Z</time></trkpt>
<trkpt lat="46.482417611405253" lon="6.203836798667908"><ele></ele><time>2015-8-24T16:15:29Z</time></trkpt>
<trkpt lat="46.48240964859724" lon="6.203801091760397"><ele></ele><time>2015-8-24T16:15:32Z</time></trkpt>
<trkpt lat="46.482372265309095" lon="6.20366932824254"><ele></ele><time>2015-8-24T16:15:35Z</time></trkpt>
<trkpt lat="46.482361536473036" lon="6.203625155612826"><ele></ele><time>2015-8-24T16:15:38Z</time></trkpt>
<trkpt lat="46.482332032173872" lon="6.203536558896303"><ele></ele><time>2015-8-24T16:15:41Z</time></trkpt>
<trkpt lat="46.482310239225626" lon="6.203448968008161"><ele></ele><time>2015-8-24T16:15:44Z</time></trkpt>
<trkpt lat="46.482306299731135" lon="6.203433042392135"><ele></ele><time>2015-8-24T16:15:47Z</time></trkpt>
<trkpt lat="46.482303701341152" lon="6.203415021300316"><ele></ele><time>2015-8-24T16:15:50Z</time></trkpt>
<trkpt lat="46.482284758239985" lon="6.203310415148735"><ele></ele><time>2015-8-24T16:15:53Z</time></trkpt>
<trkpt lat="46.48227771744132" lon="6.203268505632877"><ele></ele><time>2015-8-24T16:15:56Z</time></trkpt>
<trkpt lat="46.482274448499084" lon="6.20321880094707"><ele></ele><time>2015-8-24T16:15:59Z</time></trkpt>
<trkpt lat="46.482268748804927" lon="6.203186614438891"><ele></ele><time>2015-8-24T16:16:2Z</time></trkpt>
<trkpt lat="46.482265898957849" lon="6.203162390738726"><ele></ele><time>2015-8-24T16:16:5Z</time></trkpt>
<trkpt lat="46.482256762683392" lon="6.203073291108012"><ele></ele><time>2015-8-24T16:16:8Z</time></trkpt>
<trkpt lat="46.482263300567865" lon="6.202959883958101"><ele></ele><time>2015-8-24T16:16:11Z</time></trkpt>
<trkpt lat="46.482263384386897" lon="6.202869107946754"><ele></ele><time>2015-8-24T16:16:14Z</time></trkpt>
<trkpt lat="46.482256008312106" lon="6.202787635847926"><ele></ele><time>2015-8-24T16:16:17Z</time></trkpt>
<trkpt lat="46.482252739369869" lon="6.202750001102686"><ele></ele><time>2015-8-24T16:16:20Z</time></trkpt>
<trkpt lat="46.482238825410604" lon="6.202638354152441"><ele></ele><time>2015-8-24T16:16:23Z</time></trkpt>
<trkpt lat="46.482232119888067" lon="6.202617734670639"><ele></ele><time>2015-8-24T16:16:26Z</time></trkpt>
<trkpt lat="46.482203369960189" lon="6.202543638646603"><ele></ele><time>2015-8-24T16:16:29Z</time></trkpt>
<trkpt lat="46.482195323333144" lon="6.202485971152782"><ele></ele><time>2015-8-24T16:16:32Z</time></trkpt>
<trkpt lat="46.482194568961859" lon="6.20245847851038"><ele></ele><time>2015-8-24T16:16:35Z</time></trkpt>
<trkpt lat="46.482209740206599" lon="6.202360494062304"><ele></ele><time>2015-8-24T16:16:38Z</time></trkpt>
<trkpt lat="46.482220552861691" lon="6.202317327260971"><ele></ele><time>2015-8-24T16:16:41Z</time></trkpt>
<trkpt lat="46.482241759076715" lon="6.202261419966817"><ele></ele><time>2015-8-24T16:16:44Z</time></trkpt>
<trkpt lat="46.482265815138817" lon="6.202158657833934"><ele></ele><time>2015-8-24T16:16:47Z</time></trkpt>
<trkpt lat="46.482296073809266" lon="6.202062433585525"><ele></ele><time>2015-8-24T16:16:50Z</time></trkpt>
<trkpt lat="46.482303030788898" lon="6.202001916244626"><ele></ele><time>2015-8-24T16:16:53Z</time></trkpt>
<trkpt lat="46.482302863150835" lon="6.201926982030272"><ele></ele><time>2015-8-24T16:16:56Z</time></trkpt>
<trkpt lat="46.482317699119449" lon="6.201838217675686"><ele></ele><time>2015-8-24T16:16:59Z</time></trkpt>
<trkpt lat="46.482322895899415" lon="6.201817514374852"><ele></ele><time>2015-8-24T16:17:2Z</time></trkpt>
<trkpt lat="46.482351813465357" lon="6.201658342033625"><ele></ele><time>2015-8-24T16:17:5Z</time></trkpt>
<trkpt lat="46.482355417683721" lon="6.201632777228951"><ele></ele><time>2015-8-24T16:17:8Z</time></trkpt>
<trkpt lat="46.48238617926836" lon="6.201475532725453"><ele></ele><time>2015-8-24T16:17:11Z</time></trkpt>
<trkpt lat="46.482386430725455" lon="6.201450638473034"><ele></ele><time>2015-8-24T16:17:14Z</time></trkpt>
<trkpt lat="46.482383832335472" lon="6.201322982087731"><ele></ele><time>2015-8-24T16:17:17Z</time></trkpt>
<trkpt lat="46.482378803193569" lon="6.201250478625298"><ele></ele><time>2015-8-24T16:17:20Z</time></trkpt>
<trkpt lat="46.482380479574203" lon="6.201135143637657"><ele></ele><time>2015-8-24T16:17:23Z</time></trkpt>
<trkpt lat="46.482373774051666" lon="6.201062556356192"><ele></ele><time>2015-8-24T16:17:26Z</time></trkpt>
<trkpt lat="46.482352735474706" lon="6.200993824750185"><ele></ele><time>2015-8-24T16:17:29Z</time></trkpt>
<trkpt lat="46.482316525653005" lon="6.200898857787251"><ele></ele><time>2015-8-24T16:17:32Z</time></trkpt>
<trkpt lat="46.48228358477354" lon="6.200860803946853"><ele></ele><time>2015-8-24T16:17:35Z</time></trkpt>
<trkpt lat="46.482224995270371" lon="6.200787210837007"><ele></ele><time>2015-8-24T16:17:38Z</time></trkpt>
<trkpt lat="46.482209991663694" lon="6.20077664963901"><ele></ele><time>2015-8-24T16:17:41Z</time></trkpt>
<trkpt lat="46.48213011212647" lon="6.200703056529164"><ele></ele><time>2015-8-24T16:17:44Z</time></trkpt>
<trkpt lat="46.482114940881729" lon="6.200688388198614"><ele></ele><time>2015-8-24T16:17:47Z</time></trkpt>
<trkpt lat="46.482020644471049" lon="6.200617225840688"><ele></ele><time>2015-8-24T16:17:50Z</time></trkpt>
<trkpt lat="46.482002874836326" lon="6.200608005747199"><ele></ele><time>2015-8-24T16:17:53Z</time></trkpt>
<trkpt lat="46.481925509870052" lon="6.200551008805633"><ele></ele><time>2015-8-24T16:17:56Z</time></trkpt>
<trkpt lat="46.481895335018635" lon="6.200525863096118"><ele></ele><time>2015-8-24T16:17:59Z</time></trkpt>
<trkpt lat="46.481856107711792" lon="6.20047858916223"><ele></ele><time>2015-8-24T16:18:2Z</time></trkpt>
<trkpt lat="46.481787795200944" lon="6.200438356027007"><ele></ele><time>2015-8-24T16:18:5Z</time></trkpt>
<trkpt lat="46.481692409142852" lon="6.200404576957226"><ele></ele><time>2015-8-24T16:18:8Z</time></trkpt>
<trkpt lat="46.481676734983921" lon="6.200406923890114"><ele></ele><time>2015-8-24T16:18:11Z</time></trkpt>
<trkpt lat="46.481507420539856" lon="6.200424777343869"><ele></ele><time>2015-8-24T16:18:14Z</time></trkpt>
<trkpt lat="46.481327041983604" lon="6.200490491464734"><ele></ele><time>2015-8-24T16:18:17Z</time></trkpt>
<trkpt lat="46.48121397010982" lon="6.200490240007639"><ele></ele><time>2015-8-24T16:18:20Z</time></trkpt>
<trkpt lat="46.48111036978662" lon="6.200483366847038"><ele></ele><time>2015-8-24T16:18:23Z</time></trkpt>
<trkpt lat="46.481079775840044" lon="6.20047171600163"><ele></ele><time>2015-8-24T16:18:26Z</time></trkpt>
<trkpt lat="46.481047924607992" lon="6.200453191995621"><ele></ele><time>2015-8-24T16:18:29Z</time></trkpt>
<trkpt lat="46.480971565470099" lon="6.200393680483103"><ele></ele><time>2015-8-24T16:18:32Z</time></trkpt>
<trkpt lat="46.480955639854074" lon="6.200383203104138"><ele></ele><time>2015-8-24T16:18:35Z</time></trkpt>
<trkpt lat="46.480906438082457" lon="6.200329810380936"><ele></ele><time>2015-8-24T16:18:38Z</time></trkpt>
<trkpt lat="46.480860337615013" lon="6.200272645801306"><ele></ele><time>2015-8-24T16:18:41Z</time></trkpt>
<trkpt lat="46.480792695656419" lon="6.200202153995633"><ele></ele><time>2015-8-24T16:18:44Z</time></trkpt>
<trkpt lat="46.480770902708173" lon="6.200169213116169"><ele></ele><time>2015-8-24T16:18:47Z</time></trkpt>
<trkpt lat="46.480726394802332" lon="6.200077012181282"><ele></ele><time>2015-8-24T16:18:50Z</time></trkpt>
<trkpt lat="46.480696303769946" lon="6.200031666085124"><ele></ele><time>2015-8-24T16:18:53Z</time></trkpt>
<trkpt lat="46.48068867623806" lon="6.20001339353621"><ele></ele><time>2015-8-24T16:18:56Z</time></trkpt>
<trkpt lat="46.480653639882803" lon="6.199951199814677"><ele></ele><time>2015-8-24T16:18:59Z</time></trkpt>
<trkpt lat="46.480612652376294" lon="6.199876684695482"><ele></ele><time>2015-8-24T16:19:2Z</time></trkpt>
<trkpt lat="46.480579879134893" lon="6.199801247566938"><ele></ele><time>2015-8-24T16:19:5Z</time></trkpt>
<trkpt lat="46.480559343472123" lon="6.199734611436725"><ele></ele><time>2015-8-24T16:19:8Z</time></trkpt>
<trkpt lat="46.480470076203346" lon="6.199554735794663"><ele></ele><time>2015-8-24T16:19:11Z</time></trkpt>
<trkpt lat="46.480452222749591" lon="6.199532775208354"><ele></ele><time>2015-8-24T16:19:14Z</time></trkpt>
<trkpt lat="46.480395225808024" lon="6.199398413300514"><ele></ele><time>2015-8-24T16:19:17Z</time></trkpt>
<trkpt lat="46.480351975187659" lon="6.199325490742922"><ele></ele><time>2015-8-24T16:19:20Z</time></trkpt>
<trkpt lat="46.480258852243423" lon="6.199193811044097"><ele></ele><time>2015-8-24T16:19:23Z</time></trkpt>
<trkpt lat="46.480240076780319" lon="6.199171096086502"><ele></ele><time>2015-8-24T16:19:26Z</time></trkpt>
<trkpt lat="46.480148881673813" lon="6.199031621217728"><ele></ele><time>2015-8-24T16:19:29Z</time></trkpt>
<trkpt lat="46.480134380981326" lon="6.199011672288179"><ele></ele><time>2015-8-24T16:19:32Z</time></trkpt>
<trkpt lat="46.480062715709209" lon="6.19891595095396"><ele></ele><time>2015-8-24T16:19:35Z</time></trkpt>
<trkpt lat="46.4800373185426" lon="6.198875969275832"><ele></ele><time>2015-8-24T16:19:38Z</time></trkpt>
<trkpt lat="46.480009239166975" lon="6.198787791654468"><ele></ele><time>2015-8-24T16:19:41Z</time></trkpt>
<trkpt lat="46.479963725432754" lon="6.19871118105948"><ele></ele><time>2015-8-24T16:19:44Z</time></trkpt>
<trkpt lat="46.479943189769983" lon="6.198659548535943"><ele></ele><time>2015-8-24T16:19:47Z</time></trkpt>
<trkpt lat="46.479921313002706" lon="6.198599869385362"><ele></ele><time>2015-8-24T16:19:50Z</time></trkpt>
<trkpt lat="46.479897759854794" lon="6.198454862460494"><ele></ele><time>2015-8-24T16:19:53Z</time></trkpt>
<trkpt lat="46.479881918057799" lon="6.198353273794055"><ele></ele><time>2015-8-24T16:19:56Z</time></trkpt>
<trkpt lat="46.47986582480371" lon="6.198288649320602"><ele></ele><time>2015-8-24T16:19:59Z</time></trkpt>
<trkpt lat="46.479863226413727" lon="6.198220504447818"><ele></ele><time>2015-8-24T16:20:2Z</time></trkpt>
<trkpt lat="46.479863645508885" lon="6.198191754519939"><ele></ele><time>2015-8-24T16:20:5Z</time></trkpt>
<trkpt lat="46.479857861995697" lon="6.198125621303916"><ele></ele><time>2015-8-24T16:20:8Z</time></trkpt>
<trkpt lat="46.479862304404378" lon="6.198084801435471"><ele></ele><time>2015-8-24T16:20:11Z</time></trkpt>
<trkpt lat="46.479861382395029" lon="6.197981871664524"><ele></ele><time>2015-8-24T16:20:14Z</time></trkpt>
<trkpt lat="46.47985358722508" lon="6.197926132008433"><ele></ele><time>2015-8-24T16:20:17Z</time></trkpt>
<trkpt lat="46.479821233078837" lon="6.197777856141329"><ele></ele><time>2015-8-24T16:20:20Z</time></trkpt>
<trkpt lat="46.479806397110224" lon="6.197679368779063"><ele></ele><time>2015-8-24T16:20:23Z</time></trkpt>
<trkpt lat="46.479784855619073" lon="6.197569482028484"><ele></ele><time>2015-8-24T16:20:26Z</time></trkpt>
<trkpt lat="46.479774713516235" lon="6.197452219203115"><ele></ele><time>2015-8-24T16:20:29Z</time></trkpt>
<trkpt lat="46.479770774021745" lon="6.197369489818811"><ele></ele><time>2015-8-24T16:20:32Z</time></trkpt>
<trkpt lat="46.479769349098206" lon="6.197307799011469"><ele></ele><time>2015-8-24T16:20:35Z</time></trkpt>
<trkpt lat="46.479770187288523" lon="6.197230769321322"><ele></ele><time>2015-8-24T16:20:38Z</time></trkpt>
<trkpt lat="46.479768427088857" lon="6.197212245315313"><ele></ele><time>2015-8-24T16:20:41Z</time></trkpt>
<trkpt lat="46.479762811213732" lon="6.197080817073584"><ele></ele><time>2015-8-24T16:20:44Z</time></trkpt>
<trkpt lat="46.479770354926586" lon="6.197009487077594"><ele></ele><time>2015-8-24T16:20:47Z</time></trkpt>
<trkpt lat="46.47976323030889" lon="6.196941090747714"><ele></ele><time>2015-8-24T16:20:50Z</time></trkpt>
<trkpt lat="46.479757027700543" lon="6.196896247565746"><ele></ele><time>2015-8-24T16:20:53Z</time></trkpt>
<trkpt lat="46.479758452624083" lon="6.196853583678603"><ele></ele><time>2015-8-24T16:20:56Z</time></trkpt>
<trkpt lat="46.479753255844116" lon="6.196813266724348"><ele></ele><time>2015-8-24T16:20:59Z</time></trkpt>
<trkpt lat="46.479745293036103" lon="6.196744786575437"><ele></ele><time>2015-8-24T16:21:2Z</time></trkpt>
<trkpt lat="46.479744790121913" lon="6.196704721078277"><ele></ele><time>2015-8-24T16:21:5Z</time></trkpt>
<trkpt lat="46.47974856197834" lon="6.196682341396809"><ele></ele><time>2015-8-24T16:21:8Z</time></trkpt>
<trkpt lat="46.47975099273026" lon="6.196660380810499"><ele></ele><time>2015-8-24T16:21:11Z</time></trkpt>
<trkpt lat="46.479758536443114" lon="6.196563234552741"><ele></ele><time>2015-8-24T16:21:14Z</time></trkpt>
<trkpt lat="46.479756943881512" lon="6.196466004475951"><ele></ele><time>2015-8-24T16:21:17Z</time></trkpt>
<trkpt lat="46.479749400168657" lon="6.196406660601497"><ele></ele><time>2015-8-24T16:21:20Z</time></trkpt>
<trkpt lat="46.479737246409059" lon="6.196290906518698"><ele></ele><time>2015-8-24T16:21:23Z</time></trkpt>
<trkpt lat="46.479735402390361" lon="6.19620549492538"><ele></ele><time>2015-8-24T16:21:26Z</time></trkpt>
<trkpt lat="46.479763565585017" lon="6.196104912087321"><ele></ele><time>2015-8-24T16:21:29Z</time></trkpt>
<trkpt lat="46.479764403775334" lon="6.196093764156103"><ele></ele><time>2015-8-24T16:21:32Z</time></trkpt>
<trkpt lat="46.479772282764316" lon="6.196006592363119"><ele></ele><time>2015-8-24T16:21:35Z</time></trkpt>
<trkpt lat="46.479776976630092" lon="6.195969963446259"><ele></ele><time>2015-8-24T16:21:38Z</time></trkpt>
<trkpt lat="46.479815952479839" lon="6.195794865489006"><ele></ele><time>2015-8-24T16:21:41Z</time></trkpt>
<trkpt lat="46.479822658002377" lon="6.195736024528742"><ele></ele><time>2015-8-24T16:21:44Z</time></trkpt>
<trkpt lat="46.4798369910568" lon="6.195488339290023"><ele></ele><time>2015-8-24T16:21:47Z</time></trkpt>
<trkpt lat="46.479843780398369" lon="6.195417093113065"><ele></ele><time>2015-8-24T16:21:50Z</time></trkpt>
<trkpt lat="46.479850569739938" lon="6.195270828902721"><ele></ele><time>2015-8-24T16:21:53Z</time></trkpt>
<trkpt lat="46.479889210313559" lon="6.194828432053328"><ele></ele><time>2015-8-24T16:21:56Z</time></trkpt>
<trkpt lat="46.479892479255795" lon="6.194756012409925"><ele></ele><time>2015-8-24T16:21:59Z</time></trkpt>
<trkpt lat="46.479891976341605" lon="6.194465411826968"><ele></ele><time>2015-8-24T16:22:2Z</time></trkpt>
<trkpt lat="46.479897843673825" lon="6.194396680220962"><ele></ele><time>2015-8-24T16:22:5Z</time></trkpt>
<trkpt lat="46.479897424578667" lon="6.19432476349175"><ele></ele><time>2015-8-24T16:22:8Z</time></trkpt>
<trkpt lat="46.479896670207381" lon="6.194108678027987"><ele></ele><time>2015-8-24T16:22:11Z</time></trkpt>
<trkpt lat="46.479895748198032" lon="6.19396761059761"><ele></ele><time>2015-8-24T16:22:14Z</time></trkpt>
<trkpt lat="46.479892898350954" lon="6.193698467686772"><ele></ele><time>2015-8-24T16:22:17Z</time></trkpt>
<trkpt lat="46.479902537539601" lon="6.193388421088457"><ele></ele><time>2015-8-24T16:22:20Z</time></trkpt>
<trkpt lat="46.479894910007715" lon="6.193162947893143"><ele></ele><time>2015-8-24T16:22:23Z</time></trkpt>
<trkpt lat="46.479893736541271" lon="6.19312321767211"><ele></ele><time>2015-8-24T16:22:26Z</time></trkpt>
<trkpt lat="46.479898598045111" lon="6.193001344799995"><ele></ele><time>2015-8-24T16:22:29Z</time></trkpt>
<trkpt lat="46.479905135929585" lon="6.192886009812355"><ele></ele><time>2015-8-24T16:22:32Z</time></trkpt>
<trkpt lat="46.47990932688117" lon="6.192813087254763"><ele></ele><time>2015-8-24T16:22:35Z</time></trkpt>
<trkpt lat="46.479913601651788" lon="6.19277972728014"><ele></ele><time>2015-8-24T16:22:38Z</time></trkpt>
<trkpt lat="46.479916367679834" lon="6.192690543830395"><ele></ele><time>2015-8-24T16:22:41Z</time></trkpt>
<trkpt lat="46.479921983554959" lon="6.192637151107192"><ele></ele><time>2015-8-24T16:22:44Z</time></trkpt>
<trkpt lat="46.479925671592355" lon="6.192606221884489"><ele></ele><time>2015-8-24T16:22:47Z</time></trkpt>
<trkpt lat="46.479949224740267" lon="6.192508488893509"><ele></ele><time>2015-8-24T16:22:50Z</time></trkpt>
<trkpt lat="46.479955846443772" lon="6.192477727308869"><ele></ele><time>2015-8-24T16:22:53Z</time></trkpt>
<trkpt lat="46.479964563623071" lon="6.192452665418386"><ele></ele><time>2015-8-24T16:22:56Z</time></trkpt>
<trkpt lat="46.480022650212049" lon="6.192265246063471"><ele></ele><time>2015-8-24T16:22:59Z</time></trkpt>
<trkpt lat="46.480034971609712" lon="6.19223196990788"><ele></ele><time>2015-8-24T16:23:2Z</time></trkpt>
<trkpt lat="46.480130692943931" lon="6.192010268568993"><ele></ele><time>2015-8-24T16:23:5Z</time></trkpt>
<trkpt lat="46.480216942727566" lon="6.191774569451809"><ele></ele><time>2015-8-24T16:23:8Z</time></trkpt>
<trkpt lat="46.480371756479144" lon="6.191338961943984"><ele></ele><time>2015-8-24T16:23:11Z</time></trkpt>
<trkpt lat="46.480474099516869" lon="6.190976025536656"><ele></ele><time>2015-8-24T16:23:14Z</time></trkpt>
<trkpt lat="46.480562025681138" lon="6.190678803250194"><ele></ele><time>2015-8-24T16:23:17Z</time></trkpt>
<trkpt lat="46.480594463646412" lon="6.190586434677243"><ele></ele><time>2015-8-24T16:23:20Z</time></trkpt>
<trkpt lat="46.48069747723639" lon="6.190305473282933"><ele></ele><time>2015-8-24T16:23:23Z</time></trkpt>
<trkpt lat="46.480718599632382" lon="6.190257025882602"><ele></ele><time>2015-8-24T16:23:26Z</time></trkpt>
<trkpt lat="46.480853212997317" lon="6.189962066709995"><ele></ele><time>2015-8-24T16:23:29Z</time></trkpt>
<trkpt lat="46.480875927954912" lon="6.189909679815173"><ele></ele><time>2015-8-24T16:23:32Z</time></trkpt>
<trkpt lat="46.481064520776272" lon="6.1895542871207"><ele></ele><time>2015-8-24T16:23:35Z</time></trkpt>
<trkpt lat="46.481088241562247" lon="6.189502067863941"><ele></ele><time>2015-8-24T16:23:38Z</time></trkpt>
<trkpt lat="46.48120709694922" lon="6.189197134226561"><ele></ele><time>2015-8-24T16:23:41Z</time></trkpt>
<trkpt lat="46.481225118041039" lon="6.189158326014876"><ele></ele><time>2015-8-24T16:23:44Z</time></trkpt>
<trkpt lat="46.481294017285109" lon="6.188971074298024"><ele></ele><time>2015-8-24T16:23:47Z</time></trkpt>
<trkpt lat="46.481302734464407" lon="6.188931008800864"><ele></ele><time>2015-8-24T16:23:50Z</time></trkpt>
<trkpt lat="46.481360485777259" lon="6.188788516446948"><ele></ele><time>2015-8-24T16:23:53Z</time></trkpt>
<trkpt lat="46.481372974812984" lon="6.188752306625247"><ele></ele><time>2015-8-24T16:23:56Z</time></trkpt>
<trkpt lat="46.481406670063734" lon="6.188656250014901"><ele></ele><time>2015-8-24T16:23:59Z</time></trkpt>
<trkpt lat="46.481423182412982" lon="6.188624734058976"><ele></ele><time>2015-8-24T16:24:2Z</time></trkpt>
<trkpt lat="46.481447657570243" lon="6.18855457752943"><ele></ele><time>2015-8-24T16:24:5Z</time></trkpt>
<trkpt lat="46.481474312022328" lon="6.188495652750134"><ele></ele><time>2015-8-24T16:24:8Z</time></trkpt>
<trkpt lat="46.481511443853378" lon="6.188412168994546"><ele></ele><time>2015-8-24T16:24:11Z</time></trkpt>
<trkpt lat="46.481531476601958" lon="6.188343772664666"><ele></ele><time>2015-8-24T16:24:14Z</time></trkpt>
<trkpt lat="46.481545558199286" lon="6.188277890905738"><ele></ele><time>2015-8-24T16:24:17Z</time></trkpt>
<trkpt lat="46.481577744707465" lon="6.188167920336127"><ele></ele><time>2015-8-24T16:24:20Z</time></trkpt>
<trkpt lat="46.481578331440687" lon="6.188102290034294"><ele></ele><time>2015-8-24T16:24:23Z</time></trkpt>
<trkpt lat="46.481589144095778" lon="6.187980584800243"><ele></ele><time>2015-8-24T16:24:26Z</time></trkpt>
<trkpt lat="46.48160582408309" lon="6.187902633100748"><ele></ele><time>2015-8-24T16:24:29Z</time></trkpt>
<trkpt lat="46.481645721942186" lon="6.187716890126467"><ele></ele><time>2015-8-24T16:24:32Z</time></trkpt>
<trkpt lat="46.481654103845358" lon="6.187684200704098"><ele></ele><time>2015-8-24T16:24:35Z</time></trkpt>
<trkpt lat="46.481664413586259" lon="6.18764715269208"><ele></ele><time>2015-8-24T16:24:38Z</time></trkpt>
<trkpt lat="46.481684278696775" lon="6.187579091638327"><ele></ele><time>2015-8-24T16:24:41Z</time></trkpt>
<trkpt lat="46.481724511831999" lon="6.187395863234997"><ele></ele><time>2015-8-24T16:24:44Z</time></trkpt>
<trkpt lat="46.481819981709123" lon="6.187078189104795"><ele></ele><time>2015-8-24T16:24:47Z</time></trkpt>
<trkpt lat="46.481926348060369" lon="6.186845675110817"><ele></ele><time>2015-8-24T16:24:50Z</time></trkpt>
<trkpt lat="46.481954092159867" lon="6.186802675947547"><ele></ele><time>2015-8-24T16:24:53Z</time></trkpt>
<trkpt lat="46.482117623090744" lon="6.186574101448059"><ele></ele><time>2015-8-24T16:24:56Z</time></trkpt>
<trkpt lat="46.482194401323795" lon="6.186479888856411"><ele></ele><time>2015-8-24T16:24:59Z</time></trkpt>
<trkpt lat="46.482231952250004" lon="6.186432363465428"><ele></ele><time>2015-8-24T16:25:2Z</time></trkpt>
<trkpt lat="46.482302024960518" lon="6.186327673494816"><ele></ele><time>2015-8-24T16:25:5Z</time></trkpt>
<trkpt lat="46.482416437938809" lon="6.186165316030383"><ele></ele><time>2015-8-24T16:25:8Z</time></trkpt>
<trkpt lat="46.482499167323112" lon="6.186060458421707"><ele></ele><time>2015-8-24T16:25:11Z</time></trkpt>
<trkpt lat="46.482591452077031" lon="6.185960965231061"><ele></ele><time>2015-8-24T16:25:14Z</time></trkpt>
<trkpt lat="46.482755234465003" lon="6.18585929274559"><ele></ele><time>2015-8-24T16:25:17Z</time></trkpt>
<trkpt lat="46.482867803424597" lon="6.185811934992671"><ele></ele><time>2015-8-24T16:25:20Z</time></trkpt>
<trkpt lat="46.482984814792871" lon="6.185775557532907"><ele></ele><time>2015-8-24T16:25:23Z</time></trkpt>
<trkpt lat="46.483106771484017" lon="6.185771366581321"><ele></ele><time>2015-8-24T16:25:26Z</time></trkpt>
<trkpt lat="46.483167791739106" lon="6.185777317732573"><ele></ele><time>2015-8-24T16:25:29Z</time></trkpt>
<trkpt lat="46.483230069279671" lon="6.185766505077481"><ele></ele><time>2015-8-24T16:25:32Z</time></trkpt>
<trkpt lat="46.483362419530749" lon="6.185710513964295"><ele></ele><time>2015-8-24T16:25:35Z</time></trkpt>
<trkpt lat="46.483493177220225" lon="6.185627784579992"><ele></ele><time>2015-8-24T16:25:38Z</time></trkpt>
<trkpt lat="46.483623264357448" lon="6.185537427663803"><ele></ele><time>2015-8-24T16:25:41Z</time></trkpt>
<trkpt lat="46.483678165823221" lon="6.185487220063806"><ele></ele><time>2015-8-24T16:25:44Z</time></trkpt>
<trkpt lat="46.483818059787154" lon="6.18533743545413"><ele></ele><time>2015-8-24T16:25:47Z</time></trkpt>
<trkpt lat="46.483857706189156" lon="6.185284042730927"><ele></ele><time>2015-8-24T16:25:50Z</time></trkpt>
<trkpt lat="46.483877403661609" lon="6.18521673604846"><ele></ele><time>2015-8-24T16:25:53Z</time></trkpt>
<trkpt lat="46.483904896304011" lon="6.185137778520584"><ele></ele><time>2015-8-24T16:25:56Z</time></trkpt>
<trkpt lat="46.483891569077969" lon="6.185113806277514"><ele></ele><time>2015-8-24T16:25:59Z</time></trkpt>
<trkpt lat="46.483881678432226" lon="6.185113219544291"><ele></ele><time>2015-8-24T16:26:2Z</time></trkpt>
<trkpt lat="46.483864160254598" lon="6.18509016931057"><ele></ele><time>2015-8-24T16:26:5Z</time></trkpt>
<trkpt lat="46.483850497752428" lon="6.185056054964662"><ele></ele><time>2015-8-24T16:26:8Z</time></trkpt>
<trkpt lat="46.483832225203514" lon="6.184896044433117"><ele></ele><time>2015-8-24T16:26:11Z</time></trkpt>
<trkpt lat="46.483831219375134" lon="6.184823205694556"><ele></ele><time>2015-8-24T16:26:14Z</time></trkpt>
<trkpt lat="46.483813533559442" lon="6.184668140485883"><ele></ele><time>2015-8-24T16:26:17Z</time></trkpt>
<trkpt lat="46.483796099200845" lon="6.184589266777039"><ele></ele><time>2015-8-24T16:26:20Z</time></trkpt>
<trkpt lat="46.483759302645922" lon="6.184421461075544"><ele></ele><time>2015-8-24T16:26:23Z</time></trkpt>
<trkpt lat="46.48371278308332" lon="6.184256337583065"><ele></ele><time>2015-8-24T16:26:26Z</time></trkpt>
<trkpt lat="46.48357498459518" lon="6.18406212888658"><ele></ele><time>2015-8-24T16:26:29Z</time></trkpt>
<trkpt lat="46.483471132814884" lon="6.183972777798772"><ele></ele><time>2015-8-24T16:26:32Z</time></trkpt>
<trkpt lat="46.483321012929082" lon="6.183853084221482"><ele></ele><time>2015-8-24T16:26:35Z</time></trkpt>
<trkpt lat="46.48298179730773" lon="6.183631550520658"><ele></ele><time>2015-8-24T16:26:38Z</time></trkpt>
<trkpt lat="46.48292857222259" lon="6.183604476973414"><ele></ele><time>2015-8-24T16:26:41Z</time></trkpt>
<trkpt lat="46.482656579464674" lon="6.183532979339361"><ele></ele><time>2015-8-24T16:26:44Z</time></trkpt>
<trkpt lat="46.482600420713425" lon="6.183538930490613"><ele></ele><time>2015-8-24T16:26:47Z</time></trkpt>
<trkpt lat="46.482493299990892" lon="6.183563740924001"><ele></ele><time>2015-8-24T16:26:50Z</time></trkpt>
<trkpt lat="46.482348293066025" lon="6.183650745078921"><ele></ele><time>2015-8-24T16:26:53Z</time></trkpt>
<trkpt lat="46.482158442959189" lon="6.18388275615871"><ele></ele><time>2015-8-24T16:26:56Z</time></trkpt>
<trkpt lat="46.482029864564538" lon="6.183985183015466"><ele></ele><time>2015-8-24T16:26:59Z</time></trkpt>
<trkpt lat="46.481873206794262" lon="6.184016950428486"><ele></ele><time>2015-8-24T16:27:2Z</time></trkpt>
<trkpt lat="46.481730211526155" lon="6.183987529948354"><ele></ele><time>2015-8-24T16:27:5Z</time></trkpt>
<trkpt lat="46.48161118850112" lon="6.183916535228491"><ele></ele><time>2015-8-24T16:27:8Z</time></trkpt>
<trkpt lat="46.481476156041026" lon="6.183760715648532"><ele></ele><time>2015-8-24T16:27:11Z</time></trkpt>
<trkpt lat="46.481440113857388" lon="6.183704975992441"><ele></ele><time>2015-8-24T16:27:14Z</time></trkpt>
<trkpt lat="46.481349421665072" lon="6.183546893298626"><ele></ele><time>2015-8-24T16:27:17Z</time></trkpt>
<trkpt lat="46.481276247650385" lon="6.183415967971087"><ele></ele><time>2015-8-24T16:27:20Z</time></trkpt>
<trkpt lat="46.48122813552618" lon="6.18334187194705"><ele></ele><time>2015-8-24T16:27:23Z</time></trkpt>
<trkpt lat="46.481085224077106" lon="6.183197535574436"><ele></ele><time>2015-8-24T16:27:26Z</time></trkpt>
<trkpt lat="46.481054127216339" lon="6.183173814788461"><ele></ele><time>2015-8-24T16:27:29Z</time></trkpt>
<trkpt lat="46.48090953938663" lon="6.183100556954741"><ele></ele><time>2015-8-24T16:27:32Z</time></trkpt>
<trkpt lat="46.480685910210013" lon="6.183041129261255"><ele></ele><time>2015-8-24T16:27:35Z</time></trkpt>
<trkpt lat="46.480616759508848" lon="6.183022856712341"><ele></ele><time>2015-8-24T16:27:38Z</time></trkpt>
<trkpt lat="46.480462029576302" lon="6.182969715446234"><ele></ele><time>2015-8-24T16:27:41Z</time></trkpt>
<trkpt lat="46.480293804779649" lon="6.182901319116354"><ele></ele><time>2015-8-24T16:27:44Z</time></trkpt>
<trkpt lat="46.480205794796348" lon="6.182861085981131"><ele></ele><time>2015-8-24T16:27:47Z</time></trkpt>
<trkpt lat="46.480030445381999" lon="6.182775925844908"><ele></ele><time>2015-8-24T16:27:50Z</time></trkpt>
<trkpt lat="46.479854844510555" lon="6.182672074064612"><ele></ele><time>2015-8-24T16:27:53Z</time></trkpt>
<trkpt lat="46.4796884637326" lon="6.182571491226554"><ele></ele><time>2015-8-24T16:27:56Z</time></trkpt>
<trkpt lat="46.479530381038785" lon="6.182495467364788"><ele></ele><time>2015-8-24T16:27:59Z</time></trkpt>
<trkpt lat="46.479452513158321" lon="6.182465376332402"><ele></ele><time>2015-8-24T16:28:2Z</time></trkpt>
<trkpt lat="46.4792256988585" lon="6.182409301400185"><ele></ele><time>2015-8-24T16:28:5Z</time></trkpt>
<trkpt lat="46.479091253131628" lon="6.182383988052607"><ele></ele><time>2015-8-24T16:28:8Z</time></trkpt>
<trkpt lat="46.479026041924953" lon="6.182390861213207"><ele></ele><time>2015-8-24T16:28:11Z</time></trkpt>
<trkpt lat="46.478832839056849" lon="6.182489097118378"><ele></ele><time>2015-8-24T16:28:14Z</time></trkpt>
<trkpt lat="46.478709289804101" lon="6.182585572823882"><ele></ele><time>2015-8-24T16:28:17Z</time></trkpt>
<trkpt lat="46.478546597063541" lon="6.182686239480972"><ele></ele><time>2015-8-24T16:28:20Z</time></trkpt>
<trkpt lat="46.478347945958376" lon="6.182760000228882"><ele></ele><time>2015-8-24T16:28:23Z</time></trkpt>
<trkpt lat="46.478310143575072" lon="6.182781290262938"><ele></ele><time>2015-8-24T16:28:26Z</time></trkpt>
<trkpt lat="46.478241998702288" lon="6.182799814268947"><ele></ele><time>2015-8-24T16:28:29Z</time></trkpt>
<trkpt lat="46.478245686739683" lon="6.182795623317361"><ele></ele><time>2015-8-24T16:28:32Z</time></trkpt>
<trkpt lat="46.4782396517694" lon="6.182778272777796"><ele></ele><time>2015-8-24T16:28:35Z</time></trkpt>
<trkpt lat="46.478229761123657" lon="6.182798808440566"><ele></ele><time>2015-8-24T16:28:38Z</time></trkpt>
<trkpt lat="46.478209979832172" lon="6.182800903916359"><ele></ele><time>2015-8-24T16:28:41Z</time></trkpt>
<trkpt lat="46.47818885743618" lon="6.182792522013187"><ele></ele><time>2015-8-24T16:28:44Z</time></trkpt>
<trkpt lat="46.478166561573744" lon="6.182792438194156"><ele></ele><time>2015-8-24T16:28:47Z</time></trkpt>
<trkpt lat="46.478145690634847" lon="6.182789588347077"><ele></ele><time>2015-8-24T16:28:50Z</time></trkpt>
<trkpt lat="46.478001354262233" lon="6.182786570861936"><ele></ele><time>2015-8-24T16:28:53Z</time></trkpt>
<trkpt lat="46.477946117520332" lon="6.182800568640232"><ele></ele><time>2015-8-24T16:28:56Z</time></trkpt>
<trkpt lat="46.477820221334696" lon="6.182827306911349"><ele></ele><time>2015-8-24T16:28:59Z</time></trkpt>
<trkpt lat="46.477796835824847" lon="6.182839293032885"><ele></ele><time>2015-8-24T16:29:2Z</time></trkpt>
<trkpt lat="46.477724080905318" lon="6.182876173406839"><ele></ele><time>2015-8-24T16:29:5Z</time></trkpt>
<trkpt lat="46.477640429511666" lon="6.182922106236219"><ele></ele><time>2015-8-24T16:29:8Z</time></trkpt>
<trkpt lat="46.477502966299653" lon="6.182968961074948"><ele></ele><time>2015-8-24T16:29:11Z</time></trkpt>
<trkpt lat="46.477473378181458" lon="6.182980528101325"><ele></ele><time>2015-8-24T16:29:14Z</time></trkpt>
<trkpt lat="46.477318732067943" lon="6.183062586933374"><ele></ele><time>2015-8-24T16:29:17Z</time></trkpt>
<trkpt lat="46.477235415950418" lon="6.183127127587795"><ele></ele><time>2015-8-24T16:29:20Z</time></trkpt>
<trkpt lat="46.477111950516701" lon="6.183195356279612"><ele></ele><time>2015-8-24T16:29:23Z</time></trkpt>
<trkpt lat="46.476884800940752" lon="6.183283282443881"><ele></ele><time>2015-8-24T16:29:26Z</time></trkpt>
<trkpt lat="46.476758318021894" lon="6.183299878612161"><ele></ele><time>2015-8-24T16:29:29Z</time></trkpt>
<trkpt lat="46.476639043539762" lon="6.183300130069256"><ele></ele><time>2015-8-24T16:29:32Z</time></trkpt>
<trkpt lat="46.476410049945116" lon="6.183396270498633"><ele></ele><time>2015-8-24T16:29:35Z</time></trkpt>
<trkpt lat="46.476270658895373" lon="6.183487884700298"><ele></ele><time>2015-8-24T16:29:38Z</time></trkpt>
<trkpt lat="46.47624266333878" lon="6.18350749835372"><ele></ele><time>2015-8-24T16:29:41Z</time></trkpt>
<trkpt lat="46.476129591464996" lon="6.18361109867692"><ele></ele><time>2015-8-24T16:29:44Z</time></trkpt>
<trkpt lat="46.475943345576525" lon="6.183774378150702"><ele></ele><time>2015-8-24T16:29:47Z</time></trkpt>
<trkpt lat="46.475853156298399" lon="6.183861801400781"><ele></ele><time>2015-8-24T16:29:50Z</time></trkpt>
<trkpt lat="46.475803703069687" lon="6.183892227709293"><ele></ele><time>2015-8-24T16:29:53Z</time></trkpt>
<trkpt lat="46.475591389462352" lon="6.184016447514296"><ele></ele><time>2015-8-24T16:29:56Z</time></trkpt>
<trkpt lat="46.475477814674377" lon="6.18407922796905"><ele></ele><time>2015-8-24T16:29:59Z</time></trkpt>
<trkpt lat="46.475245300680399" lon="6.184261869639158"><ele></ele><time>2015-8-24T16:30:2Z</time></trkpt>
<trkpt lat="46.474977834150195" lon="6.184520786628127"><ele></ele><time>2015-8-24T16:30:5Z</time></trkpt>
<trkpt lat="46.474930141121149" lon="6.184538220986724"><ele></ele><time>2015-8-24T16:30:8Z</time></trkpt>
<trkpt lat="46.474755462259054" lon="6.184573341161013"><ele></ele><time>2015-8-24T16:30:11Z</time></trkpt>
<trkpt lat="46.474674241617322" lon="6.184586333110929"><ele></ele><time>2015-8-24T16:30:14Z</time></trkpt>
<trkpt lat="46.474639624357224" lon="6.184593876823783"><ele></ele><time>2015-8-24T16:30:17Z</time></trkpt>
<trkpt lat="46.474480368196964" lon="6.184630505740643"><ele></ele><time>2015-8-24T16:30:20Z</time></trkpt>
<trkpt lat="46.474311724305153" lon="6.18472614325583"><ele></ele><time>2015-8-24T16:30:23Z</time></trkpt>
<trkpt lat="46.47428423166275" lon="6.184746930375695"><ele></ele><time>2015-8-24T16:30:26Z</time></trkpt>
<trkpt lat="46.474200915545225" lon="6.184801999479532"><ele></ele><time>2015-8-24T16:30:29Z</time></trkpt>
<trkpt lat="46.474079880863428" lon="6.184880957007408"><ele></ele><time>2015-8-24T16:30:32Z</time></trkpt>
<trkpt lat="46.474018609151244" lon="6.184927392750978"><ele></ele><time>2015-8-24T16:30:35Z</time></trkpt>
<trkpt lat="46.473842924460769" lon="6.185075584799051"><ele></ele><time>2015-8-24T16:30:38Z</time></trkpt>
<trkpt lat="46.473806547001004" lon="6.185107687488198"><ele></ele><time>2015-8-24T16:30:41Z</time></trkpt>
<trkpt lat="46.473547210916877" lon="6.1852733977139"><ele></ele><time>2015-8-24T16:30:44Z</time></trkpt>
<trkpt lat="46.473255101591349" lon="6.185407508164644"><ele></ele><time>2015-8-24T16:30:47Z</time></trkpt>
<trkpt lat="46.473197937011719" lon="6.18541706353426"><ele></ele><time>2015-8-24T16:30:50Z</time></trkpt>
<trkpt lat="46.473175724968314" lon="6.18542930111289"><ele></ele><time>2015-8-24T16:30:53Z</time></trkpt>
<trkpt lat="46.473098695278168" lon="6.185422260314226"><ele></ele><time>2015-8-24T16:30:56Z</time></trkpt>
<trkpt lat="46.472942708060145" lon="6.185403484851122"><ele></ele><time>2015-8-24T16:30:59Z</time></trkpt>
<trkpt lat="46.472908426076174" lon="6.185390744358301"><ele></ele><time>2015-8-24T16:31:2Z</time></trkpt>
<trkpt lat="46.472766688093543" lon="6.18531153537333"><ele></ele><time>2015-8-24T16:31:5Z</time></trkpt>
<trkpt lat="46.472591254860163" lon="6.185406669974327"><ele></ele><time>2015-8-24T16:31:8Z</time></trkpt>
<trkpt lat="46.472374750301242" lon="6.185592077672482"><ele></ele><time>2015-8-24T16:31:11Z</time></trkpt>
<trkpt lat="46.47228330373764" lon="6.18568335659802"><ele></ele><time>2015-8-24T16:31:14Z</time></trkpt>
<trkpt lat="46.472186073660851" lon="6.185780754312873"><ele></ele><time>2015-8-24T16:31:17Z</time></trkpt>
<trkpt lat="46.472074761986732" lon="6.185879744589329"><ele></ele><time>2015-8-24T16:31:20Z</time></trkpt>
<trkpt lat="46.47183327935636" lon="6.186069929972291"><ele></ele><time>2015-8-24T16:31:23Z</time></trkpt>
<trkpt lat="46.471765972673893" lon="6.186110582202673"><ele></ele><time>2015-8-24T16:31:26Z</time></trkpt>
<trkpt lat="46.471696486696601" lon="6.186158526688814"><ele></ele><time>2015-8-24T16:31:29Z</time></trkpt>
<trkpt lat="46.471488950774074" lon="6.186337564140558"><ele></ele><time>2015-8-24T16:31:32Z</time></trkpt>
<trkpt lat="46.471357941627502" lon="6.186482738703489"><ele></ele><time>2015-8-24T16:31:35Z</time></trkpt>
<trkpt lat="46.471148896962404" lon="6.186753390356898"><ele></ele><time>2015-8-24T16:31:38Z</time></trkpt>
<trkpt lat="46.471081841737032" lon="6.186861768364906"><ele></ele><time>2015-8-24T16:31:41Z</time></trkpt>
<trkpt lat="46.471010008826852" lon="6.186974672600627"><ele></ele><time>2015-8-24T16:31:44Z</time></trkpt>
<trkpt lat="46.470931805670261" lon="6.187083469703794"><ele></ele><time>2015-8-24T16:31:47Z</time></trkpt>
<trkpt lat="46.470851339399815" lon="6.187195619568229"><ele></ele><time>2015-8-24T16:31:50Z</time></trkpt>
<trkpt lat="46.4707035664469" lon="6.187441796064377"><ele></ele><time>2015-8-24T16:31:53Z</time></trkpt>
<trkpt lat="46.470634499564767" lon="6.187572218477726"><ele></ele><time>2015-8-24T16:31:56Z</time></trkpt>
<trkpt lat="46.470561744645238" lon="6.187679339200258"><ele></ele><time>2015-8-24T16:31:59Z</time></trkpt>
<trkpt lat="46.470490079373121" lon="6.187783274799585"><ele></ele><time>2015-8-24T16:32:2Z</time></trkpt>
<trkpt lat="46.470420425757766" lon="6.187863238155842"><ele></ele><time>2015-8-24T16:32:5Z</time></trkpt>
<trkpt lat="46.470339624211192" lon="6.187880672514439"><ele></ele><time>2015-8-24T16:32:8Z</time></trkpt>
<trkpt lat="46.470252955332398" lon="6.187889641150832"><ele></ele><time>2015-8-24T16:32:11Z</time></trkpt>
<trkpt lat="46.470065955072641" lon="6.187857035547495"><ele></ele><time>2015-8-24T16:32:14Z</time></trkpt>
<trkpt lat="46.469968054443598" lon="6.187853682786226"><ele></ele><time>2015-8-24T16:32:17Z</time></trkpt>
<trkpt lat="46.469769654795527" lon="6.187848569825292"><ele></ele><time>2015-8-24T16:32:20Z</time></trkpt>
<trkpt lat="46.469669071957469" lon="6.187836080789566"><ele></ele><time>2015-8-24T16:32:23Z</time></trkpt>
<trkpt lat="46.469582235440612" lon="6.187819736078382"><ele></ele><time>2015-8-24T16:32:26Z</time></trkpt>
<trkpt lat="46.469495231285691" lon="6.187812360003591"><ele></ele><time>2015-8-24T16:32:29Z</time></trkpt>
<trkpt lat="46.469401773065329" lon="6.187818227335811"><ele></ele><time>2015-8-24T16:32:32Z</time></trkpt>
<trkpt lat="46.469311667606235" lon="6.18781965225935"><ele></ele><time>2015-8-24T16:32:35Z</time></trkpt>
<trkpt lat="46.469140592962503" lon="6.187804313376546"><ele></ele><time>2015-8-24T16:32:38Z</time></trkpt>
<trkpt lat="46.469060629606247" lon="6.187773803249002"><ele></ele><time>2015-8-24T16:32:41Z</time></trkpt>
<trkpt lat="46.468981169164181" lon="6.187699120491743"><ele></ele><time>2015-8-24T16:32:44Z</time></trkpt>
<trkpt lat="46.468913024291396" lon="6.187610859051347"><ele></ele><time>2015-8-24T16:32:47Z</time></trkpt>
<trkpt lat="46.468850411474705" lon="6.187510276213288"><ele></ele><time>2015-8-24T16:32:50Z</time></trkpt>
<trkpt lat="46.46878276951611" lon="6.187419416382909"><ele></ele><time>2015-8-24T16:32:53Z</time></trkpt>
<trkpt lat="46.468654023483396" lon="6.187263680621982"><ele></ele><time>2015-8-24T16:32:56Z</time></trkpt>
<trkpt lat="46.468397453427315" lon="6.186984395608306"><ele></ele><time>2015-8-24T16:32:59Z</time></trkpt>
<trkpt lat="46.468268288299441" lon="6.186848022043705"><ele></ele><time>2015-8-24T16:33:2Z</time></trkpt>
<trkpt lat="46.468202490359545" lon="6.186782056465745"><ele></ele><time>2015-8-24T16:33:5Z</time></trkpt>
<trkpt lat="46.468134596943855" lon="6.186724556609988"><ele></ele><time>2015-8-24T16:33:8Z</time></trkpt>
<trkpt lat="46.468066200613976" lon="6.186691448092461"><ele></ele><time>2015-8-24T16:33:11Z</time></trkpt>
<trkpt lat="46.467991517856717" lon="6.186687257140875"><ele></ele><time>2015-8-24T16:33:14Z</time></trkpt>
<trkpt lat="46.467925971373916" lon="6.186710307374597"><ele></ele><time>2015-8-24T16:33:17Z</time></trkpt>
<trkpt lat="46.467871572822332" lon="6.186734447255731"><ele></ele><time>2015-8-24T16:33:20Z</time></trkpt>
<trkpt lat="46.467829579487443" lon="6.186755821108818"><ele></ele><time>2015-8-24T16:33:23Z</time></trkpt>
<trkpt lat="46.467805188149214" lon="6.186788426712155"><ele></ele><time>2015-8-24T16:33:26Z</time></trkpt>
<trkpt lat="46.467794291675091" lon="6.186808878555894"><ele></ele><time>2015-8-24T16:33:29Z</time></trkpt>
<trkpt lat="46.467768559232354" lon="6.186857409775257"><ele></ele><time>2015-8-24T16:33:32Z</time></trkpt>
<trkpt lat="46.467780545353889" lon="6.186875095590949"><ele></ele><time>2015-8-24T16:33:35Z</time></trkpt>
<trkpt lat="46.467767218127847" lon="6.186879621818662"><ele></ele><time>2015-8-24T16:33:38Z</time></trkpt>
<trkpt lat="46.46774785593152" lon="6.186890350654721"><ele></ele><time>2015-8-24T16:33:41Z</time></trkpt>
<trkpt lat="46.467688931152225" lon="6.186893619596958"><ele></ele><time>2015-8-24T16:33:44Z</time></trkpt>
<trkpt lat="46.467613577842712" lon="6.186875598505139"><ele></ele><time>2015-8-24T16:33:47Z</time></trkpt>
<trkpt lat="46.467570913955569" lon="6.186856320127845"><ele></ele><time>2015-8-24T16:33:50Z</time></trkpt>
<trkpt lat="46.467527076601982" lon="6.186828827485442"><ele></ele><time>2015-8-24T16:33:53Z</time></trkpt>
<trkpt lat="46.467400006949902" lon="6.186683904379606"><ele></ele><time>2015-8-24T16:33:56Z</time></trkpt>
<trkpt lat="46.467356756329536" lon="6.186621962115169"><ele></ele><time>2015-8-24T16:33:59Z</time></trkpt>
<trkpt lat="46.46720596589148" lon="6.186411073431373"><ele></ele><time>2015-8-24T16:34:2Z</time></trkpt>
<trkpt lat="46.467149471864104" lon="6.186331110075116"><ele></ele><time>2015-8-24T16:34:5Z</time></trkpt>
<trkpt lat="46.467033885419369" lon="6.18616908788681"><ele></ele><time>2015-8-24T16:34:8Z</time></trkpt>
<trkpt lat="46.466916035860777" lon="6.18600245565176"><ele></ele><time>2015-8-24T16:34:11Z</time></trkpt>
<trkpt lat="46.466792486608028" lon="6.18582802824676"><ele></ele><time>2015-8-24T16:34:14Z</time></trkpt>
<trkpt lat="46.466732723638415" lon="6.185739347711205"><ele></ele><time>2015-8-24T16:34:17Z</time></trkpt>
<trkpt lat="46.466522924602032" lon="6.18540340103209"><ele></ele><time>2015-8-24T16:34:20Z</time></trkpt>
<trkpt lat="46.466350676491857" lon="6.185009367763996"><ele></ele><time>2015-8-24T16:34:23Z</time></trkpt>
<trkpt lat="46.466291081160307" lon="6.184853464365005"><ele></ele><time>2015-8-24T16:34:26Z</time></trkpt>
<trkpt lat="46.466195611283183" lon="6.184639809653163"><ele></ele><time>2015-8-24T16:34:29Z</time></trkpt>
<trkpt lat="46.466159652918577" lon="6.184571329504251"><ele></ele><time>2015-8-24T16:34:32Z</time></trkpt>
<trkpt lat="46.466085724532604" lon="6.184432776644826"><ele></ele><time>2015-8-24T16:34:35Z</time></trkpt>
<trkpt lat="46.465906519442797" lon="6.184186013415456"><ele></ele><time>2015-8-24T16:34:38Z</time></trkpt>
<trkpt lat="46.465860838070512" lon="6.184125831350684"><ele></ele><time>2015-8-24T16:34:41Z</time></trkpt>
<trkpt lat="46.465728236362338" lon="6.183950733393431"><ele></ele><time>2015-8-24T16:34:44Z</time></trkpt>
<trkpt lat="46.465685153380036" lon="6.183892479166389"><ele></ele><time>2015-8-24T16:34:47Z</time></trkpt>
<trkpt lat="46.465642992407084" lon="6.183832716196775"><ele></ele><time>2015-8-24T16:34:50Z</time></trkpt>
<trkpt lat="46.465598568320274" lon="6.183774545788765"><ele></ele><time>2015-8-24T16:34:53Z</time></trkpt>
<trkpt lat="46.465553222224116" lon="6.183719141408801"><ele></ele><time>2015-8-24T16:34:56Z</time></trkpt>
<trkpt lat="46.46550795994699" lon="6.183667592704296"><ele></ele><time>2015-8-24T16:34:59Z</time></trkpt>
<trkpt lat="46.46545716561377" lon="6.183617049828172"><ele></ele><time>2015-8-24T16:35:2Z</time></trkpt>
<trkpt lat="46.46535943262279" lon="6.183531302958727"><ele></ele><time>2015-8-24T16:35:5Z</time></trkpt>
<trkpt lat="46.465261112898588" lon="6.183408675715327"><ele></ele><time>2015-8-24T16:35:8Z</time></trkpt>
<trkpt lat="46.465206798166037" lon="6.183343045413494"><ele></ele><time>2015-8-24T16:35:11Z</time></trkpt>
<trkpt lat="46.465152483433485" lon="6.183280851691961"><ele></ele><time>2015-8-24T16:35:14Z</time></trkpt>
<trkpt lat="46.465096827596426" lon="6.1832270398736"><ele></ele><time>2015-8-24T16:35:17Z</time></trkpt>
<trkpt lat="46.464977636933327" lon="6.183131569996476"><ele></ele><time>2015-8-24T16:35:20Z</time></trkpt>
<trkpt lat="46.46485953591764" lon="6.183054121211171"><ele></ele><time>2015-8-24T16:35:23Z</time></trkpt>
<trkpt lat="46.464798431843519" lon="6.183018749579787"><ele></ele><time>2015-8-24T16:35:26Z</time></trkpt>
<trkpt lat="46.464668177068233" lon="6.182956136763096"><ele></ele><time>2015-8-24T16:35:29Z</time></trkpt>
<trkpt lat="46.464532809332013" lon="6.182917328551412"><ele></ele><time>2015-8-24T16:35:32Z</time></trkpt>
<trkpt lat="46.46447011269629" lon="6.182911125943065"><ele></ele><time>2015-8-24T16:35:35Z</time></trkpt>
<trkpt lat="46.464398698881269" lon="6.182874916121364"><ele></ele><time>2015-8-24T16:35:38Z</time></trkpt>
<trkpt lat="46.464331224560738" lon="6.182824624702334"><ele></ele><time>2015-8-24T16:35:41Z</time></trkpt>
<trkpt lat="46.464266767725348" lon="6.182771734893322"><ele></ele><time>2015-8-24T16:35:44Z</time></trkpt>
<trkpt lat="46.464201221242547" lon="6.182713229209185"><ele></ele><time>2015-8-24T16:35:47Z</time></trkpt>
<trkpt lat="46.464086221531034" lon="6.182633014395833"><ele></ele><time>2015-8-24T16:35:50Z</time></trkpt>
<trkpt lat="46.464037355035543" lon="6.182618429884315"><ele></ele><time>2015-8-24T16:35:53Z</time></trkpt>
<trkpt lat="46.463930066674948" lon="6.182644916698337"><ele></ele><time>2015-8-24T16:35:56Z</time></trkpt>
<trkpt lat="46.463840547949076" lon="6.182736363261938"><ele></ele><time>2015-8-24T16:35:59Z</time></trkpt>
<trkpt lat="46.463819677010179" lon="6.1827711481601"><ele></ele><time>2015-8-24T16:36:2Z</time></trkpt>
<trkpt lat="46.463710963726044" lon="6.183038782328367"><ele></ele><time>2015-8-24T16:36:5Z</time></trkpt>
<trkpt lat="46.463630916550756" lon="6.183279762044549"><ele></ele><time>2015-8-24T16:36:8Z</time></trkpt>
<trkpt lat="46.463591270148754" lon="6.183381183072925"><ele></ele><time>2015-8-24T16:36:11Z</time></trkpt>
<trkpt lat="46.463497644290328" lon="6.183533146977425"><ele></ele><time>2015-8-24T16:36:14Z</time></trkpt>
<trkpt lat="46.46345866844058" lon="6.183554856106639"><ele></ele><time>2015-8-24T16:36:17Z</time></trkpt>
<trkpt lat="46.463276948779821" lon="6.183602213859558"><ele></ele><time>2015-8-24T16:36:20Z</time></trkpt>
<trkpt lat="46.463228249922395" lon="6.183601459488273"><ele></ele><time>2015-8-24T16:36:23Z</time></trkpt>
<trkpt lat="46.463182736188173" lon="6.183595675975084"><ele></ele><time>2015-8-24T16:36:26Z</time></trkpt>
<trkpt lat="46.463047116994858" lon="6.183538511395454"><ele></ele><time>2015-8-24T16:36:29Z</time></trkpt>
<trkpt lat="46.463002189993858" lon="6.183521328493953"><ele></ele><time>2015-8-24T16:36:32Z</time></trkpt>
<trkpt lat="46.462954748421907" lon="6.183511270210147"><ele></ele><time>2015-8-24T16:36:35Z</time></trkpt>
<trkpt lat="46.462814854457974" lon="6.183488219976425"><ele></ele><time>2015-8-24T16:36:38Z</time></trkpt>
<trkpt lat="46.462732627987862" lon="6.183483945205808"><ele></ele><time>2015-8-24T16:36:41Z</time></trkpt>
<trkpt lat="46.462665321305394" lon="6.183463409543037"><ele></ele><time>2015-8-24T16:36:44Z</time></trkpt>
<trkpt lat="46.4626201428473" lon="6.183410603553057"><ele></ele><time>2015-8-24T16:36:47Z</time></trkpt>
<trkpt lat="46.462539425119758" lon="6.183283030986786"><ele></ele><time>2015-8-24T16:36:50Z</time></trkpt>
<trkpt lat="46.462522409856319" lon="6.18325880728662"><ele></ele><time>2015-8-24T16:36:53Z</time></trkpt>
<trkpt lat="46.462478823959827" lon="6.183167863637209"><ele></ele><time>2015-8-24T16:36:56Z</time></trkpt>
<trkpt lat="46.462439512833953" lon="6.18306870572269"><ele></ele><time>2015-8-24T16:36:59Z</time></trkpt>
<trkpt lat="46.462383102625608" lon="6.182908024638891"><ele></ele><time>2015-8-24T16:37:2Z</time></trkpt>
<trkpt lat="46.462355190888047" lon="6.182819344103336"><ele></ele><time>2015-8-24T16:37:5Z</time></trkpt>
<trkpt lat="46.462300205603242" lon="6.182711301371455"><ele></ele><time>2015-8-24T16:37:8Z</time></trkpt>
<trkpt lat="46.462293416261673" lon="6.182683138176799"><ele></ele><time>2015-8-24T16:37:11Z</time></trkpt>
<trkpt lat="46.462268773466349" lon="6.182615915313363"><ele></ele><time>2015-8-24T16:37:14Z</time></trkpt>
<trkpt lat="46.462259888648987" lon="6.182576017454267"><ele></ele><time>2015-8-24T16:37:17Z</time></trkpt>
<trkpt lat="46.462237425148487" lon="6.182534275576472"><ele></ele><time>2015-8-24T16:37:20Z</time></trkpt>
<trkpt lat="46.462226109579206" lon="6.182495215907693"><ele></ele><time>2015-8-24T16:37:23Z</time></trkpt>
<trkpt lat="46.462222589179873" lon="6.182476608082652"><ele></ele><time>2015-8-24T16:37:26Z</time></trkpt>
<trkpt lat="46.462192665785551" lon="6.182354735210538"><ele></ele><time>2015-8-24T16:37:29Z</time></trkpt>
<trkpt lat="46.462180092930794" lon="6.182317603379488"><ele></ele><time>2015-8-24T16:37:32Z</time></trkpt>
<trkpt lat="46.462140949442983" lon="6.182206626981497"><ele></ele><time>2015-8-24T16:37:35Z</time></trkpt>
<trkpt lat="46.462130388244987" lon="6.182188270613551"><ele></ele><time>2015-8-24T16:37:38Z</time></trkpt>
<trkpt lat="46.462102057412267" lon="6.182168405503035"><ele></ele><time>2015-8-24T16:37:41Z</time></trkpt>
<trkpt lat="46.462078504264355" lon="6.182159101590514"><ele></ele><time>2015-8-24T16:37:44Z</time></trkpt>
<trkpt lat="46.462027123197913" lon="6.182145439088345"><ele></ele><time>2015-8-24T16:37:47Z</time></trkpt>
<trkpt lat="46.46200155839324" lon="6.182141164317727"><ele></ele><time>2015-8-24T16:37:50Z</time></trkpt>
<trkpt lat="46.461989739909768" lon="6.182137727737427"><ele></ele><time>2015-8-24T16:37:53Z</time></trkpt>
<trkpt lat="46.461955038830638" lon="6.182129010558128"><ele></ele><time>2015-8-24T16:37:56Z</time></trkpt>
<trkpt lat="46.461826711893082" lon="6.182123897597194"><ele></ele><time>2015-8-24T16:37:59Z</time></trkpt>
<trkpt lat="46.461716825142503" lon="6.182151306420565"><ele></ele><time>2015-8-24T16:38:2Z</time></trkpt>
<trkpt lat="46.461634263396263" lon="6.182139152660966"><ele></ele><time>2015-8-24T16:38:5Z</time></trkpt>
<trkpt lat="46.461520940065384" lon="6.182083999738097"><ele></ele><time>2015-8-24T16:38:8Z</time></trkpt>
<trkpt lat="46.461467714980245" lon="6.182062374427915"><ele></ele><time>2015-8-24T16:38:11Z</time></trkpt>
<trkpt lat="46.461391607299447" lon="6.182014681398869"><ele></ele><time>2015-8-24T16:38:14Z</time></trkpt>
<trkpt lat="46.46138247102499" lon="6.18200303055346"><ele></ele><time>2015-8-24T16:38:17Z</time></trkpt>
<trkpt lat="46.461331341415644" lon="6.181948715820909"><ele></ele><time>2015-8-24T16:38:20Z</time></trkpt>
<trkpt lat="46.461315248161554" lon="6.181938908994198"><ele></ele><time>2015-8-24T16:38:23Z</time></trkpt>
<trkpt lat="46.4612559042871" lon="6.181895742192864"><ele></ele><time>2015-8-24T16:38:26Z</time></trkpt>
<trkpt lat="46.461202930659056" lon="6.181872356683016"><ele></ele><time>2015-8-24T16:38:29Z</time></trkpt>
<trkpt lat="46.461171247065067" lon="6.181850899010897"><ele></ele><time>2015-8-24T16:38:32Z</time></trkpt>
<trkpt lat="46.461073681712151" lon="6.181798931211233"><ele></ele><time>2015-8-24T16:38:35Z</time></trkpt>
<trkpt lat="46.461034705862403" lon="6.181775126606226"><ele></ele><time>2015-8-24T16:38:38Z</time></trkpt>
<trkpt lat="46.460898499935865" lon="6.181648308411241"><ele></ele><time>2015-8-24T16:38:41Z</time></trkpt>
<trkpt lat="46.46087234839797" lon="6.181633472442627"><ele></ele><time>2015-8-24T16:38:44Z</time></trkpt>
<trkpt lat="46.460753744468093" lon="6.18152073584497"><ele></ele><time>2015-8-24T16:38:47Z</time></trkpt>
<trkpt lat="46.460747960954905" lon="6.181512102484703"><ele></ele><time>2015-8-24T16:38:50Z</time></trkpt>
<trkpt lat="46.460731029510498" lon="6.181499948725104"><ele></ele><time>2015-8-24T16:38:53Z</time></trkpt>
<trkpt lat="46.460706638172269" lon="6.181484274566174"><ele></ele><time>2015-8-24T16:38:56Z</time></trkpt>
<trkpt lat="46.460655340924859" lon="6.181444879621267"><ele></ele><time>2015-8-24T16:38:59Z</time></trkpt>
<trkpt lat="46.460609911009669" lon="6.181404814124107"><ele></ele><time>2015-8-24T16:39:2Z</time></trkpt>
<trkpt lat="46.460563894361258" lon="6.181343123316765"><ele></ele><time>2015-8-24T16:39:5Z</time></trkpt>
<trkpt lat="46.460545537993312" lon="6.181316133588552"><ele></ele><time>2015-8-24T16:39:8Z</time></trkpt>
<trkpt lat="46.460512932389975" lon="6.181261148303747"><ele></ele><time>2015-8-24T16:39:11Z</time></trkpt>
<trkpt lat="46.460500778630376" lon="6.181232649832964"><ele></ele><time>2015-8-24T16:39:14Z</time></trkpt>
<trkpt lat="46.460450990125537" lon="6.181120667606592"><ele></ele><time>2015-8-24T16:39:17Z</time></trkpt>
<trkpt lat="46.460437495261431" lon="6.181091582402587"><ele></ele><time>2015-8-24T16:39:20Z</time></trkpt>
<trkpt lat="46.460417043417692" lon="6.180997202172875"><ele></ele><time>2015-8-24T16:39:23Z</time></trkpt>
<trkpt lat="46.460411427542567" lon="6.180963087826967"><ele></ele><time>2015-8-24T16:39:26Z</time></trkpt>
<trkpt lat="46.460406146943569" lon="6.180926291272044"><ele></ele><time>2015-8-24T16:39:29Z</time></trkpt>
<trkpt lat="46.460389718413353" lon="6.180816739797592"><ele></ele><time>2015-8-24T16:39:32Z</time></trkpt>
<trkpt lat="46.460383431985974" lon="6.180779524147511"><ele></ele><time>2015-8-24T16:39:35Z</time></trkpt>
<trkpt lat="46.460360884666443" lon="6.180636193603277"><ele></ele><time>2015-8-24T16:39:38Z</time></trkpt>
<trkpt lat="46.460356526076794" lon="6.180597636848688"><ele></ele><time>2015-8-24T16:39:41Z</time></trkpt>
<trkpt lat="46.460331715643406" lon="6.180447014048696"><ele></ele><time>2015-8-24T16:39:44Z</time></trkpt>
<trkpt lat="46.46030355244875" lon="6.180287171155214"><ele></ele><time>2015-8-24T16:39:47Z</time></trkpt>
<trkpt lat="46.460296679288149" lon="6.180246518924832"><ele></ele><time>2015-8-24T16:39:50Z</time></trkpt>
<trkpt lat="46.460240688174963" lon="6.179923312738538"><ele></ele><time>2015-8-24T16:39:53Z</time></trkpt>
<trkpt lat="46.460227947682142" lon="6.179840415716171"><ele></ele><time>2015-8-24T16:39:56Z</time></trkpt>
<trkpt lat="46.460182433947921" lon="6.179536823183298"><ele></ele><time>2015-8-24T16:39:59Z</time></trkpt>
<trkpt lat="46.460175896063447" lon="6.179498350247741"><ele></ele><time>2015-8-24T16:40:2Z</time></trkpt>
<trkpt lat="46.460159383714199" lon="6.179338674992323"><ele></ele><time>2015-8-24T16:40:5Z</time></trkpt>
<trkpt lat="46.460131220519543" lon="6.179183023050427"><ele></ele><time>2015-8-24T16:40:8Z</time></trkpt>
<trkpt lat="46.460046647116542" lon="6.178981689736247"><ele></ele><time>2015-8-24T16:40:11Z</time></trkpt>
<trkpt lat="46.460021920502186" lon="6.178929386660457"><ele></ele><time>2015-8-24T16:40:14Z</time></trkpt>
<trkpt lat="46.459973054006696" lon="6.178827881813049"><ele></ele><time>2015-8-24T16:40:17Z</time></trkpt>
<trkpt lat="46.459944890812039" lon="6.17878396064043"><ele></ele><time>2015-8-24T16:40:20Z</time></trkpt>
<trkpt lat="46.459912704303861" lon="6.178747834637761"><ele></ele><time>2015-8-24T16:40:23Z</time></trkpt>
<trkpt lat="46.459847241640091" lon="6.178685305640101"><ele></ele><time>2015-8-24T16:40:26Z</time></trkpt>
<trkpt lat="46.459787478670478" lon="6.178531749173999"><ele></ele><time>2015-8-24T16:40:29Z</time></trkpt>
<trkpt lat="46.459766356274486" lon="6.178386490792036"><ele></ele><time>2015-8-24T16:40:32Z</time></trkpt>
<trkpt lat="46.459726626053452" lon="6.178189432248473"><ele></ele><time>2015-8-24T16:40:35Z</time></trkpt>
<trkpt lat="46.459642220288515" lon="6.177790705114603"><ele></ele><time>2015-8-24T16:40:38Z</time></trkpt>
<trkpt lat="46.459538536146283" lon="6.177309416234493"><ele></ele><time>2015-8-24T16:40:41Z</time></trkpt>
<trkpt lat="46.45942697301507" lon="6.176828043535352"><ele></ele><time>2015-8-24T16:40:44Z</time></trkpt>
<trkpt lat="46.459331000223756" lon="6.176476255059242"><ele></ele><time>2015-8-24T16:40:47Z</time></trkpt>
<trkpt lat="46.459207786247134" lon="6.17621960118413"><ele></ele><time>2015-8-24T16:40:50Z</time></trkpt>
<trkpt lat="46.459170822054148" lon="6.176173081621528"><ele></ele><time>2015-8-24T16:40:53Z</time></trkpt>
<trkpt lat="46.459155147895217" lon="6.176162855699658"><ele></ele><time>2015-8-24T16:40:56Z</time></trkpt>
<trkpt lat="46.459147939458489" lon="6.1761624366045"><ele></ele><time>2015-8-24T16:40:59Z</time></trkpt>
<trkpt lat="46.459137545898557" lon="6.176161514595151"><ele></ele><time>2015-8-24T16:41:2Z</time></trkpt>
<trkpt lat="46.459131259471178" lon="6.176167381927371"><ele></ele><time>2015-8-24T16:41:5Z</time></trkpt>
<trkpt lat="46.459126984700561" lon="6.176165537908673"><ele></ele><time>2015-8-24T16:41:8Z</time></trkpt>
<trkpt lat="46.459115920588374" lon="6.176153719425201"><ele></ele><time>2015-8-24T16:41:11Z</time></trkpt>
<trkpt lat="46.459080716595054" lon="6.176130585372448"><ele></ele><time>2015-8-24T16:41:14Z</time></trkpt>
<trkpt lat="46.459060851484537" lon="6.17612580768764"><ele></ele><time>2015-8-24T16:41:17Z</time></trkpt>
<trkpt lat="46.45893101580441" lon="6.17611994035542"><ele></ele><time>2015-8-24T16:41:20Z</time></trkpt>
<trkpt lat="46.458851555362344" lon="6.176080796867609"><ele></ele><time>2015-8-24T16:41:23Z</time></trkpt>
<trkpt lat="46.458767736330628" lon="6.17603687569499"><ele></ele><time>2015-8-24T16:41:26Z</time></trkpt>
<trkpt lat="46.458627507090569" lon="6.175935873761773"><ele></ele><time>2015-8-24T16:41:29Z</time></trkpt>
<trkpt lat="46.458593560382724" lon="6.175909470766783"><ele></ele><time>2015-8-24T16:41:32Z</time></trkpt>
<trkpt lat="46.45840379409492" lon="6.175748370587826"><ele></ele><time>2015-8-24T16:41:35Z</time></trkpt>
<trkpt lat="46.458363896235824" lon="6.175717609003186"><ele></ele><time>2015-8-24T16:41:38Z</time></trkpt>
<trkpt lat="46.458231629803777" lon="6.175570255145431"><ele></ele><time>2015-8-24T16:41:41Z</time></trkpt>
<trkpt lat="46.458209669217467" lon="6.17553748190403"><ele></ele><time>2015-8-24T16:41:44Z</time></trkpt>
<trkpt lat="46.45815753377974" lon="6.175477216020226"><ele></ele><time>2015-8-24T16:41:47Z</time></trkpt>
<trkpt lat="46.458037253469229" lon="6.175343189388514"><ele></ele><time>2015-8-24T16:41:50Z</time></trkpt>
<trkpt lat="46.457899790257215" lon="6.175219472497702"><ele></ele><time>2015-8-24T16:41:53Z</time></trkpt>
<trkpt lat="46.457829382270575" lon="6.175153339281678"><ele></ele><time>2015-8-24T16:41:56Z</time></trkpt>
<trkpt lat="46.457690745592117" lon="6.175038171932101"><ele></ele><time>2015-8-24T16:41:59Z</time></trkpt>
<trkpt lat="46.457576751708984" lon="6.174952508881688"><ele></ele><time>2015-8-24T16:42:2Z</time></trkpt>
<trkpt lat="46.457426883280277" lon="6.174836670979857"><ele></ele><time>2015-8-24T16:42:5Z</time></trkpt>
<trkpt lat="46.457389499992132" lon="6.174812447279692"><ele></ele><time>2015-8-24T16:42:8Z</time></trkpt>
<trkpt lat="46.457350943237543" lon="6.174792582169175"><ele></ele><time>2015-8-24T16:42:11Z</time></trkpt>
<trkpt lat="46.457223873585463" lon="6.174705578014255"><ele></ele><time>2015-8-24T16:42:14Z</time></trkpt>
<trkpt lat="46.457136115059257" lon="6.174605246633291"><ele></ele><time>2015-8-24T16:42:17Z</time></trkpt>
<trkpt lat="46.457112729549408" lon="6.174560990184546"><ele></ele><time>2015-8-24T16:42:20Z</time></trkpt>
<trkpt lat="46.457107113674283" lon="6.174505753442645"><ele></ele><time>2015-8-24T16:42:23Z</time></trkpt>
<trkpt lat="46.457118848338723" lon="6.174472561106086"><ele></ele><time>2015-8-24T16:42:26Z</time></trkpt>
<trkpt lat="46.457137037068605" lon="6.174440961331129"><ele></ele><time>2015-8-24T16:42:29Z</time></trkpt>
<trkpt lat="46.457176264375448" lon="6.174343731254339"><ele></ele><time>2015-8-24T16:42:32Z</time></trkpt>
<trkpt lat="46.457186993211508" lon="6.174315316602588"><ele></ele><time>2015-8-24T16:42:35Z</time></trkpt>
<trkpt lat="46.457197135314345" lon="6.174285728484392"><ele></ele><time>2015-8-24T16:42:38Z</time></trkpt>
<trkpt lat="46.457229992374778" lon="6.174176260828972"><ele></ele><time>2015-8-24T16:42:41Z</time></trkpt>
<trkpt lat="46.45723694935441" lon="6.174149606376886"><ele></ele><time>2015-8-24T16:42:44Z</time></trkpt>
<trkpt lat="46.457233680412173" lon="6.174124041572213"><ele></ele><time>2015-8-24T16:42:47Z</time></trkpt>
<trkpt lat="46.457237200811505" lon="6.174109959974885"><ele></ele><time>2015-8-24T16:42:50Z</time></trkpt>
<trkpt lat="46.457269638776779" lon="6.17398607544601"><ele></ele><time>2015-8-24T16:42:53Z</time></trkpt>
<trkpt lat="46.457271818071604" lon="6.173961767926812"><ele></ele><time>2015-8-24T16:42:56Z</time></trkpt>
<trkpt lat="46.4572823792696" lon="6.173885241150856"><ele></ele><time>2015-8-24T16:42:59Z</time></trkpt>
<trkpt lat="46.457301490008831" lon="6.173807205632329"><ele></ele><time>2015-8-24T16:43:2Z</time></trkpt>
<trkpt lat="46.457332167774439" lon="6.173609057441354"><ele></ele><time>2015-8-24T16:43:5Z</time></trkpt>
<trkpt lat="46.457359157502651" lon="6.17348525673151"><ele></ele><time>2015-8-24T16:43:8Z</time></trkpt>
<trkpt lat="46.457363851368427" lon="6.173381321132183"><ele></ele><time>2015-8-24T16:43:11Z</time></trkpt>
<trkpt lat="46.457382291555405" lon="6.173221226781607"><ele></ele><time>2015-8-24T16:43:14Z</time></trkpt>
<trkpt lat="46.457380531355739" lon="6.17316322401166"><ele></ele><time>2015-8-24T16:43:17Z</time></trkpt>
<trkpt lat="46.457391008734703" lon="6.173077812418342"><ele></ele><time>2015-8-24T16:43:20Z</time></trkpt>
<trkpt lat="46.457411125302315" lon="6.172945713624358"><ele></ele><time>2015-8-24T16:43:23Z</time></trkpt>
<trkpt lat="46.457414058968425" lon="6.172894416376948"><ele></ele><time>2015-8-24T16:43:26Z</time></trkpt>
<trkpt lat="46.457437025383115" lon="6.172727029770613"><ele></ele><time>2015-8-24T16:43:29Z</time></trkpt>
<trkpt lat="46.457443395629525" lon="6.172700459137559"><ele></ele><time>2015-8-24T16:43:32Z</time></trkpt>
<trkpt lat="46.457464769482613" lon="6.172574060037732"><ele></ele><time>2015-8-24T16:43:35Z</time></trkpt>
<trkpt lat="46.457490921020508" lon="6.172434920445085"><ele></ele><time>2015-8-24T16:43:38Z</time></trkpt>
<trkpt lat="46.457524867728353" lon="6.172282453626394"><ele></ele><time>2015-8-24T16:43:41Z</time></trkpt>
<trkpt lat="46.457546073943377" lon="6.172204753383994"><ele></ele><time>2015-8-24T16:43:44Z</time></trkpt>
<trkpt lat="46.457564095035195" lon="6.172159491106868"><ele></ele><time>2015-8-24T16:43:47Z</time></trkpt>
<trkpt lat="46.457622181624174" lon="6.172024793922901"><ele></ele><time>2015-8-24T16:43:50Z</time></trkpt>
<trkpt lat="46.457642801105976" lon="6.171981124207377"><ele></ele><time>2015-8-24T16:43:53Z</time></trkpt>
<trkpt lat="46.45768890157342" lon="6.171868219971657"><ele></ele><time>2015-8-24T16:43:56Z</time></trkpt>
<trkpt lat="46.457698289304972" lon="6.171843744814396"><ele></ele><time>2015-8-24T16:43:59Z</time></trkpt>
<trkpt lat="46.45772946998477" lon="6.171737378463149"><ele></ele><time>2015-8-24T16:44:2Z</time></trkpt>
<trkpt lat="46.457752604037523" lon="6.17166655138135"><ele></ele><time>2015-8-24T16:44:5Z</time></trkpt>
<trkpt lat="46.457780180498958" lon="6.171593880280852"><ele></ele><time>2015-8-24T16:44:8Z</time></trkpt>
<trkpt lat="46.457818653434515" lon="6.171494470909238"><ele></ele><time>2015-8-24T16:44:11Z</time></trkpt>
<trkpt lat="46.457835752516985" lon="6.171444682404399"><ele></ele><time>2015-8-24T16:44:14Z</time></trkpt>
<trkpt lat="46.457917224615812" lon="6.171310152858496"><ele></ele><time>2015-8-24T16:44:17Z</time></trkpt>
<trkpt lat="46.457927618175745" lon="6.171290790662169"><ele></ele><time>2015-8-24T16:44:20Z</time></trkpt>
<trkpt lat="46.457978496327996" lon="6.171208145096898"><ele></ele><time>2015-8-24T16:44:23Z</time></trkpt>
<trkpt lat="46.45799576304853" lon="6.171179646626115"><ele></ele><time>2015-8-24T16:44:26Z</time></trkpt>
<trkpt lat="46.458016131073236" lon="6.171145783737302"><ele></ele><time>2015-8-24T16:44:29Z</time></trkpt>
<trkpt lat="46.458035912364721" lon="6.171092223376036"><ele></ele><time>2015-8-24T16:44:32Z</time></trkpt>
<trkpt lat="46.45804462954402" lon="6.171073112636805"><ele></ele><time>2015-8-24T16:44:35Z</time></trkpt>
<trkpt lat="46.458082431927323" lon="6.17094243876636"><ele></ele><time>2015-8-24T16:44:38Z</time></trkpt>
<trkpt lat="46.45808863453567" lon="6.170921232551336"><ele></ele><time>2015-8-24T16:44:41Z</time></trkpt>
<trkpt lat="46.458109924569726" lon="6.170811848714948"><ele></ele><time>2015-8-24T16:44:44Z</time></trkpt>
<trkpt lat="46.458125011995435" lon="6.170722329989076"><ele></ele><time>2015-8-24T16:44:47Z</time></trkpt>
<trkpt lat="46.458129286766052" lon="6.170676648616791"><ele></ele><time>2015-8-24T16:44:50Z</time></trkpt>
<trkpt lat="46.458136243745685" lon="6.170582436025143"><ele></ele><time>2015-8-24T16:44:53Z</time></trkpt>
<trkpt lat="46.458139261230826" lon="6.170532563701272"><ele></ele><time>2015-8-24T16:44:56Z</time></trkpt>
<trkpt lat="46.458149906247854" lon="6.170482942834496"><ele></ele><time>2015-8-24T16:44:59Z</time></trkpt>
<trkpt lat="46.458166670054197" lon="6.170394429937005"><ele></ele><time>2015-8-24T16:45:2Z</time></trkpt>
<trkpt lat="46.458173710852861" lon="6.170307006686926"><ele></ele><time>2015-8-24T16:45:5Z</time></trkpt>
<trkpt lat="46.458176812157035" lon="6.170291919261217"><ele></ele><time>2015-8-24T16:45:8Z</time></trkpt>
<trkpt lat="46.458175219595432" lon="6.170252356678247"><ele></ele><time>2015-8-24T16:45:11Z</time></trkpt>
<trkpt lat="46.458175554871559" lon="6.17022855207324"><ele></ele><time>2015-8-24T16:45:14Z</time></trkpt>
<trkpt lat="46.458189720287919" lon="6.170089580118656"><ele></ele><time>2015-8-24T16:45:17Z</time></trkpt>
<trkpt lat="46.458204807713628" lon="6.169941388070583"><ele></ele><time>2015-8-24T16:45:20Z</time></trkpt>
<trkpt lat="46.458200616762042" lon="6.169817000627518"><ele></ele><time>2015-8-24T16:45:23Z</time></trkpt>
<trkpt lat="46.458193995058537" lon="6.169757489115"><ele></ele><time>2015-8-24T16:45:26Z</time></trkpt>
<trkpt lat="46.458198186010122" lon="6.169690098613501"><ele></ele><time>2015-8-24T16:45:29Z</time></trkpt>
<trkpt lat="46.458210088312626" lon="6.16958892904222"><ele></ele><time>2015-8-24T16:45:32Z</time></trkpt>
<trkpt lat="46.45822836086154" lon="6.169425481930375"><ele></ele><time>2015-8-24T16:45:35Z</time></trkpt>
<trkpt lat="46.458228025585413" lon="6.169392708688974"><ele></ele><time>2015-8-24T16:45:38Z</time></trkpt>
<trkpt lat="46.458233390003443" lon="6.169225741177797"><ele></ele><time>2015-8-24T16:45:41Z</time></trkpt>
<trkpt lat="46.458236910402775" lon="6.169194392859936"><ele></ele><time>2015-8-24T16:45:44Z</time></trkpt>
<trkpt lat="46.458245040848851" lon="6.169037986546755"><ele></ele><time>2015-8-24T16:45:47Z</time></trkpt>
<trkpt lat="46.458244873210788" lon="6.169013427570462"><ele></ele><time>2015-8-24T16:45:50Z</time></trkpt>
<trkpt lat="46.458244621753693" lon="6.168876048177481"><ele></ele><time>2015-8-24T16:45:53Z</time></trkpt>
<trkpt lat="46.458247723057866" lon="6.168825337663293"><ele></ele><time>2015-8-24T16:45:56Z</time></trkpt>
<trkpt lat="46.458256524056196" lon="6.168683851137757"><ele></ele><time>2015-8-24T16:45:59Z</time></trkpt>
<trkpt lat="46.458263983950019" lon="6.16863464936614"><ele></ele><time>2015-8-24T16:46:2Z</time></trkpt>
<trkpt lat="46.458282507956028" lon="6.168543621897697"><ele></ele><time>2015-8-24T16:46:5Z</time></trkpt>
<trkpt lat="46.458284016698599" lon="6.168425353243947"><ele></ele><time>2015-8-24T16:46:8Z</time></trkpt>
<trkpt lat="46.458277562633157" lon="6.168359136208892"><ele></ele><time>2015-8-24T16:46:11Z</time></trkpt>
<trkpt lat="46.458265241235495" lon="6.168280094861984"><ele></ele><time>2015-8-24T16:46:14Z</time></trkpt>
<trkpt lat="46.458261469379067" lon="6.168256122618914"><ele></ele><time>2015-8-24T16:46:17Z</time></trkpt>
<trkpt lat="46.458258787170053" lon="6.168145313858986"><ele></ele><time>2015-8-24T16:46:20Z</time></trkpt>
<trkpt lat="46.458264319226146" lon="6.168039618059993"><ele></ele><time>2015-8-24T16:46:23Z</time></trkpt>
<trkpt lat="46.458281921222806" lon="6.167893018573523"><ele></ele><time>2015-8-24T16:46:26Z</time></trkpt>
<trkpt lat="46.458285944536328" lon="6.167864520102739"><ele></ele><time>2015-8-24T16:46:29Z</time></trkpt>
<trkpt lat="46.458288375288248" lon="6.167723452672362"><ele></ele><time>2015-8-24T16:46:32Z</time></trkpt>
<trkpt lat="46.458291308954358" lon="6.167662180960178"><ele></ele><time>2015-8-24T16:46:35Z</time></trkpt>
<trkpt lat="46.458297930657864" lon="6.167568890377879"><ele></ele><time>2015-8-24T16:46:38Z</time></trkpt>
<trkpt lat="46.458305139094591" lon="6.167458835989237"><ele></ele><time>2015-8-24T16:46:41Z</time></trkpt>
<trkpt lat="46.458337493240833" lon="6.167361102998257"><ele></ele><time>2015-8-24T16:46:44Z</time></trkpt>
<trkpt lat="46.458358280360699" lon="6.167299579828978"><ele></ele><time>2015-8-24T16:46:47Z</time></trkpt>
<trkpt lat="46.458390969783068" lon="6.167224561795592"><ele></ele><time>2015-8-24T16:46:50Z</time></trkpt>
<trkpt lat="46.45840035751462" lon="6.167175276204944"><ele></ele><time>2015-8-24T16:46:53Z</time></trkpt>
<trkpt lat="46.45838862285018" lon="6.167132947593927"><ele></ele><time>2015-8-24T16:46:56Z</time></trkpt>
<trkpt lat="46.458369679749012" lon="6.167090702801943"><ele></ele><time>2015-8-24T16:46:59Z</time></trkpt>
<trkpt lat="46.458358699455857" lon="6.167065724730492"><ele></ele><time>2015-8-24T16:47:2Z</time></trkpt>
<trkpt lat="46.458295835182071" lon="6.166917784139514"><ele></ele><time>2015-8-24T16:47:5Z</time></trkpt>
<trkpt lat="46.458226516842842" lon="6.166678061708808"><ele></ele><time>2015-8-24T16:47:8Z</time></trkpt>
<trkpt lat="46.458199946209788" lon="6.16644655354321"><ele></ele><time>2015-8-24T16:47:11Z</time></trkpt>
<trkpt lat="46.458144290372729" lon="6.166235916316509"><ele></ele><time>2015-8-24T16:47:14Z</time></trkpt>
<trkpt lat="46.458107829093933" lon="6.166154192760587"><ele></ele><time>2015-8-24T16:47:17Z</time></trkpt>
<trkpt lat="46.458070361986756" lon="6.166090406477451"><ele></ele><time>2015-8-24T16:47:20Z</time></trkpt>
<trkpt lat="46.457989811897278" lon="6.165938777849078"><ele></ele><time>2015-8-24T16:47:23Z</time></trkpt>
<trkpt lat="46.457916302606463" lon="6.16575906984508"><ele></ele><time>2015-8-24T16:47:26Z</time></trkpt>
<trkpt lat="46.457879086956382" lon="6.165663432329893"><ele></ele><time>2015-8-24T16:47:29Z</time></trkpt>
<trkpt lat="46.457784455269575" lon="6.165489424020052"><ele></ele><time>2015-8-24T16:47:32Z</time></trkpt>
<trkpt lat="46.457657385617495" lon="6.165258502587676"><ele></ele><time>2015-8-24T16:47:35Z</time></trkpt>
<trkpt lat="46.457570800557733" lon="6.165003692731261"><ele></ele><time>2015-8-24T16:47:38Z</time></trkpt>
<trkpt lat="46.457509277388453" lon="6.164755336940289"><ele></ele><time>2015-8-24T16:47:41Z</time></trkpt>
<trkpt lat="46.457452699542046" lon="6.164571102708578"><ele></ele><time>2015-8-24T16:47:44Z</time></trkpt>
<trkpt lat="46.457409951835871" lon="6.164324339479208"><ele></ele><time>2015-8-24T16:47:47Z</time></trkpt>
<trkpt lat="46.457363348454237" lon="6.164080677554011"><ele></ele><time>2015-8-24T16:47:50Z</time></trkpt>
<trkpt lat="46.457311967387795" lon="6.163856461644173"><ele></ele><time>2015-8-24T16:47:53Z</time></trkpt>
<trkpt lat="46.457241894677281" lon="6.163660157471895"><ele></ele><time>2015-8-24T16:47:56Z</time></trkpt>
<trkpt lat="46.45716268569231" lon="6.163437366485596"><ele></ele><time>2015-8-24T16:47:59Z</time></trkpt>
<trkpt lat="46.457149526104331" lon="6.163369137793779"><ele></ele><time>2015-8-24T16:48:2Z</time></trkpt>
<trkpt lat="46.457118764519691" lon="6.163249528035522"><ele></ele><time>2015-8-24T16:48:5Z</time></trkpt>
<trkpt lat="46.457100911065936" lon="6.163198817521334"><ele></ele><time>2015-8-24T16:48:8Z</time></trkpt>
<trkpt lat="46.456965794786811" lon="6.162967393174767"><ele></ele><time>2015-8-24T16:48:11Z</time></trkpt>
<trkpt lat="46.456867223605514" lon="6.162846526131034"><ele></ele><time>2015-8-24T16:48:14Z</time></trkpt>
<trkpt lat="46.456848196685314" lon="6.162799336016178"><ele></ele><time>2015-8-24T16:48:17Z</time></trkpt>
<trkpt lat="46.456836378201842" lon="6.162764802575111"><ele></ele><time>2015-8-24T16:48:20Z</time></trkpt>
<trkpt lat="46.456826655194163" lon="6.162735968828201"><ele></ele><time>2015-8-24T16:48:23Z</time></trkpt>
<trkpt lat="46.456799916923046" lon="6.162675200030208"><ele></ele><time>2015-8-24T16:48:26Z</time></trkpt>
<trkpt lat="46.456751134246588" lon="6.162598002701998"><ele></ele><time>2015-8-24T16:48:29Z</time></trkpt>
<trkpt lat="46.456678295508027" lon="6.162458108738065"><ele></ele><time>2015-8-24T16:48:32Z</time></trkpt>
<trkpt lat="46.456626579165459" lon="6.162381246685982"><ele></ele><time>2015-8-24T16:48:35Z</time></trkpt>
<trkpt lat="46.456529600545764" lon="6.162223080173135"><ele></ele><time>2015-8-24T16:48:38Z</time></trkpt>
<trkpt lat="46.456493139266968" lon="6.162115707993507"><ele></ele><time>2015-8-24T16:48:41Z</time></trkpt>
<trkpt lat="46.456489954143763" lon="6.16207673214376"><ele></ele><time>2015-8-24T16:48:44Z</time></trkpt>
<trkpt lat="46.456494648009539" lon="6.162040689960122"><ele></ele><time>2015-8-24T16:48:47Z</time></trkpt>
<trkpt lat="46.456521889194846" lon="6.161898700520396"><ele></ele><time>2015-8-24T16:48:50Z</time></trkpt>
<trkpt lat="46.456551644951105" lon="6.161645315587521"><ele></ele><time>2015-8-24T16:48:53Z</time></trkpt>
<trkpt lat="46.456556674093008" lon="6.161569207906723"><ele></ele><time>2015-8-24T16:48:56Z</time></trkpt>
<trkpt lat="46.456561870872974" lon="6.161386482417583"><ele></ele><time>2015-8-24T16:48:59Z</time></trkpt>
<trkpt lat="46.456563295796514" lon="6.161350524052978"><ele></ele><time>2015-8-24T16:49:2Z</time></trkpt>
<trkpt lat="46.456577964127064" lon="6.161126391962171"><ele></ele><time>2015-8-24T16:49:5Z</time></trkpt>
<trkpt lat="46.456581484526396" lon="6.161090265959501"><ele></ele><time>2015-8-24T16:49:8Z</time></trkpt>
<trkpt lat="46.456584082916379" lon="6.160876946523786"><ele></ele><time>2015-8-24T16:49:11Z</time></trkpt>
<trkpt lat="46.456594644114375" lon="6.16080729290843"><ele></ele><time>2015-8-24T16:49:14Z</time></trkpt>
<trkpt lat="46.456595985218883" lon="6.160771753638983"><ele></ele><time>2015-8-24T16:49:17Z</time></trkpt>
<trkpt lat="46.456606797873974" lon="6.160600176081061"><ele></ele><time>2015-8-24T16:49:20Z</time></trkpt>
<trkpt lat="46.456609815359116" lon="6.16052876226604"><ele></ele><time>2015-8-24T16:49:23Z</time></trkpt>
<trkpt lat="46.456629261374474" lon="6.160367410629988"><ele></ele><time>2015-8-24T16:49:26Z</time></trkpt>
<trkpt lat="46.45663982257247" lon="6.160308318212628"><ele></ele><time>2015-8-24T16:49:29Z</time></trkpt>
<trkpt lat="46.456659017130733" lon="6.160254841670394"><ele></ele><time>2015-8-24T16:49:32Z</time></trkpt>
<trkpt lat="46.456715008243918" lon="6.16012274287641"><ele></ele><time>2015-8-24T16:49:35Z</time></trkpt>
<trkpt lat="46.456730263307691" lon="6.16009927354753"><ele></ele><time>2015-8-24T16:49:38Z</time></trkpt>
<trkpt lat="46.45680595189333" lon="6.159989554435015"><ele></ele><time>2015-8-24T16:49:41Z</time></trkpt>
<trkpt lat="46.456884490326047" lon="6.159888049587607"><ele></ele><time>2015-8-24T16:49:44Z</time></trkpt>
<trkpt lat="46.456935200840235" lon="6.159761901944876"><ele></ele><time>2015-8-24T16:49:47Z</time></trkpt>
<trkpt lat="46.456942576915026" lon="6.159702725708485"><ele></ele><time>2015-8-24T16:49:50Z</time></trkpt>
<trkpt lat="46.456950791180134" lon="6.159611782059073"><ele></ele><time>2015-8-24T16:49:53Z</time></trkpt>
<trkpt lat="46.4569491147995" lon="6.159476917237043"><ele></ele><time>2015-8-24T16:49:56Z</time></trkpt>
<trkpt lat="46.456947019323707" lon="6.159449340775609"><ele></ele><time>2015-8-24T16:49:59Z</time></trkpt>
<trkpt lat="46.456943079829216" lon="6.159394271671772"><ele></ele><time>2015-8-24T16:50:2Z</time></trkpt>
<trkpt lat="46.456909300759435" lon="6.159266699105501"><ele></ele><time>2015-8-24T16:50:5Z</time></trkpt>
<trkpt lat="46.456877449527383" lon="6.159173492342234"><ele></ele><time>2015-8-24T16:50:8Z</time></trkpt>
<trkpt lat="46.456841994076967" lon="6.159088918939233"><ele></ele><time>2015-8-24T16:50:11Z</time></trkpt>
<trkpt lat="46.456776112318039" lon="6.158976517617702"><ele></ele><time>2015-8-24T16:50:14Z</time></trkpt>
<trkpt lat="46.45675415173173" lon="6.158939050510526"><ele></ele><time>2015-8-24T16:50:17Z</time></trkpt>
<trkpt lat="46.456734957173467" lon="6.158904684707522"><ele></ele><time>2015-8-24T16:50:20Z</time></trkpt>
<trkpt lat="46.45666915923357" lon="6.158837880939245"><ele></ele><time>2015-8-24T16:50:23Z</time></trkpt>
<trkpt lat="46.456657676026225" lon="6.158817345276475"><ele></ele><time>2015-8-24T16:50:26Z</time></trkpt>
<trkpt lat="46.45658659748733" lon="6.158722462132573"><ele></ele><time>2015-8-24T16:50:29Z</time></trkpt>
<trkpt lat="46.456554075703025" lon="6.158679965883493"><ele></ele><time>2015-8-24T16:50:32Z</time></trkpt>
<trkpt lat="46.456529516726732" lon="6.158631686121225"><ele></ele><time>2015-8-24T16:50:35Z</time></trkpt>
<trkpt lat="46.456464305520058" lon="6.158520206809044"><ele></ele><time>2015-8-24T16:50:38Z</time></trkpt>
<trkpt lat="46.456447038799524" lon="6.158465556800365"><ele></ele><time>2015-8-24T16:50:41Z</time></trkpt>
<trkpt lat="46.456437148153782" lon="6.158437896519899"><ele></ele><time>2015-8-24T16:50:44Z</time></trkpt>
<trkpt lat="46.456381073221564" lon="6.158300433307886"><ele></ele><time>2015-8-24T16:50:47Z</time></trkpt>
<trkpt lat="46.456365650519729" lon="6.158243352547288"><ele></ele><time>2015-8-24T16:50:50Z</time></trkpt>
<trkpt lat="46.456326842308044" lon="6.158172357827425"><ele></ele><time>2015-8-24T16:50:53Z</time></trkpt>
<trkpt lat="46.456297757104039" lon="6.158078396692872"><ele></ele><time>2015-8-24T16:50:56Z</time></trkpt>
<trkpt lat="46.456281077116728" lon="6.158035732805729"><ele></ele><time>2015-8-24T16:50:59Z</time></trkpt>
<trkpt lat="46.456262972205877" lon="6.157860551029444"><ele></ele><time>2015-8-24T16:51:2Z</time></trkpt>
<trkpt lat="46.456261379644275" lon="6.157830040901899"><ele></ele><time>2015-8-24T16:51:5Z</time></trkpt>
<trkpt lat="46.456274287775159" lon="6.157667012885213"><ele></ele><time>2015-8-24T16:51:8Z</time></trkpt>
<trkpt lat="46.456275628879666" lon="6.157635161653161"><ele></ele><time>2015-8-24T16:51:11Z</time></trkpt>
<trkpt lat="46.456297924742103" lon="6.157458303496242"><ele></ele><time>2015-8-24T16:51:14Z</time></trkpt>
<trkpt lat="46.456314269453287" lon="6.157350679859519"><ele></ele><time>2015-8-24T16:51:17Z</time></trkpt>
<trkpt lat="46.456316700205207" lon="6.157328467816114"><ele></ele><time>2015-8-24T16:51:20Z</time></trkpt>
<trkpt lat="46.456327848136425" lon="6.157201314345002"><ele></ele><time>2015-8-24T16:51:23Z</time></trkpt>
<trkpt lat="46.456325920298696" lon="6.157146748155355"><ele></ele><time>2015-8-24T16:51:26Z</time></trkpt>
<trkpt lat="46.456323154270649" lon="6.157067203894258"><ele></ele><time>2015-8-24T16:51:29Z</time></trkpt>
<trkpt lat="46.456307144835591" lon="6.156937032938004"><ele></ele><time>2015-8-24T16:51:32Z</time></trkpt>
<trkpt lat="46.456304211169481" lon="6.156912809237838"><ele></ele><time>2015-8-24T16:51:35Z</time></trkpt>
<trkpt lat="46.456288285553455" lon="6.156819853931665"><ele></ele><time>2015-8-24T16:51:38Z</time></trkpt>
<trkpt lat="46.456261295825243" lon="6.156727485358715"><ele></ele><time>2015-8-24T16:51:41Z</time></trkpt>
<trkpt lat="46.456254255026579" lon="6.156702255830169"><ele></ele><time>2015-8-24T16:51:44Z</time></trkpt>
<trkpt lat="46.456219805404544" lon="6.156608127057552"><ele></ele><time>2015-8-24T16:51:47Z</time></trkpt>
<trkpt lat="46.456189630553126" lon="6.156526571139693"><ele></ele><time>2015-8-24T16:51:50Z</time></trkpt>
<trkpt lat="46.456182505935431" lon="6.156498491764069"><ele></ele><time>2015-8-24T16:51:53Z</time></trkpt>
<trkpt lat="46.456128526479006" lon="6.156352311372757"><ele></ele><time>2015-8-24T16:51:56Z</time></trkpt>
<trkpt lat="46.456118552014232" lon="6.156320376321673"><ele></ele><time>2015-8-24T16:51:59Z</time></trkpt>
<trkpt lat="46.456053256988525" lon="6.156216021627188"><ele></ele><time>2015-8-24T16:52:2Z</time></trkpt>
<trkpt lat="46.456027776002884" lon="6.156165394932032"><ele></ele><time>2015-8-24T16:52:5Z</time></trkpt>
<trkpt lat="46.45599726587534" lon="6.156095322221518"><ele></ele><time>2015-8-24T16:52:8Z</time></trkpt>
<trkpt lat="46.455950243398547" lon="6.155996415764093"><ele></ele><time>2015-8-24T16:52:11Z</time></trkpt>
<trkpt lat="46.455932557582855" lon="6.155953668057919"><ele></ele><time>2015-8-24T16:52:14Z</time></trkpt>
<trkpt lat="46.455923421308398" lon="6.155930198729038"><ele></ele><time>2015-8-24T16:52:17Z</time></trkpt>
<trkpt lat="46.45587463863194" lon="6.155830873176455"><ele></ele><time>2015-8-24T16:52:20Z</time></trkpt>
<trkpt lat="46.455856114625931" lon="6.155788544565439"><ele></ele><time>2015-8-24T16:52:23Z</time></trkpt>
<trkpt lat="46.455826442688704" lon="6.155725764110684"><ele></ele><time>2015-8-24T16:52:26Z</time></trkpt>
<trkpt lat="46.455769278109074" lon="6.155621912330389"><ele></ele><time>2015-8-24T16:52:29Z</time></trkpt>
<trkpt lat="46.455746395513415" lon="6.155577236786485"><ele></ele><time>2015-8-24T16:52:32Z</time></trkpt>
<trkpt lat="46.455716555938125" lon="6.155503643676639"><ele></ele><time>2015-8-24T16:52:35Z</time></trkpt>
<trkpt lat="46.455656122416258" lon="6.155383698642254"><ele></ele><time>2015-8-24T16:52:38Z</time></trkpt>
<trkpt lat="46.455645812675357" lon="6.155357044190168"><ele></ele><time>2015-8-24T16:52:41Z</time></trkpt>
<trkpt lat="46.455612955614924" lon="6.155280517414212"><ele></ele><time>2015-8-24T16:52:44Z</time></trkpt>
<trkpt lat="46.455564424395561" lon="6.155154621228576"><ele></ele><time>2015-8-24T16:52:47Z</time></trkpt>
<trkpt lat="46.455486388877034" lon="6.155007435008883"><ele></ele><time>2015-8-24T16:52:50Z</time></trkpt>
<trkpt lat="46.455452861264348" lon="6.154930908232927"><ele></ele><time>2015-8-24T16:52:53Z</time></trkpt>
<trkpt lat="46.455434169620275" lon="6.154879862442613"><ele></ele><time>2015-8-24T16:52:56Z</time></trkpt>
<trkpt lat="46.455374825745821" lon="6.154748098924756"><ele></ele><time>2015-8-24T16:52:59Z</time></trkpt>
<trkpt lat="46.455335430800915" lon="6.154673919081688"><ele></ele><time>2015-8-24T16:53:2Z</time></trkpt>
<trkpt lat="46.455301232635975" lon="6.15459923632443"><ele></ele><time>2015-8-24T16:53:5Z</time></trkpt>
<trkpt lat="46.4552584849298" lon="6.154486080631614"><ele></ele><time>2015-8-24T16:53:8Z</time></trkpt>
<trkpt lat="46.455248007550836" lon="6.154459090903401"><ele></ele><time>2015-8-24T16:53:11Z</time></trkpt>
<trkpt lat="46.455192854627967" lon="6.154278628528118"><ele></ele><time>2015-8-24T16:53:14Z</time></trkpt>
<trkpt lat="46.455182712525129" lon="6.154185337945819"><ele></ele><time>2015-8-24T16:53:17Z</time></trkpt>
<trkpt lat="46.455180700868368" lon="6.154119204729795"><ele></ele><time>2015-8-24T16:53:20Z</time></trkpt>
<trkpt lat="46.455185478553176" lon="6.15404024720192"><ele></ele><time>2015-8-24T16:53:23Z</time></trkpt>
<trkpt lat="46.455173492431641" lon="6.15389415062964"><ele></ele><time>2015-8-24T16:53:26Z</time></trkpt>
<trkpt lat="46.455160919576883" lon="6.153816618025303"><ele></ele><time>2015-8-24T16:53:29Z</time></trkpt>
<trkpt lat="46.455113729462028" lon="6.153636993840337"><ele></ele><time>2015-8-24T16:53:32Z</time></trkpt>
<trkpt lat="46.45509822294116" lon="6.153606735169888"><ele></ele><time>2015-8-24T16:53:35Z</time></trkpt>
<trkpt lat="46.455013817176223" lon="6.153413280844688"><ele></ele><time>2015-8-24T16:53:38Z</time></trkpt>
<trkpt lat="46.454978697001934" lon="6.15334982983768"><ele></ele><time>2015-8-24T16:53:41Z</time></trkpt>
<trkpt lat="46.4549061935395" lon="6.153194094076753"><ele></ele><time>2015-8-24T16:53:44Z</time></trkpt>
<trkpt lat="46.45488565787673" lon="6.15313190035522"><ele></ele><time>2015-8-24T16:53:47Z</time></trkpt>
<trkpt lat="46.454862356185913" lon="6.152892764657736"><ele></ele><time>2015-8-24T16:53:50Z</time></trkpt>
<trkpt lat="46.454913485795259" lon="6.152622448280454"><ele></ele><time>2015-8-24T16:53:53Z</time></trkpt>
<trkpt lat="46.454952461645007" lon="6.152512226253748"><ele></ele><time>2015-8-24T16:53:56Z</time></trkpt>
<trkpt lat="46.455003842711449" lon="6.15236135199666"><ele></ele><time>2015-8-24T16:53:59Z</time></trkpt>
<trkpt lat="46.455106940120459" lon="6.152082737535238"><ele></ele><time>2015-8-24T16:54:2Z</time></trkpt>
<trkpt lat="46.455119512975216" lon="6.152051473036408"><ele></ele><time>2015-8-24T16:54:5Z</time></trkpt>
<trkpt lat="46.455184556543827" lon="6.151875369250774"><ele></ele><time>2015-8-24T16:54:8Z</time></trkpt>
<trkpt lat="46.455182293429971" lon="6.151856174692512"><ele></ele><time>2015-8-24T16:54:11Z</time></trkpt>
<trkpt lat="46.455175755545497" lon="6.151842931285501"><ele></ele><time>2015-8-24T16:54:14Z</time></trkpt>
<trkpt lat="46.455122362822294" lon="6.151816444471478"><ele></ele><time>2015-8-24T16:54:17Z</time></trkpt>
<trkpt lat="46.455102413892746" lon="6.151828765869141"><ele></ele><time>2015-8-24T16:54:20Z</time></trkpt>
<trkpt lat="46.455049188807607" lon="6.151848966255784"><ele></ele><time>2015-8-24T16:54:23Z</time></trkpt>
<trkpt lat="46.454943157732487" lon="6.151881068944931"><ele></ele><time>2015-8-24T16:54:26Z</time></trkpt>
<trkpt lat="46.454908791929483" lon="6.151892300695181"><ele></ele><time>2015-8-24T16:54:29Z</time></trkpt>
<trkpt lat="46.454871743917465" lon="6.151908645406365"><ele></ele><time>2015-8-24T16:54:32Z</time></trkpt>
<trkpt lat="46.454838551580906" lon="6.151927001774311"><ele></ele><time>2015-8-24T16:54:35Z</time></trkpt>
<trkpt lat="46.454803431406617" lon="6.15194502286613"><ele></ele><time>2015-8-24T16:54:38Z</time></trkpt>
<trkpt lat="46.45476738922298" lon="6.151954829692841"><ele></ele><time>2015-8-24T16:54:41Z</time></trkpt>
<trkpt lat="46.454731011763215" lon="6.151951560750604"><ele></ele><time>2015-8-24T16:54:44Z</time></trkpt>
<trkpt lat="46.454689772799611" lon="6.151949716731906"><ele></ele><time>2015-8-24T16:54:47Z</time></trkpt>
<trkpt lat="46.454646019265056" lon="6.151936473324895"><ele></ele><time>2015-8-24T16:54:50Z</time></trkpt>
<trkpt lat="46.454549208283424" lon="6.151842344552279"><ele></ele><time>2015-8-24T16:54:53Z</time></trkpt>
<trkpt lat="46.454496737569571" lon="6.151777552440763"><ele></ele><time>2015-8-24T16:54:56Z</time></trkpt>
<trkpt lat="46.454444266855717" lon="6.151716280728579"><ele></ele><time>2015-8-24T16:54:59Z</time></trkpt>
<trkpt lat="46.454393221065402" lon="6.151660876348615"><ele></ele><time>2015-8-24T16:55:2Z</time></trkpt>
<trkpt lat="46.454277215525508" lon="6.151561634615064"><ele></ele><time>2015-8-24T16:55:5Z</time></trkpt>
<trkpt lat="46.454094406217337" lon="6.151359546929598"><ele></ele><time>2015-8-24T16:55:8Z</time></trkpt>
<trkpt lat="46.454074960201979" lon="6.15134253166616"><ele></ele><time>2015-8-24T16:55:11Z</time></trkpt>
<trkpt lat="46.454059956595302" lon="6.15131713449955"><ele></ele><time>2015-8-24T16:55:14Z</time></trkpt>
<trkpt lat="46.454044198617339" lon="6.151294838637114"><ele></ele><time>2015-8-24T16:55:17Z</time></trkpt>
<trkpt lat="46.454029278829694" lon="6.151272291317582"><ele></ele><time>2015-8-24T16:55:20Z</time></trkpt>
<trkpt lat="46.45401201210916" lon="6.151237171143293"><ele></ele><time>2015-8-24T16:55:23Z</time></trkpt>
<trkpt lat="46.453993823379278" lon="6.151222670450807"><ele></ele><time>2015-8-24T16:55:26Z</time></trkpt>
<trkpt lat="46.453982591629028" lon="6.151215126737952"><ele></ele><time>2015-8-24T16:55:29Z</time></trkpt>
<trkpt lat="46.453971862792969" lon="6.151206074282527"><ele></ele><time>2015-8-24T16:55:32Z</time></trkpt>
<trkpt lat="46.453957110643387" lon="6.151205571368337"><ele></ele><time>2015-8-24T16:55:35Z</time></trkpt>
<trkpt lat="46.453939508646727" lon="6.151202050969005"><ele></ele><time>2015-8-24T16:55:38Z</time></trkpt>
<trkpt lat="46.453910926356912" lon="6.151196015998721"><ele></ele><time>2015-8-24T16:55:41Z</time></trkpt>
<trkpt lat="46.453900365158916" lon="6.151192244142294"><ele></ele><time>2015-8-24T16:55:44Z</time></trkpt>
<trkpt lat="46.453890139237046" lon="6.151186712086201"><ele></ele><time>2015-8-24T16:55:47Z</time></trkpt>
<trkpt lat="46.453872285783291" lon="6.151178581640124"><ele></ele><time>2015-8-24T16:55:50Z</time></trkpt>
<trkpt lat="46.453856695443392" lon="6.151171708479524"><ele></ele><time>2015-8-24T16:55:53Z</time></trkpt>
<trkpt lat="46.453828699886799" lon="6.151172295212746"><ele></ele><time>2015-8-24T16:55:56Z</time></trkpt>
<trkpt lat="46.453811600804329" lon="6.151165422052145"><ele></ele><time>2015-8-24T16:55:59Z</time></trkpt>
<trkpt lat="46.453796848654747" lon="6.151161985471845"><ele></ele><time>2015-8-24T16:56:2Z</time></trkpt>
<trkpt lat="46.453746557235718" lon="6.151174642145634"><ele></ele><time>2015-8-24T16:56:5Z</time></trkpt>
<trkpt lat="46.453702803701162" lon="6.151169529184699"><ele></ele><time>2015-8-24T16:56:8Z</time></trkpt>
<trkpt lat="46.453684195876122" lon="6.151166763156652"><ele></ele><time>2015-8-24T16:56:11Z</time></trkpt>
<trkpt lat="46.453667348250747" lon="6.151166763156652"><ele></ele><time>2015-8-24T16:56:14Z</time></trkpt>
<trkpt lat="46.453629629686475" lon="6.15116173401475"><ele></ele><time>2015-8-24T16:56:17Z</time></trkpt>
<trkpt lat="46.45358051173389" lon="6.151164583861828"><ele></ele><time>2015-8-24T16:56:20Z</time></trkpt>
<trkpt lat="46.453536590561271" lon="6.151192160323262"><ele></ele><time>2015-8-24T16:56:23Z</time></trkpt>
<trkpt lat="46.453510606661439" lon="6.151212863624096"><ele></ele><time>2015-8-24T16:56:26Z</time></trkpt>
<trkpt lat="46.453462410718203" lon="6.151275811716914"><ele></ele><time>2015-8-24T16:56:29Z</time></trkpt>
<trkpt lat="46.453439192846417" lon="6.151308417320251"><ele></ele><time>2015-8-24T16:56:32Z</time></trkpt>
<trkpt lat="46.453387811779976" lon="6.151452921330929"><ele></ele><time>2015-8-24T16:56:35Z</time></trkpt>
<trkpt lat="46.453382195904851" lon="6.15147840231657"><ele></ele><time>2015-8-24T16:56:38Z</time></trkpt>
<trkpt lat="46.453347075730562" lon="6.151552246883512"><ele></ele><time>2015-8-24T16:56:41Z</time></trkpt>
<trkpt lat="46.453313045203686" lon="6.151622571051121"><ele></ele><time>2015-8-24T16:56:44Z</time></trkpt>
<trkpt lat="46.453301645815372" lon="6.151662971824408"><ele></ele><time>2015-8-24T16:56:47Z</time></trkpt>
<trkpt lat="46.453238278627396" lon="6.151783419772983"><ele></ele><time>2015-8-24T16:56:50Z</time></trkpt>
<trkpt lat="46.453202990815043" lon="6.151842344552279"><ele></ele><time>2015-8-24T16:56:53Z</time></trkpt>
<trkpt lat="46.453119590878487" lon="6.151997577399015"><ele></ele><time>2015-8-24T16:56:56Z</time></trkpt>
<trkpt lat="46.45305865444243" lon="6.152146775275469"><ele></ele><time>2015-8-24T16:56:59Z</time></trkpt>
<trkpt lat="46.452957317233086" lon="6.152410805225372"><ele></ele><time>2015-8-24T16:57:2Z</time></trkpt>
<trkpt lat="46.452935608103871" lon="6.152485404163599"><ele></ele><time>2015-8-24T16:57:5Z</time></trkpt>
<trkpt lat="46.452900907024741" lon="6.152563272044063"><ele></ele><time>2015-8-24T16:57:8Z</time></trkpt>
<trkpt lat="46.452871570363641" lon="6.152631333097816"><ele></ele><time>2015-8-24T16:57:11Z</time></trkpt>
<trkpt lat="46.452839467674494" lon="6.152693359181285"><ele></ele><time>2015-8-24T16:57:14Z</time></trkpt>
<trkpt lat="46.452803257852793" lon="6.152750104665756"><ele></ele><time>2015-8-24T16:57:17Z</time></trkpt>
<trkpt lat="46.452763024717569" lon="6.152797713875771"><ele></ele><time>2015-8-24T16:57:20Z</time></trkpt>
<trkpt lat="46.452630590647459" lon="6.152850352227688"><ele></ele><time>2015-8-24T16:57:23Z</time></trkpt>
<trkpt lat="46.452593374997377" lon="6.152860410511494"><ele></ele><time>2015-8-24T16:57:26Z</time></trkpt>
<trkpt lat="46.452572923153639" lon="6.152865691110492"><ele></ele><time>2015-8-24T16:57:29Z</time></trkpt>
<trkpt lat="46.452540149912238" lon="6.152877509593964"><ele></ele><time>2015-8-24T16:57:32Z</time></trkpt>
<trkpt lat="46.452526319772005" lon="6.152888741344213"><ele></ele><time>2015-8-24T16:57:35Z</time></trkpt>
<trkpt lat="46.452490948140621" lon="6.152921095490456"><ele></ele><time>2015-8-24T16:57:38Z</time></trkpt>
<trkpt lat="46.452450128272176" lon="6.152959065511823"><ele></ele><time>2015-8-24T16:57:41Z</time></trkpt>
<trkpt lat="46.452429927885532" lon="6.152983121573925"><ele></ele><time>2015-8-24T16:57:44Z</time></trkpt>
<trkpt lat="46.452413080260158" lon="6.153001058846712"><ele></ele><time>2015-8-24T16:57:47Z</time></trkpt>
<trkpt lat="46.452366979792714" lon="6.153060235083103"><ele></ele><time>2015-8-24T16:57:50Z</time></trkpt>
<trkpt lat="46.452325657010078" lon="6.153115723282099"><ele></ele><time>2015-8-24T16:57:53Z</time></trkpt>
<trkpt lat="46.452305037528276" lon="6.153136175125837"><ele></ele><time>2015-8-24T16:57:56Z</time></trkpt>
<trkpt lat="46.452227672562003" lon="6.15319007076323"><ele></ele><time>2015-8-24T16:57:59Z</time></trkpt>
<trkpt lat="46.452193390578032" lon="6.153175989165902"><ele></ele><time>2015-8-24T16:58:2Z</time></trkpt>
<trkpt lat="46.452159779146314" lon="6.153164254501462"><ele></ele><time>2015-8-24T16:58:5Z</time></trkpt>
<trkpt lat="46.452070930972695" lon="6.153164254501462"><ele></ele><time>2015-8-24T16:58:8Z</time></trkpt>
<trkpt lat="46.452027345076203" lon="6.153165847063065"><ele></ele><time>2015-8-24T16:58:11Z</time></trkpt>
<trkpt lat="46.451984094455838" lon="6.153176156803966"><ele></ele><time>2015-8-24T16:58:14Z</time></trkpt>
<trkpt lat="46.451904634013772" lon="6.153216641396284"><ele></ele><time>2015-8-24T16:58:17Z</time></trkpt>
<trkpt lat="46.451846798881888" lon="6.153225861489773"><ele></ele><time>2015-8-24T16:58:20Z</time></trkpt>
<trkpt lat="46.451822826638818" lon="6.153215300291777"><ele></ele><time>2015-8-24T16:58:23Z</time></trkpt>
<trkpt lat="46.451804051175714" lon="6.153193255886436"><ele></ele><time>2015-8-24T16:58:26Z</time></trkpt>
<trkpt lat="46.451789550483227" lon="6.153169786557555"><ele></ele><time>2015-8-24T16:58:29Z</time></trkpt>
<trkpt lat="46.451773708686233" lon="6.15315436385572"><ele></ele><time>2015-8-24T16:58:32Z</time></trkpt>
<trkpt lat="46.451756190508604" lon="6.153142461553216"><ele></ele><time>2015-8-24T16:58:35Z</time></trkpt>
<trkpt lat="46.451740013435483" lon="6.153129553422332"><ele></ele><time>2015-8-24T16:58:38Z</time></trkpt>
<trkpt lat="46.451730541884899" lon="6.153119159862399"><ele></ele><time>2015-8-24T16:58:41Z</time></trkpt>
<trkpt lat="46.451692655682564" lon="6.153082530945539"><ele></ele><time>2015-8-24T16:58:44Z</time></trkpt>
<trkpt lat="46.451675975695252" lon="6.153050428256392"><ele></ele><time>2015-8-24T16:58:47Z</time></trkpt>
<trkpt lat="46.451679496094584" lon="6.153012290596962"><ele></ele><time>2015-8-24T16:58:50Z</time></trkpt>
<trkpt lat="46.451699109748006" lon="6.152978427708149"><ele></ele><time>2015-8-24T16:58:53Z</time></trkpt>
<trkpt lat="46.45171738229692" lon="6.152926962822676"><ele></ele><time>2015-8-24T16:58:56Z</time></trkpt>
<trkpt lat="46.451723501086235" lon="6.152856973931193"><ele></ele><time>2015-8-24T16:58:59Z</time></trkpt>
<trkpt lat="46.451711012050509" lon="6.15278790704906"><ele></ele><time>2015-8-24T16:59:2Z</time></trkpt>
<trkpt lat="46.451669940724969" lon="6.152736777439713"><ele></ele><time>2015-8-24T16:59:5Z</time></trkpt>
<trkpt lat="46.451606322079897" lon="6.152712134644389"><ele></ele><time>2015-8-24T16:59:8Z</time></trkpt>
<trkpt lat="46.45155762322247" lon="6.152710122987628"><ele></ele><time>2015-8-24T16:59:11Z</time></trkpt>
<trkpt lat="46.451518228277564" lon="6.152712134644389"><ele></ele><time>2015-8-24T16:59:14Z</time></trkpt>
<trkpt lat="46.451487131416798" lon="6.15270827896893"><ele></ele><time>2015-8-24T16:59:17Z</time></trkpt>
<trkpt lat="46.451443880796432" lon="6.152721857652068"><ele></ele><time>2015-8-24T16:59:20Z</time></trkpt>
<trkpt lat="46.451384117826819" lon="6.152757480740547"><ele></ele><time>2015-8-24T16:59:23Z</time></trkpt>
<trkpt lat="46.451343968510628" lon="6.152793355286121"><ele></ele><time>2015-8-24T16:59:26Z</time></trkpt>
<trkpt lat="46.451325612142682" lon="6.15282260812819"><ele></ele><time>2015-8-24T16:59:29Z</time></trkpt>
<trkpt lat="46.451297532767057" lon="6.152859153226018"><ele></ele><time>2015-8-24T16:59:32Z</time></trkpt>
<trkpt lat="46.45122092217207" lon="6.152927633374929"><ele></ele><time>2015-8-24T16:59:35Z</time></trkpt>
<trkpt lat="46.451176833361387" lon="6.152986893430352"><ele></ele><time>2015-8-24T16:59:38Z</time></trkpt>
<trkpt lat="46.451108604669571" lon="6.153094936162233"><ele></ele><time>2015-8-24T16:59:41Z</time></trkpt>
<trkpt lat="46.450977260246873" lon="6.153311775997281"><ele></ele><time>2015-8-24T16:59:44Z</time></trkpt>
<trkpt lat="46.450801240280271" lon="6.15354772657156"><ele></ele><time>2015-8-24T16:59:47Z</time></trkpt>
<trkpt lat="46.45062580704689" lon="6.153769595548511"><ele></ele><time>2015-8-24T16:59:50Z</time></trkpt>
<trkpt lat="46.450464790686965" lon="6.153969084843993"><ele></ele><time>2015-8-24T16:59:53Z</time></trkpt>
<trkpt lat="46.450400082394481" lon="6.154090873897076"><ele></ele><time>2015-8-24T16:59:56Z</time></trkpt>
<trkpt lat="46.450364962220192" lon="6.154155666008592"><ele></ele><time>2015-8-24T16:59:59Z</time></trkpt>
<trkpt lat="46.450332943350077" lon="6.154230432584882"><ele></ele><time>2015-8-24T17:0:2Z</time></trkpt>
<trkpt lat="46.450283154845238" lon="6.154481722041965"><ele></ele><time>2015-8-24T17:0:5Z</time></trkpt>
<trkpt lat="46.450283406302333" lon="6.154667045921087"><ele></ele><time>2015-8-24T17:0:8Z</time></trkpt>
<trkpt lat="46.450296817347407" lon="6.154859662055969"><ele></ele><time>2015-8-24T17:0:11Z</time></trkpt>
<trkpt lat="46.450304025784135" lon="6.154950270429254"><ele></ele><time>2015-8-24T17:0:14Z</time></trkpt>
<trkpt lat="46.450315257534385" lon="6.155146323144436"><ele></ele><time>2015-8-24T17:0:17Z</time></trkpt>
<trkpt lat="46.450350629165769" lon="6.155354781076312"><ele></ele><time>2015-8-24T17:0:20Z</time></trkpt>
<trkpt lat="46.450410475954413" lon="6.155563741922379"><ele></ele><time>2015-8-24T17:0:23Z</time></trkpt>
<trkpt lat="46.450507789850235" lon="6.155754681676626"><ele></ele><time>2015-8-24T17:0:26Z</time></trkpt>
<trkpt lat="46.450635949149728" lon="6.155928270891309"><ele></ele><time>2015-8-24T17:0:29Z</time></trkpt>
<trkpt lat="46.45074650645256" lon="6.15613454952836"><ele></ele><time>2015-8-24T17:0:32Z</time></trkpt>
<trkpt lat="46.450836947187781" lon="6.156388353556395"><ele></ele><time>2015-8-24T17:0:35Z</time></trkpt>
<trkpt lat="46.450921185314655" lon="6.156679457053542"><ele></ele><time>2015-8-24T17:0:38Z</time></trkpt>
<trkpt lat="46.450998298823833" lon="6.156988833099604"><ele></ele><time>2015-8-24T17:0:41Z</time></trkpt>
<trkpt lat="46.451034508645535" lon="6.157146831974387"><ele></ele><time>2015-8-24T17:0:44Z</time></trkpt>
<trkpt lat="46.451064934954047" lon="6.157301142811775"><ele></ele><time>2015-8-24T17:0:47Z</time></trkpt>
<trkpt lat="46.451063426211476" lon="6.157458135858178"><ele></ele><time>2015-8-24T17:0:50Z</time></trkpt>
<trkpt lat="46.451062252745032" lon="6.157604986801744"><ele></ele><time>2015-8-24T17:0:53Z</time></trkpt>
<trkpt lat="46.451039118692279" lon="6.15775678306818"><ele></ele><time>2015-8-24T17:0:56Z</time></trkpt>
<trkpt lat="46.451015314087272" lon="6.157899107784033"><ele></ele><time>2015-8-24T17:0:59Z</time></trkpt>
<trkpt lat="46.450986061245203" lon="6.158030033111572"><ele></ele><time>2015-8-24T17:1:2Z</time></trkpt>
<trkpt lat="46.450898302718997" lon="6.158281909301877"><ele></ele><time>2015-8-24T17:1:5Z</time></trkpt>
<trkpt lat="46.450802749022841" lon="6.158431023359299"><ele></ele><time>2015-8-24T17:1:8Z</time></trkpt>
<trkpt lat="46.450709877535701" lon="6.158588351681828"><ele></ele><time>2015-8-24T17:1:11Z</time></trkpt>
<trkpt lat="46.450631590560079" lon="6.158725311979651"><ele></ele><time>2015-8-24T17:1:14Z</time></trkpt>
<trkpt lat="46.450503934174776" lon="6.158855985850096"><ele></ele><time>2015-8-24T17:1:17Z</time></trkpt>
<trkpt lat="46.450405530631542" lon="6.158955646678805"><ele></ele><time>2015-8-24T17:1:20Z</time></trkpt>
<trkpt lat="46.450288267806172" lon="6.159035945311189"><ele></ele><time>2015-8-24T17:1:23Z</time></trkpt>
<trkpt lat="46.450013089925051" lon="6.159151783213019"><ele></ele><time>2015-8-24T17:1:26Z</time></trkpt>
<trkpt lat="46.449875961989164" lon="6.159209283068776"><ele></ele><time>2015-8-24T17:1:29Z</time></trkpt>
<trkpt lat="46.449762135744095" lon="6.159258903935552"><ele></ele><time>2015-8-24T17:1:32Z</time></trkpt>
<trkpt lat="46.4496685937047" lon="6.159313386306167"><ele></ele><time>2015-8-24T17:1:35Z</time></trkpt>
<trkpt lat="46.449579829350114" lon="6.159359067678452"><ele></ele><time>2015-8-24T17:1:38Z</time></trkpt>
<trkpt lat="46.449503134936094" lon="6.159410951659083"><ele></ele><time>2015-8-24T17:1:41Z</time></trkpt>
<trkpt lat="46.449387464672327" lon="6.159444814547896"><ele></ele><time>2015-8-24T17:1:44Z</time></trkpt>
<trkpt lat="46.449298867955804" lon="6.159463170915842"><ele></ele><time>2015-8-24T17:1:47Z</time></trkpt>
<trkpt lat="46.449023187160492" lon="6.159399636089802"><ele></ele><time>2015-8-24T17:1:50Z</time></trkpt>
<trkpt lat="46.448892345651984" lon="6.159355463460088"><ele></ele><time>2015-8-24T17:1:53Z</time></trkpt>
<trkpt lat="46.448758570477366" lon="6.159317661076784"><ele></ele><time>2015-8-24T17:1:56Z</time></trkpt>
<trkpt lat="46.448688078671694" lon="6.159322271123528"><ele></ele><time>2015-8-24T17:1:59Z</time></trkpt>
<trkpt lat="46.448617335408926" lon="6.159337861463428"><ele></ele><time>2015-8-24T17:2:2Z</time></trkpt>
<trkpt lat="46.448498144745827" lon="6.15953047759831"><ele></ele><time>2015-8-24T17:2:5Z</time></trkpt>
<trkpt lat="46.448461264371872" lon="6.159705072641373"><ele></ele><time>2015-8-24T17:2:8Z</time></trkpt>
<trkpt lat="46.448441315442324" lon="6.159784784540534"><ele></ele><time>2015-8-24T17:2:11Z</time></trkpt>
<trkpt lat="46.448429161682725" lon="6.159861730411649"><ele></ele><time>2015-8-24T17:2:14Z</time></trkpt>
<trkpt lat="46.448413655161858" lon="6.159937670454383"><ele></ele><time>2015-8-24T17:2:17Z</time></trkpt>
<trkpt lat="46.44832530990243" lon="6.160342013463378"><ele></ele><time>2015-8-24T17:2:20Z</time></trkpt>
<trkpt lat="46.44834098406136" lon="6.160471513867378"><ele></ele><time>2015-8-24T17:2:23Z</time></trkpt>
<trkpt lat="46.448360765352845" lon="6.160633452236652"><ele></ele><time>2015-8-24T17:2:26Z</time></trkpt>
<trkpt lat="46.448343079537153" lon="6.16078088991344"><ele></ele><time>2015-8-24T17:2:29Z</time></trkpt>
<trkpt lat="46.448256662115455" lon="6.160946097224951"><ele></ele><time>2015-8-24T17:2:32Z</time></trkpt>
<trkpt lat="46.448239227756858" lon="6.161003513261676"><ele></ele><time>2015-8-24T17:2:35Z</time></trkpt>
<trkpt lat="46.448233108967543" lon="6.161127481609583"><ele></ele><time>2015-8-24T17:2:38Z</time></trkpt>
<trkpt lat="46.448311815038323" lon="6.161297550424933"><ele></ele><time>2015-8-24T17:2:41Z</time></trkpt>
<trkpt lat="46.448332769796252" lon="6.161322444677353"><ele></ele><time>2015-8-24T17:2:44Z</time></trkpt>
<trkpt lat="46.448338804766536" lon="6.161384051665664"><ele></ele><time>2015-8-24T17:2:47Z</time></trkpt>
<trkpt lat="46.448331093415618" lon="6.161465020850301"><ele></ele><time>2015-8-24T17:2:50Z</time></trkpt>
<trkpt lat="46.448331009596586" lon="6.161558730527759"><ele></ele><time>2015-8-24T17:2:53Z</time></trkpt>
<trkpt lat="46.448335368186235" lon="6.161712789908051"><ele></ele><time>2015-8-24T17:2:56Z</time></trkpt>
<trkpt lat="46.448327070102096" lon="6.161766182631254"><ele></ele><time>2015-8-24T17:2:59Z</time></trkpt>
<trkpt lat="46.448311060667038" lon="6.162014454603195"><ele></ele><time>2015-8-24T17:3:2Z</time></trkpt>
<trkpt lat="46.448317095637321" lon="6.162063907831907"><ele></ele><time>2015-8-24T17:3:5Z</time></trkpt>
<trkpt lat="46.448328327387571" lon="6.162418546155095"><ele></ele><time>2015-8-24T17:3:8Z</time></trkpt>
<trkpt lat="46.448267810046673" lon="6.162583082914352"><ele></ele><time>2015-8-24T17:3:11Z</time></trkpt>
<trkpt lat="46.448251632973552" lon="6.162634631618857"><ele></ele><time>2015-8-24T17:3:14Z</time></trkpt>
<trkpt lat="46.448226990178227" lon="6.162672350183129"><ele></ele><time>2015-8-24T17:3:17Z</time></trkpt>
<trkpt lat="46.448193965479732" lon="6.162694562226534"><ele></ele><time>2015-8-24T17:3:20Z</time></trkpt>
<trkpt lat="46.448146440088749" lon="6.162691796198487"><ele></ele><time>2015-8-24T17:3:23Z</time></trkpt>
<trkpt lat="46.44804292358458" lon="6.162688275799155"><ele></ele><time>2015-8-24T17:3:26Z</time></trkpt>
<trkpt lat="46.447951309382915" lon="6.162755666300654"><ele></ele><time>2015-8-24T17:3:29Z</time></trkpt>
<trkpt lat="46.447912752628326" lon="6.162786344066262"><ele></ele><time>2015-8-24T17:3:32Z</time></trkpt>
<trkpt lat="46.447883499786258" lon="6.162841748446226"><ele></ele><time>2015-8-24T17:3:35Z</time></trkpt>
<trkpt lat="46.447871932759881" lon="6.162905115634203"><ele></ele><time>2015-8-24T17:3:38Z</time></trkpt>
<trkpt lat="46.447877464815974" lon="6.163144083693624"><ele></ele><time>2015-8-24T17:3:41Z</time></trkpt>
<trkpt lat="46.447935048490763" lon="6.163371568545699"><ele></ele><time>2015-8-24T17:3:44Z</time></trkpt>
<trkpt lat="46.447961367666721" lon="6.163468882441521"><ele></ele><time>2015-8-24T17:3:47Z</time></trkpt>
<trkpt lat="46.44796815700829" lon="6.16349084302783"><ele></ele><time>2015-8-24T17:3:50Z</time></trkpt>
<trkpt lat="46.447971258312464" lon="6.163513557985425"><ele></ele><time>2015-8-24T17:3:53Z</time></trkpt>
<trkpt lat="46.447989279404283" lon="6.163568710908294"><ele></ele><time>2015-8-24T17:3:56Z</time></trkpt>
<trkpt lat="46.448023393750191" lon="6.163637107238173"><ele></ele><time>2015-8-24T17:3:59Z</time></trkpt>
<trkpt lat="46.448044264689088" lon="6.163698127493262"><ele></ele><time>2015-8-24T17:4:2Z</time></trkpt>
<trkpt lat="46.44804778508842" lon="6.163778845220804"><ele></ele><time>2015-8-24T17:4:5Z</time></trkpt>
<trkpt lat="46.448047701269388" lon="6.163802817463875"><ele></ele><time>2015-8-24T17:4:8Z</time></trkpt>
<trkpt lat="46.448048455640674" lon="6.163855120539665"><ele></ele><time>2015-8-24T17:4:11Z</time></trkpt>
<trkpt lat="46.448047952726483" lon="6.163881942629814"><ele></ele><time>2015-8-24T17:4:14Z</time></trkpt>
<trkpt lat="46.448043426498771" lon="6.163997948169708"><ele></ele><time>2015-8-24T17:4:17Z</time></trkpt>
<trkpt lat="46.448032949119806" lon="6.164044719189405"><ele></ele><time>2015-8-24T17:4:20Z</time></trkpt>
<trkpt lat="46.448024148121476" lon="6.164086880162358"><ele></ele><time>2015-8-24T17:4:23Z</time></trkpt>
<trkpt lat="46.448020292446017" lon="6.164104146882892"><ele></ele><time>2015-8-24T17:4:26Z</time></trkpt>
<trkpt lat="46.448009312152863" lon="6.164124347269535"><ele></ele><time>2015-8-24T17:4:29Z</time></trkpt>
<trkpt lat="46.44797544926405" lon="6.164169693365693"><ele></ele><time>2015-8-24T17:4:32Z</time></trkpt>
<trkpt lat="46.447934797033668" lon="6.16422669030726"><ele></ele><time>2015-8-24T17:4:35Z</time></trkpt>
<trkpt lat="46.447886181995273" lon="6.164377648383379"><ele></ele><time>2015-8-24T17:4:38Z</time></trkpt>
<trkpt lat="46.447878303006291" lon="6.164438417181373"><ele></ele><time>2015-8-24T17:4:41Z</time></trkpt>
<trkpt lat="46.447833543643355" lon="6.164586273953319"><ele></ele><time>2015-8-24T17:4:44Z</time></trkpt>
<trkpt lat="46.447823820635676" lon="6.164632877334952"><ele></ele><time>2015-8-24T17:4:47Z</time></trkpt>
<trkpt lat="46.447763135656714" lon="6.164903193712234"><ele></ele><time>2015-8-24T17:4:50Z</time></trkpt>
<trkpt lat="46.447711167857051" lon="6.165025485679507"><ele></ele><time>2015-8-24T17:4:53Z</time></trkpt>
<trkpt lat="46.447608238086104" lon="6.165112154558301"><ele></ele><time>2015-8-24T17:4:56Z</time></trkpt>
<trkpt lat="46.447598431259394" lon="6.165135288611054"><ele></ele><time>2015-8-24T17:4:59Z</time></trkpt>
<trkpt lat="46.447553420439363" lon="6.165199996903539"><ele></ele><time>2015-8-24T17:5:2Z</time></trkpt>
<trkpt lat="46.447496255859733" lon="6.165407029911876"><ele></ele><time>2015-8-24T17:5:5Z</time></trkpt>
<trkpt lat="46.447495333850384" lon="6.165435779839754"><ele></ele><time>2015-8-24T17:5:8Z</time></trkpt>
<trkpt lat="46.447465913370252" lon="6.165561256930232"><ele></ele><time>2015-8-24T17:5:11Z</time></trkpt>
<trkpt lat="46.44745753146708" lon="6.165609871968627"><ele></ele><time>2015-8-24T17:5:14Z</time></trkpt>
<trkpt lat="46.447425931692123" lon="6.165743647143245"><ele></ele><time>2015-8-24T17:5:17Z</time></trkpt>
<trkpt lat="46.44741989672184" lon="6.165756471455097"><ele></ele><time>2015-8-24T17:5:20Z</time></trkpt>
<trkpt lat="46.447338173165917" lon="6.165918409824371"><ele></ele><time>2015-8-24T17:5:23Z</time></trkpt>
<trkpt lat="46.447333814576268" lon="6.165941543877125"><ele></ele><time>2015-8-24T17:5:26Z</time></trkpt>
<trkpt lat="46.44731923006475" lon="6.166013879701495"><ele></ele><time>2015-8-24T17:5:29Z</time></trkpt>
<trkpt lat="46.447254689410329" lon="6.166148241609335"><ele></ele><time>2015-8-24T17:5:32Z</time></trkpt>
<trkpt lat="46.447229962795973" lon="6.16620029322803"><ele></ele><time>2015-8-24T17:5:35Z</time></trkpt>
<trkpt lat="46.447213450446725" lon="6.166218398138881"><ele></ele><time>2015-8-24T17:5:38Z</time></trkpt>
<trkpt lat="46.447193333879113" lon="6.166240023449063"><ele></ele><time>2015-8-24T17:5:41Z</time></trkpt>
<trkpt lat="46.447138013318181" lon="6.166331050917506"><ele></ele><time>2015-8-24T17:5:44Z</time></trkpt>
<trkpt lat="46.447103312239051" lon="6.166378408670425"><ele></ele><time>2015-8-24T17:5:47Z</time></trkpt>
<trkpt lat="46.44701236858964" lon="6.166460132226348"><ele></ele><time>2015-8-24T17:5:50Z</time></trkpt>
<trkpt lat="46.446975320577621" lon="6.166504975408316"><ele></ele><time>2015-8-24T17:5:53Z</time></trkpt>
<trkpt lat="46.446946235373616" lon="6.166545292362571"><ele></ele><time>2015-8-24T17:5:56Z</time></trkpt>
<trkpt lat="46.446869792416692" lon="6.166657777503133"><ele></ele><time>2015-8-24T17:5:59Z</time></trkpt>
<trkpt lat="46.446821596473455" lon="6.166734639555216"><ele></ele><time>2015-8-24T17:6:2Z</time></trkpt>
<trkpt lat="46.446777675300837" lon="6.166767915710807"><ele></ele><time>2015-8-24T17:6:5Z</time></trkpt>
<trkpt lat="46.446701986715198" lon="6.166786858811975"><ele></ele><time>2015-8-24T17:6:8Z</time></trkpt>
<trkpt lat="46.446678685024381" lon="6.166793229058385"><ele></ele><time>2015-8-24T17:6:11Z</time></trkpt>
<trkpt lat="46.446642391383648" lon="6.166808567941189"><ele></ele><time>2015-8-24T17:6:14Z</time></trkpt>
<trkpt lat="46.446562008932233" lon="6.166860200464725"><ele></ele><time>2015-8-24T17:6:17Z</time></trkpt>
<trkpt lat="46.446531247347593" lon="6.166878808289766"><ele></ele><time>2015-8-24T17:6:20Z</time></trkpt>
<trkpt lat="46.446452457457781" lon="6.166990958154202"><ele></ele><time>2015-8-24T17:6:23Z</time></trkpt>
<trkpt lat="46.446432508528233" lon="6.167010655626655"><ele></ele><time>2015-8-24T17:6:26Z</time></trkpt>
<trkpt lat="46.446409374475479" lon="6.167038986459374"><ele></ele><time>2015-8-24T17:6:29Z</time></trkpt>
<trkpt lat="46.446378109976649" lon="6.167078465223312"><ele></ele><time>2015-8-24T17:6:32Z</time></trkpt>
<trkpt lat="46.446313485503197" lon="6.16717997007072"><ele></ele><time>2015-8-24T17:6:35Z</time></trkpt>
<trkpt lat="46.446267636492848" lon="6.167257754132152"><ele></ele><time>2015-8-24T17:6:38Z</time></trkpt>
<trkpt lat="46.44622715190053" lon="6.167316762730479"><ele></ele><time>2015-8-24T17:6:41Z</time></trkpt>
<trkpt lat="46.446168143302202" lon="6.167422793805599"><ele></ele><time>2015-8-24T17:6:44Z</time></trkpt>
<trkpt lat="46.446118941530585" lon="6.167497811838984"><ele></ele><time>2015-8-24T17:6:47Z</time></trkpt>
<trkpt lat="46.446026237681508" lon="6.167615661397576"><ele></ele><time>2015-8-24T17:6:50Z</time></trkpt>
<trkpt lat="46.445970833301544" lon="6.167694451287389"><ele></ele><time>2015-8-24T17:6:53Z</time></trkpt>
<trkpt lat="46.445953566581011" lon="6.167748095467687"><ele></ele><time>2015-8-24T17:6:56Z</time></trkpt>
<trkpt lat="46.445939652621746" lon="6.167777264490724"><ele></ele><time>2015-8-24T17:6:59Z</time></trkpt>
<trkpt lat="46.445920458063483" lon="6.167831746861339"><ele></ele><time>2015-8-24T17:7:2Z</time></trkpt>
<trkpt lat="46.445908471941948" lon="6.167854629456997"><ele></ele><time>2015-8-24T17:7:5Z</time></trkpt>
<trkpt lat="46.445878716185689" lon="6.167909866198897"><ele></ele><time>2015-8-24T17:7:8Z</time></trkpt>
<trkpt lat="46.44584309309721" lon="6.167975580319762"><ele></ele><time>2015-8-24T17:7:11Z</time></trkpt>
<trkpt lat="46.445820378139615" lon="6.168017406016588"><ele></ele><time>2015-8-24T17:7:14Z</time></trkpt>
<trkpt lat="46.445809565484524" lon="6.168035175651312"><ele></ele><time>2015-8-24T17:7:17Z</time></trkpt>
<trkpt lat="46.445789197459817" lon="6.168062668293715"><ele></ele><time>2015-8-24T17:7:20Z</time></trkpt>
<trkpt lat="46.44575365819037" lon="6.168139530345798"><ele></ele><time>2015-8-24T17:7:23Z</time></trkpt>
<trkpt lat="46.445741001516581" lon="6.16816459223628"><ele></ele><time>2015-8-24T17:7:26Z</time></trkpt>
<trkpt lat="46.445651315152645" lon="6.168328374624252"><ele></ele><time>2015-8-24T17:7:29Z</time></trkpt>
<trkpt lat="46.445583505555987" lon="6.168470364063978"><ele></ele><time>2015-8-24T17:7:32Z</time></trkpt>
<trkpt lat="46.445527095347643" lon="6.168605899438262"><ele></ele><time>2015-8-24T17:7:35Z</time></trkpt>
<trkpt lat="46.445421148091555" lon="6.168979313224554"><ele></ele><time>2015-8-24T17:7:38Z</time></trkpt>
<trkpt lat="46.445444114506245" lon="6.169325821101665"><ele></ele><time>2015-8-24T17:7:41Z</time></trkpt>
<trkpt lat="46.445423411205411" lon="6.169636873528361"><ele></ele><time>2015-8-24T17:7:44Z</time></trkpt>
<trkpt lat="46.44540430046618" lon="6.169703425839543"><ele></ele><time>2015-8-24T17:7:47Z</time></trkpt>
<trkpt lat="46.445358954370022" lon="6.16991875693202"><ele></ele><time>2015-8-24T17:7:50Z</time></trkpt>
<trkpt lat="46.445345459505916" lon="6.17007851600647"><ele></ele><time>2015-8-24T17:7:53Z</time></trkpt>
<trkpt lat="46.445346130058169" lon="6.170232072472572"><ele></ele><time>2015-8-24T17:7:56Z</time></trkpt>
<trkpt lat="46.445355685427785" lon="6.170310443267226"><ele></ele><time>2015-8-24T17:7:59Z</time></trkpt>
<trkpt lat="46.445371275767684" lon="6.170449163764715"><ele></ele><time>2015-8-24T17:8:2Z</time></trkpt>
<trkpt lat="46.445372030138969" lon="6.170582184568048"><ele></ele><time>2015-8-24T17:8:5Z</time></trkpt>
<trkpt lat="46.445365827530622" lon="6.170647144317627"><ele></ele><time>2015-8-24T17:8:8Z</time></trkpt>
<trkpt lat="46.445348225533962" lon="6.170784439891577"><ele></ele><time>2015-8-24T17:8:11Z</time></trkpt>
<trkpt lat="46.445341100916266" lon="6.170869348570704"><ele></ele><time>2015-8-24T17:8:14Z</time></trkpt>
<trkpt lat="46.445337329059839" lon="6.171040842309594"><ele></ele><time>2015-8-24T17:8:17Z</time></trkpt>
<trkpt lat="46.445303130894899" lon="6.171273607760668"><ele></ele><time>2015-8-24T17:8:20Z</time></trkpt>
<trkpt lat="46.445275722071528" lon="6.171633861958981"><ele></ele><time>2015-8-24T17:8:23Z</time></trkpt>
<trkpt lat="46.445244289934635" lon="6.171889342367649"><ele></ele><time>2015-8-24T17:8:26Z</time></trkpt>
<trkpt lat="46.44524454139173" lon="6.17197198793292"><ele></ele><time>2015-8-24T17:8:29Z</time></trkpt>
<trkpt lat="46.445245631039143" lon="6.172068463638425"><ele></ele><time>2015-8-24T17:8:32Z</time></trkpt>
<trkpt lat="46.445271028205752" lon="6.172546902671456"><ele></ele><time>2015-8-24T17:8:35Z</time></trkpt>
<trkpt lat="46.445266585797071" lon="6.172619070857763"><ele></ele><time>2015-8-24T17:8:38Z</time></trkpt>
<trkpt lat="46.445210259407759" lon="6.172889219596982"><ele></ele><time>2015-8-24T17:8:41Z</time></trkpt>
<trkpt lat="46.445200620219111" lon="6.172952335327864"><ele></ele><time>2015-8-24T17:8:44Z</time></trkpt>
<trkpt lat="46.445162398740649" lon="6.173227345570922"><ele></ele><time>2015-8-24T17:8:47Z</time></trkpt>
<trkpt lat="46.445143288001418" lon="6.173289539292455"><ele></ele><time>2015-8-24T17:8:50Z</time></trkpt>
<trkpt lat="46.445107581093907" lon="6.173441503196955"><ele></ele><time>2015-8-24T17:8:53Z</time></trkpt>
<trkpt lat="46.445082686841488" lon="6.173581061884761"><ele></ele><time>2015-8-24T17:8:56Z</time></trkpt>
<trkpt lat="46.445058044046164" lon="6.173775186762214"><ele></ele><time>2015-8-24T17:8:59Z</time></trkpt>
<trkpt lat="46.445043962448835" lon="6.173909548670053"><ele></ele><time>2015-8-24T17:9:2Z</time></trkpt>
<trkpt lat="46.445009429007769" lon="6.174125215038657"><ele></ele><time>2015-8-24T17:9:5Z</time></trkpt>
<trkpt lat="46.444963915273547" lon="6.174245998263359"><ele></ele><time>2015-8-24T17:9:8Z</time></trkpt>
<trkpt lat="46.44491421058774" lon="6.174373403191566"><ele></ele><time>2015-8-24T17:9:11Z</time></trkpt>
<trkpt lat="46.444886131212115" lon="6.174441045150161"><ele></ele><time>2015-8-24T17:9:14Z</time></trkpt>
<trkpt lat="46.444827206432819" lon="6.174584962427616"><ele></ele><time>2015-8-24T17:9:17Z</time></trkpt>
<trkpt lat="46.444800719618797" lon="6.174669787287712"><ele></ele><time>2015-8-24T17:9:20Z</time></trkpt>
<trkpt lat="46.44474565051496" lon="6.174861146137118"><ele></ele><time>2015-8-24T17:9:23Z</time></trkpt>
<trkpt lat="46.444716984406114" lon="6.174986455589533"><ele></ele><time>2015-8-24T17:9:26Z</time></trkpt>
<trkpt lat="46.44468454644084" lon="6.17510112002492"><ele></ele><time>2015-8-24T17:9:29Z</time></trkpt>
<trkpt lat="46.444658562541008" lon="6.17521159350872"><ele></ele><time>2015-8-24T17:9:32Z</time></trkpt>
<trkpt lat="46.444635177031159" lon="6.175309242680669"><ele></ele><time>2015-8-24T17:9:35Z</time></trkpt>
<trkpt lat="46.444605756551027" lon="6.175407562404871"><ele></ele><time>2015-8-24T17:9:38Z</time></trkpt>
<trkpt lat="46.444583544507623" lon="6.175487693399191"><ele></ele><time>2015-8-24T17:9:41Z</time></trkpt>
<trkpt lat="46.444547502323985" lon="6.17564938031137"><ele></ele><time>2015-8-24T17:9:44Z</time></trkpt>
<trkpt lat="46.444540712982416" lon="6.175802014768124"><ele></ele><time>2015-8-24T17:9:47Z</time></trkpt>
<trkpt lat="46.444550352171063" lon="6.175867896527052"><ele></ele><time>2015-8-24T17:9:50Z</time></trkpt>
<trkpt lat="46.444574743509293" lon="6.175983399152756"><ele></ele><time>2015-8-24T17:9:53Z</time></trkpt>
<trkpt lat="46.444611120969057" lon="6.176159419119358"><ele></ele><time>2015-8-24T17:9:56Z</time></trkpt>
<trkpt lat="46.444612042978406" lon="6.176215494051576"><ele></ele><time>2015-8-24T17:9:59Z</time></trkpt>
<trkpt lat="46.444659316912293" lon="6.176514392718673"><ele></ele><time>2015-8-24T17:10:2Z</time></trkpt>
<trkpt lat="46.444685719907284" lon="6.176637941971421"><ele></ele><time>2015-8-24T17:10:5Z</time></trkpt>
<trkpt lat="46.444696951657534" lon="6.176693011075258"><ele></ele><time>2015-8-24T17:10:8Z</time></trkpt>
<trkpt lat="46.444697454571724" lon="6.176750510931015"><ele></ele><time>2015-8-24T17:10:11Z</time></trkpt>
<trkpt lat="46.444695023819804" lon="6.17685436271131"><ele></ele><time>2015-8-24T17:10:14Z</time></trkpt>
<trkpt lat="46.44467918202281" lon="6.176967183127999"><ele></ele><time>2015-8-24T17:10:17Z</time></trkpt>
<trkpt lat="46.44467138685286" lon="6.177079165354371"><ele></ele><time>2015-8-24T17:10:20Z</time></trkpt>
<trkpt lat="46.444667866453528" lon="6.177212605252862"><ele></ele><time>2015-8-24T17:10:23Z</time></trkpt>
<trkpt lat="46.444644564762712" lon="6.177304806187749"><ele></ele><time>2015-8-24T17:10:26Z</time></trkpt>
<trkpt lat="46.444639284163713" lon="6.177359623834491"><ele></ele><time>2015-8-24T17:10:29Z</time></trkpt>
<trkpt lat="46.444630986079574" lon="6.177484765648842"><ele></ele><time>2015-8-24T17:10:32Z</time></trkpt>
<trkpt lat="46.444618413224816" lon="6.177542600780725"><ele></ele><time>2015-8-24T17:10:35Z</time></trkpt>
<trkpt lat="46.444584131240845" lon="6.177572691813111"><ele></ele><time>2015-8-24T17:10:38Z</time></trkpt>
<trkpt lat="46.444525206461549" lon="6.177638154476881"><ele></ele><time>2015-8-24T17:10:41Z</time></trkpt>
<trkpt lat="46.444515818729997" lon="6.177668077871203"><ele></ele><time>2015-8-24T17:10:44Z</time></trkpt>
<trkpt lat="46.444500312209129" lon="6.177696827799082"><ele></ele><time>2015-8-24T17:10:47Z</time></trkpt>
<trkpt lat="46.444486565887928" lon="6.177777713164687"><ele></ele><time>2015-8-24T17:10:50Z</time></trkpt>
<trkpt lat="46.444497462362051" lon="6.17789220996201"><ele></ele><time>2015-8-24T17:10:53Z</time></trkpt>
<trkpt lat="46.444499054923654" lon="6.178012238815427"><ele></ele><time>2015-8-24T17:10:56Z</time></trkpt>
<trkpt lat="46.444496707990766" lon="6.178088346496224"><ele></ele><time>2015-8-24T17:10:59Z</time></trkpt>
<trkpt lat="46.444482123479247" lon="6.17815213277936"><ele></ele><time>2015-8-24T17:11:2Z</time></trkpt>
<trkpt lat="46.444466114044189" lon="6.178221702575684"><ele></ele><time>2015-8-24T17:11:5Z</time></trkpt>
<trkpt lat="46.444452367722988" lon="6.178294876590371"><ele></ele><time>2015-8-24T17:11:8Z</time></trkpt>
<trkpt lat="46.444434178993106" lon="6.178367212414742"><ele></ele><time>2015-8-24T17:11:11Z</time></trkpt>
<trkpt lat="46.444417415186763" lon="6.17845312692225"><ele></ele><time>2015-8-24T17:11:14Z</time></trkpt>
<trkpt lat="46.444401908665895" lon="6.178528983145952"><ele></ele><time>2015-8-24T17:11:17Z</time></trkpt>
<trkpt lat="46.444393275305629" lon="6.178607353940606"><ele></ele><time>2015-8-24T17:11:20Z</time></trkpt>
<trkpt lat="46.444384474307299" lon="6.178677259013057"><ele></ele><time>2015-8-24T17:11:23Z</time></trkpt>
<trkpt lat="46.444365698844194" lon="6.178726879879832"><ele></ele><time>2015-8-24T17:11:26Z</time></trkpt>
<trkpt lat="46.444347929209471" lon="6.178760323673487"><ele></ele><time>2015-8-24T17:11:29Z</time></trkpt>
<trkpt lat="46.444326220080256" lon="6.178790330886841"><ele></ele><time>2015-8-24T17:11:32Z</time></trkpt>
<trkpt lat="46.444301074370742" lon="6.178824948146939"><ele></ele><time>2015-8-24T17:11:35Z</time></trkpt>
<trkpt lat="46.444243239238858" lon="6.178896445780993"><ele></ele><time>2015-8-24T17:11:38Z</time></trkpt>
<trkpt lat="46.444226643070579" lon="6.178959226235747"><ele></ele><time>2015-8-24T17:11:41Z</time></trkpt>
<trkpt lat="46.444221530109644" lon="6.179020246490836"><ele></ele><time>2015-8-24T17:11:44Z</time></trkpt>
<trkpt lat="46.444222368299961" lon="6.179077997803688"><ele></ele><time>2015-8-24T17:11:47Z</time></trkpt>
<trkpt lat="46.44422966055572" lon="6.179213533177972"><ele></ele><time>2015-8-24T17:11:50Z</time></trkpt>
<trkpt lat="46.444248016923666" lon="6.179300034418702"><ele></ele><time>2015-8-24T17:11:53Z</time></trkpt>
<trkpt lat="46.444262349978089" lon="6.179379159584641"><ele></ele><time>2015-8-24T17:11:56Z</time></trkpt>
<trkpt lat="46.444277353584766" lon="6.1794572789222"><ele></ele><time>2015-8-24T17:11:59Z</time></trkpt>
<trkpt lat="46.444318927824497" lon="6.179616115987301"><ele></ele><time>2015-8-24T17:12:2Z</time></trkpt>
<trkpt lat="46.444369722157717" lon="6.179771181195974"><ele></ele><time>2015-8-24T17:12:5Z</time></trkpt>
<trkpt lat="46.444432334974408" lon="6.179931191727519"><ele></ele><time>2015-8-24T17:12:8Z</time></trkpt>
<trkpt lat="46.444460246711969" lon="6.17999279871583"><ele></ele><time>2015-8-24T17:12:11Z</time></trkpt>
<trkpt lat="46.444513974711299" lon="6.180147947743535"><ele></ele><time>2015-8-24T17:12:14Z</time></trkpt>
<trkpt lat="46.444593351334333" lon="6.180377192795277"><ele></ele><time>2015-8-24T17:12:17Z</time></trkpt>
<trkpt lat="46.444677840918303" lon="6.180608281865716"><ele></ele><time>2015-8-24T17:12:20Z</time></trkpt>
<trkpt lat="46.444727377966046" lon="6.180761000141501"><ele></ele><time>2015-8-24T17:12:23Z</time></trkpt>
<trkpt lat="46.444786302745342" lon="6.180929141119123"><ele></ele><time>2015-8-24T17:12:26Z</time></trkpt>
<trkpt lat="46.444832906126976" lon="6.181056378409266"><ele></ele><time>2015-8-24T17:12:29Z</time></trkpt>
<trkpt lat="46.44486878067255" lon="6.181187806650996"><ele></ele><time>2015-8-24T17:12:32Z</time></trkpt>
<trkpt lat="46.444881604984403" lon="6.181297022849321"><ele></ele><time>2015-8-24T17:12:35Z</time></trkpt>
<trkpt lat="46.444891495630145" lon="6.181403892114758"><ele></ele><time>2015-8-24T17:12:38Z</time></trkpt>
<trkpt lat="46.44495184533298" lon="6.181796249002218"><ele></ele><time>2015-8-24T17:12:41Z</time></trkpt>
<trkpt lat="46.444996185600758" lon="6.181902280077338"><ele></ele><time>2015-8-24T17:12:44Z</time></trkpt>
<trkpt lat="46.445031557232141" lon="6.181989032775164"><ele></ele><time>2015-8-24T17:12:47Z</time></trkpt>
<trkpt lat="46.445056116208434" lon="6.182067738845944"><ele></ele><time>2015-8-24T17:12:50Z</time></trkpt>
<trkpt lat="46.445078160613775" lon="6.182127250358462"><ele></ele><time>2015-8-24T17:12:53Z</time></trkpt>
<trkpt lat="46.445088805630803" lon="6.182173769921064"><ele></ele><time>2015-8-24T17:12:56Z</time></trkpt>
<trkpt lat="46.44509551115334" lon="6.182207465171814"><ele></ele><time>2015-8-24T17:12:59Z</time></trkpt>
<trkpt lat="46.445143958553672" lon="6.182352723553777"><ele></ele><time>2015-8-24T17:13:2Z</time></trkpt>
<trkpt lat="46.445146473124623" lon="6.182366637513041"><ele></ele><time>2015-8-24T17:13:5Z</time></trkpt>
<trkpt lat="46.445170696824789" lon="6.182427741587162"><ele></ele><time>2015-8-24T17:13:8Z</time></trkpt>
<trkpt lat="46.445184610784054" lon="6.182472081854939"><ele></ele><time>2015-8-24T17:13:11Z</time></trkpt>
<trkpt lat="46.445221323519945" lon="6.182625722140074"><ele></ele><time>2015-8-24T17:13:14Z</time></trkpt>
<trkpt lat="46.445231465622783" lon="6.1826934479177"><ele></ele><time>2015-8-24T17:13:17Z</time></trkpt>
<trkpt lat="46.445321990177035" lon="6.182957896962762"><ele></ele><time>2015-8-24T17:13:20Z</time></trkpt>
<trkpt lat="46.445374209433794" lon="6.183042051270604"><ele></ele><time>2015-8-24T17:13:23Z</time></trkpt>
<trkpt lat="46.445517875254154" lon="6.18329887278378"><ele></ele><time>2015-8-24T17:13:26Z</time></trkpt>
<trkpt lat="46.445584259927273" lon="6.183505738154054"><ele></ele><time>2015-8-24T17:13:29Z</time></trkpt>
<trkpt lat="46.445617200806737" lon="6.183752166107297"><ele></ele><time>2015-8-24T17:13:32Z</time></trkpt>
<trkpt lat="46.445796573534608" lon="6.184154078364372"><ele></ele><time>2015-8-24T17:13:35Z</time></trkpt>
<trkpt lat="46.445868154987693" lon="6.184243261814117"><ele></ele><time>2015-8-24T17:13:38Z</time></trkpt>
<trkpt lat="46.445945352315903" lon="6.184322722256184"><ele></ele><time>2015-8-24T17:13:41Z</time></trkpt>
<trkpt lat="46.446023723110557" lon="6.184407714754343"><ele></ele><time>2015-8-24T17:13:44Z</time></trkpt>
<trkpt lat="46.446102932095528" lon="6.184480804949999"><ele></ele><time>2015-8-24T17:13:47Z</time></trkpt>
<trkpt lat="46.446171076968312" lon="6.184551799669862"><ele></ele><time>2015-8-24T17:13:50Z</time></trkpt>
<trkpt lat="46.446207873523235" lon="6.184626314789057"><ele></ele><time>2015-8-24T17:13:53Z</time></trkpt>
<trkpt lat="46.446242993697524" lon="6.184703093022108"><ele></ele><time>2015-8-24T17:13:56Z</time></trkpt>
<trkpt lat="46.446202006191015" lon="6.184879532083869"><ele></ele><time>2015-8-24T17:13:59Z</time></trkpt>
<trkpt lat="46.44618222489953" lon="6.18496997281909"><ele></ele><time>2015-8-24T17:14:2Z</time></trkpt>
<trkpt lat="46.446080636233091" lon="6.185376914218068"><ele></ele><time>2015-8-24T17:14:5Z</time></trkpt>
<trkpt lat="46.44607032649219" lon="6.185496691614389"><ele></ele><time>2015-8-24T17:14:8Z</time></trkpt>
<trkpt lat="46.446055239066482" lon="6.185761140659451"><ele></ele><time>2015-8-24T17:14:11Z</time></trkpt>
<trkpt lat="46.446027662605047" lon="6.185892233625054"><ele></ele><time>2015-8-24T17:14:14Z</time></trkpt>
<trkpt lat="46.446002097800374" lon="6.186024667695165"><ele></ele><time>2015-8-24T17:14:17Z</time></trkpt>
<trkpt lat="46.44596328958869" lon="6.186166824772954"><ele></ele><time>2015-8-24T17:14:20Z</time></trkpt>
<trkpt lat="46.445962535217404" lon="6.186161041259766"><ele></ele><time>2015-8-24T17:14:23Z</time></trkpt>
<trkpt lat="46.445954320952296" lon="6.18614561855793"><ele></ele><time>2015-8-24T17:14:26Z</time></trkpt>
<trkpt lat="46.445914255455136" lon="6.186066912487149"><ele></ele><time>2015-8-24T17:14:29Z</time></trkpt>
<trkpt lat="46.44589145667851" lon="6.186031708493829"><ele></ele><time>2015-8-24T17:14:32Z</time></trkpt>
<trkpt lat="46.44586656242609" lon="6.186007568612695"><ele></ele><time>2015-8-24T17:14:35Z</time></trkpt>
<trkpt lat="46.445837477222085" lon="6.186006227508187"><ele></ele><time>2015-8-24T17:14:38Z</time></trkpt>
<trkpt lat="46.445807721465826" lon="6.186019303277135"><ele></ele><time>2015-8-24T17:14:41Z</time></trkpt>
<trkpt lat="46.44577176310122" lon="6.186038916930556"><ele></ele><time>2015-8-24T17:14:44Z</time></trkpt>
<trkpt lat="46.445741169154644" lon="6.186056518927217"><ele></ele><time>2015-8-24T17:14:47Z</time></trkpt>
<trkpt lat="46.44570529460907" lon="6.186068840324879"><ele></ele><time>2015-8-24T17:14:50Z</time></trkpt>
<trkpt lat="46.445670258253813" lon="6.186084514483809"><ele></ele><time>2015-8-24T17:14:53Z</time></trkpt>
<trkpt lat="46.445638071745634" lon="6.186108067631721"><ele></ele><time>2015-8-24T17:14:56Z</time></trkpt>
<trkpt lat="46.445606639608741" lon="6.18613924831152"><ele></ele><time>2015-8-24T17:14:59Z</time></trkpt>
<trkpt lat="46.445577470585704" lon="6.186171099543571"><ele></ele><time>2015-8-24T17:15:2Z</time></trkpt>
<trkpt lat="46.445545451715589" lon="6.186200520023704"><ele></ele><time>2015-8-24T17:15:5Z</time></trkpt>
<trkpt lat="46.445513181388378" lon="6.186246704310179"><ele></ele><time>2015-8-24T17:15:8Z</time></trkpt>
<trkpt lat="46.445491556078196" lon="6.186293140053749"><ele></ele><time>2015-8-24T17:15:11Z</time></trkpt>
<trkpt lat="46.445473115891218" lon="6.186350136995316"><ele></ele><time>2015-8-24T17:15:14Z</time></trkpt>
<trkpt lat="46.445459704846144" lon="6.186399674043059"><ele></ele><time>2015-8-24T17:15:17Z</time></trkpt>
<trkpt lat="46.445447718724608" lon="6.18646907620132"><ele></ele><time>2015-8-24T17:15:20Z</time></trkpt>
<trkpt lat="46.445445287972689" lon="6.186531186103821"><ele></ele><time>2015-8-24T17:15:23Z</time></trkpt>
<trkpt lat="46.44544243812561" lon="6.186597570776939"><ele></ele><time>2015-8-24T17:15:26Z</time></trkpt>
<trkpt lat="46.445431793108582" lon="6.186735955998302"><ele></ele><time>2015-8-24T17:15:29Z</time></trkpt>
<trkpt lat="46.445420896634459" lon="6.186800329014659"><ele></ele><time>2015-8-24T17:15:32Z</time></trkpt>
<trkpt lat="46.44537596963346" lon="6.186979450285435"><ele></ele><time>2015-8-24T17:15:35Z</time></trkpt>
<trkpt lat="46.44535887055099" lon="6.187023287639022"><ele></ele><time>2015-8-24T17:15:38Z</time></trkpt>
<trkpt lat="46.445341855287552" lon="6.187064275145531"><ele></ele><time>2015-8-24T17:15:41Z</time></trkpt>
<trkpt lat="46.445303382351995" lon="6.187129486352205"><ele></ele><time>2015-8-24T17:15:44Z</time></trkpt>
<trkpt lat="46.445281086489558" lon="6.18714977055788"><ele></ele><time>2015-8-24T17:15:47Z</time></trkpt>
<trkpt lat="46.445253845304251" lon="6.187173575162888"><ele></ele><time>2015-8-24T17:15:50Z</time></trkpt>
<trkpt lat="46.445229453966022" lon="6.187194027006626"><ele></ele><time>2015-8-24T17:15:53Z</time></trkpt>
<trkpt lat="46.445207577198744" lon="6.187214311212301"><ele></ele><time>2015-8-24T17:15:56Z</time></trkpt>
<trkpt lat="46.445182850584388" lon="6.187263680621982"><ele></ele><time>2015-8-24T17:15:59Z</time></trkpt>
<trkpt lat="46.445177821442485" lon="6.187280612066388"><ele></ele><time>2015-8-24T17:16:2Z</time></trkpt>
<trkpt lat="46.445167846977711" lon="6.187296034768224"><ele></ele><time>2015-8-24T17:16:5Z</time></trkpt>
<trkpt lat="46.445142617449164" lon="6.187307937070727"><ele></ele><time>2015-8-24T17:16:8Z</time></trkpt>
<trkpt lat="46.445116382092237" lon="6.187333837151527"><ele></ele><time>2015-8-24T17:16:11Z</time></trkpt>
<trkpt lat="46.445088973268867" lon="6.187387397512794"><ele></ele><time>2015-8-24T17:16:14Z</time></trkpt>
<trkpt lat="46.445053266361356" lon="6.187438862398267"><ele></ele><time>2015-8-24T17:16:17Z</time></trkpt>
<trkpt lat="46.445023929700255" lon="6.187484627589583"><ele></ele><time>2015-8-24T17:16:20Z</time></trkpt>
<trkpt lat="46.444990737363696" lon="6.187539780512452"><ele></ele><time>2015-8-24T17:16:23Z</time></trkpt>
<trkpt lat="46.444965256378055" lon="6.187598872929811"><ele></ele><time>2015-8-24T17:16:26Z</time></trkpt>
<trkpt lat="46.444930722936988" lon="6.187661066651344"><ele></ele><time>2015-8-24T17:16:29Z</time></trkpt>
<trkpt lat="46.444900715723634" lon="6.187717812135816"><ele></ele><time>2015-8-24T17:16:32Z</time></trkpt>
<trkpt lat="46.444870205596089" lon="6.187760643661022"><ele></ele><time>2015-8-24T17:16:35Z</time></trkpt>
<trkpt lat="46.444840030744672" lon="6.187796769663692"><ele></ele><time>2015-8-24T17:16:38Z</time></trkpt>
<trkpt lat="46.444810861721635" lon="6.187833147123456"><ele></ele><time>2015-8-24T17:16:41Z</time></trkpt>
<trkpt lat="46.444779597222805" lon="6.187889222055674"><ele></ele><time>2015-8-24T17:16:44Z</time></trkpt>
<trkpt lat="46.44476467743516" lon="6.187922833487391"><ele></ele><time>2015-8-24T17:16:47Z</time></trkpt>
<trkpt lat="46.444746488705277" lon="6.187945883721113"><ele></ele><time>2015-8-24T17:16:50Z</time></trkpt>
<trkpt lat="46.444720085710287" lon="6.187958624213934"><ele></ele><time>2015-8-24T17:16:53Z</time></trkpt>
<trkpt lat="46.444692173972726" lon="6.187937250360847"><ele></ele><time>2015-8-24T17:16:56Z</time></trkpt>
<trkpt lat="46.444657975807786" lon="6.187931885942817"><ele></ele><time>2015-8-24T17:16:59Z</time></trkpt>
<trkpt lat="46.444624029099941" lon="6.187915457412601"><ele></ele><time>2015-8-24T17:17:2Z</time></trkpt>
<trkpt lat="46.444584717974067" lon="6.187899531796575"><ele></ele><time>2015-8-24T17:17:5Z</time></trkpt>
<trkpt lat="46.444546161219478" lon="6.187881175428629"><ele></ele><time>2015-8-24T17:17:8Z</time></trkpt>
<trkpt lat="46.444504419341683" lon="6.187865920364857"><ele></ele><time>2015-8-24T17:17:11Z</time></trkpt>
<trkpt lat="46.444465108215809" lon="6.187847061082721"><ele></ele><time>2015-8-24T17:17:14Z</time></trkpt>
<trkpt lat="46.444426048547029" lon="6.187830297276378"><ele></ele><time>2015-8-24T17:17:17Z</time></trkpt>
<trkpt lat="46.444388329982758" lon="6.187806660309434"><ele></ele><time>2015-8-24T17:17:20Z</time></trkpt>
<trkpt lat="46.444352874532342" lon="6.187781682237983"><ele></ele><time>2015-8-24T17:17:23Z</time></trkpt>
<trkpt lat="46.444277437403798" lon="6.187758799642324"><ele></ele><time>2015-8-24T17:17:26Z</time></trkpt>
<trkpt lat="46.44423209130764" lon="6.187752513214946"><ele></ele><time>2015-8-24T17:17:29Z</time></trkpt>
<trkpt lat="46.444193869829178" lon="6.187743293121457"><ele></ele><time>2015-8-24T17:17:32Z</time></trkpt>
<trkpt lat="46.444151373580098" lon="6.187723428010941"><ele></ele><time>2015-8-24T17:17:35Z</time></trkpt>
<trkpt lat="46.444113906472921" lon="6.187707586213946"><ele></ele><time>2015-8-24T17:17:38Z</time></trkpt>
<trkpt lat="46.444046599790454" lon="6.187664000317454"><ele></ele><time>2015-8-24T17:17:41Z</time></trkpt>
<trkpt lat="46.444006953388453" lon="6.187627790495753"><ele></ele><time>2015-8-24T17:17:44Z</time></trkpt>
<trkpt lat="46.443967139348388" lon="6.187601555138826"><ele></ele><time>2015-8-24T17:17:47Z</time></trkpt>
<trkpt lat="46.443924559280276" lon="6.187577750533819"><ele></ele><time>2015-8-24T17:17:50Z</time></trkpt>
<trkpt lat="46.443888684734702" lon="6.187552269548178"><ele></ele><time>2015-8-24T17:17:53Z</time></trkpt>
<trkpt lat="46.443857839331031" lon="6.187544725835323"><ele></ele><time>2015-8-24T17:17:56Z</time></trkpt>
<trkpt lat="46.443821210414171" lon="6.187520418316126"><ele></ele><time>2015-8-24T17:17:59Z</time></trkpt>
<trkpt lat="46.44378256984055" lon="6.187500050291419"><ele></ele><time>2015-8-24T17:18:2Z</time></trkpt>
<trkpt lat="46.443719873204827" lon="6.1874561291188"><ele></ele><time>2015-8-24T17:18:5Z</time></trkpt>
<trkpt lat="46.443694308400154" lon="6.187439365312457"><ele></ele><time>2015-8-24T17:18:8Z</time></trkpt>
<trkpt lat="46.443672180175781" lon="6.187416650354862"><ele></ele><time>2015-8-24T17:18:11Z</time></trkpt>
<trkpt lat="46.443618452176452" lon="6.187345739454031"><ele></ele><time>2015-8-24T17:18:14Z</time></trkpt>
<trkpt lat="46.443562628701329" lon="6.187295280396938"><ele></ele><time>2015-8-24T17:18:17Z</time></trkpt>
<trkpt lat="46.443539662286639" lon="6.187274744734168"><ele></ele><time>2015-8-24T17:18:20Z</time></trkpt>
<trkpt lat="46.443489454686642" lon="6.187248760834336"><ele></ele><time>2015-8-24T17:18:23Z</time></trkpt>
<trkpt lat="46.443463303148746" lon="6.187258064746857"><ele></ele><time>2015-8-24T17:18:26Z</time></trkpt>
<trkpt lat="46.443433547392488" lon="6.187282539904118"><ele></ele><time>2015-8-24T17:18:29Z</time></trkpt>
<trkpt lat="46.443296754732728" lon="6.187410950660706"><ele></ele><time>2015-8-24T17:18:32Z</time></trkpt>
<trkpt lat="46.443240344524384" lon="6.187443137168884"><ele></ele><time>2015-8-24T17:18:35Z</time></trkpt>
<trkpt lat="46.443060720339417" lon="6.18754992261529"><ele></ele><time>2015-8-24T17:18:38Z</time></trkpt>
<trkpt lat="46.442940607666969" lon="6.18762519210577"><ele></ele><time>2015-8-24T17:18:41Z</time></trkpt>
<trkpt lat="46.442630644887686" lon="6.187880504876375"><ele></ele><time>2015-8-24T17:18:44Z</time></trkpt>
<trkpt lat="46.442557638511062" lon="6.187930544838309"><ele></ele><time>2015-8-24T17:18:47Z</time></trkpt>
<trkpt lat="46.442425288259983" lon="6.188051411882043"><ele></ele><time>2015-8-24T17:18:50Z</time></trkpt>
<trkpt lat="46.442208029329777" lon="6.188215361908078"><ele></ele><time>2015-8-24T17:18:53Z</time></trkpt>
<trkpt lat="46.442043324932456" lon="6.188234891742468"><ele></ele><time>2015-8-24T17:18:56Z</time></trkpt>
<trkpt lat="46.441945508122444" lon="6.188230365514755"><ele></ele><time>2015-8-24T17:18:59Z</time></trkpt>
<trkpt lat="46.44184903241694" lon="6.18822768330574"><ele></ele><time>2015-8-24T17:19:2Z</time></trkpt>
<trkpt lat="46.44176060333848" lon="6.188231706619263"><ele></ele><time>2015-8-24T17:19:5Z</time></trkpt>
<trkpt lat="46.441585002467036" lon="6.188211422413588"><ele></ele><time>2015-8-24T17:19:8Z</time></trkpt>
<trkpt lat="46.441409317776561" lon="6.188175044953823"><ele></ele><time>2015-8-24T17:19:11Z</time></trkpt>
<trkpt lat="46.441341005265713" lon="6.188183343037963"><ele></ele><time>2015-8-24T17:19:14Z</time></trkpt>
<trkpt lat="46.441194824874401" lon="6.188267832621932"><ele></ele><time>2015-8-24T17:19:17Z</time></trkpt>
<trkpt lat="46.441071778535843" lon="6.188400099053979"><ele></ele><time>2015-8-24T17:19:20Z</time></trkpt>
<trkpt lat="46.441015200689435" lon="6.188500849530101"><ele></ele><time>2015-8-24T17:19:23Z</time></trkpt>
<trkpt lat="46.440960047766566" lon="6.188579723238945"><ele></ele><time>2015-8-24T17:19:26Z</time></trkpt>
<trkpt lat="46.440738430246711" lon="6.188866049051285"><ele></ele><time>2015-8-24T17:19:29Z</time></trkpt>
<trkpt lat="46.440506251528859" lon="6.188986748456955"><ele></ele><time>2015-8-24T17:19:32Z</time></trkpt>
<trkpt lat="46.440299386158586" lon="6.188948275521398"><ele></ele><time>2015-8-24T17:19:35Z</time></trkpt>
<trkpt lat="46.440223781391978" lon="6.188941318541765"><ele></ele><time>2015-8-24T17:19:38Z</time></trkpt>
<trkpt lat="46.440154546871781" lon="6.188966128975153"><ele></ele><time>2015-8-24T17:19:41Z</time></trkpt>
<trkpt lat="46.440037786960602" lon="6.18909009732306"><ele></ele><time>2015-8-24T17:19:44Z</time></trkpt>
<trkpt lat="46.439958158880472" lon="6.189265111461282"><ele></ele><time>2015-8-24T17:19:47Z</time></trkpt>
<trkpt lat="46.439944161102176" lon="6.18932562880218"><ele></ele><time>2015-8-24T17:19:50Z</time></trkpt>
<trkpt lat="46.439945669844747" lon="6.189357899129391"><ele></ele><time>2015-8-24T17:19:53Z</time></trkpt>
<trkpt lat="46.440027728676796" lon="6.189316660165787"><ele></ele><time>2015-8-24T17:19:56Z</time></trkpt>
<trkpt lat="46.440008534118533" lon="6.189295537769794"><ele></ele><time>2015-8-24T17:19:59Z</time></trkpt>
<trkpt lat="46.439984980970621" lon="6.189291514456272"><ele></ele><time>2015-8-24T17:20:2Z</time></trkpt>
<trkpt lat="46.439920943230391" lon="6.189314313232899"><ele></ele><time>2015-8-24T17:20:5Z</time></trkpt>
<trkpt lat="46.439879201352596" lon="6.189333843067288"><ele></ele><time>2015-8-24T17:20:8Z</time></trkpt>
<trkpt lat="46.439815582707524" lon="6.189373405650258"><ele></ele><time>2015-8-24T17:20:11Z</time></trkpt>
<trkpt lat="46.439787922427058" lon="6.189390756189823"><ele></ele><time>2015-8-24T17:20:14Z</time></trkpt>
<trkpt lat="46.439751628786325" lon="6.189401317387819"><ele></ele><time>2015-8-24T17:20:17Z</time></trkpt>
<trkpt lat="46.439682897180319" lon="6.189450351521373"><ele></ele><time>2015-8-24T17:20:20Z</time></trkpt>
<trkpt lat="46.439635790884495" lon="6.189465941861272"><ele></ele><time>2015-8-24T17:20:23Z</time></trkpt>
<trkpt lat="46.439590696245432" lon="6.189491674304008"><ele></ele><time>2015-8-24T17:20:26Z</time></trkpt>
<trkpt lat="46.439543087035418" lon="6.189490165561438"><ele></ele><time>2015-8-24T17:20:29Z</time></trkpt>
<trkpt lat="46.439514169469476" lon="6.189486058428884"><ele></ele><time>2015-8-24T17:20:32Z</time></trkpt>
<trkpt lat="46.439452897757292" lon="6.189488489180803"><ele></ele><time>2015-8-24T17:20:35Z</time></trkpt>
<trkpt lat="46.439394894987345" lon="6.189473234117031"><ele></ele><time>2015-8-24T17:20:38Z</time></trkpt>
<trkpt lat="46.439348459243774" lon="6.189460409805179"><ele></ele><time>2015-8-24T17:20:41Z</time></trkpt>
<trkpt lat="46.439328594133258" lon="6.189473150297999"><ele></ele><time>2015-8-24T17:20:44Z</time></trkpt>
<trkpt lat="46.439309567213058" lon="6.189491087570786"><ele></ele><time>2015-8-24T17:20:47Z</time></trkpt>
<trkpt lat="46.439271178096533" lon="6.189499720931053"><ele></ele><time>2015-8-24T17:20:50Z</time></trkpt>
<trkpt lat="46.439251815900207" lon="6.189503157511353"><ele></ele><time>2015-8-24T17:20:53Z</time></trkpt>
<trkpt lat="46.43920118920505" lon="6.189530398696661"><ele></ele><time>2015-8-24T17:20:56Z</time></trkpt>
<trkpt lat="46.43918065354228" lon="6.189549174159765"><ele></ele><time>2015-8-24T17:20:59Z</time></trkpt>
<trkpt lat="46.439154921099544" lon="6.189566273242235"><ele></ele><time>2015-8-24T17:21:2Z</time></trkpt>
<trkpt lat="46.439131032675505" lon="6.189591083675623"><ele></ele><time>2015-8-24T17:21:5Z</time></trkpt>
<trkpt lat="46.439085435122252" lon="6.189603907987475"><ele></ele><time>2015-8-24T17:21:8Z</time></trkpt>
<trkpt lat="46.439057607203722" lon="6.18962025269866"><ele></ele><time>2015-8-24T17:21:11Z</time></trkpt>
<trkpt lat="46.43901351839304" lon="6.189672723412514"><ele></ele><time>2015-8-24T17:21:14Z</time></trkpt>
<trkpt lat="46.438981331884861" lon="6.189691917970777"><ele></ele><time>2015-8-24T17:21:17Z</time></trkpt>
<trkpt lat="46.438906984403729" lon="6.18972335010767"><ele></ele><time>2015-8-24T17:21:20Z</time></trkpt>
<trkpt lat="46.438818136230111" lon="6.189784286543727"><ele></ele><time>2015-8-24T17:21:23Z</time></trkpt>
<trkpt lat="46.438786536455154" lon="6.189819741994143"><ele></ele><time>2015-8-24T17:21:26Z</time></trkpt>
<trkpt lat="46.438757115975022" lon="6.189854023978114"><ele></ele><time>2015-8-24T17:21:29Z</time></trkpt>
<trkpt lat="46.438678996637464" lon="6.189925353974104"><ele></ele><time>2015-8-24T17:21:32Z</time></trkpt>
<trkpt lat="46.438638092949986" lon="6.189972963184118"><ele></ele><time>2015-8-24T17:21:35Z</time></trkpt>
<trkpt lat="46.438593752682209" lon="6.190042700618505"><ele></ele><time>2015-8-24T17:21:38Z</time></trkpt>
<trkpt lat="46.438556704670191" lon="6.190102463588119"><ele></ele><time>2015-8-24T17:21:41Z</time></trkpt>
<trkpt lat="46.438523847609758" lon="6.190169351175427"><ele></ele><time>2015-8-24T17:21:44Z</time></trkpt>
<trkpt lat="46.438477076590061" lon="6.190342688933015"><ele></ele><time>2015-8-24T17:21:47Z</time></trkpt>
<trkpt lat="46.438445057719946" lon="6.190434051677585"><ele></ele><time>2015-8-24T17:21:50Z</time></trkpt>
<trkpt lat="46.438405578956008" lon="6.190515775233507"><ele></ele><time>2015-8-24T17:21:53Z</time></trkpt>
<trkpt lat="46.438360400497913" lon="6.19058727286756"><ele></ele><time>2015-8-24T17:21:56Z</time></trkpt>
<trkpt lat="46.438331315293908" lon="6.190670588985085"><ele></ele><time>2015-8-24T17:21:59Z</time></trkpt>
<trkpt lat="46.438297200948" lon="6.190753486007452"><ele></ele><time>2015-8-24T17:22:2Z</time></trkpt>
<trkpt lat="46.43826937302947" lon="6.190829174593091"><ele></ele><time>2015-8-24T17:22:5Z</time></trkpt>
<trkpt lat="46.438215225934982" lon="6.190993627533317"><ele></ele><time>2015-8-24T17:22:8Z</time></trkpt>
<trkpt lat="46.438178597018123" lon="6.191081637516618"><ele></ele><time>2015-8-24T17:22:11Z</time></trkpt>
<trkpt lat="46.438143393024802" lon="6.191172916442156"><ele></ele><time>2015-8-24T17:22:14Z</time></trkpt>
<trkpt lat="46.438058819621801" lon="6.191329741850495"><ele></ele><time>2015-8-24T17:22:17Z</time></trkpt>
<trkpt lat="46.438017915934324" lon="6.191373076289892"><ele></ele><time>2015-8-24T17:22:20Z</time></trkpt>
<trkpt lat="46.437990507110953" lon="6.191426971927285"><ele></ele><time>2015-8-24T17:22:23Z</time></trkpt>
<trkpt lat="46.437913393601775" lon="6.191515233367682"><ele></ele><time>2015-8-24T17:22:26Z</time></trkpt>
<trkpt lat="46.437869304791093" lon="6.191600561141968"><ele></ele><time>2015-8-24T17:22:29Z</time></trkpt>
<trkpt lat="46.437834687530994" lon="6.191686224192381"><ele></ele><time>2015-8-24T17:22:32Z</time></trkpt>
<trkpt lat="46.437815828248858" lon="6.191742885857821"><ele></ele><time>2015-8-24T17:22:35Z</time></trkpt>
<trkpt lat="46.437798393890262" lon="6.191810024902225"><ele></ele><time>2015-8-24T17:22:38Z</time></trkpt>
<trkpt lat="46.437762770801783" lon="6.191962659358978"><ele></ele><time>2015-8-24T17:22:41Z</time></trkpt>
<trkpt lat="46.437705438584089" lon="6.192250493913889"><ele></ele><time>2015-8-24T17:22:44Z</time></trkpt>
<trkpt lat="46.437671240419149" lon="6.192442774772644"><ele></ele><time>2015-8-24T17:22:47Z</time></trkpt>
<trkpt lat="46.437647268176079" lon="6.192523241043091"><ele></ele><time>2015-8-24T17:22:50Z</time></trkpt>
<trkpt lat="46.437621368095279" lon="6.192609155550599"><ele></ele><time>2015-8-24T17:22:53Z</time></trkpt>
<trkpt lat="46.437562359496951" lon="6.192754497751594"><ele></ele><time>2015-8-24T17:22:56Z</time></trkpt>
<trkpt lat="46.437545511871576" lon="6.192856505513191"><ele></ele><time>2015-8-24T17:22:59Z</time></trkpt>
<trkpt lat="46.437553474679589" lon="6.192994136363268"><ele></ele><time>2015-8-24T17:23:2Z</time></trkpt>
<trkpt lat="46.437573842704296" lon="6.193152219057083"><ele></ele><time>2015-8-24T17:23:5Z</time></trkpt>
<trkpt lat="46.437638215720654" lon="6.193553041666746"><ele></ele><time>2015-8-24T17:23:8Z</time></trkpt>
<trkpt lat="46.437648944556713" lon="6.193719590082765"><ele></ele><time>2015-8-24T17:23:11Z</time></trkpt>
<trkpt lat="46.437662607058883" lon="6.194250918924809"><ele></ele><time>2015-8-24T17:23:14Z</time></trkpt>
<trkpt lat="46.437659841030836" lon="6.194423083215952"><ele></ele><time>2015-8-24T17:23:17Z</time></trkpt>
<trkpt lat="46.437664199620485" lon="6.194798424839973"><ele></ele><time>2015-8-24T17:23:20Z</time></trkpt>
<trkpt lat="46.437606029212475" lon="6.195258172228932"><ele></ele><time>2015-8-24T17:23:23Z</time></trkpt>
<trkpt lat="46.437594965100288" lon="6.195357162505388"><ele></ele><time>2015-8-24T17:23:26Z</time></trkpt>
<trkpt lat="46.43757694400847" lon="6.195726972073317"><ele></ele><time>2015-8-24T17:23:29Z</time></trkpt>
<trkpt lat="46.437569400295615" lon="6.196323679760098"><ele></ele><time>2015-8-24T17:23:32Z</time></trkpt>
<trkpt lat="46.437580799683928" lon="6.196682509034872"><ele></ele><time>2015-8-24T17:23:35Z</time></trkpt>
<trkpt lat="46.4375857450068" lon="6.196842016652226"><ele></ele><time>2015-8-24T17:23:38Z</time></trkpt>
<trkpt lat="46.437593121081591" lon="6.196920890361071"><ele></ele><time>2015-8-24T17:23:41Z</time></trkpt>
<trkpt lat="46.437627067789435" lon="6.197174023836851"><ele></ele><time>2015-8-24T17:23:44Z</time></trkpt>
<trkpt lat="46.437662104144692" lon="6.197415925562382"><ele></ele><time>2015-8-24T17:23:47Z</time></trkpt>
<trkpt lat="46.437658667564392" lon="6.197495553642511"><ele></ele><time>2015-8-24T17:23:50Z</time></trkpt>
<trkpt lat="46.437679203227162" lon="6.197628490626812"><ele></ele><time>2015-8-24T17:23:53Z</time></trkpt>
<trkpt lat="46.437707785516977" lon="6.197646846994758"><ele></ele><time>2015-8-24T17:23:56Z</time></trkpt>
<trkpt lat="46.43820583820343" lon="6.197490189224482"><ele></ele><time>2015-8-24T17:23:59Z</time></trkpt>
<trkpt lat="46.438377499580383" lon="6.197649780660868"><ele></ele><time>2015-8-24T17:24:2Z</time></trkpt>
<trkpt lat="46.438619149848819" lon="6.19781163521111"><ele></ele><time>2015-8-24T17:24:5Z</time></trkpt>
<trkpt lat="46.438646474853158" lon="6.197829069569707"><ele></ele><time>2015-8-24T17:24:8Z</time></trkpt>
<trkpt lat="46.438718559220433" lon="6.197878187522292"><ele></ele><time>2015-8-24T17:24:11Z</time></trkpt>
<trkpt lat="46.438753511756659" lon="6.19790249504149"><ele></ele><time>2015-8-24T17:24:14Z</time></trkpt>
<trkpt lat="46.438830709084868" lon="6.19794893078506"><ele></ele><time>2015-8-24T17:24:17Z</time></trkpt>
<trkpt lat="46.439003041014075" lon="6.198045071214437"><ele></ele><time>2015-8-24T17:24:20Z</time></trkpt>
<trkpt lat="46.43904042430222" lon="6.198061164468527"><ele></ele><time>2015-8-24T17:24:23Z</time></trkpt>
<trkpt lat="46.439185095950961" lon="6.198132410645485"><ele></ele><time>2015-8-24T17:24:26Z</time></trkpt>
<trkpt lat="46.43920655362308" lon="6.198139199987054"><ele></ele><time>2015-8-24T17:24:29Z</time></trkpt>
<trkpt lat="46.439322726801038" lon="6.198168871924281"><ele></ele><time>2015-8-24T17:24:32Z</time></trkpt>
<trkpt lat="46.439380813390017" lon="6.198180774226785"><ele></ele><time>2015-8-24T17:24:35Z</time></trkpt>
<trkpt lat="46.439463626593351" lon="6.198203740641475"><ele></ele><time>2015-8-24T17:24:38Z</time></trkpt>
<trkpt lat="46.439590360969305" lon="6.19822695851326"><ele></ele><time>2015-8-24T17:24:41Z</time></trkpt>
<trkpt lat="46.439614333212376" lon="6.198225365951657"><ele></ele><time>2015-8-24T17:24:44Z</time></trkpt>
<trkpt lat="46.439786916598678" lon="6.198256127536297"><ele></ele><time>2015-8-24T17:24:47Z</time></trkpt>
<trkpt lat="46.439855396747589" lon="6.198282111436129"><ele></ele><time>2015-8-24T17:24:50Z</time></trkpt>
<trkpt lat="46.439941897988319" lon="6.198303401470184"><ele></ele><time>2015-8-24T17:24:53Z</time></trkpt>
<trkpt lat="46.439968887716532" lon="6.198315219953656"><ele></ele><time>2015-8-24T17:24:56Z</time></trkpt>
<trkpt lat="46.440082378685474" lon="6.19841068983078"><ele></ele><time>2015-8-24T17:24:59Z</time></trkpt>
<trkpt lat="46.440102495253086" lon="6.198438769206405"><ele></ele><time>2015-8-24T17:25:2Z</time></trkpt>
<trkpt lat="46.440174747258425" lon="6.198552343994379"><ele></ele><time>2015-8-24T17:25:5Z</time></trkpt>
<trkpt lat="46.440252782776952" lon="6.19867941364646"><ele></ele><time>2015-8-24T17:25:8Z</time></trkpt>
<trkpt lat="46.440288238227367" lon="6.198738673701882"><ele></ele><time>2015-8-24T17:25:11Z</time></trkpt>
<trkpt lat="46.440347749739885" lon="6.198853505775332"><ele></ele><time>2015-8-24T17:25:14Z</time></trkpt>
<trkpt lat="46.440359819680452" lon="6.198887871578336"><ele></ele><time>2015-8-24T17:25:17Z</time></trkpt>
<trkpt lat="46.440445566549897" lon="6.199080822989345"><ele></ele><time>2015-8-24T17:25:20Z</time></trkpt>
<trkpt lat="46.440500635653734" lon="6.199207473546267"><ele></ele><time>2015-8-24T17:25:23Z</time></trkpt>
<trkpt lat="46.44051413051784" lon="6.199237648397684"><ele></ele><time>2015-8-24T17:25:26Z</time></trkpt>
<trkpt lat="46.440541036427021" lon="6.199298417195678"><ele></ele><time>2015-8-24T17:25:29Z</time></trkpt>
<trkpt lat="46.440589902922511" lon="6.199430515989661"><ele></ele><time>2015-8-24T17:25:32Z</time></trkpt>
<trkpt lat="46.440624771639705" lon="6.199496984481812"><ele></ele><time>2015-8-24T17:25:35Z</time></trkpt>
<trkpt lat="46.440639272332191" lon="6.199527746066451"><ele></ele><time>2015-8-24T17:25:38Z</time></trkpt>
<trkpt lat="46.440701130777597" lon="6.199696138501167"><ele></ele><time>2015-8-24T17:25:41Z</time></trkpt>
<trkpt lat="46.440744716674089" lon="6.199848018586636"><ele></ele><time>2015-8-24T17:25:44Z</time></trkpt>
<trkpt lat="46.440789476037025" lon="6.199956312775612"><ele></ele><time>2015-8-24T17:25:47Z</time></trkpt>
<trkpt lat="46.440811017528176" lon="6.200012303888798"><ele></ele><time>2015-8-24T17:25:50Z</time></trkpt>
<trkpt lat="46.440867595374584" lon="6.200146162882447"><ele></ele><time>2015-8-24T17:25:53Z</time></trkpt>
<trkpt lat="46.44088595174253" lon="6.200177595019341"><ele></ele><time>2015-8-24T17:25:56Z</time></trkpt>
<trkpt lat="46.440937081351876" lon="6.200352944433689"><ele></ele><time>2015-8-24T17:25:59Z</time></trkpt>
<trkpt lat="46.440947558730841" lon="6.200386136770248"><ele></ele><time>2015-8-24T17:26:2Z</time></trkpt>
<trkpt lat="46.441006232053041" lon="6.200518235564232"><ele></ele><time>2015-8-24T17:26:5Z</time></trkpt>
<trkpt lat="46.441051578149199" lon="6.200605323538184"><ele></ele><time>2015-8-24T17:26:8Z</time></trkpt>
<trkpt lat="46.441059457138181" lon="6.200617142021656"><ele></ele><time>2015-8-24T17:26:11Z</time></trkpt>
<trkpt lat="46.441092314198613" lon="6.200676988810301"><ele></ele><time>2015-8-24T17:26:14Z</time></trkpt>
<trkpt lat="46.441105641424656" lon="6.200693165883422"><ele></ele><time>2015-8-24T17:26:17Z</time></trkpt>
<trkpt lat="46.441124249249697" lon="6.200717473402619"><ele></ele><time>2015-8-24T17:26:20Z</time></trkpt>
<trkpt lat="46.441186526790261" lon="6.200768351554871"><ele></ele><time>2015-8-24T17:26:23Z</time></trkpt>
<trkpt lat="46.441297419369221" lon="6.200847979635"><ele></ele><time>2015-8-24T17:26:26Z</time></trkpt>
<trkpt lat="46.441342094913125" lon="6.200868599116802"><ele></ele><time>2015-8-24T17:26:29Z</time></trkpt>
<trkpt lat="46.441427255049348" lon="6.200910927727818"><ele></ele><time>2015-8-24T17:26:32Z</time></trkpt>
<trkpt lat="46.441523227840662" lon="6.200957782566547"><ele></ele><time>2015-8-24T17:26:35Z</time></trkpt>
<trkpt lat="46.441542757675052" lon="6.200967757031322"><ele></ele><time>2015-8-24T17:26:38Z</time></trkpt>
<trkpt lat="46.441624565050006" lon="6.200998602434993"><ele></ele><time>2015-8-24T17:26:41Z</time></trkpt>
<trkpt lat="46.441661864519119" lon="6.200994160026312"><ele></ele><time>2015-8-24T17:26:44Z</time></trkpt>
<trkpt lat="46.441698493435979" lon="6.200987538322806"><ele></ele><time>2015-8-24T17:26:47Z</time></trkpt>
<trkpt lat="46.441760687157512" lon="6.200988376513124"><ele></ele><time>2015-8-24T17:26:50Z</time></trkpt>
<trkpt lat="46.441830927506089" lon="6.200985610485077"><ele></ele><time>2015-8-24T17:26:53Z</time></trkpt>
<trkpt lat="46.441934695467353" lon="6.200952250510454"><ele></ele><time>2015-8-24T17:26:56Z</time></trkpt>
<trkpt lat="46.441961852833629" lon="6.200945125892758"><ele></ele><time>2015-8-24T17:26:59Z</time></trkpt>
<trkpt lat="46.442124880850315" lon="6.200934899970889"><ele></ele><time>2015-8-24T17:27:2Z</time></trkpt>
<trkpt lat="46.442175675183535" lon="6.20093691162765"><ele></ele><time>2015-8-24T17:27:5Z</time></trkpt>
<trkpt lat="46.442260332405567" lon="6.200997261330485"><ele></ele><time>2015-8-24T17:27:8Z</time></trkpt>
<trkpt lat="46.442278688773513" lon="6.20101461187005"><ele></ele><time>2015-8-24T17:27:11Z</time></trkpt>
<trkpt lat="46.442290926352143" lon="6.201036320999265"><ele></ele><time>2015-8-24T17:27:14Z</time></trkpt>
<trkpt lat="46.442290591076016" lon="6.201082589104772"><ele></ele><time>2015-8-24T17:27:17Z</time></trkpt>
<trkpt lat="46.442266786471009" lon="6.201158277690411"><ele></ele><time>2015-8-24T17:27:20Z</time></trkpt>
<trkpt lat="46.442221943289042" lon="6.201293980702758"><ele></ele><time>2015-8-24T17:27:23Z</time></trkpt>
<trkpt lat="46.442193109542131" lon="6.201379643753171"><ele></ele><time>2015-8-24T17:27:26Z</time></trkpt>
<trkpt lat="46.442157486453652" lon="6.201470671221614"><ele></ele><time>2015-8-24T17:27:29Z</time></trkpt>
<trkpt lat="46.442063106223941" lon="6.201652139425278"><ele></ele><time>2015-8-24T17:27:32Z</time></trkpt>
<trkpt lat="46.442010384052992" lon="6.201745765283704"><ele></ele><time>2015-8-24T17:27:35Z</time></trkpt>
<trkpt lat="46.441900413483381" lon="6.201943745836616"><ele></ele><time>2015-8-24T17:27:38Z</time></trkpt>
<trkpt lat="46.441846853122115" lon="6.202041562646627"><ele></ele><time>2015-8-24T17:27:41Z</time></trkpt>
<trkpt lat="46.441796645522118" lon="6.202134853228927"><ele></ele><time>2015-8-24T17:27:44Z</time></trkpt>
<trkpt lat="46.441747192293406" lon="6.202225293964148"><ele></ele><time>2015-8-24T17:27:47Z</time></trkpt>
<trkpt lat="46.441644933074713" lon="6.202398212626576"><ele></ele><time>2015-8-24T17:27:50Z</time></trkpt>
<trkpt lat="46.44159690476954" lon="6.202484043315053"><ele></ele><time>2015-8-24T17:27:53Z</time></trkpt>
<trkpt lat="46.441514510661364" lon="6.202659560367465"><ele></ele><time>2015-8-24T17:27:56Z</time></trkpt>
<trkpt lat="46.441478468477726" lon="6.202750001102686"><ele></ele><time>2015-8-24T17:27:59Z</time></trkpt>
<trkpt lat="46.44145080819726" lon="6.202845219522715"><ele></ele><time>2015-8-24T17:28:2Z</time></trkpt>
<trkpt lat="46.441390961408615" lon="6.203052755445242"><ele></ele><time>2015-8-24T17:28:5Z</time></trkpt>
<trkpt lat="46.441349554806948" lon="6.203163899481297"><ele></ele><time>2015-8-24T17:28:8Z</time></trkpt>
<trkpt lat="46.441303119063377" lon="6.203276803717017"><ele></ele><time>2015-8-24T17:28:11Z</time></trkpt>
<trkpt lat="46.441259616985917" lon="6.20339322835207"><ele></ele><time>2015-8-24T17:28:14Z</time></trkpt>
<trkpt lat="46.441207733005285" lon="6.203629849478602"><ele></ele><time>2015-8-24T17:28:17Z</time></trkpt>
<trkpt lat="46.441194154322147" lon="6.203739987686276"><ele></ele><time>2015-8-24T17:28:20Z</time></trkpt>
<trkpt lat="46.441182252019644" lon="6.203844174742699"><ele></ele><time>2015-8-24T17:28:23Z</time></trkpt>
<trkpt lat="46.441168840974569" lon="6.203939141705632"><ele></ele><time>2015-8-24T17:28:26Z</time></trkpt>
<trkpt lat="46.441146712750196" lon="6.204022541642189"><ele></ele><time>2015-8-24T17:28:29Z</time></trkpt>
<trkpt lat="46.441112849861383" lon="6.204088339582086"><ele></ele><time>2015-8-24T17:28:32Z</time></trkpt>
<trkpt lat="46.441073538735509" lon="6.204139888286591"><ele></ele><time>2015-8-24T17:28:35Z</time></trkpt>
<trkpt lat="46.441034646704793" lon="6.20418825186789"><ele></ele><time>2015-8-24T17:28:38Z</time></trkpt>
<trkpt lat="46.441003130748868" lon="6.204252624884248"><ele></ele><time>2015-8-24T17:28:41Z</time></trkpt>
<trkpt lat="46.440976811572909" lon="6.204328816384077"><ele></ele><time>2015-8-24T17:28:44Z</time></trkpt>
<trkpt lat="46.440961724147201" lon="6.204402158036828"><ele></ele><time>2015-8-24T17:28:47Z</time></trkpt>
<trkpt lat="46.440951079130173" lon="6.204459825530648"><ele></ele><time>2015-8-24T17:28:50Z</time></trkpt>
<trkpt lat="46.44094705581665" lon="6.204510284587741"><ele></ele><time>2015-8-24T17:28:53Z</time></trkpt>
<trkpt lat="46.440951665863395" lon="6.204650597646832"><ele></ele><time>2015-8-24T17:28:56Z</time></trkpt>
<trkpt lat="46.440952504053712" lon="6.204739278182387"><ele></ele><time>2015-8-24T17:28:59Z</time></trkpt>
<trkpt lat="46.440950827673078" lon="6.204927619546652"><ele></ele><time>2015-8-24T17:29:2Z</time></trkpt>
<trkpt lat="46.440946217626333" lon="6.205128282308578"><ele></ele><time>2015-8-24T17:29:5Z</time></trkpt>
<trkpt lat="46.440942613407969" lon="6.205224255099893"><ele></ele><time>2015-8-24T17:29:8Z</time></trkpt>
<trkpt lat="46.440942110493779" lon="6.205318467691541"><ele></ele><time>2015-8-24T17:29:11Z</time></trkpt>
<trkpt lat="46.440948313102126" lon="6.205416955053806"><ele></ele><time>2015-8-24T17:29:14Z</time></trkpt>
<trkpt lat="46.440971698611975" lon="6.205698922276497"><ele></ele><time>2015-8-24T17:29:17Z</time></trkpt>
<trkpt lat="46.440976727753878" lon="6.20579288341105"><ele></ele><time>2015-8-24T17:29:20Z</time></trkpt>
<trkpt lat="46.44096415489912" lon="6.205880222842097"><ele></ele><time>2015-8-24T17:29:23Z</time></trkpt>
<trkpt lat="46.440938003361225" lon="6.205962365493178"><ele></ele><time>2015-8-24T17:29:26Z</time></trkpt>
<trkpt lat="46.440906571224332" lon="6.20603671297431"><ele></ele><time>2015-8-24T17:29:29Z</time></trkpt>
<trkpt lat="46.440875893458724" lon="6.206107875332236"><ele></ele><time>2015-8-24T17:29:32Z</time></trkpt>
<trkpt lat="46.440841108560562" lon="6.20617694221437"><ele></ele><time>2015-8-24T17:29:35Z</time></trkpt>
<trkpt lat="46.44080582074821" lon="6.206244919449091"><ele></ele><time>2015-8-24T17:29:38Z</time></trkpt>
<trkpt lat="46.440773298963904" lon="6.20630987919867"><ele></ele><time>2015-8-24T17:29:41Z</time></trkpt>
<trkpt lat="46.440744968131185" lon="6.206367965787649"><ele></ele><time>2015-8-24T17:29:44Z</time></trkpt>
<trkpt lat="46.440726779401302" lon="6.206417670473456"><ele></ele><time>2015-8-24T17:29:47Z</time></trkpt>
<trkpt lat="46.440716469660401" lon="6.206465531140566"><ele></ele><time>2015-8-24T17:29:50Z</time></trkpt>
<trkpt lat="46.440696688368917" lon="6.206541135907173"><ele></ele><time>2015-8-24T17:29:53Z</time></trkpt>
<trkpt lat="46.440689228475094" lon="6.206570975482464"><ele></ele><time>2015-8-24T17:29:56Z</time></trkpt>
<trkpt lat="46.440690569579601" lon="6.206597378477454"><ele></ele><time>2015-8-24T17:29:59Z</time></trkpt>
<trkpt lat="46.440725438296795" lon="6.206668708473444"><ele></ele><time>2015-8-24T17:30:2Z</time></trkpt>
<trkpt lat="46.440853094682097" lon="6.2068971991539"><ele></ele><time>2015-8-24T17:30:5Z</time></trkpt>
<trkpt lat="46.440868936479092" lon="6.206927457824349"><ele></ele><time>2015-8-24T17:30:8Z</time></trkpt>
<trkpt lat="46.440909672528505" lon="6.206993004307151"><ele></ele><time>2015-8-24T17:30:11Z</time></trkpt>
<trkpt lat="46.440906738862395" lon="6.207022089511156"><ele></ele><time>2015-8-24T17:30:14Z</time></trkpt>
<trkpt lat="46.440878324210644" lon="6.20711269788444"><ele></ele><time>2015-8-24T17:30:17Z</time></trkpt>
<trkpt lat="46.440862230956554" lon="6.207137005403638"><ele></ele><time>2015-8-24T17:30:20Z</time></trkpt>
<trkpt lat="46.440807916224003" lon="6.207184279337525"><ele></ele><time>2015-8-24T17:30:23Z</time></trkpt>
<trkpt lat="46.440699705854058" lon="6.207274636253715"><ele></ele><time>2015-8-24T17:30:26Z</time></trkpt>
<trkpt lat="46.440608175471425" lon="6.207392401993275"><ele></ele><time>2015-8-24T17:30:29Z</time></trkpt>
<trkpt lat="46.440567523241043" lon="6.20745082385838"><ele></ele><time>2015-8-24T17:30:32Z</time></trkpt>
<trkpt lat="46.440436094999313" lon="6.207654168829322"><ele></ele><time>2015-8-24T17:30:35Z</time></trkpt>
<trkpt lat="46.440380858257413" lon="6.207735640928149"><ele></ele><time>2015-8-24T17:30:38Z</time></trkpt>
<trkpt lat="46.440236521884799" lon="6.207940997555852"><ele></ele><time>2015-8-24T17:30:41Z</time></trkpt>
<trkpt lat="46.440152954310179" lon="6.208048705011606"><ele></ele><time>2015-8-24T17:30:44Z</time></trkpt>
<trkpt lat="46.440074583515525" lon="6.208158088847995"><ele></ele><time>2015-8-24T17:30:47Z</time></trkpt>
<trkpt lat="46.439928822219372" lon="6.208398817107081"><ele></ele><time>2015-8-24T17:30:50Z</time></trkpt>
<trkpt lat="46.439857073128223" lon="6.208523539826274"><ele></ele><time>2015-8-24T17:30:53Z</time></trkpt>
<trkpt lat="46.43978314474225" lon="6.208652788773179"><ele></ele><time>2015-8-24T17:30:56Z</time></trkpt>
<trkpt lat="46.43958474509418" lon="6.20909602381289"><ele></ele><time>2015-8-24T17:30:59Z</time></trkpt>
<trkpt lat="46.439518444240093" lon="6.209418894723058"><ele></ele><time>2015-8-24T17:31:2Z</time></trkpt>
<trkpt lat="46.439484665170312" lon="6.209588125348091"><ele></ele><time>2015-8-24T17:31:5Z</time></trkpt>
<trkpt lat="46.439401768147945" lon="6.209921473637223"><ele></ele><time>2015-8-24T17:31:8Z</time></trkpt>
<trkpt lat="46.439337059855461" lon="6.21007863432169"><ele></ele><time>2015-8-24T17:31:11Z</time></trkpt>
<trkpt lat="46.439277548342943" lon="6.210230682045221"><ele></ele><time>2015-8-24T17:31:14Z</time></trkpt>
<trkpt lat="46.439209654927254" lon="6.210370240733027"><ele></ele><time>2015-8-24T17:31:17Z</time></trkpt>
<trkpt lat="46.439128769561648" lon="6.210486246272922"><ele></ele><time>2015-8-24T17:31:20Z</time></trkpt>
<trkpt lat="46.439018128439784" lon="6.210602670907974"><ele></ele><time>2015-8-24T17:31:23Z</time></trkpt>
<trkpt lat="46.438920814543962" lon="6.210697721689939"><ele></ele><time>2015-8-24T17:31:26Z</time></trkpt>
<trkpt lat="46.438818303868175" lon="6.210806267336011"><ele></ele><time>2015-8-24T17:31:29Z</time></trkpt>
<trkpt lat="46.438713110983372" lon="6.210920345038176"><ele></ele><time>2015-8-24T17:31:32Z</time></trkpt>
<trkpt lat="46.438512532040477" lon="6.211152439936996"><ele></ele><time>2015-8-24T17:31:35Z</time></trkpt>
<trkpt lat="46.438346402719617" lon="6.211416386067867"><ele></ele><time>2015-8-24T17:31:38Z</time></trkpt>
<trkpt lat="46.438277838751674" lon="6.211556615307927"><ele></ele><time>2015-8-24T17:31:41Z</time></trkpt>
<trkpt lat="46.438160743564367" lon="6.211858112365007"><ele></ele><time>2015-8-24T17:31:44Z</time></trkpt>
<trkpt lat="46.438125623390079" lon="6.211998928338289"><ele></ele><time>2015-8-24T17:31:47Z</time></trkpt>
<trkpt lat="46.438097879290581" lon="6.2121313624084"><ele></ele><time>2015-8-24T17:31:50Z</time></trkpt>
<trkpt lat="46.438063764944673" lon="6.212254157289863"><ele></ele><time>2015-8-24T17:31:53Z</time></trkpt>
<trkpt lat="46.437986148521304" lon="6.212497651576996"><ele></ele><time>2015-8-24T17:31:56Z</time></trkpt>
<trkpt lat="46.437940131872892" lon="6.212621033191681"><ele></ele><time>2015-8-24T17:31:59Z</time></trkpt>
<trkpt lat="46.437847595661879" lon="6.212876262143254"><ele></ele><time>2015-8-24T17:32:2Z</time></trkpt>
<trkpt lat="46.437797639518976" lon="6.213003667071462"><ele></ele><time>2015-8-24T17:32:5Z</time></trkpt>
<trkpt lat="46.437629414722323" lon="6.213372303172946"><ele></ele><time>2015-8-24T17:32:8Z</time></trkpt>
<trkpt lat="46.437301766127348" lon="6.213941350579262"><ele></ele><time>2015-8-24T17:32:11Z</time></trkpt>
<trkpt lat="46.437229262664914" lon="6.214049225673079"><ele></ele><time>2015-8-24T17:32:14Z</time></trkpt>
<trkpt lat="46.43707855604589" lon="6.214251229539514"><ele></ele><time>2015-8-24T17:32:17Z</time></trkpt>
<trkpt lat="46.436917874962091" lon="6.214437475427985"><ele></ele><time>2015-8-24T17:32:20Z</time></trkpt>
<trkpt lat="46.436843192204833" lon="6.214541913941503"><ele></ele><time>2015-8-24T17:32:23Z</time></trkpt>
<trkpt lat="46.436644205823541" lon="6.214879034087062"><ele></ele><time>2015-8-24T17:32:26Z</time></trkpt>
<trkpt lat="46.436567846685648" lon="6.21498154476285"><ele></ele><time>2015-8-24T17:32:29Z</time></trkpt>
<trkpt lat="46.436491655185819" lon="6.21508514508605"><ele></ele><time>2015-8-24T17:32:32Z</time></trkpt>
<trkpt lat="46.436117654666305" lon="6.215606918558478"><ele></ele><time>2015-8-24T17:32:35Z</time></trkpt>
<trkpt lat="46.435902742668986" lon="6.215933980420232"><ele></ele><time>2015-8-24T17:32:38Z</time></trkpt>
<trkpt lat="46.435834765434265" lon="6.216047806665301"><ele></ele><time>2015-8-24T17:32:41Z</time></trkpt>
<trkpt lat="46.435765363276005" lon="6.21616255491972"><ele></ele><time>2015-8-24T17:32:44Z</time></trkpt>
<trkpt lat="46.435696128755808" lon="6.216274537146091"><ele></ele><time>2015-8-24T17:32:47Z</time></trkpt>
<trkpt lat="46.435511475428939" lon="6.216594222933054"><ele></ele><time>2015-8-24T17:32:50Z</time></trkpt>
<trkpt lat="46.435464704409242" lon="6.216693632304668"><ele></ele><time>2015-8-24T17:32:53Z</time></trkpt>
<trkpt lat="46.435429500415921" lon="6.216801926493645"><ele></ele><time>2015-8-24T17:32:56Z</time></trkpt>
<trkpt lat="46.43540158867836" lon="6.216912064701319"><ele></ele><time>2015-8-24T17:32:59Z</time></trkpt>
<trkpt lat="46.435377448797226" lon="6.217023460194468"><ele></ele><time>2015-8-24T17:33:2Z</time></trkpt>
<trkpt lat="46.435288600623608" lon="6.217393353581429"><ele></ele><time>2015-8-24T17:33:5Z</time></trkpt>
<trkpt lat="46.435230597853661" lon="6.21755613014102"><ele></ele><time>2015-8-24T17:33:8Z</time></trkpt>
<trkpt lat="46.435164296999574" lon="6.217704825103283"><ele></ele><time>2015-8-24T17:33:11Z</time></trkpt>
<trkpt lat="46.43511425703764" lon="6.217759139835835"><ele></ele><time>2015-8-24T17:33:14Z</time></trkpt>
<trkpt lat="46.435065558180213" lon="6.21780876070261"><ele></ele><time>2015-8-24T17:33:17Z</time></trkpt>
<trkpt lat="46.43503119237721" lon="6.217862069606781"><ele></ele><time>2015-8-24T17:33:20Z</time></trkpt>
<trkpt lat="46.435011494904757" lon="6.217982349917293"><ele></ele><time>2015-8-24T17:33:23Z</time></trkpt>
<trkpt lat="46.435115430504084" lon="6.218165075406432"><ele></ele><time>2015-8-24T17:33:26Z</time></trkpt>
<trkpt lat="46.435230011120439" lon="6.218282924965024"><ele></ele><time>2015-8-24T17:33:29Z</time></trkpt>
<trkpt lat="46.435352973639965" lon="6.218393398448825"><ele></ele><time>2015-8-24T17:33:32Z</time></trkpt>
<trkpt lat="46.435419945046306" lon="6.218449892476201"><ele></ele><time>2015-8-24T17:33:35Z</time></trkpt>
<trkpt lat="46.43577734939754" lon="6.218756083399057"><ele></ele><time>2015-8-24T17:33:38Z</time></trkpt>
<trkpt lat="46.435853205621243" lon="6.218826239928603"><ele></ele><time>2015-8-24T17:33:41Z</time></trkpt>
<trkpt lat="46.435923529788852" lon="6.218913495540619"><ele></ele><time>2015-8-24T17:33:44Z</time></trkpt>
<trkpt lat="46.436018077656627" lon="6.219140142202377"><ele></ele><time>2015-8-24T17:33:47Z</time></trkpt>
<trkpt lat="46.436013886705041" lon="6.219399394467473"><ele></ele><time>2015-8-24T17:33:50Z</time></trkpt>
<trkpt lat="46.435920596122742" lon="6.219641296193004"><ele></ele><time>2015-8-24T17:33:53Z</time></trkpt>
<trkpt lat="46.435867538675666" lon="6.219756882637739"><ele></ele><time>2015-8-24T17:33:56Z</time></trkpt>
<trkpt lat="46.43565715290606" lon="6.220221826806664"><ele></ele><time>2015-8-24T17:33:59Z</time></trkpt>
<trkpt lat="46.435605017468333" lon="6.220344454050064"><ele></ele><time>2015-8-24T17:34:2Z</time></trkpt>
<trkpt lat="46.435522707179189" lon="6.220603873953223"><ele></ele><time>2015-8-24T17:34:5Z</time></trkpt>
<trkpt lat="46.435502422973514" lon="6.221003104001284"><ele></ele><time>2015-8-24T17:34:8Z</time></trkpt>
<trkpt lat="46.435514492914081" lon="6.221128329634666"><ele></ele><time>2015-8-24T17:34:11Z</time></trkpt>
<trkpt lat="46.435576351359487" lon="6.221455056220293"><ele></ele><time>2015-8-24T17:34:14Z</time></trkpt>
<trkpt lat="46.435656230896711" lon="6.22181455604732"><ele></ele><time>2015-8-24T17:34:17Z</time></trkpt>
<trkpt lat="46.435692692175508" lon="6.221983786672354"><ele></ele><time>2015-8-24T17:34:20Z</time></trkpt>
<trkpt lat="46.435712473466992" lon="6.222066348418593"><ele></ele><time>2015-8-24T17:34:23Z</time></trkpt>
<trkpt lat="46.435783132910728" lon="6.222417801618576"><ele></ele><time>2015-8-24T17:34:26Z</time></trkpt>
<trkpt lat="46.435775505378842" lon="6.222608238458633"><ele></ele><time>2015-8-24T17:34:29Z</time></trkpt>
<trkpt lat="46.435707360506058" lon="6.222897246479988"><ele></ele><time>2015-8-24T17:34:32Z</time></trkpt>
<trkpt lat="46.435650950297713" lon="6.223094137385488"><ele></ele><time>2015-8-24T17:34:35Z</time></trkpt>
<trkpt lat="46.435561934486032" lon="6.22340208850801"><ele></ele><time>2015-8-24T17:34:38Z</time></trkpt>
<trkpt lat="46.435448862612247" lon="6.223849095404148"><ele></ele><time>2015-8-24T17:34:41Z</time></trkpt>
<trkpt lat="46.435425728559494" lon="6.223967112600803"><ele></ele><time>2015-8-24T17:34:44Z</time></trkpt>
<trkpt lat="46.43540938384831" lon="6.224089069291949"><ele></ele><time>2015-8-24T17:34:47Z</time></trkpt>
<trkpt lat="46.435404773801565" lon="6.224337425082922"><ele></ele><time>2015-8-24T17:34:50Z</time></trkpt>
<trkpt lat="46.435457412153482" lon="6.224579829722643"><ele></ele><time>2015-8-24T17:34:53Z</time></trkpt>
<trkpt lat="46.435498483479023" lon="6.224692398682237"><ele></ele><time>2015-8-24T17:34:56Z</time></trkpt>
<trkpt lat="46.435547098517418" lon="6.224804800003767"><ele></ele><time>2015-8-24T17:34:59Z</time></trkpt>
<trkpt lat="46.435633851215243" lon="6.225026417523623"><ele></ele><time>2015-8-24T17:35:2Z</time></trkpt>
<trkpt lat="46.435669222846627" lon="6.225144434720278"><ele></ele><time>2015-8-24T17:35:5Z</time></trkpt>
<trkpt lat="46.435691351071" lon="6.225264631211758"><ele></ele><time>2015-8-24T17:35:8Z</time></trkpt>
<trkpt lat="46.435652626678348" lon="6.225616671144962"><ele></ele><time>2015-8-24T17:35:11Z</time></trkpt>
<trkpt lat="46.43551885150373" lon="6.225870894268155"><ele></ele><time>2015-8-24T17:35:14Z</time></trkpt>
<trkpt lat="46.435469146817923" lon="6.225938368588686"><ele></ele><time>2015-8-24T17:35:17Z</time></trkpt>
<trkpt lat="46.435216348618269" lon="6.226252354681492"><ele></ele><time>2015-8-24T17:35:20Z</time></trkpt>
<trkpt lat="46.435167230665684" lon="6.226319074630737"><ele></ele><time>2015-8-24T17:35:23Z</time></trkpt>
<trkpt lat="46.435116687789559" lon="6.226383950561285"><ele></ele><time>2015-8-24T17:35:26Z</time></trkpt>
<trkpt lat="46.43473899923265" lon="6.226877477020025"><ele></ele><time>2015-8-24T17:35:29Z</time></trkpt>
<trkpt lat="46.434619724750519" lon="6.227031704038382"><ele></ele><time>2015-8-24T17:35:32Z</time></trkpt>
<trkpt lat="46.434332309290767" lon="6.227414421737194"><ele></ele><time>2015-8-24T17:35:35Z</time></trkpt>
<trkpt lat="46.4342753123492" lon="6.227482063695788"><ele></ele><time>2015-8-24T17:35:38Z</time></trkpt>
<trkpt lat="46.434224601835012" lon="6.227559428662062"><ele></ele><time>2015-8-24T17:35:41Z</time></trkpt>
<trkpt lat="46.434158384799957" lon="6.227753134444356"><ele></ele><time>2015-8-24T17:35:44Z</time></trkpt>
<trkpt lat="46.434160144999623" lon="6.228064354509115"><ele></ele><time>2015-8-24T17:35:47Z</time></trkpt>
<trkpt lat="46.434181183576584" lon="6.228165691718459"><ele></ele><time>2015-8-24T17:35:50Z</time></trkpt>
<trkpt lat="46.43421228043735" lon="6.228363923728466"><ele></ele><time>2015-8-24T17:35:53Z</time></trkpt>
<trkpt lat="46.434218902140856" lon="6.228455621749163"><ele></ele><time>2015-8-24T17:35:56Z</time></trkpt>
<trkpt lat="46.434220997616649" lon="6.228541284799576"><ele></ele><time>2015-8-24T17:35:59Z</time></trkpt>
<trkpt lat="46.434218985959888" lon="6.228620745241642"><ele></ele><time>2015-8-24T17:36:2Z</time></trkpt>
<trkpt lat="46.434213789179921" lon="6.228697774931788"><ele></ele><time>2015-8-24T17:36:5Z</time></trkpt>
<trkpt lat="46.434190068393946" lon="6.228925175964832"><ele></ele><time>2015-8-24T17:36:8Z</time></trkpt>
<trkpt lat="46.434161067008972" lon="6.229226505383849"><ele></ele><time>2015-8-24T17:36:11Z</time></trkpt>
<trkpt lat="46.434160061180592" lon="6.229297583922744"><ele></ele><time>2015-8-24T17:36:14Z</time></trkpt>
<trkpt lat="46.434160144999623" lon="6.229371596127748"><ele></ele><time>2015-8-24T17:36:17Z</time></trkpt>
<trkpt lat="46.434155199676752" lon="6.229611653834581"><ele></ele><time>2015-8-24T17:36:20Z</time></trkpt>
<trkpt lat="46.434156373143196" lon="6.229670578613877"><ele></ele><time>2015-8-24T17:36:23Z</time></trkpt>
<trkpt lat="46.434162072837353" lon="6.229846095666289"><ele></ele><time>2015-8-24T17:36:26Z</time></trkpt>
<trkpt lat="46.434184536337852" lon="6.230120100080967"><ele></ele><time>2015-8-24T17:36:29Z</time></trkpt>
<trkpt lat="46.434217728674412" lon="6.230582948774099"><ele></ele><time>2015-8-24T17:36:32Z</time></trkpt>
<trkpt lat="46.434217477217317" lon="6.230651093646884"><ele></ele><time>2015-8-24T17:36:35Z</time></trkpt>
<trkpt lat="46.434178836643696" lon="6.230933647602797"><ele></ele><time>2015-8-24T17:36:38Z</time></trkpt>
<trkpt lat="46.434107339009643" lon="6.231418708339334"><ele></ele><time>2015-8-24T17:36:41Z</time></trkpt>
<trkpt lat="46.434044474735856" lon="6.231711655855179"><ele></ele><time>2015-8-24T17:36:44Z</time></trkpt>
<trkpt lat="46.434028968214989" lon="6.231762450188398"><ele></ele><time>2015-8-24T17:36:47Z</time></trkpt>
<trkpt lat="46.433884045109153" lon="6.232036789879203"><ele></ele><time>2015-8-24T17:36:50Z</time></trkpt>
<trkpt lat="46.433729231357574" lon="6.232289001345634"><ele></ele><time>2015-8-24T17:36:53Z</time></trkpt>
<trkpt lat="46.433631163090467" lon="6.232436941936612"><ele></ele><time>2015-8-24T17:36:56Z</time></trkpt>
<trkpt lat="46.433592438697815" lon="6.232519000768661"><ele></ele><time>2015-8-24T17:36:59Z</time></trkpt>
<trkpt lat="46.43356972374022" lon="6.232602735981345"><ele></ele><time>2015-8-24T17:37:2Z</time></trkpt>
<trkpt lat="46.433528484776616" lon="6.232720082625747"><ele></ele><time>2015-8-24T17:37:5Z</time></trkpt>
<trkpt lat="46.433502165600657" lon="6.232754616066813"><ele></ele><time>2015-8-24T17:37:8Z</time></trkpt>
<trkpt lat="46.433475092053413" lon="6.232784539461136"><ele></ele><time>2015-8-24T17:37:11Z</time></trkpt>
<trkpt lat="46.433420442044735" lon="6.232968522235751"><ele></ele><time>2015-8-24T17:37:14Z</time></trkpt>
<trkpt lat="46.43340258859098" lon="6.233138674870133"><ele></ele><time>2015-8-24T17:37:17Z</time></trkpt>
<trkpt lat="46.433381298556924" lon="6.233177147805691"><ele></ele><time>2015-8-24T17:37:20Z</time></trkpt>
<trkpt lat="46.433345675468445" lon="6.233208496123552"><ele></ele><time>2015-8-24T17:37:23Z</time></trkpt>
<trkpt lat="46.43327509984374" lon="6.233240431174636"><ele></ele><time>2015-8-24T17:37:26Z</time></trkpt>
<trkpt lat="46.433223215863109" lon="6.233220230787992"><ele></ele><time>2015-8-24T17:37:29Z</time></trkpt>
<trkpt lat="46.433176193386316" lon="6.233179410919547"><ele></ele><time>2015-8-24T17:37:32Z</time></trkpt>
<trkpt lat="46.433109389618039" lon="6.233057286590338"><ele></ele><time>2015-8-24T17:37:35Z</time></trkpt>
<trkpt lat="46.433072509244084" lon="6.232972294092178"><ele></ele><time>2015-8-24T17:37:38Z</time></trkpt>
<trkpt lat="46.433002520352602" lon="6.232739528641105"><ele></ele><time>2015-8-24T17:37:41Z</time></trkpt>
<trkpt lat="46.432987181469798" lon="6.23270558193326"><ele></ele><time>2015-8-24T17:37:44Z</time></trkpt>
<trkpt lat="46.432949379086494" lon="6.23263718560338"><ele></ele><time>2015-8-24T17:37:47Z</time></trkpt>
<trkpt lat="46.432897495105863" lon="6.232595108449459"><ele></ele><time>2015-8-24T17:37:50Z</time></trkpt>
<trkpt lat="46.432865308597684" lon="6.232581362128258"><ele></ele><time>2015-8-24T17:37:53Z</time></trkpt>
<trkpt lat="46.432825829833746" lon="6.232560742646456"><ele></ele><time>2015-8-24T17:37:56Z</time></trkpt>
<trkpt lat="46.432751147076488" lon="6.232514809817076"><ele></ele><time>2015-8-24T17:37:59Z</time></trkpt>
<trkpt lat="46.432651486247778" lon="6.232430571690202"><ele></ele><time>2015-8-24T17:38:2Z</time></trkpt>
<trkpt lat="46.432569259777665" lon="6.23234641738236"><ele></ele><time>2015-8-24T17:38:5Z</time></trkpt>
<trkpt lat="46.432523326948285" lon="6.232304088771343"><ele></ele><time>2015-8-24T17:38:8Z</time></trkpt>
<trkpt lat="46.432405980303884" lon="6.232249271124601"><ele></ele><time>2015-8-24T17:38:11Z</time></trkpt>
<trkpt lat="46.432342026382685" lon="6.232242817059159"><ele></ele><time>2015-8-24T17:38:14Z</time></trkpt>
<trkpt lat="46.432235660031438" lon="6.232261005789042"><ele></ele><time>2015-8-24T17:38:17Z</time></trkpt>
<trkpt lat="46.432167179882526" lon="6.232267711311579"><ele></ele><time>2015-8-24T17:38:20Z</time></trkpt>
<trkpt lat="46.432110015302896" lon="6.232263520359993"><ele></ele><time>2015-8-24T17:38:23Z</time></trkpt>
<trkpt lat="46.431995686143637" lon="6.232197638601065"><ele></ele><time>2015-8-24T17:38:26Z</time></trkpt>
<trkpt lat="46.4319406170398" lon="6.232142401859164"><ele></ele><time>2015-8-24T17:38:29Z</time></trkpt>
<trkpt lat="46.431798208504915" lon="6.231966633349657"><ele></ele><time>2015-8-24T17:38:32Z</time></trkpt>
<trkpt lat="46.431750012561679" lon="6.231912570074201"><ele></ele><time>2015-8-24T17:38:35Z</time></trkpt>
<trkpt lat="46.431561419740319" lon="6.231756918132305"><ele></ele><time>2015-8-24T17:38:38Z</time></trkpt>
<trkpt lat="46.431521438062191" lon="6.231724228709936"><ele></ele><time>2015-8-24T17:38:41Z</time></trkpt>
<trkpt lat="46.431443234905601" lon="6.231679050251842"><ele></ele><time>2015-8-24T17:38:44Z</time></trkpt>
<trkpt lat="46.431337539106607" lon="6.231663040816784"><ele></ele><time>2015-8-24T17:38:47Z</time></trkpt>
<trkpt lat="46.431177360936999" lon="6.231636889278889"><ele></ele><time>2015-8-24T17:38:50Z</time></trkpt>
<trkpt lat="46.431017853319645" lon="6.231639487668872"><ele></ele><time>2015-8-24T17:38:53Z</time></trkpt>
<trkpt lat="46.430892962962389" lon="6.231649462133646"><ele></ele><time>2015-8-24T17:38:56Z</time></trkpt>
<trkpt lat="46.430686432868242" lon="6.231673015281558"><ele></ele><time>2015-8-24T17:38:59Z</time></trkpt>
<trkpt lat="46.430623149499297" lon="6.231686761602759"><ele></ele><time>2015-8-24T17:39:2Z</time></trkpt>
<trkpt lat="46.430566990748048" lon="6.231711320579052"><ele></ele><time>2015-8-24T17:39:5Z</time></trkpt>
<trkpt lat="46.430412176996469" lon="6.231809891760349"><ele></ele><time>2015-8-24T17:39:8Z</time></trkpt>
<trkpt lat="46.430361047387123" lon="6.231836210936308"><ele></ele><time>2015-8-24T17:39:11Z</time></trkpt>
<trkpt lat="46.430250154808164" lon="6.231887005269527"><ele></ele><time>2015-8-24T17:39:14Z</time></trkpt>
<trkpt lat="46.430155774578452" lon="6.231946181505919"><ele></ele><time>2015-8-24T17:39:17Z</time></trkpt>
<trkpt lat="46.430032309144735" lon="6.232059840112925"><ele></ele><time>2015-8-24T17:39:20Z</time></trkpt>
<trkpt lat="46.429984616115689" lon="6.232078112661839"><ele></ele><time>2015-8-24T17:39:23Z</time></trkpt>
<trkpt lat="46.429889397695661" lon="6.232111304998398"><ele></ele><time>2015-8-24T17:39:26Z</time></trkpt>
<trkpt lat="46.429706923663616" lon="6.23220669105649"><ele></ele><time>2015-8-24T17:39:29Z</time></trkpt>
<trkpt lat="46.429413054138422" lon="6.232401067391038"><ele></ele><time>2015-8-24T17:39:32Z</time></trkpt>
<trkpt lat="46.429225718602538" lon="6.232520677149296"><ele></ele><time>2015-8-24T17:39:35Z</time></trkpt>
<trkpt lat="46.42916226759553" lon="6.232557976618409"><ele></ele><time>2015-8-24T17:39:38Z</time></trkpt>
<trkpt lat="46.429043244570494" lon="6.23265772126615"><ele></ele><time>2015-8-24T17:39:41Z</time></trkpt>
<trkpt lat="46.428985074162483" lon="6.232752352952957"><ele></ele><time>2015-8-24T17:39:44Z</time></trkpt>
<trkpt lat="46.428957162424922" lon="6.232830304652452"><ele></ele><time>2015-8-24T17:39:47Z</time></trkpt>
<trkpt lat="46.42894484102726" lon="6.232855785638094"><ele></ele><time>2015-8-24T17:39:50Z</time></trkpt>
<trkpt lat="46.428932016715407" lon="6.232867017388344"><ele></ele><time>2015-8-24T17:39:53Z</time></trkpt>
<trkpt lat="46.428895471617579" lon="6.232874561101198"><ele></ele><time>2015-8-24T17:39:56Z</time></trkpt>
<trkpt lat="46.428882982581854" lon="6.232868693768978"><ele></ele><time>2015-8-24T17:39:59Z</time></trkpt>
<trkpt lat="46.42886571586132" lon="6.232871375977993"><ele></ele><time>2015-8-24T17:40:2Z</time></trkpt>
<trkpt lat="46.428748536854982" lon="6.232928624376655"><ele></ele><time>2015-8-24T17:40:5Z</time></trkpt>
<trkpt lat="46.428701430559158" lon="6.233000038191676"><ele></ele><time>2015-8-24T17:40:8Z</time></trkpt>
<trkpt lat="46.428643176332116" lon="6.233125431463122"><ele></ele><time>2015-8-24T17:40:11Z</time></trkpt>
<trkpt lat="46.428600931540132" lon="6.233366914093494"><ele></ele><time>2015-8-24T17:40:14Z</time></trkpt>
<trkpt lat="46.428603110834956" lon="6.233497923240066"><ele></ele><time>2015-8-24T17:40:17Z</time></trkpt>
<trkpt lat="46.428610067814589" lon="6.23356900177896"><ele></ele><time>2015-8-24T17:40:20Z</time></trkpt>
<trkpt lat="46.428640158846974" lon="6.233778214082122"><ele></ele><time>2015-8-24T17:40:23Z</time></trkpt>
<trkpt lat="46.428631022572517" lon="6.233984995633364"><ele></ele><time>2015-8-24T17:40:26Z</time></trkpt>
<trkpt lat="46.42863797955215" lon="6.234100917354226"><ele></ele><time>2015-8-24T17:40:29Z</time></trkpt>
<trkpt lat="46.428656755015254" lon="6.234188927337527"><ele></ele><time>2015-8-24T17:40:32Z</time></trkpt>
<trkpt lat="46.428665053099394" lon="6.234445162117481"><ele></ele><time>2015-8-24T17:40:35Z</time></trkpt>
<trkpt lat="46.428769491612911" lon="6.234692595899105"><ele></ele><time>2015-8-24T17:40:38Z</time></trkpt>
<trkpt lat="46.42880218103528" lon="6.234812289476395"><ele></ele><time>2015-8-24T17:40:41Z</time></trkpt>
<trkpt lat="46.428813580423594" lon="6.234933659434319"><ele></ele><time>2015-8-24T17:40:44Z</time></trkpt>
<trkpt lat="46.428803689777851" lon="6.235059220343828"><ele></ele><time>2015-8-24T17:40:47Z</time></trkpt>
<trkpt lat="46.428785417228937" lon="6.235231384634972"><ele></ele><time>2015-8-24T17:40:50Z</time></trkpt>
<trkpt lat="46.428732862696052" lon="6.23550740070641"><ele></ele><time>2015-8-24T17:40:53Z</time></trkpt>
<trkpt lat="46.428738059476018" lon="6.235585855320096"><ele></ele><time>2015-8-24T17:40:56Z</time></trkpt>
<trkpt lat="46.428826069459319" lon="6.235901350155473"><ele></ele><time>2015-8-24T17:40:59Z</time></trkpt>
<trkpt lat="46.428918102756143" lon="6.236093966290355"><ele></ele><time>2015-8-24T17:41:2Z</time></trkpt>
<trkpt lat="46.429034443572164" lon="6.236277278512716"><ele></ele><time>2015-8-24T17:41:5Z</time></trkpt>
<trkpt lat="46.429251031950116" lon="6.23655941337347"><ele></ele><time>2015-8-24T17:41:8Z</time></trkpt>
<trkpt lat="46.429319595918059" lon="6.236635101959109"><ele></ele><time>2015-8-24T17:41:11Z</time></trkpt>
<trkpt lat="46.42938463948667" lon="6.236723782494664"><ele></ele><time>2015-8-24T17:41:14Z</time></trkpt>
<trkpt lat="46.429432919248939" lon="6.236802823841572"><ele></ele><time>2015-8-24T17:41:17Z</time></trkpt>
<trkpt lat="46.429444821551442" lon="6.23682763427496"><ele></ele><time>2015-8-24T17:41:20Z</time></trkpt>
<trkpt lat="46.429475750774145" lon="6.236888654530048"><ele></ele><time>2015-8-24T17:41:23Z</time></trkpt>
<trkpt lat="46.42947893589735" lon="6.23707540333271"><ele></ele><time>2015-8-24T17:41:26Z</time></trkpt>
<trkpt lat="46.429446246474981" lon="6.237246729433537"><ele></ele><time>2015-8-24T17:41:29Z</time></trkpt>
<trkpt lat="46.429428812116385" lon="6.237333482131362"><ele></ele><time>2015-8-24T17:41:32Z</time></trkpt>
<trkpt lat="46.429417664185166" lon="6.237435154616833"><ele></ele><time>2015-8-24T17:41:35Z</time></trkpt>
<trkpt lat="46.429390590637922" lon="6.237515117973089"><ele></ele><time>2015-8-24T17:41:38Z</time></trkpt>
<trkpt lat="46.429375000298023" lon="6.237569097429514"><ele></ele><time>2015-8-24T17:41:41Z</time></trkpt>
<trkpt lat="46.429369049146771" lon="6.237590555101633"><ele></ele><time>2015-8-24T17:41:44Z</time></trkpt>
<trkpt lat="46.429393775761127" lon="6.237679151818156"><ele></ele><time>2015-8-24T17:41:47Z</time></trkpt>
<trkpt lat="46.429339628666639" lon="6.237751990556717"><ele></ele><time>2015-8-24T17:41:50Z</time></trkpt>
<trkpt lat="46.429290007799864" lon="6.237758444622159"><ele></ele><time>2015-8-24T17:41:53Z</time></trkpt>
<trkpt lat="46.429238207638264" lon="6.237762216478586"><ele></ele><time>2015-8-24T17:41:56Z</time></trkpt>
<trkpt lat="46.429056655615568" lon="6.237749811261892"><ele></ele><time>2015-8-24T17:41:59Z</time></trkpt>
<trkpt lat="46.42891600728035" lon="6.237707398831844"><ele></ele><time>2015-8-24T17:42:2Z</time></trkpt>
<trkpt lat="46.428703274577856" lon="6.237613186240196"><ele></ele><time>2015-8-24T17:42:5Z</time></trkpt>
<trkpt lat="46.428569499403238" lon="6.237538335844874"><ele></ele><time>2015-8-24T17:42:8Z</time></trkpt>
<trkpt lat="46.428375206887722" lon="6.237422581762075"><ele></ele><time>2015-8-24T17:42:11Z</time></trkpt>
<trkpt lat="46.428245371207595" lon="6.23734655790031"><ele></ele><time>2015-8-24T17:42:14Z</time></trkpt>
<trkpt lat="46.428115535527468" lon="6.237257877364755"><ele></ele><time>2015-8-24T17:42:17Z</time></trkpt>
<trkpt lat="46.427923506125808" lon="6.237107757478952"><ele></ele><time>2015-8-24T17:42:20Z</time></trkpt>
<trkpt lat="46.427860641852021" lon="6.237058890983462"><ele></ele><time>2015-8-24T17:42:23Z</time></trkpt>
<trkpt lat="46.427796017378569" lon="6.23701823875308"><ele></ele><time>2015-8-24T17:42:26Z</time></trkpt>
<trkpt lat="46.427661320194602" lon="6.236978089436889"><ele></ele><time>2015-8-24T17:42:29Z</time></trkpt>
<trkpt lat="46.427594348788261" lon="6.236968114972115"><ele></ele><time>2015-8-24T17:42:32Z</time></trkpt>
<trkpt lat="46.42727080732584" lon="6.236974904313684"><ele></ele><time>2015-8-24T17:42:35Z</time></trkpt>
<trkpt lat="46.427204171195626" lon="6.236973814666271"><ele></ele><time>2015-8-24T17:42:38Z</time></trkpt>
<trkpt lat="46.427064528688788" lon="6.23695369809866"><ele></ele><time>2015-8-24T17:42:41Z</time></trkpt>
<trkpt lat="46.426927065476775" lon="6.236885134130716"><ele></ele><time>2015-8-24T17:42:44Z</time></trkpt>
<trkpt lat="46.426623053848743" lon="6.23664490878582"><ele></ele><time>2015-8-24T17:42:47Z</time></trkpt>
<trkpt lat="46.426456505432725" lon="6.236491436138749"><ele></ele><time>2015-8-24T17:42:50Z</time></trkpt>
<trkpt lat="46.426308816298842" lon="6.236320193856955"><ele></ele><time>2015-8-24T17:42:53Z</time></trkpt>
<trkpt lat="46.42626229673624" lon="6.236266046762466"><ele></ele><time>2015-8-24T17:42:56Z</time></trkpt>
<trkpt lat="46.426044534891844" lon="6.236027916893363"><ele></ele><time>2015-8-24T17:42:59Z</time></trkpt>
<trkpt lat="46.42599742859602" lon="6.235991790890694"><ele></ele><time>2015-8-24T17:43:2Z</time></trkpt>
<trkpt lat="46.425899779424071" lon="6.235934710130095"><ele></ele><time>2015-8-24T17:43:5Z</time></trkpt>
<trkpt lat="46.425699032843113" lon="6.235853238031268"><ele></ele><time>2015-8-24T17:43:8Z</time></trkpt>
<trkpt lat="46.425432236865163" lon="6.235820045694709"><ele></ele><time>2015-8-24T17:43:11Z</time></trkpt>
<trkpt lat="46.425320254638791" lon="6.235821051523089"><ele></ele><time>2015-8-24T17:43:14Z</time></trkpt>
<trkpt lat="46.425211625173688" lon="6.235872600227594"><ele></ele><time>2015-8-24T17:43:17Z</time></trkpt>
<trkpt lat="46.425108863040805" lon="6.235954072326422"><ele></ele><time>2015-8-24T17:43:20Z</time></trkpt>
<trkpt lat="46.425055470317602" lon="6.23599061742425"><ele></ele><time>2015-8-24T17:43:23Z</time></trkpt>
<trkpt lat="46.424994952976704" lon="6.236035712063313"><ele></ele><time>2015-8-24T17:43:26Z</time></trkpt>
<trkpt lat="46.424937285482883" lon="6.236073765903711"><ele></ele><time>2015-8-24T17:43:29Z</time></trkpt>
</trkseg></trk></gpx>